<?xml version="1.0" encoding="UTF-8" standalone="no" ?>
<gpx xmlns="http://www.topografix.com/GPX/1/1" xmlns:xsi="http://www.w3.org/2001/XMLSchema-instance" xsi:schemaLocation="http://www.topografix.com/GPX/1/1 http://www.topografix.com/GPX/1/1/gpx.xsd" version="1.1" creator="VisuGPX - https://www.visugpx.com">
  <metadata>
    <name>Rochefort en Terre</name>
    <desc><![CDATA[Rando 14 mai 2015 Rochefort en Terre]]></desc>
  </metadata>
  <trk>
    <name><![CDATA[Rochefort en Terre_1]]></name>
    <trkseg>
      <trkpt lat="47.68706" lon="-2.33832">
        <ele>146</ele>
        <time>2015-05-14T07:06:32Z</time>
      </trkpt>
      <trkpt lat="47.68706" lon="-2.33832">
        <ele>146</ele>
        <time>2015-05-14T07:07:15Z</time>
      </trkpt>
      <trkpt lat="47.68699" lon="-2.33801">
        <ele>143</ele>
        <time>2015-05-14T07:07:16Z</time>
      </trkpt>
      <trkpt lat="47.68686" lon="-2.33826">
        <ele>168</ele>
        <time>2015-05-14T07:07:17Z</time>
      </trkpt>
      <trkpt lat="47.68702" lon="-2.33843">
        <ele>167</ele>
        <time>2015-05-14T07:07:18Z</time>
      </trkpt>
      <trkpt lat="47.68726" lon="-2.33855">
        <ele>172</ele>
        <time>2015-05-14T07:07:19Z</time>
      </trkpt>
      <trkpt lat="47.68698" lon="-2.33834">
        <ele>136</ele>
        <time>2015-05-14T07:07:21Z</time>
      </trkpt>
      <trkpt lat="47.68745" lon="-2.3382">
        <ele>115</ele>
        <time>2015-05-14T07:07:23Z</time>
      </trkpt>
      <trkpt lat="47.68703" lon="-2.33817">
        <ele>99</ele>
        <time>2015-05-14T07:07:25Z</time>
      </trkpt>
      <trkpt lat="47.68687" lon="-2.33825">
        <ele>120</ele>
        <time>2015-05-14T07:07:26Z</time>
      </trkpt>
      <trkpt lat="47.68712" lon="-2.33845">
        <ele>117</ele>
        <time>2015-05-14T07:07:28Z</time>
      </trkpt>
      <trkpt lat="47.68703" lon="-2.33853">
        <ele>117</ele>
        <time>2015-05-14T07:07:36Z</time>
      </trkpt>
      <trkpt lat="47.687" lon="-2.33857">
        <ele>117</ele>
        <time>2015-05-14T07:07:43Z</time>
      </trkpt>
      <trkpt lat="47.687" lon="-2.33857">
        <ele>117</ele>
        <time>2015-05-14T07:07:45Z</time>
      </trkpt>
      <trkpt lat="47.68698" lon="-2.33869">
        <ele>117</ele>
        <time>2015-05-14T07:07:51Z</time>
      </trkpt>
      <trkpt lat="47.68695" lon="-2.33879">
        <ele>111</ele>
        <time>2015-05-14T07:07:56Z</time>
      </trkpt>
      <trkpt lat="47.68695" lon="-2.33891">
        <ele>109</ele>
        <time>2015-05-14T07:08:02Z</time>
      </trkpt>
      <trkpt lat="47.68692" lon="-2.33896">
        <ele>109</ele>
        <time>2015-05-14T07:08:09Z</time>
      </trkpt>
      <trkpt lat="47.68687" lon="-2.33901">
        <ele>108</ele>
        <time>2015-05-14T07:08:16Z</time>
      </trkpt>
      <trkpt lat="47.68679" lon="-2.339">
        <ele>110</ele>
        <time>2015-05-14T07:08:21Z</time>
      </trkpt>
      <trkpt lat="47.6867" lon="-2.33901">
        <ele>113</ele>
        <time>2015-05-14T07:08:25Z</time>
      </trkpt>
      <trkpt lat="47.68667" lon="-2.339">
        <ele>116</ele>
        <time>2015-05-14T07:08:32Z</time>
      </trkpt>
      <trkpt lat="47.68668" lon="-2.33889">
        <ele>118</ele>
        <time>2015-05-14T07:08:39Z</time>
      </trkpt>
      <trkpt lat="47.68666" lon="-2.33884">
        <ele>117</ele>
        <time>2015-05-14T07:08:46Z</time>
      </trkpt>
      <trkpt lat="47.68666" lon="-2.33881">
        <ele>121</ele>
        <time>2015-05-14T07:08:53Z</time>
      </trkpt>
      <trkpt lat="47.68667" lon="-2.33881">
        <ele>121</ele>
        <time>2015-05-14T07:09:00Z</time>
      </trkpt>
      <trkpt lat="47.68667" lon="-2.33881">
        <ele>122</ele>
        <time>2015-05-14T07:09:01Z</time>
      </trkpt>
      <trkpt lat="47.68672" lon="-2.33873">
        <ele>122</ele>
        <time>2015-05-14T07:09:08Z</time>
      </trkpt>
      <trkpt lat="47.68678" lon="-2.33865">
        <ele>122</ele>
        <time>2015-05-14T07:09:15Z</time>
      </trkpt>
      <trkpt lat="47.68679" lon="-2.33856">
        <ele>121</ele>
        <time>2015-05-14T07:09:22Z</time>
      </trkpt>
      <trkpt lat="47.68678" lon="-2.33845">
        <ele>121</ele>
        <time>2015-05-14T07:09:29Z</time>
      </trkpt>
      <trkpt lat="47.68677" lon="-2.33837">
        <ele>123</ele>
        <time>2015-05-14T07:09:36Z</time>
      </trkpt>
      <trkpt lat="47.68672" lon="-2.33828">
        <ele>122</ele>
        <time>2015-05-14T07:09:43Z</time>
      </trkpt>
      <trkpt lat="47.68666" lon="-2.33823">
        <ele>121</ele>
        <time>2015-05-14T07:09:49Z</time>
      </trkpt>
      <trkpt lat="47.6866" lon="-2.33813">
        <ele>125</ele>
        <time>2015-05-14T07:09:53Z</time>
      </trkpt>
      <trkpt lat="47.68653" lon="-2.33809">
        <ele>124</ele>
        <time>2015-05-14T07:10:00Z</time>
      </trkpt>
      <trkpt lat="47.68646" lon="-2.33806">
        <ele>125</ele>
        <time>2015-05-14T07:10:07Z</time>
      </trkpt>
      <trkpt lat="47.68643" lon="-2.338">
        <ele>124</ele>
        <time>2015-05-14T07:10:14Z</time>
      </trkpt>
      <trkpt lat="47.68644" lon="-2.33793">
        <ele>123</ele>
        <time>2015-05-14T07:10:21Z</time>
      </trkpt>
      <trkpt lat="47.68644" lon="-2.3379">
        <ele>121</ele>
        <time>2015-05-14T07:10:28Z</time>
      </trkpt>
      <trkpt lat="47.68645" lon="-2.33786">
        <ele>123</ele>
        <time>2015-05-14T07:10:35Z</time>
      </trkpt>
      <trkpt lat="47.68645" lon="-2.33784">
        <ele>122</ele>
        <time>2015-05-14T07:10:42Z</time>
      </trkpt>
      <trkpt lat="47.68645" lon="-2.33784">
        <ele>122</ele>
        <time>2015-05-14T07:10:43Z</time>
      </trkpt>
      <trkpt lat="47.68645" lon="-2.33774">
        <ele>121</ele>
        <time>2015-05-14T07:10:47Z</time>
      </trkpt>
      <trkpt lat="47.68647" lon="-2.33762">
        <ele>119</ele>
        <time>2015-05-14T07:10:54Z</time>
      </trkpt>
      <trkpt lat="47.68649" lon="-2.33748">
        <ele>121</ele>
        <time>2015-05-14T07:10:58Z</time>
      </trkpt>
      <trkpt lat="47.68645" lon="-2.33744">
        <ele>121</ele>
        <time>2015-05-14T07:11:05Z</time>
      </trkpt>
      <trkpt lat="47.68642" lon="-2.33735">
        <ele>119</ele>
        <time>2015-05-14T07:11:12Z</time>
      </trkpt>
      <trkpt lat="47.68634" lon="-2.33736">
        <ele>121</ele>
        <time>2015-05-14T07:11:17Z</time>
      </trkpt>
      <trkpt lat="47.68626" lon="-2.33733">
        <ele>121</ele>
        <time>2015-05-14T07:11:24Z</time>
      </trkpt>
      <trkpt lat="47.68619" lon="-2.33728">
        <ele>120</ele>
        <time>2015-05-14T07:11:30Z</time>
      </trkpt>
      <trkpt lat="47.68612" lon="-2.33722">
        <ele>122</ele>
        <time>2015-05-14T07:11:35Z</time>
      </trkpt>
      <trkpt lat="47.68605" lon="-2.33717">
        <ele>126</ele>
        <time>2015-05-14T07:11:40Z</time>
      </trkpt>
      <trkpt lat="47.68601" lon="-2.33708">
        <ele>126</ele>
        <time>2015-05-14T07:11:46Z</time>
      </trkpt>
      <trkpt lat="47.68598" lon="-2.33699">
        <ele>124</ele>
        <time>2015-05-14T07:11:53Z</time>
      </trkpt>
      <trkpt lat="47.68594" lon="-2.33689">
        <ele>126</ele>
        <time>2015-05-14T07:11:59Z</time>
      </trkpt>
      <trkpt lat="47.68593" lon="-2.33679">
        <ele>124</ele>
        <time>2015-05-14T07:12:06Z</time>
      </trkpt>
      <trkpt lat="47.68587" lon="-2.33672">
        <ele>125</ele>
        <time>2015-05-14T07:12:12Z</time>
      </trkpt>
      <trkpt lat="47.68581" lon="-2.33666">
        <ele>127</ele>
        <time>2015-05-14T07:12:18Z</time>
      </trkpt>
      <trkpt lat="47.68576" lon="-2.33655">
        <ele>128</ele>
        <time>2015-05-14T07:12:24Z</time>
      </trkpt>
      <trkpt lat="47.68574" lon="-2.33644">
        <ele>127</ele>
        <time>2015-05-14T07:12:30Z</time>
      </trkpt>
      <trkpt lat="47.68571" lon="-2.33634">
        <ele>129</ele>
        <time>2015-05-14T07:12:37Z</time>
      </trkpt>
      <trkpt lat="47.68564" lon="-2.33627">
        <ele>131</ele>
        <time>2015-05-14T07:12:44Z</time>
      </trkpt>
      <trkpt lat="47.68562" lon="-2.33617">
        <ele>131</ele>
        <time>2015-05-14T07:12:51Z</time>
      </trkpt>
      <trkpt lat="47.68558" lon="-2.33606">
        <ele>132</ele>
        <time>2015-05-14T07:12:57Z</time>
      </trkpt>
      <trkpt lat="47.68555" lon="-2.33593">
        <ele>131</ele>
        <time>2015-05-14T07:13:04Z</time>
      </trkpt>
      <trkpt lat="47.68556" lon="-2.33588">
        <ele>127</ele>
        <time>2015-05-14T07:13:11Z</time>
      </trkpt>
      <trkpt lat="47.68554" lon="-2.33579">
        <ele>125</ele>
        <time>2015-05-14T07:13:18Z</time>
      </trkpt>
      <trkpt lat="47.68551" lon="-2.33565">
        <ele>126</ele>
        <time>2015-05-14T07:13:25Z</time>
      </trkpt>
      <trkpt lat="47.68546" lon="-2.33556">
        <ele>127</ele>
        <time>2015-05-14T07:13:32Z</time>
      </trkpt>
      <trkpt lat="47.68543" lon="-2.33545">
        <ele>127</ele>
        <time>2015-05-14T07:13:38Z</time>
      </trkpt>
      <trkpt lat="47.68541" lon="-2.33537">
        <ele>126</ele>
        <time>2015-05-14T07:13:45Z</time>
      </trkpt>
      <trkpt lat="47.68536" lon="-2.3353">
        <ele>124</ele>
        <time>2015-05-14T07:13:52Z</time>
      </trkpt>
      <trkpt lat="47.6853" lon="-2.33522">
        <ele>123</ele>
        <time>2015-05-14T07:13:59Z</time>
      </trkpt>
      <trkpt lat="47.68526" lon="-2.33512">
        <ele>124</ele>
        <time>2015-05-14T07:14:05Z</time>
      </trkpt>
      <trkpt lat="47.6852" lon="-2.33506">
        <ele>124</ele>
        <time>2015-05-14T07:14:12Z</time>
      </trkpt>
      <trkpt lat="47.68515" lon="-2.33498">
        <ele>123</ele>
        <time>2015-05-14T07:14:19Z</time>
      </trkpt>
      <trkpt lat="47.6851" lon="-2.33479">
        <ele>132</ele>
        <time>2015-05-14T07:14:24Z</time>
      </trkpt>
      <trkpt lat="47.68508" lon="-2.33468">
        <ele>139</ele>
        <time>2015-05-14T07:14:27Z</time>
      </trkpt>
      <trkpt lat="47.68502" lon="-2.33462">
        <ele>138</ele>
        <time>2015-05-14T07:14:34Z</time>
      </trkpt>
      <trkpt lat="47.68498" lon="-2.33452">
        <ele>138</ele>
        <time>2015-05-14T07:14:39Z</time>
      </trkpt>
      <trkpt lat="47.68495" lon="-2.3344">
        <ele>138</ele>
        <time>2015-05-14T07:14:45Z</time>
      </trkpt>
      <trkpt lat="47.68494" lon="-2.33432">
        <ele>138</ele>
        <time>2015-05-14T07:14:52Z</time>
      </trkpt>
      <trkpt lat="47.6849" lon="-2.33421">
        <ele>137</ele>
        <time>2015-05-14T07:14:59Z</time>
      </trkpt>
      <trkpt lat="47.68489" lon="-2.33409">
        <ele>136</ele>
        <time>2015-05-14T07:15:06Z</time>
      </trkpt>
      <trkpt lat="47.68487" lon="-2.33398">
        <ele>135</ele>
        <time>2015-05-14T07:15:12Z</time>
      </trkpt>
      <trkpt lat="47.68487" lon="-2.33384">
        <ele>137</ele>
        <time>2015-05-14T07:15:18Z</time>
      </trkpt>
      <trkpt lat="47.68486" lon="-2.33374">
        <ele>134</ele>
        <time>2015-05-14T07:15:25Z</time>
      </trkpt>
      <trkpt lat="47.68484" lon="-2.33362">
        <ele>132</ele>
        <time>2015-05-14T07:15:32Z</time>
      </trkpt>
      <trkpt lat="47.68484" lon="-2.33349">
        <ele>133</ele>
        <time>2015-05-14T07:15:39Z</time>
      </trkpt>
      <trkpt lat="47.68484" lon="-2.33339">
        <ele>135</ele>
        <time>2015-05-14T07:15:44Z</time>
      </trkpt>
      <trkpt lat="47.68483" lon="-2.33327">
        <ele>133</ele>
        <time>2015-05-14T07:15:51Z</time>
      </trkpt>
      <trkpt lat="47.68485" lon="-2.33317">
        <ele>133</ele>
        <time>2015-05-14T07:15:58Z</time>
      </trkpt>
      <trkpt lat="47.68487" lon="-2.33306">
        <ele>133</ele>
        <time>2015-05-14T07:16:05Z</time>
      </trkpt>
      <trkpt lat="47.68488" lon="-2.33295">
        <ele>133</ele>
        <time>2015-05-14T07:16:12Z</time>
      </trkpt>
      <trkpt lat="47.6849" lon="-2.33282">
        <ele>134</ele>
        <time>2015-05-14T07:16:18Z</time>
      </trkpt>
      <trkpt lat="47.68493" lon="-2.33272">
        <ele>133</ele>
        <time>2015-05-14T07:16:25Z</time>
      </trkpt>
      <trkpt lat="47.68495" lon="-2.3326">
        <ele>132</ele>
        <time>2015-05-14T07:16:31Z</time>
      </trkpt>
      <trkpt lat="47.68497" lon="-2.33251">
        <ele>133</ele>
        <time>2015-05-14T07:16:38Z</time>
      </trkpt>
      <trkpt lat="47.685" lon="-2.33242">
        <ele>134</ele>
        <time>2015-05-14T07:16:45Z</time>
      </trkpt>
      <trkpt lat="47.685" lon="-2.33231">
        <ele>134</ele>
        <time>2015-05-14T07:16:52Z</time>
      </trkpt>
      <trkpt lat="47.68494" lon="-2.33222">
        <ele>134</ele>
        <time>2015-05-14T07:16:59Z</time>
      </trkpt>
      <trkpt lat="47.68488" lon="-2.33217">
        <ele>134</ele>
        <time>2015-05-14T07:17:06Z</time>
      </trkpt>
      <trkpt lat="47.68482" lon="-2.33208">
        <ele>134</ele>
        <time>2015-05-14T07:17:12Z</time>
      </trkpt>
      <trkpt lat="47.68476" lon="-2.33201">
        <ele>135</ele>
        <time>2015-05-14T07:17:18Z</time>
      </trkpt>
      <trkpt lat="47.68471" lon="-2.33193">
        <ele>136</ele>
        <time>2015-05-14T07:17:24Z</time>
      </trkpt>
      <trkpt lat="47.68466" lon="-2.33188">
        <ele>135</ele>
        <time>2015-05-14T07:17:31Z</time>
      </trkpt>
      <trkpt lat="47.6846" lon="-2.33179">
        <ele>135</ele>
        <time>2015-05-14T07:17:36Z</time>
      </trkpt>
      <trkpt lat="47.68456" lon="-2.33172">
        <ele>133</ele>
        <time>2015-05-14T07:17:43Z</time>
      </trkpt>
      <trkpt lat="47.68452" lon="-2.33164">
        <ele>132</ele>
        <time>2015-05-14T07:17:50Z</time>
      </trkpt>
      <trkpt lat="47.68448" lon="-2.33158">
        <ele>132</ele>
        <time>2015-05-14T07:17:57Z</time>
      </trkpt>
      <trkpt lat="47.68444" lon="-2.33148">
        <ele>135</ele>
        <time>2015-05-14T07:18:01Z</time>
      </trkpt>
      <trkpt lat="47.68442" lon="-2.3314">
        <ele>137</ele>
        <time>2015-05-14T07:18:08Z</time>
      </trkpt>
      <trkpt lat="47.68442" lon="-2.3314">
        <ele>137</ele>
        <time>2015-05-14T07:18:12Z</time>
      </trkpt>
      <trkpt lat="47.68439" lon="-2.33127">
        <ele>139</ele>
        <time>2015-05-14T07:18:19Z</time>
      </trkpt>
      <trkpt lat="47.68435" lon="-2.33119">
        <ele>139</ele>
        <time>2015-05-14T07:18:26Z</time>
      </trkpt>
      <trkpt lat="47.68429" lon="-2.33114">
        <ele>139</ele>
        <time>2015-05-14T07:18:33Z</time>
      </trkpt>
      <trkpt lat="47.68427" lon="-2.3311">
        <ele>139</ele>
        <time>2015-05-14T07:18:40Z</time>
      </trkpt>
      <trkpt lat="47.68425" lon="-2.33108">
        <ele>140</ele>
        <time>2015-05-14T07:18:47Z</time>
      </trkpt>
      <trkpt lat="47.68424" lon="-2.33106">
        <ele>139</ele>
        <time>2015-05-14T07:18:54Z</time>
      </trkpt>
      <trkpt lat="47.68424" lon="-2.33106">
        <ele>139</ele>
        <time>2015-05-14T07:18:55Z</time>
      </trkpt>
      <trkpt lat="47.68424" lon="-2.33101">
        <ele>142</ele>
        <time>2015-05-14T07:19:03Z</time>
      </trkpt>
      <trkpt lat="47.68425" lon="-2.33096">
        <ele>146</ele>
        <time>2015-05-14T07:19:10Z</time>
      </trkpt>
      <trkpt lat="47.68428" lon="-2.33095">
        <ele>141</ele>
        <time>2015-05-14T07:19:17Z</time>
      </trkpt>
      <trkpt lat="47.68422" lon="-2.33092">
        <ele>140</ele>
        <time>2015-05-14T07:19:24Z</time>
      </trkpt>
      <trkpt lat="47.68414" lon="-2.33091">
        <ele>139</ele>
        <time>2015-05-14T07:19:31Z</time>
      </trkpt>
      <trkpt lat="47.68406" lon="-2.3309">
        <ele>142</ele>
        <time>2015-05-14T07:19:37Z</time>
      </trkpt>
      <trkpt lat="47.68399" lon="-2.33089">
        <ele>141</ele>
        <time>2015-05-14T07:19:44Z</time>
      </trkpt>
      <trkpt lat="47.68393" lon="-2.33087">
        <ele>141</ele>
        <time>2015-05-14T07:19:51Z</time>
      </trkpt>
      <trkpt lat="47.68386" lon="-2.33086">
        <ele>142</ele>
        <time>2015-05-14T07:19:57Z</time>
      </trkpt>
      <trkpt lat="47.68378" lon="-2.33088">
        <ele>142</ele>
        <time>2015-05-14T07:20:03Z</time>
      </trkpt>
      <trkpt lat="47.6837" lon="-2.3309">
        <ele>144</ele>
        <time>2015-05-14T07:20:10Z</time>
      </trkpt>
      <trkpt lat="47.68363" lon="-2.33092">
        <ele>144</ele>
        <time>2015-05-14T07:20:17Z</time>
      </trkpt>
      <trkpt lat="47.68356" lon="-2.33091">
        <ele>144</ele>
        <time>2015-05-14T07:20:24Z</time>
      </trkpt>
      <trkpt lat="47.68349" lon="-2.33091">
        <ele>145</ele>
        <time>2015-05-14T07:20:31Z</time>
      </trkpt>
      <trkpt lat="47.68345" lon="-2.33092">
        <ele>145</ele>
        <time>2015-05-14T07:20:38Z</time>
      </trkpt>
      <trkpt lat="47.68339" lon="-2.33088">
        <ele>144</ele>
        <time>2015-05-14T07:20:45Z</time>
      </trkpt>
      <trkpt lat="47.68333" lon="-2.3308">
        <ele>146</ele>
        <time>2015-05-14T07:20:52Z</time>
      </trkpt>
      <trkpt lat="47.68328" lon="-2.33073">
        <ele>147</ele>
        <time>2015-05-14T07:20:59Z</time>
      </trkpt>
      <trkpt lat="47.68323" lon="-2.33065">
        <ele>149</ele>
        <time>2015-05-14T07:21:06Z</time>
      </trkpt>
      <trkpt lat="47.68318" lon="-2.33056">
        <ele>149</ele>
        <time>2015-05-14T07:21:13Z</time>
      </trkpt>
      <trkpt lat="47.68313" lon="-2.33047">
        <ele>150</ele>
        <time>2015-05-14T07:21:19Z</time>
      </trkpt>
      <trkpt lat="47.68307" lon="-2.33039">
        <ele>150</ele>
        <time>2015-05-14T07:21:26Z</time>
      </trkpt>
      <trkpt lat="47.68302" lon="-2.33031">
        <ele>151</ele>
        <time>2015-05-14T07:21:32Z</time>
      </trkpt>
      <trkpt lat="47.68297" lon="-2.33023">
        <ele>150</ele>
        <time>2015-05-14T07:21:38Z</time>
      </trkpt>
      <trkpt lat="47.68293" lon="-2.33014">
        <ele>152</ele>
        <time>2015-05-14T07:21:44Z</time>
      </trkpt>
      <trkpt lat="47.6829" lon="-2.33004">
        <ele>152</ele>
        <time>2015-05-14T07:21:50Z</time>
      </trkpt>
      <trkpt lat="47.68291" lon="-2.32993">
        <ele>151</ele>
        <time>2015-05-14T07:21:56Z</time>
      </trkpt>
      <trkpt lat="47.68294" lon="-2.32987">
        <ele>151</ele>
        <time>2015-05-14T07:22:03Z</time>
      </trkpt>
      <trkpt lat="47.68294" lon="-2.32987">
        <ele>152</ele>
        <time>2015-05-14T07:22:08Z</time>
      </trkpt>
      <trkpt lat="47.683" lon="-2.32983">
        <ele>153</ele>
        <time>2015-05-14T07:22:16Z</time>
      </trkpt>
      <trkpt lat="47.68305" lon="-2.32977">
        <ele>154</ele>
        <time>2015-05-14T07:22:23Z</time>
      </trkpt>
      <trkpt lat="47.68312" lon="-2.32969">
        <ele>153</ele>
        <time>2015-05-14T07:22:30Z</time>
      </trkpt>
      <trkpt lat="47.68318" lon="-2.32964">
        <ele>154</ele>
        <time>2015-05-14T07:22:37Z</time>
      </trkpt>
      <trkpt lat="47.68325" lon="-2.32959">
        <ele>153</ele>
        <time>2015-05-14T07:22:44Z</time>
      </trkpt>
      <trkpt lat="47.68332" lon="-2.32951">
        <ele>154</ele>
        <time>2015-05-14T07:22:51Z</time>
      </trkpt>
      <trkpt lat="47.68337" lon="-2.32944">
        <ele>154</ele>
        <time>2015-05-14T07:22:57Z</time>
      </trkpt>
      <trkpt lat="47.68342" lon="-2.32937">
        <ele>154</ele>
        <time>2015-05-14T07:23:04Z</time>
      </trkpt>
      <trkpt lat="47.68348" lon="-2.32931">
        <ele>153</ele>
        <time>2015-05-14T07:23:11Z</time>
      </trkpt>
      <trkpt lat="47.68354" lon="-2.32922">
        <ele>154</ele>
        <time>2015-05-14T07:23:18Z</time>
      </trkpt>
      <trkpt lat="47.68359" lon="-2.32913">
        <ele>153</ele>
        <time>2015-05-14T07:23:25Z</time>
      </trkpt>
      <trkpt lat="47.68363" lon="-2.32903">
        <ele>153</ele>
        <time>2015-05-14T07:23:31Z</time>
      </trkpt>
      <trkpt lat="47.68367" lon="-2.32892">
        <ele>154</ele>
        <time>2015-05-14T07:23:37Z</time>
      </trkpt>
      <trkpt lat="47.68371" lon="-2.32882">
        <ele>154</ele>
        <time>2015-05-14T07:23:43Z</time>
      </trkpt>
      <trkpt lat="47.68374" lon="-2.32872">
        <ele>155</ele>
        <time>2015-05-14T07:23:49Z</time>
      </trkpt>
      <trkpt lat="47.68377" lon="-2.3286">
        <ele>156</ele>
        <time>2015-05-14T07:23:55Z</time>
      </trkpt>
      <trkpt lat="47.6838" lon="-2.3285">
        <ele>156</ele>
        <time>2015-05-14T07:24:01Z</time>
      </trkpt>
      <trkpt lat="47.68383" lon="-2.32839">
        <ele>157</ele>
        <time>2015-05-14T07:24:08Z</time>
      </trkpt>
      <trkpt lat="47.68386" lon="-2.32829">
        <ele>157</ele>
        <time>2015-05-14T07:24:14Z</time>
      </trkpt>
      <trkpt lat="47.6839" lon="-2.32819">
        <ele>157</ele>
        <time>2015-05-14T07:24:20Z</time>
      </trkpt>
      <trkpt lat="47.68393" lon="-2.32808">
        <ele>158</ele>
        <time>2015-05-14T07:24:27Z</time>
      </trkpt>
      <trkpt lat="47.68397" lon="-2.32799">
        <ele>158</ele>
        <time>2015-05-14T07:24:33Z</time>
      </trkpt>
      <trkpt lat="47.684" lon="-2.32788">
        <ele>157</ele>
        <time>2015-05-14T07:24:40Z</time>
      </trkpt>
      <trkpt lat="47.68404" lon="-2.32778">
        <ele>157</ele>
        <time>2015-05-14T07:24:46Z</time>
      </trkpt>
      <trkpt lat="47.68408" lon="-2.32768">
        <ele>157</ele>
        <time>2015-05-14T07:24:52Z</time>
      </trkpt>
      <trkpt lat="47.68411" lon="-2.32756">
        <ele>158</ele>
        <time>2015-05-14T07:24:59Z</time>
      </trkpt>
      <trkpt lat="47.68415" lon="-2.32745">
        <ele>158</ele>
        <time>2015-05-14T07:25:05Z</time>
      </trkpt>
      <trkpt lat="47.68418" lon="-2.32735">
        <ele>159</ele>
        <time>2015-05-14T07:25:11Z</time>
      </trkpt>
      <trkpt lat="47.68421" lon="-2.32724">
        <ele>159</ele>
        <time>2015-05-14T07:25:17Z</time>
      </trkpt>
      <trkpt lat="47.68425" lon="-2.32714">
        <ele>160</ele>
        <time>2015-05-14T07:25:23Z</time>
      </trkpt>
      <trkpt lat="47.68428" lon="-2.32703">
        <ele>159</ele>
        <time>2015-05-14T07:25:29Z</time>
      </trkpt>
      <trkpt lat="47.6843" lon="-2.32692">
        <ele>159</ele>
        <time>2015-05-14T07:25:35Z</time>
      </trkpt>
      <trkpt lat="47.68432" lon="-2.32682">
        <ele>159</ele>
        <time>2015-05-14T07:25:41Z</time>
      </trkpt>
      <trkpt lat="47.68434" lon="-2.32671">
        <ele>159</ele>
        <time>2015-05-14T07:25:47Z</time>
      </trkpt>
      <trkpt lat="47.68435" lon="-2.3266">
        <ele>157</ele>
        <time>2015-05-14T07:25:54Z</time>
      </trkpt>
      <trkpt lat="47.68436" lon="-2.3265">
        <ele>157</ele>
        <time>2015-05-14T07:26:00Z</time>
      </trkpt>
      <trkpt lat="47.68436" lon="-2.32639">
        <ele>156</ele>
        <time>2015-05-14T07:26:07Z</time>
      </trkpt>
      <trkpt lat="47.68435" lon="-2.32627">
        <ele>155</ele>
        <time>2015-05-14T07:26:13Z</time>
      </trkpt>
      <trkpt lat="47.68434" lon="-2.32616">
        <ele>156</ele>
        <time>2015-05-14T07:26:19Z</time>
      </trkpt>
      <trkpt lat="47.68431" lon="-2.32605">
        <ele>155</ele>
        <time>2015-05-14T07:26:26Z</time>
      </trkpt>
      <trkpt lat="47.68426" lon="-2.32596">
        <ele>155</ele>
        <time>2015-05-14T07:26:32Z</time>
      </trkpt>
      <trkpt lat="47.68422" lon="-2.32586">
        <ele>155</ele>
        <time>2015-05-14T07:26:38Z</time>
      </trkpt>
      <trkpt lat="47.68419" lon="-2.32575">
        <ele>156</ele>
        <time>2015-05-14T07:26:44Z</time>
      </trkpt>
      <trkpt lat="47.68416" lon="-2.32565">
        <ele>156</ele>
        <time>2015-05-14T07:26:50Z</time>
      </trkpt>
      <trkpt lat="47.68413" lon="-2.32554">
        <ele>156</ele>
        <time>2015-05-14T07:26:56Z</time>
      </trkpt>
      <trkpt lat="47.6841" lon="-2.32545">
        <ele>157</ele>
        <time>2015-05-14T07:27:02Z</time>
      </trkpt>
      <trkpt lat="47.68406" lon="-2.32534">
        <ele>157</ele>
        <time>2015-05-14T07:27:08Z</time>
      </trkpt>
      <trkpt lat="47.68405" lon="-2.32522">
        <ele>156</ele>
        <time>2015-05-14T07:27:15Z</time>
      </trkpt>
      <trkpt lat="47.68401" lon="-2.3251">
        <ele>155</ele>
        <time>2015-05-14T07:27:22Z</time>
      </trkpt>
      <trkpt lat="47.68399" lon="-2.325">
        <ele>156</ele>
        <time>2015-05-14T07:27:29Z</time>
      </trkpt>
      <trkpt lat="47.68397" lon="-2.32488">
        <ele>154</ele>
        <time>2015-05-14T07:27:36Z</time>
      </trkpt>
      <trkpt lat="47.68394" lon="-2.32478">
        <ele>153</ele>
        <time>2015-05-14T07:27:42Z</time>
      </trkpt>
      <trkpt lat="47.68392" lon="-2.32467">
        <ele>152</ele>
        <time>2015-05-14T07:27:48Z</time>
      </trkpt>
      <trkpt lat="47.68389" lon="-2.32455">
        <ele>153</ele>
        <time>2015-05-14T07:27:54Z</time>
      </trkpt>
      <trkpt lat="47.68387" lon="-2.32444">
        <ele>153</ele>
        <time>2015-05-14T07:28:00Z</time>
      </trkpt>
      <trkpt lat="47.68384" lon="-2.32432">
        <ele>153</ele>
        <time>2015-05-14T07:28:07Z</time>
      </trkpt>
      <trkpt lat="47.68382" lon="-2.32422">
        <ele>151</ele>
        <time>2015-05-14T07:28:14Z</time>
      </trkpt>
      <trkpt lat="47.68379" lon="-2.32411">
        <ele>152</ele>
        <time>2015-05-14T07:28:20Z</time>
      </trkpt>
      <trkpt lat="47.68377" lon="-2.324">
        <ele>151</ele>
        <time>2015-05-14T07:28:26Z</time>
      </trkpt>
      <trkpt lat="47.68374" lon="-2.32388">
        <ele>151</ele>
        <time>2015-05-14T07:28:32Z</time>
      </trkpt>
      <trkpt lat="47.68371" lon="-2.32377">
        <ele>152</ele>
        <time>2015-05-14T07:28:39Z</time>
      </trkpt>
      <trkpt lat="47.6837" lon="-2.32367">
        <ele>153</ele>
        <time>2015-05-14T07:28:45Z</time>
      </trkpt>
      <trkpt lat="47.68368" lon="-2.32356">
        <ele>152</ele>
        <time>2015-05-14T07:28:51Z</time>
      </trkpt>
      <trkpt lat="47.68366" lon="-2.32345">
        <ele>152</ele>
        <time>2015-05-14T07:28:57Z</time>
      </trkpt>
      <trkpt lat="47.68363" lon="-2.32334">
        <ele>151</ele>
        <time>2015-05-14T07:29:04Z</time>
      </trkpt>
      <trkpt lat="47.68361" lon="-2.32322">
        <ele>152</ele>
        <time>2015-05-14T07:29:11Z</time>
      </trkpt>
      <trkpt lat="47.68359" lon="-2.3231">
        <ele>150</ele>
        <time>2015-05-14T07:29:18Z</time>
      </trkpt>
      <trkpt lat="47.68357" lon="-2.323">
        <ele>150</ele>
        <time>2015-05-14T07:29:24Z</time>
      </trkpt>
      <trkpt lat="47.68355" lon="-2.32289">
        <ele>150</ele>
        <time>2015-05-14T07:29:30Z</time>
      </trkpt>
      <trkpt lat="47.68354" lon="-2.32277">
        <ele>149</ele>
        <time>2015-05-14T07:29:36Z</time>
      </trkpt>
      <trkpt lat="47.6835" lon="-2.32266">
        <ele>150</ele>
        <time>2015-05-14T07:29:43Z</time>
      </trkpt>
      <trkpt lat="47.68348" lon="-2.32256">
        <ele>151</ele>
        <time>2015-05-14T07:29:49Z</time>
      </trkpt>
      <trkpt lat="47.68345" lon="-2.32244">
        <ele>151</ele>
        <time>2015-05-14T07:29:56Z</time>
      </trkpt>
      <trkpt lat="47.68342" lon="-2.32233">
        <ele>151</ele>
        <time>2015-05-14T07:30:03Z</time>
      </trkpt>
      <trkpt lat="47.68339" lon="-2.32223">
        <ele>151</ele>
        <time>2015-05-14T07:30:09Z</time>
      </trkpt>
      <trkpt lat="47.68336" lon="-2.32211">
        <ele>153</ele>
        <time>2015-05-14T07:30:15Z</time>
      </trkpt>
      <trkpt lat="47.68332" lon="-2.322">
        <ele>153</ele>
        <time>2015-05-14T07:30:21Z</time>
      </trkpt>
      <trkpt lat="47.6833" lon="-2.32189">
        <ele>154</ele>
        <time>2015-05-14T07:30:27Z</time>
      </trkpt>
      <trkpt lat="47.68328" lon="-2.32179">
        <ele>156</ele>
        <time>2015-05-14T07:30:32Z</time>
      </trkpt>
      <trkpt lat="47.68325" lon="-2.32169">
        <ele>156</ele>
        <time>2015-05-14T07:30:38Z</time>
      </trkpt>
      <trkpt lat="47.68321" lon="-2.32158">
        <ele>155</ele>
        <time>2015-05-14T07:30:45Z</time>
      </trkpt>
      <trkpt lat="47.68318" lon="-2.32147">
        <ele>155</ele>
        <time>2015-05-14T07:30:51Z</time>
      </trkpt>
      <trkpt lat="47.68315" lon="-2.32136">
        <ele>155</ele>
        <time>2015-05-14T07:30:58Z</time>
      </trkpt>
      <trkpt lat="47.68313" lon="-2.32124">
        <ele>154</ele>
        <time>2015-05-14T07:31:05Z</time>
      </trkpt>
      <trkpt lat="47.6831" lon="-2.32113">
        <ele>156</ele>
        <time>2015-05-14T07:31:11Z</time>
      </trkpt>
      <trkpt lat="47.68307" lon="-2.32103">
        <ele>155</ele>
        <time>2015-05-14T07:31:17Z</time>
      </trkpt>
      <trkpt lat="47.68305" lon="-2.32092">
        <ele>155</ele>
        <time>2015-05-14T07:31:23Z</time>
      </trkpt>
      <trkpt lat="47.68304" lon="-2.32081">
        <ele>156</ele>
        <time>2015-05-14T07:31:29Z</time>
      </trkpt>
      <trkpt lat="47.68303" lon="-2.32069">
        <ele>156</ele>
        <time>2015-05-14T07:31:35Z</time>
      </trkpt>
      <trkpt lat="47.68303" lon="-2.32057">
        <ele>156</ele>
        <time>2015-05-14T07:31:42Z</time>
      </trkpt>
      <trkpt lat="47.68303" lon="-2.32047">
        <ele>155</ele>
        <time>2015-05-14T07:31:49Z</time>
      </trkpt>
      <trkpt lat="47.68303" lon="-2.32036">
        <ele>156</ele>
        <time>2015-05-14T07:31:55Z</time>
      </trkpt>
      <trkpt lat="47.68304" lon="-2.32025">
        <ele>156</ele>
        <time>2015-05-14T07:32:01Z</time>
      </trkpt>
      <trkpt lat="47.68305" lon="-2.32014">
        <ele>156</ele>
        <time>2015-05-14T07:32:07Z</time>
      </trkpt>
      <trkpt lat="47.68306" lon="-2.32002">
        <ele>157</ele>
        <time>2015-05-14T07:32:12Z</time>
      </trkpt>
      <trkpt lat="47.68307" lon="-2.31992">
        <ele>156</ele>
        <time>2015-05-14T07:32:19Z</time>
      </trkpt>
      <trkpt lat="47.68308" lon="-2.3198">
        <ele>156</ele>
        <time>2015-05-14T07:32:25Z</time>
      </trkpt>
      <trkpt lat="47.68309" lon="-2.31968">
        <ele>157</ele>
        <time>2015-05-14T07:32:32Z</time>
      </trkpt>
      <trkpt lat="47.6831" lon="-2.31957">
        <ele>157</ele>
        <time>2015-05-14T07:32:38Z</time>
      </trkpt>
      <trkpt lat="47.68311" lon="-2.31947">
        <ele>157</ele>
        <time>2015-05-14T07:32:45Z</time>
      </trkpt>
      <trkpt lat="47.68313" lon="-2.31936">
        <ele>157</ele>
        <time>2015-05-14T07:32:51Z</time>
      </trkpt>
      <trkpt lat="47.68313" lon="-2.31925">
        <ele>158</ele>
        <time>2015-05-14T07:32:57Z</time>
      </trkpt>
      <trkpt lat="47.68315" lon="-2.31914">
        <ele>158</ele>
        <time>2015-05-14T07:33:03Z</time>
      </trkpt>
      <trkpt lat="47.68315" lon="-2.31903">
        <ele>158</ele>
        <time>2015-05-14T07:33:10Z</time>
      </trkpt>
      <trkpt lat="47.68317" lon="-2.31891">
        <ele>158</ele>
        <time>2015-05-14T07:33:17Z</time>
      </trkpt>
      <trkpt lat="47.68318" lon="-2.31879">
        <ele>156</ele>
        <time>2015-05-14T07:33:24Z</time>
      </trkpt>
      <trkpt lat="47.68319" lon="-2.31868">
        <ele>155</ele>
        <time>2015-05-14T07:33:31Z</time>
      </trkpt>
      <trkpt lat="47.6832" lon="-2.31857">
        <ele>155</ele>
        <time>2015-05-14T07:33:37Z</time>
      </trkpt>
      <trkpt lat="47.6832" lon="-2.31844">
        <ele>154</ele>
        <time>2015-05-14T07:33:44Z</time>
      </trkpt>
      <trkpt lat="47.68321" lon="-2.31833">
        <ele>155</ele>
        <time>2015-05-14T07:33:51Z</time>
      </trkpt>
      <trkpt lat="47.68321" lon="-2.31828">
        <ele>155</ele>
        <time>2015-05-14T07:33:58Z</time>
      </trkpt>
      <trkpt lat="47.68321" lon="-2.31829">
        <ele>154</ele>
        <time>2015-05-14T07:34:04Z</time>
      </trkpt>
      <trkpt lat="47.6832" lon="-2.31827">
        <ele>155</ele>
        <time>2015-05-14T07:34:13Z</time>
      </trkpt>
      <trkpt lat="47.6832" lon="-2.31827">
        <ele>155</ele>
        <time>2015-05-14T07:34:14Z</time>
      </trkpt>
      <trkpt lat="47.68321" lon="-2.31826">
        <ele>154</ele>
        <time>2015-05-14T07:34:45Z</time>
      </trkpt>
      <trkpt lat="47.68321" lon="-2.31826">
        <ele>154</ele>
        <time>2015-05-14T07:34:52Z</time>
      </trkpt>
      <trkpt lat="47.68324" lon="-2.31824">
        <ele>151</ele>
        <time>2015-05-14T07:35:24Z</time>
      </trkpt>
      <trkpt lat="47.68323" lon="-2.31824">
        <ele>151</ele>
        <time>2015-05-14T07:35:25Z</time>
      </trkpt>
      <trkpt lat="47.68318" lon="-2.31788">
        <ele>156</ele>
        <time>2015-05-14T07:35:57Z</time>
      </trkpt>
      <trkpt lat="47.68323" lon="-2.31824">
        <ele>152</ele>
        <time>2015-05-14T07:35:58Z</time>
      </trkpt>
      <trkpt lat="47.68323" lon="-2.31823">
        <ele>151</ele>
        <time>2015-05-14T07:36:05Z</time>
      </trkpt>
      <trkpt lat="47.68323" lon="-2.31823">
        <ele>150</ele>
        <time>2015-05-14T07:36:26Z</time>
      </trkpt>
      <trkpt lat="47.68323" lon="-2.31823">
        <ele>150</ele>
        <time>2015-05-14T07:36:29Z</time>
      </trkpt>
      <trkpt lat="47.68323" lon="-2.31823">
        <ele>150</ele>
        <time>2015-05-14T07:36:36Z</time>
      </trkpt>
      <trkpt lat="47.68323" lon="-2.31823">
        <ele>150</ele>
        <time>2015-05-14T07:36:37Z</time>
      </trkpt>
      <trkpt lat="47.68323" lon="-2.31823">
        <ele>149</ele>
        <time>2015-05-14T07:36:54Z</time>
      </trkpt>
      <trkpt lat="47.68323" lon="-2.31823">
        <ele>149</ele>
        <time>2015-05-14T07:36:55Z</time>
      </trkpt>
      <trkpt lat="47.68322" lon="-2.31824">
        <ele>149</ele>
        <time>2015-05-14T07:37:33Z</time>
      </trkpt>
      <trkpt lat="47.68322" lon="-2.31824">
        <ele>149</ele>
        <time>2015-05-14T07:37:34Z</time>
      </trkpt>
      <trkpt lat="47.68324" lon="-2.31823">
        <ele>147</ele>
        <time>2015-05-14T07:37:49Z</time>
      </trkpt>
      <trkpt lat="47.68324" lon="-2.31823">
        <ele>147</ele>
        <time>2015-05-14T07:37:50Z</time>
      </trkpt>
      <trkpt lat="47.68324" lon="-2.31823">
        <ele>146</ele>
        <time>2015-05-14T07:38:25Z</time>
      </trkpt>
      <trkpt lat="47.68324" lon="-2.31823">
        <ele>147</ele>
        <time>2015-05-14T07:38:26Z</time>
      </trkpt>
      <trkpt lat="47.68324" lon="-2.31823">
        <ele>145</ele>
        <time>2015-05-14T07:38:39Z</time>
      </trkpt>
      <trkpt lat="47.68324" lon="-2.31823">
        <ele>145</ele>
        <time>2015-05-14T07:38:40Z</time>
      </trkpt>
      <trkpt lat="47.68325" lon="-2.31823">
        <ele>143</ele>
        <time>2015-05-14T07:38:52Z</time>
      </trkpt>
      <trkpt lat="47.68325" lon="-2.31823">
        <ele>143</ele>
        <time>2015-05-14T07:38:53Z</time>
      </trkpt>
      <trkpt lat="47.68324" lon="-2.31822">
        <ele>145</ele>
        <time>2015-05-14T07:39:06Z</time>
      </trkpt>
      <trkpt lat="47.68323" lon="-2.31822">
        <ele>145</ele>
        <time>2015-05-14T07:39:07Z</time>
      </trkpt>
      <trkpt lat="47.68324" lon="-2.31822">
        <ele>146</ele>
        <time>2015-05-14T07:39:23Z</time>
      </trkpt>
      <trkpt lat="47.68324" lon="-2.31823">
        <ele>146</ele>
        <time>2015-05-14T07:39:24Z</time>
      </trkpt>
      <trkpt lat="47.68325" lon="-2.31823">
        <ele>146</ele>
        <time>2015-05-14T07:39:34Z</time>
      </trkpt>
      <trkpt lat="47.68325" lon="-2.31823">
        <ele>146</ele>
        <time>2015-05-14T07:39:35Z</time>
      </trkpt>
      <trkpt lat="47.68324" lon="-2.31823">
        <ele>147</ele>
        <time>2015-05-14T07:39:52Z</time>
      </trkpt>
      <trkpt lat="47.68324" lon="-2.31823">
        <ele>147</ele>
        <time>2015-05-14T07:39:57Z</time>
      </trkpt>
      <trkpt lat="47.68323" lon="-2.31824">
        <ele>147</ele>
        <time>2015-05-14T07:40:13Z</time>
      </trkpt>
      <trkpt lat="47.68323" lon="-2.31823">
        <ele>147</ele>
        <time>2015-05-14T07:40:14Z</time>
      </trkpt>
      <trkpt lat="47.68324" lon="-2.31823">
        <ele>147</ele>
        <time>2015-05-14T07:40:28Z</time>
      </trkpt>
      <trkpt lat="47.68324" lon="-2.31823">
        <ele>147</ele>
        <time>2015-05-14T07:40:29Z</time>
      </trkpt>
      <trkpt lat="47.68324" lon="-2.31823">
        <ele>146</ele>
        <time>2015-05-14T07:40:59Z</time>
      </trkpt>
      <trkpt lat="47.68318" lon="-2.31817">
        <ele>148</ele>
        <time>2015-05-14T07:41:06Z</time>
      </trkpt>
      <trkpt lat="47.68314" lon="-2.31809">
        <ele>149</ele>
        <time>2015-05-14T07:41:13Z</time>
      </trkpt>
      <trkpt lat="47.68309" lon="-2.31804">
        <ele>150</ele>
        <time>2015-05-14T07:41:20Z</time>
      </trkpt>
      <trkpt lat="47.68304" lon="-2.31795">
        <ele>152</ele>
        <time>2015-05-14T07:41:26Z</time>
      </trkpt>
      <trkpt lat="47.68301" lon="-2.31785">
        <ele>152</ele>
        <time>2015-05-14T07:41:32Z</time>
      </trkpt>
      <trkpt lat="47.68294" lon="-2.31781">
        <ele>154</ele>
        <time>2015-05-14T07:41:37Z</time>
      </trkpt>
      <trkpt lat="47.68287" lon="-2.31775">
        <ele>155</ele>
        <time>2015-05-14T07:41:43Z</time>
      </trkpt>
      <trkpt lat="47.68282" lon="-2.31771">
        <ele>154</ele>
        <time>2015-05-14T07:41:50Z</time>
      </trkpt>
      <trkpt lat="47.68276" lon="-2.31766">
        <ele>152</ele>
        <time>2015-05-14T07:41:57Z</time>
      </trkpt>
      <trkpt lat="47.68268" lon="-2.31763">
        <ele>150</ele>
        <time>2015-05-14T07:42:03Z</time>
      </trkpt>
      <trkpt lat="47.68262" lon="-2.31755">
        <ele>146</ele>
        <time>2015-05-14T07:42:10Z</time>
      </trkpt>
      <trkpt lat="47.68254" lon="-2.3175">
        <ele>146</ele>
        <time>2015-05-14T07:42:17Z</time>
      </trkpt>
      <trkpt lat="47.68248" lon="-2.31747">
        <ele>148</ele>
        <time>2015-05-14T07:42:24Z</time>
      </trkpt>
      <trkpt lat="47.68242" lon="-2.31741">
        <ele>144</ele>
        <time>2015-05-14T07:42:31Z</time>
      </trkpt>
      <trkpt lat="47.68234" lon="-2.31735">
        <ele>140</ele>
        <time>2015-05-14T07:42:38Z</time>
      </trkpt>
      <trkpt lat="47.68227" lon="-2.3173">
        <ele>140</ele>
        <time>2015-05-14T07:42:43Z</time>
      </trkpt>
      <trkpt lat="47.6822" lon="-2.31726">
        <ele>137</ele>
        <time>2015-05-14T07:42:49Z</time>
      </trkpt>
      <trkpt lat="47.68217" lon="-2.31728">
        <ele>141</ele>
        <time>2015-05-14T07:42:56Z</time>
      </trkpt>
      <trkpt lat="47.68211" lon="-2.31727">
        <ele>143</ele>
        <time>2015-05-14T07:43:03Z</time>
      </trkpt>
      <trkpt lat="47.68203" lon="-2.31727">
        <ele>144</ele>
        <time>2015-05-14T07:43:06Z</time>
      </trkpt>
      <trkpt lat="47.68194" lon="-2.31728">
        <ele>146</ele>
        <time>2015-05-14T07:43:13Z</time>
      </trkpt>
      <trkpt lat="47.68192" lon="-2.31724">
        <ele>143</ele>
        <time>2015-05-14T07:43:20Z</time>
      </trkpt>
      <trkpt lat="47.68191" lon="-2.31724">
        <ele>143</ele>
        <time>2015-05-14T07:43:22Z</time>
      </trkpt>
      <trkpt lat="47.68183" lon="-2.31721">
        <ele>141</ele>
        <time>2015-05-14T07:43:25Z</time>
      </trkpt>
      <trkpt lat="47.68175" lon="-2.31719">
        <ele>142</ele>
        <time>2015-05-14T07:43:30Z</time>
      </trkpt>
      <trkpt lat="47.68166" lon="-2.31718">
        <ele>145</ele>
        <time>2015-05-14T07:43:36Z</time>
      </trkpt>
      <trkpt lat="47.68159" lon="-2.31716">
        <ele>145</ele>
        <time>2015-05-14T07:43:41Z</time>
      </trkpt>
      <trkpt lat="47.68152" lon="-2.31711">
        <ele>144</ele>
        <time>2015-05-14T07:43:46Z</time>
      </trkpt>
      <trkpt lat="47.68143" lon="-2.31708">
        <ele>145</ele>
        <time>2015-05-14T07:43:53Z</time>
      </trkpt>
      <trkpt lat="47.68143" lon="-2.31719">
        <ele>149</ele>
        <time>2015-05-14T07:44:00Z</time>
      </trkpt>
      <trkpt lat="47.68136" lon="-2.31711">
        <ele>149</ele>
        <time>2015-05-14T07:44:03Z</time>
      </trkpt>
      <trkpt lat="47.68128" lon="-2.31708">
        <ele>153</ele>
        <time>2015-05-14T07:44:07Z</time>
      </trkpt>
      <trkpt lat="47.68123" lon="-2.31707">
        <ele>153</ele>
        <time>2015-05-14T07:44:14Z</time>
      </trkpt>
      <trkpt lat="47.68116" lon="-2.31705">
        <ele>152</ele>
        <time>2015-05-14T07:44:20Z</time>
      </trkpt>
      <trkpt lat="47.68108" lon="-2.31701">
        <ele>152</ele>
        <time>2015-05-14T07:44:25Z</time>
      </trkpt>
      <trkpt lat="47.681" lon="-2.317">
        <ele>153</ele>
        <time>2015-05-14T07:44:30Z</time>
      </trkpt>
      <trkpt lat="47.68093" lon="-2.31699">
        <ele>154</ele>
        <time>2015-05-14T07:44:37Z</time>
      </trkpt>
      <trkpt lat="47.68086" lon="-2.31695">
        <ele>153</ele>
        <time>2015-05-14T07:44:44Z</time>
      </trkpt>
      <trkpt lat="47.68078" lon="-2.31691">
        <ele>153</ele>
        <time>2015-05-14T07:44:49Z</time>
      </trkpt>
      <trkpt lat="47.68073" lon="-2.31689">
        <ele>152</ele>
        <time>2015-05-14T07:44:56Z</time>
      </trkpt>
      <trkpt lat="47.68066" lon="-2.31685">
        <ele>153</ele>
        <time>2015-05-14T07:45:02Z</time>
      </trkpt>
      <trkpt lat="47.6806" lon="-2.31678">
        <ele>153</ele>
        <time>2015-05-14T07:45:07Z</time>
      </trkpt>
      <trkpt lat="47.68053" lon="-2.31674">
        <ele>153</ele>
        <time>2015-05-14T07:45:13Z</time>
      </trkpt>
      <trkpt lat="47.68047" lon="-2.31668">
        <ele>151</ele>
        <time>2015-05-14T07:45:18Z</time>
      </trkpt>
      <trkpt lat="47.6804" lon="-2.31663">
        <ele>154</ele>
        <time>2015-05-14T07:45:23Z</time>
      </trkpt>
      <trkpt lat="47.68033" lon="-2.31659">
        <ele>156</ele>
        <time>2015-05-14T07:45:29Z</time>
      </trkpt>
      <trkpt lat="47.68027" lon="-2.31653">
        <ele>152</ele>
        <time>2015-05-14T07:45:35Z</time>
      </trkpt>
      <trkpt lat="47.68021" lon="-2.31649">
        <ele>149</ele>
        <time>2015-05-14T07:45:42Z</time>
      </trkpt>
      <trkpt lat="47.68013" lon="-2.31645">
        <ele>150</ele>
        <time>2015-05-14T07:45:48Z</time>
      </trkpt>
      <trkpt lat="47.68007" lon="-2.3164">
        <ele>147</ele>
        <time>2015-05-14T07:45:55Z</time>
      </trkpt>
      <trkpt lat="47.68" lon="-2.31636">
        <ele>149</ele>
        <time>2015-05-14T07:46:01Z</time>
      </trkpt>
      <trkpt lat="47.67993" lon="-2.31633">
        <ele>151</ele>
        <time>2015-05-14T07:46:07Z</time>
      </trkpt>
      <trkpt lat="47.67984" lon="-2.31628">
        <ele>151</ele>
        <time>2015-05-14T07:46:13Z</time>
      </trkpt>
      <trkpt lat="47.67978" lon="-2.31626">
        <ele>152</ele>
        <time>2015-05-14T07:46:20Z</time>
      </trkpt>
      <trkpt lat="47.67971" lon="-2.3162">
        <ele>152</ele>
        <time>2015-05-14T07:46:26Z</time>
      </trkpt>
      <trkpt lat="47.67963" lon="-2.31617">
        <ele>151</ele>
        <time>2015-05-14T07:46:32Z</time>
      </trkpt>
      <trkpt lat="47.67955" lon="-2.31612">
        <ele>151</ele>
        <time>2015-05-14T07:46:39Z</time>
      </trkpt>
      <trkpt lat="47.67947" lon="-2.31606">
        <ele>149</ele>
        <time>2015-05-14T07:46:46Z</time>
      </trkpt>
      <trkpt lat="47.67939" lon="-2.31602">
        <ele>148</ele>
        <time>2015-05-14T07:46:53Z</time>
      </trkpt>
      <trkpt lat="47.67936" lon="-2.31603">
        <ele>149</ele>
        <time>2015-05-14T07:47:00Z</time>
      </trkpt>
      <trkpt lat="47.67927" lon="-2.31599">
        <ele>149</ele>
        <time>2015-05-14T07:47:04Z</time>
      </trkpt>
      <trkpt lat="47.67922" lon="-2.31594">
        <ele>147</ele>
        <time>2015-05-14T07:47:11Z</time>
      </trkpt>
      <trkpt lat="47.67914" lon="-2.31593">
        <ele>151</ele>
        <time>2015-05-14T07:47:15Z</time>
      </trkpt>
      <trkpt lat="47.67906" lon="-2.31586">
        <ele>148</ele>
        <time>2015-05-14T07:47:22Z</time>
      </trkpt>
      <trkpt lat="47.67899" lon="-2.31584">
        <ele>149</ele>
        <time>2015-05-14T07:47:29Z</time>
      </trkpt>
      <trkpt lat="47.67892" lon="-2.31579">
        <ele>149</ele>
        <time>2015-05-14T07:47:36Z</time>
      </trkpt>
      <trkpt lat="47.67884" lon="-2.31575">
        <ele>154</ele>
        <time>2015-05-14T07:47:42Z</time>
      </trkpt>
      <trkpt lat="47.67878" lon="-2.31569">
        <ele>152</ele>
        <time>2015-05-14T07:47:49Z</time>
      </trkpt>
      <trkpt lat="47.67871" lon="-2.31568">
        <ele>152</ele>
        <time>2015-05-14T07:47:56Z</time>
      </trkpt>
      <trkpt lat="47.67864" lon="-2.3156">
        <ele>151</ele>
        <time>2015-05-14T07:48:02Z</time>
      </trkpt>
      <trkpt lat="47.67855" lon="-2.31561">
        <ele>149</ele>
        <time>2015-05-14T07:48:09Z</time>
      </trkpt>
      <trkpt lat="47.67851" lon="-2.31553">
        <ele>150</ele>
        <time>2015-05-14T07:48:14Z</time>
      </trkpt>
      <trkpt lat="47.67843" lon="-2.31553">
        <ele>152</ele>
        <time>2015-05-14T07:48:20Z</time>
      </trkpt>
      <trkpt lat="47.67835" lon="-2.31549">
        <ele>152</ele>
        <time>2015-05-14T07:48:25Z</time>
      </trkpt>
      <trkpt lat="47.67828" lon="-2.31543">
        <ele>152</ele>
        <time>2015-05-14T07:48:32Z</time>
      </trkpt>
      <trkpt lat="47.67825" lon="-2.31537">
        <ele>150</ele>
        <time>2015-05-14T07:48:39Z</time>
      </trkpt>
      <trkpt lat="47.67818" lon="-2.31531">
        <ele>151</ele>
        <time>2015-05-14T07:48:44Z</time>
      </trkpt>
      <trkpt lat="47.67812" lon="-2.31523">
        <ele>156</ele>
        <time>2015-05-14T07:48:49Z</time>
      </trkpt>
      <trkpt lat="47.67808" lon="-2.31518">
        <ele>154</ele>
        <time>2015-05-14T07:48:56Z</time>
      </trkpt>
      <trkpt lat="47.67801" lon="-2.31513">
        <ele>158</ele>
        <time>2015-05-14T07:49:01Z</time>
      </trkpt>
      <trkpt lat="47.67795" lon="-2.31506">
        <ele>157</ele>
        <time>2015-05-14T07:49:07Z</time>
      </trkpt>
      <trkpt lat="47.67789" lon="-2.31499">
        <ele>158</ele>
        <time>2015-05-14T07:49:12Z</time>
      </trkpt>
      <trkpt lat="47.67782" lon="-2.31495">
        <ele>158</ele>
        <time>2015-05-14T07:49:19Z</time>
      </trkpt>
      <trkpt lat="47.67779" lon="-2.31485">
        <ele>155</ele>
        <time>2015-05-14T07:49:26Z</time>
      </trkpt>
      <trkpt lat="47.67776" lon="-2.31474">
        <ele>152</ele>
        <time>2015-05-14T07:49:33Z</time>
      </trkpt>
      <trkpt lat="47.67772" lon="-2.31468">
        <ele>150</ele>
        <time>2015-05-14T07:49:40Z</time>
      </trkpt>
      <trkpt lat="47.67766" lon="-2.31461">
        <ele>150</ele>
        <time>2015-05-14T07:49:47Z</time>
      </trkpt>
      <trkpt lat="47.67761" lon="-2.31453">
        <ele>152</ele>
        <time>2015-05-14T07:49:52Z</time>
      </trkpt>
      <trkpt lat="47.67757" lon="-2.31444">
        <ele>153</ele>
        <time>2015-05-14T07:49:57Z</time>
      </trkpt>
      <trkpt lat="47.67752" lon="-2.31434">
        <ele>153</ele>
        <time>2015-05-14T07:50:03Z</time>
      </trkpt>
      <trkpt lat="47.67746" lon="-2.31428">
        <ele>155</ele>
        <time>2015-05-14T07:50:08Z</time>
      </trkpt>
      <trkpt lat="47.6774" lon="-2.31422">
        <ele>154</ele>
        <time>2015-05-14T07:50:15Z</time>
      </trkpt>
      <trkpt lat="47.67734" lon="-2.31414">
        <ele>154</ele>
        <time>2015-05-14T07:50:20Z</time>
      </trkpt>
      <trkpt lat="47.67728" lon="-2.31407">
        <ele>154</ele>
        <time>2015-05-14T07:50:27Z</time>
      </trkpt>
      <trkpt lat="47.67727" lon="-2.31407">
        <ele>153</ele>
        <time>2015-05-14T07:50:34Z</time>
      </trkpt>
      <trkpt lat="47.67719" lon="-2.31402">
        <ele>150</ele>
        <time>2015-05-14T07:50:40Z</time>
      </trkpt>
      <trkpt lat="47.67714" lon="-2.31395">
        <ele>149</ele>
        <time>2015-05-14T07:50:45Z</time>
      </trkpt>
      <trkpt lat="47.67707" lon="-2.31391">
        <ele>147</ele>
        <time>2015-05-14T07:50:50Z</time>
      </trkpt>
      <trkpt lat="47.677" lon="-2.31385">
        <ele>149</ele>
        <time>2015-05-14T07:50:55Z</time>
      </trkpt>
      <trkpt lat="47.67691" lon="-2.31381">
        <ele>151</ele>
        <time>2015-05-14T07:51:02Z</time>
      </trkpt>
      <trkpt lat="47.67683" lon="-2.31376">
        <ele>154</ele>
        <time>2015-05-14T07:51:08Z</time>
      </trkpt>
      <trkpt lat="47.67678" lon="-2.31374">
        <ele>153</ele>
        <time>2015-05-14T07:51:15Z</time>
      </trkpt>
      <trkpt lat="47.67671" lon="-2.3137">
        <ele>152</ele>
        <time>2015-05-14T07:51:22Z</time>
      </trkpt>
      <trkpt lat="47.67664" lon="-2.31364">
        <ele>152</ele>
        <time>2015-05-14T07:51:29Z</time>
      </trkpt>
      <trkpt lat="47.67661" lon="-2.31356">
        <ele>151</ele>
        <time>2015-05-14T07:51:36Z</time>
      </trkpt>
      <trkpt lat="47.67656" lon="-2.31353">
        <ele>152</ele>
        <time>2015-05-14T07:51:43Z</time>
      </trkpt>
      <trkpt lat="47.67651" lon="-2.31348">
        <ele>153</ele>
        <time>2015-05-14T07:51:50Z</time>
      </trkpt>
      <trkpt lat="47.67647" lon="-2.31349">
        <ele>151</ele>
        <time>2015-05-14T07:51:57Z</time>
      </trkpt>
      <trkpt lat="47.67646" lon="-2.31349">
        <ele>150</ele>
        <time>2015-05-14T07:52:04Z</time>
      </trkpt>
      <trkpt lat="47.67646" lon="-2.31349">
        <ele>150</ele>
        <time>2015-05-14T07:52:08Z</time>
      </trkpt>
      <trkpt lat="47.67646" lon="-2.3135">
        <ele>148</ele>
        <time>2015-05-14T07:52:25Z</time>
      </trkpt>
      <trkpt lat="47.67641" lon="-2.31349">
        <ele>148</ele>
        <time>2015-05-14T07:52:32Z</time>
      </trkpt>
      <trkpt lat="47.67633" lon="-2.31343">
        <ele>149</ele>
        <time>2015-05-14T07:52:39Z</time>
      </trkpt>
      <trkpt lat="47.67628" lon="-2.31334">
        <ele>151</ele>
        <time>2015-05-14T07:52:46Z</time>
      </trkpt>
      <trkpt lat="47.67624" lon="-2.3133">
        <ele>152</ele>
        <time>2015-05-14T07:52:53Z</time>
      </trkpt>
      <trkpt lat="47.67623" lon="-2.31322">
        <ele>151</ele>
        <time>2015-05-14T07:53:00Z</time>
      </trkpt>
      <trkpt lat="47.6762" lon="-2.31313">
        <ele>152</ele>
        <time>2015-05-14T07:53:07Z</time>
      </trkpt>
      <trkpt lat="47.67615" lon="-2.31305">
        <ele>154</ele>
        <time>2015-05-14T07:53:12Z</time>
      </trkpt>
      <trkpt lat="47.67613" lon="-2.313">
        <ele>153</ele>
        <time>2015-05-14T07:53:19Z</time>
      </trkpt>
      <trkpt lat="47.67611" lon="-2.31292">
        <ele>153</ele>
        <time>2015-05-14T07:53:26Z</time>
      </trkpt>
      <trkpt lat="47.67608" lon="-2.31285">
        <ele>155</ele>
        <time>2015-05-14T07:53:33Z</time>
      </trkpt>
      <trkpt lat="47.67603" lon="-2.31274">
        <ele>156</ele>
        <time>2015-05-14T07:53:40Z</time>
      </trkpt>
      <trkpt lat="47.67597" lon="-2.31267">
        <ele>155</ele>
        <time>2015-05-14T07:53:46Z</time>
      </trkpt>
      <trkpt lat="47.6759" lon="-2.31263">
        <ele>152</ele>
        <time>2015-05-14T07:53:53Z</time>
      </trkpt>
      <trkpt lat="47.67584" lon="-2.31256">
        <ele>153</ele>
        <time>2015-05-14T07:53:58Z</time>
      </trkpt>
      <trkpt lat="47.6758" lon="-2.31247">
        <ele>151</ele>
        <time>2015-05-14T07:54:04Z</time>
      </trkpt>
      <trkpt lat="47.67574" lon="-2.31241">
        <ele>150</ele>
        <time>2015-05-14T07:54:10Z</time>
      </trkpt>
      <trkpt lat="47.67566" lon="-2.31236">
        <ele>152</ele>
        <time>2015-05-14T07:54:17Z</time>
      </trkpt>
      <trkpt lat="47.67559" lon="-2.31229">
        <ele>153</ele>
        <time>2015-05-14T07:54:24Z</time>
      </trkpt>
      <trkpt lat="47.67555" lon="-2.31222">
        <ele>154</ele>
        <time>2015-05-14T07:54:31Z</time>
      </trkpt>
      <trkpt lat="47.67549" lon="-2.31217">
        <ele>156</ele>
        <time>2015-05-14T07:54:38Z</time>
      </trkpt>
      <trkpt lat="47.67543" lon="-2.31206">
        <ele>155</ele>
        <time>2015-05-14T07:54:45Z</time>
      </trkpt>
      <trkpt lat="47.67537" lon="-2.31199">
        <ele>156</ele>
        <time>2015-05-14T07:54:51Z</time>
      </trkpt>
      <trkpt lat="47.67531" lon="-2.31192">
        <ele>156</ele>
        <time>2015-05-14T07:54:57Z</time>
      </trkpt>
      <trkpt lat="47.67526" lon="-2.31185">
        <ele>153</ele>
        <time>2015-05-14T07:55:04Z</time>
      </trkpt>
      <trkpt lat="47.6752" lon="-2.31177">
        <ele>153</ele>
        <time>2015-05-14T07:55:10Z</time>
      </trkpt>
      <trkpt lat="47.67517" lon="-2.31167">
        <ele>154</ele>
        <time>2015-05-14T07:55:16Z</time>
      </trkpt>
      <trkpt lat="47.67514" lon="-2.31157">
        <ele>152</ele>
        <time>2015-05-14T07:55:22Z</time>
      </trkpt>
      <trkpt lat="47.67513" lon="-2.31145">
        <ele>151</ele>
        <time>2015-05-14T07:55:28Z</time>
      </trkpt>
      <trkpt lat="47.67515" lon="-2.31134">
        <ele>150</ele>
        <time>2015-05-14T07:55:34Z</time>
      </trkpt>
      <trkpt lat="47.67517" lon="-2.31122">
        <ele>151</ele>
        <time>2015-05-14T07:55:40Z</time>
      </trkpt>
      <trkpt lat="47.67519" lon="-2.31089">
        <ele>163</ele>
        <time>2015-05-14T07:55:59Z</time>
      </trkpt>
      <trkpt lat="47.67512" lon="-2.31086">
        <ele>159</ele>
        <time>2015-05-14T07:56:03Z</time>
      </trkpt>
      <trkpt lat="47.67513" lon="-2.31074">
        <ele>159</ele>
        <time>2015-05-14T07:56:10Z</time>
      </trkpt>
      <trkpt lat="47.67516" lon="-2.31064">
        <ele>156</ele>
        <time>2015-05-14T07:56:14Z</time>
      </trkpt>
      <trkpt lat="47.67517" lon="-2.31062">
        <ele>154</ele>
        <time>2015-05-14T07:56:21Z</time>
      </trkpt>
      <trkpt lat="47.67516" lon="-2.31048">
        <ele>154</ele>
        <time>2015-05-14T07:56:27Z</time>
      </trkpt>
      <trkpt lat="47.67517" lon="-2.31036">
        <ele>154</ele>
        <time>2015-05-14T07:56:31Z</time>
      </trkpt>
      <trkpt lat="47.67516" lon="-2.31025">
        <ele>154</ele>
        <time>2015-05-14T07:56:35Z</time>
      </trkpt>
      <trkpt lat="47.67517" lon="-2.31015">
        <ele>151</ele>
        <time>2015-05-14T07:56:42Z</time>
      </trkpt>
      <trkpt lat="47.6752" lon="-2.31004">
        <ele>151</ele>
        <time>2015-05-14T07:56:48Z</time>
      </trkpt>
      <trkpt lat="47.67522" lon="-2.30992">
        <ele>150</ele>
        <time>2015-05-14T07:56:55Z</time>
      </trkpt>
      <trkpt lat="47.67526" lon="-2.30982">
        <ele>151</ele>
        <time>2015-05-14T07:57:01Z</time>
      </trkpt>
      <trkpt lat="47.6753" lon="-2.3097">
        <ele>151</ele>
        <time>2015-05-14T07:57:08Z</time>
      </trkpt>
      <trkpt lat="47.67534" lon="-2.30961">
        <ele>149</ele>
        <time>2015-05-14T07:57:14Z</time>
      </trkpt>
      <trkpt lat="47.67539" lon="-2.30951">
        <ele>150</ele>
        <time>2015-05-14T07:57:20Z</time>
      </trkpt>
      <trkpt lat="47.67542" lon="-2.30941">
        <ele>147</ele>
        <time>2015-05-14T07:57:26Z</time>
      </trkpt>
      <trkpt lat="47.67547" lon="-2.30932">
        <ele>147</ele>
        <time>2015-05-14T07:57:33Z</time>
      </trkpt>
      <trkpt lat="47.67551" lon="-2.30923">
        <ele>149</ele>
        <time>2015-05-14T07:57:40Z</time>
      </trkpt>
      <trkpt lat="47.67555" lon="-2.30911">
        <ele>150</ele>
        <time>2015-05-14T07:57:47Z</time>
      </trkpt>
      <trkpt lat="47.67558" lon="-2.309">
        <ele>151</ele>
        <time>2015-05-14T07:57:54Z</time>
      </trkpt>
      <trkpt lat="47.67563" lon="-2.30889">
        <ele>150</ele>
        <time>2015-05-14T07:58:00Z</time>
      </trkpt>
      <trkpt lat="47.67571" lon="-2.30885">
        <ele>152</ele>
        <time>2015-05-14T07:58:05Z</time>
      </trkpt>
      <trkpt lat="47.67574" lon="-2.30875">
        <ele>150</ele>
        <time>2015-05-14T07:58:11Z</time>
      </trkpt>
      <trkpt lat="47.67579" lon="-2.30866">
        <ele>150</ele>
        <time>2015-05-14T07:58:17Z</time>
      </trkpt>
      <trkpt lat="47.67586" lon="-2.30859">
        <ele>151</ele>
        <time>2015-05-14T07:58:23Z</time>
      </trkpt>
      <trkpt lat="47.67593" lon="-2.30855">
        <ele>152</ele>
        <time>2015-05-14T07:58:28Z</time>
      </trkpt>
      <trkpt lat="47.67602" lon="-2.30851">
        <ele>155</ele>
        <time>2015-05-14T07:58:33Z</time>
      </trkpt>
      <trkpt lat="47.67608" lon="-2.30847">
        <ele>156</ele>
        <time>2015-05-14T07:58:38Z</time>
      </trkpt>
      <trkpt lat="47.67616" lon="-2.30843">
        <ele>156</ele>
        <time>2015-05-14T07:58:43Z</time>
      </trkpt>
      <trkpt lat="47.67619" lon="-2.30834">
        <ele>157</ele>
        <time>2015-05-14T07:58:49Z</time>
      </trkpt>
      <trkpt lat="47.67624" lon="-2.30825">
        <ele>158</ele>
        <time>2015-05-14T07:58:54Z</time>
      </trkpt>
      <trkpt lat="47.67617" lon="-2.3082">
        <ele>154</ele>
        <time>2015-05-14T07:58:56Z</time>
      </trkpt>
      <trkpt lat="47.67619" lon="-2.30808">
        <ele>156</ele>
        <time>2015-05-14T07:59:02Z</time>
      </trkpt>
      <trkpt lat="47.67617" lon="-2.30798">
        <ele>156</ele>
        <time>2015-05-14T07:59:07Z</time>
      </trkpt>
      <trkpt lat="47.67614" lon="-2.30787">
        <ele>153</ele>
        <time>2015-05-14T07:59:14Z</time>
      </trkpt>
      <trkpt lat="47.67612" lon="-2.30777">
        <ele>152</ele>
        <time>2015-05-14T07:59:19Z</time>
      </trkpt>
      <trkpt lat="47.67614" lon="-2.30768">
        <ele>153</ele>
        <time>2015-05-14T07:59:26Z</time>
      </trkpt>
      <trkpt lat="47.67615" lon="-2.30758">
        <ele>154</ele>
        <time>2015-05-14T07:59:32Z</time>
      </trkpt>
      <trkpt lat="47.67615" lon="-2.30745">
        <ele>152</ele>
        <time>2015-05-14T07:59:39Z</time>
      </trkpt>
      <trkpt lat="47.67616" lon="-2.30734">
        <ele>150</ele>
        <time>2015-05-14T07:59:46Z</time>
      </trkpt>
      <trkpt lat="47.67617" lon="-2.30723">
        <ele>151</ele>
        <time>2015-05-14T07:59:52Z</time>
      </trkpt>
      <trkpt lat="47.67619" lon="-2.30715">
        <ele>153</ele>
        <time>2015-05-14T07:59:59Z</time>
      </trkpt>
      <trkpt lat="47.6762" lon="-2.30704">
        <ele>152</ele>
        <time>2015-05-14T08:00:05Z</time>
      </trkpt>
      <trkpt lat="47.67623" lon="-2.30694">
        <ele>153</ele>
        <time>2015-05-14T08:00:12Z</time>
      </trkpt>
      <trkpt lat="47.67623" lon="-2.30691">
        <ele>154</ele>
        <time>2015-05-14T08:00:19Z</time>
      </trkpt>
      <trkpt lat="47.67625" lon="-2.3068">
        <ele>155</ele>
        <time>2015-05-14T08:00:25Z</time>
      </trkpt>
      <trkpt lat="47.67627" lon="-2.30674">
        <ele>155</ele>
        <time>2015-05-14T08:00:32Z</time>
      </trkpt>
      <trkpt lat="47.67629" lon="-2.30662">
        <ele>154</ele>
        <time>2015-05-14T08:00:37Z</time>
      </trkpt>
      <trkpt lat="47.67629" lon="-2.30651">
        <ele>154</ele>
        <time>2015-05-14T08:00:43Z</time>
      </trkpt>
      <trkpt lat="47.67631" lon="-2.30641">
        <ele>154</ele>
        <time>2015-05-14T08:00:49Z</time>
      </trkpt>
      <trkpt lat="47.67631" lon="-2.30631">
        <ele>153</ele>
        <time>2015-05-14T08:00:56Z</time>
      </trkpt>
      <trkpt lat="47.67633" lon="-2.3062">
        <ele>153</ele>
        <time>2015-05-14T08:01:01Z</time>
      </trkpt>
      <trkpt lat="47.67635" lon="-2.30607">
        <ele>154</ele>
        <time>2015-05-14T08:01:08Z</time>
      </trkpt>
      <trkpt lat="47.67637" lon="-2.30596">
        <ele>155</ele>
        <time>2015-05-14T08:01:15Z</time>
      </trkpt>
      <trkpt lat="47.6764" lon="-2.30586">
        <ele>155</ele>
        <time>2015-05-14T08:01:21Z</time>
      </trkpt>
      <trkpt lat="47.67643" lon="-2.30574">
        <ele>155</ele>
        <time>2015-05-14T08:01:27Z</time>
      </trkpt>
      <trkpt lat="47.67647" lon="-2.30563">
        <ele>153</ele>
        <time>2015-05-14T08:01:33Z</time>
      </trkpt>
      <trkpt lat="47.67649" lon="-2.30553">
        <ele>154</ele>
        <time>2015-05-14T08:01:40Z</time>
      </trkpt>
      <trkpt lat="47.67652" lon="-2.30542">
        <ele>153</ele>
        <time>2015-05-14T08:01:47Z</time>
      </trkpt>
      <trkpt lat="47.67655" lon="-2.30532">
        <ele>151</ele>
        <time>2015-05-14T08:01:54Z</time>
      </trkpt>
      <trkpt lat="47.67656" lon="-2.30521">
        <ele>150</ele>
        <time>2015-05-14T08:02:00Z</time>
      </trkpt>
      <trkpt lat="47.67659" lon="-2.30511">
        <ele>150</ele>
        <time>2015-05-14T08:02:06Z</time>
      </trkpt>
      <trkpt lat="47.67661" lon="-2.305">
        <ele>149</ele>
        <time>2015-05-14T08:02:13Z</time>
      </trkpt>
      <trkpt lat="47.67663" lon="-2.30488">
        <ele>150</ele>
        <time>2015-05-14T08:02:20Z</time>
      </trkpt>
      <trkpt lat="47.67665" lon="-2.30478">
        <ele>148</ele>
        <time>2015-05-14T08:02:25Z</time>
      </trkpt>
      <trkpt lat="47.67667" lon="-2.30469">
        <ele>148</ele>
        <time>2015-05-14T08:02:32Z</time>
      </trkpt>
      <trkpt lat="47.67667" lon="-2.30458">
        <ele>147</ele>
        <time>2015-05-14T08:02:39Z</time>
      </trkpt>
      <trkpt lat="47.67669" lon="-2.30446">
        <ele>148</ele>
        <time>2015-05-14T08:02:46Z</time>
      </trkpt>
      <trkpt lat="47.67669" lon="-2.30433">
        <ele>149</ele>
        <time>2015-05-14T08:02:51Z</time>
      </trkpt>
      <trkpt lat="47.6767" lon="-2.30422">
        <ele>152</ele>
        <time>2015-05-14T08:02:57Z</time>
      </trkpt>
      <trkpt lat="47.6767" lon="-2.30411">
        <ele>152</ele>
        <time>2015-05-14T08:03:04Z</time>
      </trkpt>
      <trkpt lat="47.67671" lon="-2.304">
        <ele>153</ele>
        <time>2015-05-14T08:03:10Z</time>
      </trkpt>
      <trkpt lat="47.67672" lon="-2.30389">
        <ele>154</ele>
        <time>2015-05-14T08:03:16Z</time>
      </trkpt>
      <trkpt lat="47.67673" lon="-2.30378">
        <ele>154</ele>
        <time>2015-05-14T08:03:22Z</time>
      </trkpt>
      <trkpt lat="47.67674" lon="-2.30367">
        <ele>153</ele>
        <time>2015-05-14T08:03:28Z</time>
      </trkpt>
      <trkpt lat="47.67676" lon="-2.30356">
        <ele>151</ele>
        <time>2015-05-14T08:03:35Z</time>
      </trkpt>
      <trkpt lat="47.67679" lon="-2.30345">
        <ele>151</ele>
        <time>2015-05-14T08:03:41Z</time>
      </trkpt>
      <trkpt lat="47.67683" lon="-2.30334">
        <ele>149</ele>
        <time>2015-05-14T08:03:48Z</time>
      </trkpt>
      <trkpt lat="47.67686" lon="-2.30324">
        <ele>150</ele>
        <time>2015-05-14T08:03:53Z</time>
      </trkpt>
      <trkpt lat="47.67688" lon="-2.30313">
        <ele>148</ele>
        <time>2015-05-14T08:03:59Z</time>
      </trkpt>
      <trkpt lat="47.67689" lon="-2.30302">
        <ele>147</ele>
        <time>2015-05-14T08:04:06Z</time>
      </trkpt>
      <trkpt lat="47.6769" lon="-2.30291">
        <ele>148</ele>
        <time>2015-05-14T08:04:12Z</time>
      </trkpt>
      <trkpt lat="47.67693" lon="-2.30279">
        <ele>145</ele>
        <time>2015-05-14T08:04:19Z</time>
      </trkpt>
      <trkpt lat="47.67696" lon="-2.3027">
        <ele>146</ele>
        <time>2015-05-14T08:04:24Z</time>
      </trkpt>
      <trkpt lat="47.677" lon="-2.30259">
        <ele>146</ele>
        <time>2015-05-14T08:04:31Z</time>
      </trkpt>
      <trkpt lat="47.67703" lon="-2.3025">
        <ele>147</ele>
        <time>2015-05-14T08:04:38Z</time>
      </trkpt>
      <trkpt lat="47.67706" lon="-2.30239">
        <ele>146</ele>
        <time>2015-05-14T08:04:45Z</time>
      </trkpt>
      <trkpt lat="47.67709" lon="-2.30229">
        <ele>146</ele>
        <time>2015-05-14T08:04:51Z</time>
      </trkpt>
      <trkpt lat="47.67712" lon="-2.30218">
        <ele>147</ele>
        <time>2015-05-14T08:04:57Z</time>
      </trkpt>
      <trkpt lat="47.67716" lon="-2.30208">
        <ele>146</ele>
        <time>2015-05-14T08:05:04Z</time>
      </trkpt>
      <trkpt lat="47.67722" lon="-2.302">
        <ele>147</ele>
        <time>2015-05-14T08:05:10Z</time>
      </trkpt>
      <trkpt lat="47.67721" lon="-2.30196">
        <ele>148</ele>
        <time>2015-05-14T08:05:17Z</time>
      </trkpt>
      <trkpt lat="47.67722" lon="-2.30195">
        <ele>148</ele>
        <time>2015-05-14T08:05:24Z</time>
      </trkpt>
      <trkpt lat="47.67722" lon="-2.30195">
        <ele>148</ele>
        <time>2015-05-14T08:05:28Z</time>
      </trkpt>
      <trkpt lat="47.67725" lon="-2.30185">
        <ele>147</ele>
        <time>2015-05-14T08:05:37Z</time>
      </trkpt>
      <trkpt lat="47.67728" lon="-2.30179">
        <ele>148</ele>
        <time>2015-05-14T08:05:44Z</time>
      </trkpt>
      <trkpt lat="47.67731" lon="-2.30178">
        <ele>147</ele>
        <time>2015-05-14T08:05:51Z</time>
      </trkpt>
      <trkpt lat="47.67735" lon="-2.30171">
        <ele>147</ele>
        <time>2015-05-14T08:05:58Z</time>
      </trkpt>
      <trkpt lat="47.67738" lon="-2.30162">
        <ele>148</ele>
        <time>2015-05-14T08:06:05Z</time>
      </trkpt>
      <trkpt lat="47.67741" lon="-2.30154">
        <ele>147</ele>
        <time>2015-05-14T08:06:12Z</time>
      </trkpt>
      <trkpt lat="47.67744" lon="-2.30143">
        <ele>148</ele>
        <time>2015-05-14T08:06:19Z</time>
      </trkpt>
      <trkpt lat="47.67748" lon="-2.30133">
        <ele>147</ele>
        <time>2015-05-14T08:06:26Z</time>
      </trkpt>
      <trkpt lat="47.67751" lon="-2.30126">
        <ele>149</ele>
        <time>2015-05-14T08:06:33Z</time>
      </trkpt>
      <trkpt lat="47.67755" lon="-2.30116">
        <ele>149</ele>
        <time>2015-05-14T08:06:39Z</time>
      </trkpt>
      <trkpt lat="47.67757" lon="-2.30105">
        <ele>147</ele>
        <time>2015-05-14T08:06:46Z</time>
      </trkpt>
      <trkpt lat="47.67758" lon="-2.30093">
        <ele>148</ele>
        <time>2015-05-14T08:06:53Z</time>
      </trkpt>
      <trkpt lat="47.67759" lon="-2.30084">
        <ele>148</ele>
        <time>2015-05-14T08:07:00Z</time>
      </trkpt>
      <trkpt lat="47.67759" lon="-2.30078">
        <ele>148</ele>
        <time>2015-05-14T08:07:07Z</time>
      </trkpt>
      <trkpt lat="47.67757" lon="-2.30074">
        <ele>148</ele>
        <time>2015-05-14T08:07:14Z</time>
      </trkpt>
      <trkpt lat="47.67757" lon="-2.30074">
        <ele>146</ele>
        <time>2015-05-14T08:07:21Z</time>
      </trkpt>
      <trkpt lat="47.67757" lon="-2.30073">
        <ele>145</ele>
        <time>2015-05-14T08:07:27Z</time>
      </trkpt>
      <trkpt lat="47.67758" lon="-2.3007">
        <ele>145</ele>
        <time>2015-05-14T08:07:35Z</time>
      </trkpt>
      <trkpt lat="47.67758" lon="-2.3006">
        <ele>143</ele>
        <time>2015-05-14T08:07:42Z</time>
      </trkpt>
      <trkpt lat="47.67755" lon="-2.30049">
        <ele>146</ele>
        <time>2015-05-14T08:07:48Z</time>
      </trkpt>
      <trkpt lat="47.67748" lon="-2.3004">
        <ele>150</ele>
        <time>2015-05-14T08:07:55Z</time>
      </trkpt>
      <trkpt lat="47.67745" lon="-2.3003">
        <ele>149</ele>
        <time>2015-05-14T08:08:00Z</time>
      </trkpt>
      <trkpt lat="47.67738" lon="-2.30023">
        <ele>149</ele>
        <time>2015-05-14T08:08:07Z</time>
      </trkpt>
      <trkpt lat="47.67731" lon="-2.3002">
        <ele>150</ele>
        <time>2015-05-14T08:08:13Z</time>
      </trkpt>
      <trkpt lat="47.67725" lon="-2.30009">
        <ele>151</ele>
        <time>2015-05-14T08:08:20Z</time>
      </trkpt>
      <trkpt lat="47.6772" lon="-2.30003">
        <ele>150</ele>
        <time>2015-05-14T08:08:26Z</time>
      </trkpt>
      <trkpt lat="47.67717" lon="-2.29992">
        <ele>148</ele>
        <time>2015-05-14T08:08:31Z</time>
      </trkpt>
      <trkpt lat="47.67715" lon="-2.29986">
        <ele>145</ele>
        <time>2015-05-14T08:08:38Z</time>
      </trkpt>
      <trkpt lat="47.67711" lon="-2.29976">
        <ele>143</ele>
        <time>2015-05-14T08:08:43Z</time>
      </trkpt>
      <trkpt lat="47.67712" lon="-2.29963">
        <ele>145</ele>
        <time>2015-05-14T08:08:49Z</time>
      </trkpt>
      <trkpt lat="47.6771" lon="-2.29952">
        <ele>146</ele>
        <time>2015-05-14T08:08:56Z</time>
      </trkpt>
      <trkpt lat="47.67711" lon="-2.29941">
        <ele>147</ele>
        <time>2015-05-14T08:09:02Z</time>
      </trkpt>
      <trkpt lat="47.67712" lon="-2.2993">
        <ele>144</ele>
        <time>2015-05-14T08:09:09Z</time>
      </trkpt>
      <trkpt lat="47.67715" lon="-2.2992">
        <ele>140</ele>
        <time>2015-05-14T08:09:16Z</time>
      </trkpt>
      <trkpt lat="47.67715" lon="-2.29911">
        <ele>141</ele>
        <time>2015-05-14T08:09:23Z</time>
      </trkpt>
      <trkpt lat="47.67716" lon="-2.29903">
        <ele>144</ele>
        <time>2015-05-14T08:09:30Z</time>
      </trkpt>
      <trkpt lat="47.67717" lon="-2.29892">
        <ele>144</ele>
        <time>2015-05-14T08:09:36Z</time>
      </trkpt>
      <trkpt lat="47.67717" lon="-2.2988">
        <ele>151</ele>
        <time>2015-05-14T08:09:41Z</time>
      </trkpt>
      <trkpt lat="47.67721" lon="-2.29872">
        <ele>148</ele>
        <time>2015-05-14T08:09:48Z</time>
      </trkpt>
      <trkpt lat="47.67724" lon="-2.29862">
        <ele>151</ele>
        <time>2015-05-14T08:09:55Z</time>
      </trkpt>
      <trkpt lat="47.67724" lon="-2.29858">
        <ele>151</ele>
        <time>2015-05-14T08:10:02Z</time>
      </trkpt>
      <trkpt lat="47.67722" lon="-2.29849">
        <ele>153</ele>
        <time>2015-05-14T08:10:09Z</time>
      </trkpt>
      <trkpt lat="47.67722" lon="-2.29835">
        <ele>155</ele>
        <time>2015-05-14T08:10:15Z</time>
      </trkpt>
      <trkpt lat="47.67727" lon="-2.29824">
        <ele>155</ele>
        <time>2015-05-14T08:10:17Z</time>
      </trkpt>
      <trkpt lat="47.67725" lon="-2.29812">
        <ele>155</ele>
        <time>2015-05-14T08:10:20Z</time>
      </trkpt>
      <trkpt lat="47.67724" lon="-2.29803">
        <ele>154</ele>
        <time>2015-05-14T08:10:27Z</time>
      </trkpt>
      <trkpt lat="47.67725" lon="-2.29802">
        <ele>148</ele>
        <time>2015-05-14T08:10:34Z</time>
      </trkpt>
      <trkpt lat="47.67724" lon="-2.29802">
        <ele>147</ele>
        <time>2015-05-14T08:10:41Z</time>
      </trkpt>
      <trkpt lat="47.67725" lon="-2.29801">
        <ele>147</ele>
        <time>2015-05-14T08:10:48Z</time>
      </trkpt>
      <trkpt lat="47.67725" lon="-2.29801">
        <ele>147</ele>
        <time>2015-05-14T08:10:50Z</time>
      </trkpt>
      <trkpt lat="47.67725" lon="-2.29798">
        <ele>149</ele>
        <time>2015-05-14T08:10:58Z</time>
      </trkpt>
      <trkpt lat="47.67732" lon="-2.29788">
        <ele>154</ele>
        <time>2015-05-14T08:11:00Z</time>
      </trkpt>
      <trkpt lat="47.67733" lon="-2.29776">
        <ele>153</ele>
        <time>2015-05-14T08:11:04Z</time>
      </trkpt>
      <trkpt lat="47.67731" lon="-2.29765">
        <ele>154</ele>
        <time>2015-05-14T08:11:10Z</time>
      </trkpt>
      <trkpt lat="47.67729" lon="-2.29756">
        <ele>158</ele>
        <time>2015-05-14T08:11:17Z</time>
      </trkpt>
      <trkpt lat="47.67732" lon="-2.29752">
        <ele>153</ele>
        <time>2015-05-14T08:11:24Z</time>
      </trkpt>
      <trkpt lat="47.67733" lon="-2.29753">
        <ele>152</ele>
        <time>2015-05-14T08:11:29Z</time>
      </trkpt>
      <trkpt lat="47.67732" lon="-2.29754">
        <ele>152</ele>
        <time>2015-05-14T08:11:39Z</time>
      </trkpt>
      <trkpt lat="47.67732" lon="-2.29754">
        <ele>152</ele>
        <time>2015-05-14T08:11:40Z</time>
      </trkpt>
      <trkpt lat="47.67734" lon="-2.29752">
        <ele>153</ele>
        <time>2015-05-14T08:13:09Z</time>
      </trkpt>
      <trkpt lat="47.67736" lon="-2.2975">
        <ele>151</ele>
        <time>2015-05-14T08:13:16Z</time>
      </trkpt>
      <trkpt lat="47.67736" lon="-2.29751">
        <ele>150</ele>
        <time>2015-05-14T08:13:23Z</time>
      </trkpt>
      <trkpt lat="47.67736" lon="-2.29751">
        <ele>150</ele>
        <time>2015-05-14T08:13:24Z</time>
      </trkpt>
      <trkpt lat="47.67737" lon="-2.29752">
        <ele>149</ele>
        <time>2015-05-14T08:13:31Z</time>
      </trkpt>
      <trkpt lat="47.67737" lon="-2.29752">
        <ele>149</ele>
        <time>2015-05-14T08:13:32Z</time>
      </trkpt>
      <trkpt lat="47.67738" lon="-2.29754">
        <ele>150</ele>
        <time>2015-05-14T08:13:57Z</time>
      </trkpt>
      <trkpt lat="47.67738" lon="-2.29754">
        <ele>149</ele>
        <time>2015-05-14T08:13:58Z</time>
      </trkpt>
      <trkpt lat="47.67742" lon="-2.29763">
        <ele>149</ele>
        <time>2015-05-14T08:14:43Z</time>
      </trkpt>
      <trkpt lat="47.6774" lon="-2.29774">
        <ele>146</ele>
        <time>2015-05-14T08:14:48Z</time>
      </trkpt>
      <trkpt lat="47.67745" lon="-2.29785">
        <ele>145</ele>
        <time>2015-05-14T08:14:54Z</time>
      </trkpt>
      <trkpt lat="47.67753" lon="-2.2978">
        <ele>144</ele>
        <time>2015-05-14T08:14:58Z</time>
      </trkpt>
      <trkpt lat="47.67761" lon="-2.29778">
        <ele>144</ele>
        <time>2015-05-14T08:15:04Z</time>
      </trkpt>
      <trkpt lat="47.67757" lon="-2.29778">
        <ele>145</ele>
        <time>2015-05-14T08:15:11Z</time>
      </trkpt>
      <trkpt lat="47.67757" lon="-2.29777">
        <ele>145</ele>
        <time>2015-05-14T08:15:18Z</time>
      </trkpt>
      <trkpt lat="47.67757" lon="-2.29777">
        <ele>146</ele>
        <time>2015-05-14T08:15:19Z</time>
      </trkpt>
      <trkpt lat="47.67758" lon="-2.29777">
        <ele>145</ele>
        <time>2015-05-14T08:15:39Z</time>
      </trkpt>
      <trkpt lat="47.67758" lon="-2.29777">
        <ele>145</ele>
        <time>2015-05-14T08:15:40Z</time>
      </trkpt>
      <trkpt lat="47.67749" lon="-2.29776">
        <ele>137</ele>
        <time>2015-05-14T08:16:28Z</time>
      </trkpt>
      <trkpt lat="47.67745" lon="-2.29766">
        <ele>142</ele>
        <time>2015-05-14T08:16:32Z</time>
      </trkpt>
      <trkpt lat="47.67748" lon="-2.29757">
        <ele>139</ele>
        <time>2015-05-14T08:16:39Z</time>
      </trkpt>
      <trkpt lat="47.67748" lon="-2.29751">
        <ele>142</ele>
        <time>2015-05-14T08:16:46Z</time>
      </trkpt>
      <trkpt lat="47.67744" lon="-2.2975">
        <ele>146</ele>
        <time>2015-05-14T08:16:53Z</time>
      </trkpt>
      <trkpt lat="47.67745" lon="-2.29749">
        <ele>147</ele>
        <time>2015-05-14T08:17:00Z</time>
      </trkpt>
      <trkpt lat="47.67745" lon="-2.29749">
        <ele>147</ele>
        <time>2015-05-14T08:17:02Z</time>
      </trkpt>
      <trkpt lat="47.67745" lon="-2.29752">
        <ele>147</ele>
        <time>2015-05-14T08:17:35Z</time>
      </trkpt>
      <trkpt lat="47.67745" lon="-2.29752">
        <ele>147</ele>
        <time>2015-05-14T08:17:42Z</time>
      </trkpt>
      <trkpt lat="47.67745" lon="-2.29752">
        <ele>147</ele>
        <time>2015-05-14T08:17:44Z</time>
      </trkpt>
      <trkpt lat="47.67744" lon="-2.29756">
        <ele>146</ele>
        <time>2015-05-14T08:18:25Z</time>
      </trkpt>
      <trkpt lat="47.67744" lon="-2.29754">
        <ele>148</ele>
        <time>2015-05-14T08:18:32Z</time>
      </trkpt>
      <trkpt lat="47.67744" lon="-2.29754">
        <ele>146</ele>
        <time>2015-05-14T08:18:38Z</time>
      </trkpt>
      <trkpt lat="47.67745" lon="-2.29745">
        <ele>145</ele>
        <time>2015-05-14T08:20:11Z</time>
      </trkpt>
      <trkpt lat="47.67743" lon="-2.29745">
        <ele>142</ele>
        <time>2015-05-14T08:20:18Z</time>
      </trkpt>
      <trkpt lat="47.67743" lon="-2.29745">
        <ele>142</ele>
        <time>2015-05-14T08:20:20Z</time>
      </trkpt>
      <trkpt lat="47.67736" lon="-2.29788">
        <ele>149</ele>
        <time>2015-05-14T08:22:05Z</time>
      </trkpt>
      <trkpt lat="47.67745" lon="-2.2977">
        <ele>156</ele>
        <time>2015-05-14T08:22:07Z</time>
      </trkpt>
      <trkpt lat="47.67743" lon="-2.29761">
        <ele>144</ele>
        <time>2015-05-14T08:22:14Z</time>
      </trkpt>
      <trkpt lat="47.67745" lon="-2.29754">
        <ele>145</ele>
        <time>2015-05-14T08:22:21Z</time>
      </trkpt>
      <trkpt lat="47.67746" lon="-2.29751">
        <ele>145</ele>
        <time>2015-05-14T08:22:28Z</time>
      </trkpt>
      <trkpt lat="47.67746" lon="-2.29751">
        <ele>145</ele>
        <time>2015-05-14T08:22:35Z</time>
      </trkpt>
      <trkpt lat="47.67746" lon="-2.29751">
        <ele>145</ele>
        <time>2015-05-14T08:23:20Z</time>
      </trkpt>
      <trkpt lat="47.67746" lon="-2.29751">
        <ele>145</ele>
        <time>2015-05-14T08:23:23Z</time>
      </trkpt>
      <trkpt lat="47.67746" lon="-2.2975">
        <ele>145</ele>
        <time>2015-05-14T08:23:30Z</time>
      </trkpt>
      <trkpt lat="47.67746" lon="-2.2975">
        <ele>145</ele>
        <time>2015-05-14T08:23:31Z</time>
      </trkpt>
      <trkpt lat="47.67746" lon="-2.2975">
        <ele>145</ele>
        <time>2015-05-14T08:23:52Z</time>
      </trkpt>
      <trkpt lat="47.67746" lon="-2.2975">
        <ele>145</ele>
        <time>2015-05-14T08:23:57Z</time>
      </trkpt>
      <trkpt lat="47.67747" lon="-2.29739">
        <ele>147</ele>
        <time>2015-05-14T08:24:21Z</time>
      </trkpt>
      <trkpt lat="47.67748" lon="-2.29735">
        <ele>146</ele>
        <time>2015-05-14T08:24:28Z</time>
      </trkpt>
      <trkpt lat="47.67748" lon="-2.29735">
        <ele>146</ele>
        <time>2015-05-14T08:24:30Z</time>
      </trkpt>
      <trkpt lat="47.67748" lon="-2.29732">
        <ele>147</ele>
        <time>2015-05-14T08:24:37Z</time>
      </trkpt>
      <trkpt lat="47.67748" lon="-2.29732">
        <ele>147</ele>
        <time>2015-05-14T08:24:39Z</time>
      </trkpt>
      <trkpt lat="47.67748" lon="-2.29737">
        <ele>144</ele>
        <time>2015-05-14T08:26:01Z</time>
      </trkpt>
      <trkpt lat="47.67746" lon="-2.29748">
        <ele>141</ele>
        <time>2015-05-14T08:26:08Z</time>
      </trkpt>
      <trkpt lat="47.67743" lon="-2.29753">
        <ele>141</ele>
        <time>2015-05-14T08:26:15Z</time>
      </trkpt>
      <trkpt lat="47.67744" lon="-2.29752">
        <ele>141</ele>
        <time>2015-05-14T08:26:21Z</time>
      </trkpt>
      <trkpt lat="47.67742" lon="-2.2975">
        <ele>141</ele>
        <time>2015-05-14T08:26:37Z</time>
      </trkpt>
      <trkpt lat="47.67734" lon="-2.29748">
        <ele>140</ele>
        <time>2015-05-14T08:26:44Z</time>
      </trkpt>
      <trkpt lat="47.6773" lon="-2.29742">
        <ele>137</ele>
        <time>2015-05-14T08:26:51Z</time>
      </trkpt>
      <trkpt lat="47.6773" lon="-2.29739">
        <ele>138</ele>
        <time>2015-05-14T08:26:58Z</time>
      </trkpt>
      <trkpt lat="47.67731" lon="-2.29729">
        <ele>141</ele>
        <time>2015-05-14T08:27:05Z</time>
      </trkpt>
      <trkpt lat="47.67732" lon="-2.29717">
        <ele>142</ele>
        <time>2015-05-14T08:27:09Z</time>
      </trkpt>
      <trkpt lat="47.67733" lon="-2.29705">
        <ele>145</ele>
        <time>2015-05-14T08:27:14Z</time>
      </trkpt>
      <trkpt lat="47.67733" lon="-2.29698">
        <ele>146</ele>
        <time>2015-05-14T08:27:21Z</time>
      </trkpt>
      <trkpt lat="47.67733" lon="-2.29697">
        <ele>144</ele>
        <time>2015-05-14T08:27:28Z</time>
      </trkpt>
      <trkpt lat="47.67737" lon="-2.29688">
        <ele>146</ele>
        <time>2015-05-14T08:27:35Z</time>
      </trkpt>
      <trkpt lat="47.67739" lon="-2.29677">
        <ele>145</ele>
        <time>2015-05-14T08:27:42Z</time>
      </trkpt>
      <trkpt lat="47.67743" lon="-2.29668">
        <ele>146</ele>
        <time>2015-05-14T08:27:48Z</time>
      </trkpt>
      <trkpt lat="47.67745" lon="-2.29664">
        <ele>146</ele>
        <time>2015-05-14T08:27:55Z</time>
      </trkpt>
      <trkpt lat="47.67748" lon="-2.29661">
        <ele>147</ele>
        <time>2015-05-14T08:28:02Z</time>
      </trkpt>
      <trkpt lat="47.6775" lon="-2.2965">
        <ele>148</ele>
        <time>2015-05-14T08:28:09Z</time>
      </trkpt>
      <trkpt lat="47.67759" lon="-2.2965">
        <ele>148</ele>
        <time>2015-05-14T08:28:13Z</time>
      </trkpt>
      <trkpt lat="47.6776" lon="-2.29648">
        <ele>146</ele>
        <time>2015-05-14T08:28:20Z</time>
      </trkpt>
      <trkpt lat="47.67763" lon="-2.2964">
        <ele>144</ele>
        <time>2015-05-14T08:28:27Z</time>
      </trkpt>
      <trkpt lat="47.67762" lon="-2.29634">
        <ele>143</ele>
        <time>2015-05-14T08:28:34Z</time>
      </trkpt>
      <trkpt lat="47.67764" lon="-2.29621">
        <ele>143</ele>
        <time>2015-05-14T08:28:41Z</time>
      </trkpt>
      <trkpt lat="47.67768" lon="-2.2961">
        <ele>143</ele>
        <time>2015-05-14T08:28:47Z</time>
      </trkpt>
      <trkpt lat="47.67771" lon="-2.29602">
        <ele>145</ele>
        <time>2015-05-14T08:28:54Z</time>
      </trkpt>
      <trkpt lat="47.67776" lon="-2.29594">
        <ele>147</ele>
        <time>2015-05-14T08:28:59Z</time>
      </trkpt>
      <trkpt lat="47.6777" lon="-2.29585">
        <ele>145</ele>
        <time>2015-05-14T08:29:04Z</time>
      </trkpt>
      <trkpt lat="47.67771" lon="-2.29577">
        <ele>145</ele>
        <time>2015-05-14T08:29:11Z</time>
      </trkpt>
      <trkpt lat="47.67772" lon="-2.29564">
        <ele>146</ele>
        <time>2015-05-14T08:29:17Z</time>
      </trkpt>
      <trkpt lat="47.67776" lon="-2.29555">
        <ele>145</ele>
        <time>2015-05-14T08:29:23Z</time>
      </trkpt>
      <trkpt lat="47.67777" lon="-2.29543">
        <ele>144</ele>
        <time>2015-05-14T08:29:30Z</time>
      </trkpt>
      <trkpt lat="47.67785" lon="-2.29537">
        <ele>144</ele>
        <time>2015-05-14T08:29:37Z</time>
      </trkpt>
      <trkpt lat="47.67793" lon="-2.29533">
        <ele>143</ele>
        <time>2015-05-14T08:29:40Z</time>
      </trkpt>
      <trkpt lat="47.67791" lon="-2.29526">
        <ele>145</ele>
        <time>2015-05-14T08:29:47Z</time>
      </trkpt>
      <trkpt lat="47.67784" lon="-2.29524">
        <ele>143</ele>
        <time>2015-05-14T08:29:48Z</time>
      </trkpt>
      <trkpt lat="47.67782" lon="-2.29516">
        <ele>144</ele>
        <time>2015-05-14T08:29:55Z</time>
      </trkpt>
      <trkpt lat="47.6779" lon="-2.29515">
        <ele>147</ele>
        <time>2015-05-14T08:29:57Z</time>
      </trkpt>
      <trkpt lat="47.67793" lon="-2.29512">
        <ele>146</ele>
        <time>2015-05-14T08:30:04Z</time>
      </trkpt>
      <trkpt lat="47.67793" lon="-2.29512">
        <ele>145</ele>
        <time>2015-05-14T08:30:11Z</time>
      </trkpt>
      <trkpt lat="47.67793" lon="-2.29512">
        <ele>145</ele>
        <time>2015-05-14T08:30:18Z</time>
      </trkpt>
      <trkpt lat="47.67781" lon="-2.29502">
        <ele>141</ele>
        <time>2015-05-14T08:30:21Z</time>
      </trkpt>
      <trkpt lat="47.67782" lon="-2.29492">
        <ele>139</ele>
        <time>2015-05-14T08:30:28Z</time>
      </trkpt>
      <trkpt lat="47.67784" lon="-2.29482">
        <ele>143</ele>
        <time>2015-05-14T08:30:35Z</time>
      </trkpt>
      <trkpt lat="47.67783" lon="-2.2947">
        <ele>144</ele>
        <time>2015-05-14T08:30:40Z</time>
      </trkpt>
      <trkpt lat="47.67776" lon="-2.29461">
        <ele>140</ele>
        <time>2015-05-14T08:30:45Z</time>
      </trkpt>
      <trkpt lat="47.67772" lon="-2.2945">
        <ele>140</ele>
        <time>2015-05-14T08:30:51Z</time>
      </trkpt>
      <trkpt lat="47.67772" lon="-2.29438">
        <ele>146</ele>
        <time>2015-05-14T08:30:57Z</time>
      </trkpt>
      <trkpt lat="47.67773" lon="-2.29427">
        <ele>146</ele>
        <time>2015-05-14T08:31:04Z</time>
      </trkpt>
      <trkpt lat="47.67773" lon="-2.29416">
        <ele>147</ele>
        <time>2015-05-14T08:31:10Z</time>
      </trkpt>
      <trkpt lat="47.67768" lon="-2.29409">
        <ele>148</ele>
        <time>2015-05-14T08:31:17Z</time>
      </trkpt>
      <trkpt lat="47.67765" lon="-2.29411">
        <ele>145</ele>
        <time>2015-05-14T08:31:24Z</time>
      </trkpt>
      <trkpt lat="47.67764" lon="-2.2941">
        <ele>151</ele>
        <time>2015-05-14T08:31:31Z</time>
      </trkpt>
      <trkpt lat="47.67765" lon="-2.29407">
        <ele>149</ele>
        <time>2015-05-14T08:31:38Z</time>
      </trkpt>
      <trkpt lat="47.67768" lon="-2.29403">
        <ele>149</ele>
        <time>2015-05-14T08:31:45Z</time>
      </trkpt>
      <trkpt lat="47.67767" lon="-2.29398">
        <ele>146</ele>
        <time>2015-05-14T08:31:52Z</time>
      </trkpt>
      <trkpt lat="47.67768" lon="-2.29392">
        <ele>147</ele>
        <time>2015-05-14T08:31:59Z</time>
      </trkpt>
      <trkpt lat="47.67769" lon="-2.29393">
        <ele>144</ele>
        <time>2015-05-14T08:32:06Z</time>
      </trkpt>
      <trkpt lat="47.67773" lon="-2.2939">
        <ele>145</ele>
        <time>2015-05-14T08:32:13Z</time>
      </trkpt>
      <trkpt lat="47.67778" lon="-2.2939">
        <ele>144</ele>
        <time>2015-05-14T08:32:20Z</time>
      </trkpt>
      <trkpt lat="47.67784" lon="-2.29387">
        <ele>146</ele>
        <time>2015-05-14T08:32:27Z</time>
      </trkpt>
      <trkpt lat="47.67793" lon="-2.29387">
        <ele>146</ele>
        <time>2015-05-14T08:32:33Z</time>
      </trkpt>
      <trkpt lat="47.67801" lon="-2.29385">
        <ele>147</ele>
        <time>2015-05-14T08:32:39Z</time>
      </trkpt>
      <trkpt lat="47.67807" lon="-2.29379">
        <ele>147</ele>
        <time>2015-05-14T08:32:45Z</time>
      </trkpt>
      <trkpt lat="47.67812" lon="-2.29371">
        <ele>147</ele>
        <time>2015-05-14T08:32:52Z</time>
      </trkpt>
      <trkpt lat="47.67817" lon="-2.29362">
        <ele>147</ele>
        <time>2015-05-14T08:32:58Z</time>
      </trkpt>
      <trkpt lat="47.67823" lon="-2.29354">
        <ele>148</ele>
        <time>2015-05-14T08:33:03Z</time>
      </trkpt>
      <trkpt lat="47.67829" lon="-2.29346">
        <ele>151</ele>
        <time>2015-05-14T08:33:08Z</time>
      </trkpt>
      <trkpt lat="47.67832" lon="-2.29337">
        <ele>151</ele>
        <time>2015-05-14T08:33:15Z</time>
      </trkpt>
      <trkpt lat="47.67837" lon="-2.29328">
        <ele>152</ele>
        <time>2015-05-14T08:33:21Z</time>
      </trkpt>
      <trkpt lat="47.67841" lon="-2.29319">
        <ele>154</ele>
        <time>2015-05-14T08:33:27Z</time>
      </trkpt>
      <trkpt lat="47.67845" lon="-2.29309">
        <ele>154</ele>
        <time>2015-05-14T08:33:34Z</time>
      </trkpt>
      <trkpt lat="47.67848" lon="-2.29307">
        <ele>153</ele>
        <time>2015-05-14T08:33:41Z</time>
      </trkpt>
      <trkpt lat="47.6785" lon="-2.29297">
        <ele>150</ele>
        <time>2015-05-14T08:33:48Z</time>
      </trkpt>
      <trkpt lat="47.67855" lon="-2.29288">
        <ele>151</ele>
        <time>2015-05-14T08:33:53Z</time>
      </trkpt>
      <trkpt lat="47.6786" lon="-2.29281">
        <ele>150</ele>
        <time>2015-05-14T08:34:00Z</time>
      </trkpt>
      <trkpt lat="47.67868" lon="-2.29274">
        <ele>151</ele>
        <time>2015-05-14T08:34:06Z</time>
      </trkpt>
      <trkpt lat="47.67873" lon="-2.29265">
        <ele>151</ele>
        <time>2015-05-14T08:34:13Z</time>
      </trkpt>
      <trkpt lat="47.6788" lon="-2.29259">
        <ele>149</ele>
        <time>2015-05-14T08:34:20Z</time>
      </trkpt>
      <trkpt lat="47.67885" lon="-2.2925">
        <ele>149</ele>
        <time>2015-05-14T08:34:26Z</time>
      </trkpt>
      <trkpt lat="47.67889" lon="-2.29241">
        <ele>150</ele>
        <time>2015-05-14T08:34:32Z</time>
      </trkpt>
      <trkpt lat="47.67896" lon="-2.29234">
        <ele>151</ele>
        <time>2015-05-14T08:34:38Z</time>
      </trkpt>
      <trkpt lat="47.67901" lon="-2.29226">
        <ele>153</ele>
        <time>2015-05-14T08:34:45Z</time>
      </trkpt>
      <trkpt lat="47.67909" lon="-2.29222">
        <ele>153</ele>
        <time>2015-05-14T08:34:50Z</time>
      </trkpt>
      <trkpt lat="47.67917" lon="-2.29216">
        <ele>153</ele>
        <time>2015-05-14T08:34:56Z</time>
      </trkpt>
      <trkpt lat="47.67924" lon="-2.2921">
        <ele>154</ele>
        <time>2015-05-14T08:35:02Z</time>
      </trkpt>
      <trkpt lat="47.67932" lon="-2.29205">
        <ele>155</ele>
        <time>2015-05-14T08:35:08Z</time>
      </trkpt>
      <trkpt lat="47.67931" lon="-2.292">
        <ele>153</ele>
        <time>2015-05-14T08:35:15Z</time>
      </trkpt>
      <trkpt lat="47.6794" lon="-2.29198">
        <ele>153</ele>
        <time>2015-05-14T08:35:22Z</time>
      </trkpt>
      <trkpt lat="47.67946" lon="-2.29194">
        <ele>154</ele>
        <time>2015-05-14T08:35:28Z</time>
      </trkpt>
      <trkpt lat="47.67952" lon="-2.29189">
        <ele>154</ele>
        <time>2015-05-14T08:35:33Z</time>
      </trkpt>
      <trkpt lat="47.6796" lon="-2.29184">
        <ele>156</ele>
        <time>2015-05-14T08:35:38Z</time>
      </trkpt>
      <trkpt lat="47.67968" lon="-2.29181">
        <ele>155</ele>
        <time>2015-05-14T08:35:44Z</time>
      </trkpt>
      <trkpt lat="47.67971" lon="-2.29175">
        <ele>154</ele>
        <time>2015-05-14T08:35:51Z</time>
      </trkpt>
      <trkpt lat="47.67975" lon="-2.29166">
        <ele>154</ele>
        <time>2015-05-14T08:35:58Z</time>
      </trkpt>
      <trkpt lat="47.6798" lon="-2.29157">
        <ele>153</ele>
        <time>2015-05-14T08:36:05Z</time>
      </trkpt>
      <trkpt lat="47.67987" lon="-2.29151">
        <ele>152</ele>
        <time>2015-05-14T08:36:11Z</time>
      </trkpt>
      <trkpt lat="47.67995" lon="-2.29144">
        <ele>153</ele>
        <time>2015-05-14T08:36:17Z</time>
      </trkpt>
      <trkpt lat="47.67998" lon="-2.29135">
        <ele>152</ele>
        <time>2015-05-14T08:36:24Z</time>
      </trkpt>
      <trkpt lat="47.68004" lon="-2.29128">
        <ele>152</ele>
        <time>2015-05-14T08:36:31Z</time>
      </trkpt>
      <trkpt lat="47.68009" lon="-2.29119">
        <ele>151</ele>
        <time>2015-05-14T08:36:38Z</time>
      </trkpt>
      <trkpt lat="47.68011" lon="-2.29108">
        <ele>152</ele>
        <time>2015-05-14T08:36:45Z</time>
      </trkpt>
      <trkpt lat="47.68015" lon="-2.29097">
        <ele>152</ele>
        <time>2015-05-14T08:36:52Z</time>
      </trkpt>
      <trkpt lat="47.68019" lon="-2.29088">
        <ele>152</ele>
        <time>2015-05-14T08:36:58Z</time>
      </trkpt>
      <trkpt lat="47.68025" lon="-2.29078">
        <ele>151</ele>
        <time>2015-05-14T08:37:05Z</time>
      </trkpt>
      <trkpt lat="47.68029" lon="-2.29069">
        <ele>151</ele>
        <time>2015-05-14T08:37:11Z</time>
      </trkpt>
      <trkpt lat="47.68032" lon="-2.2906">
        <ele>149</ele>
        <time>2015-05-14T08:37:18Z</time>
      </trkpt>
      <trkpt lat="47.68037" lon="-2.29052">
        <ele>152</ele>
        <time>2015-05-14T08:37:24Z</time>
      </trkpt>
      <trkpt lat="47.68043" lon="-2.29043">
        <ele>150</ele>
        <time>2015-05-14T08:37:31Z</time>
      </trkpt>
      <trkpt lat="47.6805" lon="-2.29038">
        <ele>149</ele>
        <time>2015-05-14T08:37:37Z</time>
      </trkpt>
      <trkpt lat="47.68058" lon="-2.29033">
        <ele>151</ele>
        <time>2015-05-14T08:37:44Z</time>
      </trkpt>
      <trkpt lat="47.68065" lon="-2.29031">
        <ele>150</ele>
        <time>2015-05-14T08:37:50Z</time>
      </trkpt>
      <trkpt lat="47.68065" lon="-2.29028">
        <ele>151</ele>
        <time>2015-05-14T08:37:57Z</time>
      </trkpt>
      <trkpt lat="47.68065" lon="-2.29024">
        <ele>150</ele>
        <time>2015-05-14T08:38:04Z</time>
      </trkpt>
      <trkpt lat="47.68063" lon="-2.29024">
        <ele>148</ele>
        <time>2015-05-14T08:38:11Z</time>
      </trkpt>
      <trkpt lat="47.68069" lon="-2.29017">
        <ele>150</ele>
        <time>2015-05-14T08:38:21Z</time>
      </trkpt>
      <trkpt lat="47.68075" lon="-2.2901">
        <ele>152</ele>
        <time>2015-05-14T08:38:26Z</time>
      </trkpt>
      <trkpt lat="47.68078" lon="-2.28998">
        <ele>152</ele>
        <time>2015-05-14T08:38:33Z</time>
      </trkpt>
      <trkpt lat="47.6808" lon="-2.28987">
        <ele>150</ele>
        <time>2015-05-14T08:38:40Z</time>
      </trkpt>
      <trkpt lat="47.68085" lon="-2.28978">
        <ele>151</ele>
        <time>2015-05-14T08:38:46Z</time>
      </trkpt>
      <trkpt lat="47.68089" lon="-2.28968">
        <ele>152</ele>
        <time>2015-05-14T08:38:53Z</time>
      </trkpt>
      <trkpt lat="47.68095" lon="-2.28963">
        <ele>153</ele>
        <time>2015-05-14T08:38:58Z</time>
      </trkpt>
      <trkpt lat="47.68102" lon="-2.28959">
        <ele>154</ele>
        <time>2015-05-14T08:39:05Z</time>
      </trkpt>
      <trkpt lat="47.6811" lon="-2.28958">
        <ele>153</ele>
        <time>2015-05-14T08:39:12Z</time>
      </trkpt>
      <trkpt lat="47.68116" lon="-2.28964">
        <ele>152</ele>
        <time>2015-05-14T08:39:19Z</time>
      </trkpt>
      <trkpt lat="47.68124" lon="-2.28967">
        <ele>150</ele>
        <time>2015-05-14T08:39:26Z</time>
      </trkpt>
      <trkpt lat="47.68132" lon="-2.28969">
        <ele>149</ele>
        <time>2015-05-14T08:39:33Z</time>
      </trkpt>
      <trkpt lat="47.68137" lon="-2.28975">
        <ele>149</ele>
        <time>2015-05-14T08:39:38Z</time>
      </trkpt>
      <trkpt lat="47.68145" lon="-2.2898">
        <ele>149</ele>
        <time>2015-05-14T08:39:45Z</time>
      </trkpt>
      <trkpt lat="47.68151" lon="-2.28986">
        <ele>148</ele>
        <time>2015-05-14T08:39:52Z</time>
      </trkpt>
      <trkpt lat="47.68158" lon="-2.28988">
        <ele>147</ele>
        <time>2015-05-14T08:39:57Z</time>
      </trkpt>
      <trkpt lat="47.68167" lon="-2.28993">
        <ele>149</ele>
        <time>2015-05-14T08:40:03Z</time>
      </trkpt>
      <trkpt lat="47.68174" lon="-2.28997">
        <ele>148</ele>
        <time>2015-05-14T08:40:10Z</time>
      </trkpt>
      <trkpt lat="47.6818" lon="-2.29003">
        <ele>149</ele>
        <time>2015-05-14T08:40:15Z</time>
      </trkpt>
      <trkpt lat="47.68185" lon="-2.29005">
        <ele>144</ele>
        <time>2015-05-14T08:40:22Z</time>
      </trkpt>
      <trkpt lat="47.68193" lon="-2.29009">
        <ele>145</ele>
        <time>2015-05-14T08:40:28Z</time>
      </trkpt>
      <trkpt lat="47.682" lon="-2.29014">
        <ele>144</ele>
        <time>2015-05-14T08:40:35Z</time>
      </trkpt>
      <trkpt lat="47.68207" lon="-2.2902">
        <ele>146</ele>
        <time>2015-05-14T08:40:40Z</time>
      </trkpt>
      <trkpt lat="47.68213" lon="-2.29024">
        <ele>146</ele>
        <time>2015-05-14T08:40:47Z</time>
      </trkpt>
      <trkpt lat="47.6822" lon="-2.29029">
        <ele>149</ele>
        <time>2015-05-14T08:40:52Z</time>
      </trkpt>
      <trkpt lat="47.68224" lon="-2.29035">
        <ele>147</ele>
        <time>2015-05-14T08:40:59Z</time>
      </trkpt>
      <trkpt lat="47.6823" lon="-2.2904">
        <ele>148</ele>
        <time>2015-05-14T08:41:04Z</time>
      </trkpt>
      <trkpt lat="47.68236" lon="-2.29046">
        <ele>147</ele>
        <time>2015-05-14T08:41:10Z</time>
      </trkpt>
      <trkpt lat="47.68242" lon="-2.29053">
        <ele>147</ele>
        <time>2015-05-14T08:41:15Z</time>
      </trkpt>
      <trkpt lat="47.6825" lon="-2.29059">
        <ele>149</ele>
        <time>2015-05-14T08:41:21Z</time>
      </trkpt>
      <trkpt lat="47.68251" lon="-2.2906">
        <ele>147</ele>
        <time>2015-05-14T08:41:28Z</time>
      </trkpt>
      <trkpt lat="47.68253" lon="-2.29062">
        <ele>149</ele>
        <time>2015-05-14T08:41:35Z</time>
      </trkpt>
      <trkpt lat="47.68261" lon="-2.29067">
        <ele>151</ele>
        <time>2015-05-14T08:41:42Z</time>
      </trkpt>
      <trkpt lat="47.68268" lon="-2.29072">
        <ele>151</ele>
        <time>2015-05-14T08:41:48Z</time>
      </trkpt>
      <trkpt lat="47.68275" lon="-2.29075">
        <ele>148</ele>
        <time>2015-05-14T08:41:54Z</time>
      </trkpt>
      <trkpt lat="47.68284" lon="-2.29077">
        <ele>150</ele>
        <time>2015-05-14T08:41:59Z</time>
      </trkpt>
      <trkpt lat="47.68291" lon="-2.29081">
        <ele>151</ele>
        <time>2015-05-14T08:42:04Z</time>
      </trkpt>
      <trkpt lat="47.68298" lon="-2.29085">
        <ele>150</ele>
        <time>2015-05-14T08:42:09Z</time>
      </trkpt>
      <trkpt lat="47.68306" lon="-2.29086">
        <ele>152</ele>
        <time>2015-05-14T08:42:12Z</time>
      </trkpt>
      <trkpt lat="47.68312" lon="-2.29089">
        <ele>151</ele>
        <time>2015-05-14T08:42:19Z</time>
      </trkpt>
      <trkpt lat="47.68319" lon="-2.29091">
        <ele>152</ele>
        <time>2015-05-14T08:42:24Z</time>
      </trkpt>
      <trkpt lat="47.68327" lon="-2.29093">
        <ele>151</ele>
        <time>2015-05-14T08:42:31Z</time>
      </trkpt>
      <trkpt lat="47.68335" lon="-2.29094">
        <ele>151</ele>
        <time>2015-05-14T08:42:38Z</time>
      </trkpt>
      <trkpt lat="47.68342" lon="-2.29095">
        <ele>150</ele>
        <time>2015-05-14T08:42:45Z</time>
      </trkpt>
      <trkpt lat="47.68351" lon="-2.29096">
        <ele>148</ele>
        <time>2015-05-14T08:42:52Z</time>
      </trkpt>
      <trkpt lat="47.68359" lon="-2.29096">
        <ele>149</ele>
        <time>2015-05-14T08:42:55Z</time>
      </trkpt>
      <trkpt lat="47.68368" lon="-2.29096">
        <ele>151</ele>
        <time>2015-05-14T08:43:00Z</time>
      </trkpt>
      <trkpt lat="47.68377" lon="-2.29094">
        <ele>155</ele>
        <time>2015-05-14T08:43:03Z</time>
      </trkpt>
      <trkpt lat="47.68385" lon="-2.29094">
        <ele>154</ele>
        <time>2015-05-14T08:43:08Z</time>
      </trkpt>
      <trkpt lat="47.68393" lon="-2.29094">
        <ele>155</ele>
        <time>2015-05-14T08:43:11Z</time>
      </trkpt>
      <trkpt lat="47.68401" lon="-2.29093">
        <ele>153</ele>
        <time>2015-05-14T08:43:17Z</time>
      </trkpt>
      <trkpt lat="47.68408" lon="-2.29093">
        <ele>153</ele>
        <time>2015-05-14T08:43:21Z</time>
      </trkpt>
      <trkpt lat="47.68417" lon="-2.29092">
        <ele>155</ele>
        <time>2015-05-14T08:43:28Z</time>
      </trkpt>
      <trkpt lat="47.68425" lon="-2.29091">
        <ele>156</ele>
        <time>2015-05-14T08:43:32Z</time>
      </trkpt>
      <trkpt lat="47.68429" lon="-2.29091">
        <ele>149</ele>
        <time>2015-05-14T08:43:39Z</time>
      </trkpt>
      <trkpt lat="47.68435" lon="-2.29086">
        <ele>146</ele>
        <time>2015-05-14T08:43:46Z</time>
      </trkpt>
      <trkpt lat="47.6844" lon="-2.29079">
        <ele>144</ele>
        <time>2015-05-14T08:43:51Z</time>
      </trkpt>
      <trkpt lat="47.68442" lon="-2.29066">
        <ele>144</ele>
        <time>2015-05-14T08:43:57Z</time>
      </trkpt>
      <trkpt lat="47.6844" lon="-2.29055">
        <ele>141</ele>
        <time>2015-05-14T08:44:03Z</time>
      </trkpt>
      <trkpt lat="47.6844" lon="-2.29044">
        <ele>139</ele>
        <time>2015-05-14T08:44:09Z</time>
      </trkpt>
      <trkpt lat="47.68442" lon="-2.29033">
        <ele>140</ele>
        <time>2015-05-14T08:44:14Z</time>
      </trkpt>
      <trkpt lat="47.68441" lon="-2.29019">
        <ele>148</ele>
        <time>2015-05-14T08:44:20Z</time>
      </trkpt>
      <trkpt lat="47.68444" lon="-2.29007">
        <ele>150</ele>
        <time>2015-05-14T08:44:26Z</time>
      </trkpt>
      <trkpt lat="47.68445" lon="-2.28996">
        <ele>151</ele>
        <time>2015-05-14T08:44:32Z</time>
      </trkpt>
      <trkpt lat="47.6845" lon="-2.28986">
        <ele>154</ele>
        <time>2015-05-14T08:44:38Z</time>
      </trkpt>
      <trkpt lat="47.68455" lon="-2.28978">
        <ele>157</ele>
        <time>2015-05-14T08:44:43Z</time>
      </trkpt>
      <trkpt lat="47.68459" lon="-2.28968">
        <ele>158</ele>
        <time>2015-05-14T08:44:49Z</time>
      </trkpt>
      <trkpt lat="47.68465" lon="-2.2896">
        <ele>160</ele>
        <time>2015-05-14T08:44:54Z</time>
      </trkpt>
      <trkpt lat="47.6847" lon="-2.28952">
        <ele>161</ele>
        <time>2015-05-14T08:44:59Z</time>
      </trkpt>
      <trkpt lat="47.68475" lon="-2.28943">
        <ele>159</ele>
        <time>2015-05-14T08:45:05Z</time>
      </trkpt>
      <trkpt lat="47.68476" lon="-2.28932">
        <ele>158</ele>
        <time>2015-05-14T08:45:12Z</time>
      </trkpt>
      <trkpt lat="47.68481" lon="-2.28921">
        <ele>158</ele>
        <time>2015-05-14T08:45:18Z</time>
      </trkpt>
      <trkpt lat="47.68483" lon="-2.2891">
        <ele>155</ele>
        <time>2015-05-14T08:45:24Z</time>
      </trkpt>
      <trkpt lat="47.68484" lon="-2.28901">
        <ele>152</ele>
        <time>2015-05-14T08:45:31Z</time>
      </trkpt>
      <trkpt lat="47.68484" lon="-2.28896">
        <ele>152</ele>
        <time>2015-05-14T08:45:38Z</time>
      </trkpt>
      <trkpt lat="47.68484" lon="-2.28895">
        <ele>150</ele>
        <time>2015-05-14T08:45:45Z</time>
      </trkpt>
      <trkpt lat="47.68483" lon="-2.28893">
        <ele>147</ele>
        <time>2015-05-14T08:45:52Z</time>
      </trkpt>
      <trkpt lat="47.68483" lon="-2.28893">
        <ele>147</ele>
        <time>2015-05-14T08:45:54Z</time>
      </trkpt>
      <trkpt lat="47.68485" lon="-2.28891">
        <ele>148</ele>
        <time>2015-05-14T08:46:15Z</time>
      </trkpt>
      <trkpt lat="47.68485" lon="-2.2889">
        <ele>146</ele>
        <time>2015-05-14T08:46:21Z</time>
      </trkpt>
      <trkpt lat="47.68491" lon="-2.28884">
        <ele>142</ele>
        <time>2015-05-14T08:46:30Z</time>
      </trkpt>
      <trkpt lat="47.68497" lon="-2.28878">
        <ele>139</ele>
        <time>2015-05-14T08:46:35Z</time>
      </trkpt>
      <trkpt lat="47.68504" lon="-2.28875">
        <ele>132</ele>
        <time>2015-05-14T08:46:42Z</time>
      </trkpt>
      <trkpt lat="47.68511" lon="-2.28869">
        <ele>134</ele>
        <time>2015-05-14T08:46:49Z</time>
      </trkpt>
      <trkpt lat="47.68519" lon="-2.28866">
        <ele>136</ele>
        <time>2015-05-14T08:46:54Z</time>
      </trkpt>
      <trkpt lat="47.68526" lon="-2.28862">
        <ele>138</ele>
        <time>2015-05-14T08:46:59Z</time>
      </trkpt>
      <trkpt lat="47.68534" lon="-2.28858">
        <ele>135</ele>
        <time>2015-05-14T08:47:05Z</time>
      </trkpt>
      <trkpt lat="47.68542" lon="-2.28853">
        <ele>136</ele>
        <time>2015-05-14T08:47:11Z</time>
      </trkpt>
      <trkpt lat="47.68548" lon="-2.28851">
        <ele>138</ele>
        <time>2015-05-14T08:47:18Z</time>
      </trkpt>
      <trkpt lat="47.68552" lon="-2.28848">
        <ele>138</ele>
        <time>2015-05-14T08:47:25Z</time>
      </trkpt>
      <trkpt lat="47.68556" lon="-2.28842">
        <ele>139</ele>
        <time>2015-05-14T08:47:32Z</time>
      </trkpt>
      <trkpt lat="47.68557" lon="-2.2884">
        <ele>138</ele>
        <time>2015-05-14T08:47:39Z</time>
      </trkpt>
      <trkpt lat="47.68557" lon="-2.2884">
        <ele>138</ele>
        <time>2015-05-14T08:47:40Z</time>
      </trkpt>
      <trkpt lat="47.68562" lon="-2.28836">
        <ele>137</ele>
        <time>2015-05-14T08:47:50Z</time>
      </trkpt>
      <trkpt lat="47.68564" lon="-2.28835">
        <ele>138</ele>
        <time>2015-05-14T08:47:57Z</time>
      </trkpt>
      <trkpt lat="47.68564" lon="-2.28836">
        <ele>138</ele>
        <time>2015-05-14T08:47:59Z</time>
      </trkpt>
      <trkpt lat="47.68565" lon="-2.28836">
        <ele>138</ele>
        <time>2015-05-14T08:48:10Z</time>
      </trkpt>
      <trkpt lat="47.68565" lon="-2.28836">
        <ele>138</ele>
        <time>2015-05-14T08:48:11Z</time>
      </trkpt>
      <trkpt lat="47.68566" lon="-2.28835">
        <ele>138</ele>
        <time>2015-05-14T08:48:20Z</time>
      </trkpt>
      <trkpt lat="47.68566" lon="-2.28835">
        <ele>138</ele>
        <time>2015-05-14T08:48:21Z</time>
      </trkpt>
      <trkpt lat="47.6857" lon="-2.28822">
        <ele>135</ele>
        <time>2015-05-14T08:48:40Z</time>
      </trkpt>
      <trkpt lat="47.68576" lon="-2.2881">
        <ele>133</ele>
        <time>2015-05-14T08:48:44Z</time>
      </trkpt>
      <trkpt lat="47.6858" lon="-2.28801">
        <ele>135</ele>
        <time>2015-05-14T08:48:46Z</time>
      </trkpt>
      <trkpt lat="47.6858" lon="-2.28795">
        <ele>132</ele>
        <time>2015-05-14T08:48:53Z</time>
      </trkpt>
      <trkpt lat="47.68587" lon="-2.28787">
        <ele>137</ele>
        <time>2015-05-14T08:48:56Z</time>
      </trkpt>
      <trkpt lat="47.68594" lon="-2.28784">
        <ele>140</ele>
        <time>2015-05-14T08:48:59Z</time>
      </trkpt>
      <trkpt lat="47.68602" lon="-2.28785">
        <ele>145</ele>
        <time>2015-05-14T08:49:02Z</time>
      </trkpt>
      <trkpt lat="47.6861" lon="-2.2878">
        <ele>151</ele>
        <time>2015-05-14T08:49:05Z</time>
      </trkpt>
      <trkpt lat="47.68618" lon="-2.28779">
        <ele>154</ele>
        <time>2015-05-14T08:49:10Z</time>
      </trkpt>
      <trkpt lat="47.68624" lon="-2.28783">
        <ele>152</ele>
        <time>2015-05-14T08:49:17Z</time>
      </trkpt>
      <trkpt lat="47.68629" lon="-2.28784">
        <ele>153</ele>
        <time>2015-05-14T08:49:24Z</time>
      </trkpt>
      <trkpt lat="47.68636" lon="-2.28784">
        <ele>150</ele>
        <time>2015-05-14T08:49:31Z</time>
      </trkpt>
      <trkpt lat="47.68637" lon="-2.28784">
        <ele>149</ele>
        <time>2015-05-14T08:49:38Z</time>
      </trkpt>
      <trkpt lat="47.68645" lon="-2.28782">
        <ele>146</ele>
        <time>2015-05-14T08:49:45Z</time>
      </trkpt>
      <trkpt lat="47.68653" lon="-2.28779">
        <ele>144</ele>
        <time>2015-05-14T08:49:49Z</time>
      </trkpt>
      <trkpt lat="47.6866" lon="-2.28777">
        <ele>143</ele>
        <time>2015-05-14T08:49:54Z</time>
      </trkpt>
      <trkpt lat="47.68665" lon="-2.28771">
        <ele>137</ele>
        <time>2015-05-14T08:50:01Z</time>
      </trkpt>
      <trkpt lat="47.68669" lon="-2.28761">
        <ele>135</ele>
        <time>2015-05-14T08:50:07Z</time>
      </trkpt>
      <trkpt lat="47.68673" lon="-2.28753">
        <ele>134</ele>
        <time>2015-05-14T08:50:14Z</time>
      </trkpt>
      <trkpt lat="47.68678" lon="-2.28743">
        <ele>130</ele>
        <time>2015-05-14T08:50:20Z</time>
      </trkpt>
      <trkpt lat="47.68684" lon="-2.28738">
        <ele>128</ele>
        <time>2015-05-14T08:50:26Z</time>
      </trkpt>
      <trkpt lat="47.68689" lon="-2.28734">
        <ele>127</ele>
        <time>2015-05-14T08:50:33Z</time>
      </trkpt>
      <trkpt lat="47.68695" lon="-2.2873">
        <ele>126</ele>
        <time>2015-05-14T08:50:39Z</time>
      </trkpt>
      <trkpt lat="47.68702" lon="-2.28726">
        <ele>127</ele>
        <time>2015-05-14T08:50:45Z</time>
      </trkpt>
      <trkpt lat="47.68711" lon="-2.2872">
        <ele>128</ele>
        <time>2015-05-14T08:50:51Z</time>
      </trkpt>
      <trkpt lat="47.68719" lon="-2.28717">
        <ele>132</ele>
        <time>2015-05-14T08:50:56Z</time>
      </trkpt>
      <trkpt lat="47.68726" lon="-2.28716">
        <ele>136</ele>
        <time>2015-05-14T08:51:03Z</time>
      </trkpt>
      <trkpt lat="47.68734" lon="-2.28712">
        <ele>137</ele>
        <time>2015-05-14T08:51:10Z</time>
      </trkpt>
      <trkpt lat="47.6874" lon="-2.28708">
        <ele>138</ele>
        <time>2015-05-14T08:51:17Z</time>
      </trkpt>
      <trkpt lat="47.68748" lon="-2.28707">
        <ele>139</ele>
        <time>2015-05-14T08:51:24Z</time>
      </trkpt>
      <trkpt lat="47.68755" lon="-2.28709">
        <ele>140</ele>
        <time>2015-05-14T08:51:31Z</time>
      </trkpt>
      <trkpt lat="47.68757" lon="-2.28721">
        <ele>140</ele>
        <time>2015-05-14T08:51:38Z</time>
      </trkpt>
      <trkpt lat="47.68756" lon="-2.28732">
        <ele>139</ele>
        <time>2015-05-14T08:51:45Z</time>
      </trkpt>
      <trkpt lat="47.68757" lon="-2.28744">
        <ele>137</ele>
        <time>2015-05-14T08:51:51Z</time>
      </trkpt>
      <trkpt lat="47.68756" lon="-2.28755">
        <ele>137</ele>
        <time>2015-05-14T08:51:57Z</time>
      </trkpt>
      <trkpt lat="47.68762" lon="-2.28764">
        <ele>137</ele>
        <time>2015-05-14T08:52:03Z</time>
      </trkpt>
      <trkpt lat="47.68766" lon="-2.28773">
        <ele>134</ele>
        <time>2015-05-14T08:52:09Z</time>
      </trkpt>
      <trkpt lat="47.68774" lon="-2.28777">
        <ele>133</ele>
        <time>2015-05-14T08:52:15Z</time>
      </trkpt>
      <trkpt lat="47.68775" lon="-2.28789">
        <ele>137</ele>
        <time>2015-05-14T08:52:20Z</time>
      </trkpt>
      <trkpt lat="47.68775" lon="-2.28803">
        <ele>137</ele>
        <time>2015-05-14T08:52:26Z</time>
      </trkpt>
      <trkpt lat="47.68771" lon="-2.28812">
        <ele>134</ele>
        <time>2015-05-14T08:52:32Z</time>
      </trkpt>
      <trkpt lat="47.68771" lon="-2.28824">
        <ele>135</ele>
        <time>2015-05-14T08:52:38Z</time>
      </trkpt>
      <trkpt lat="47.68769" lon="-2.28834">
        <ele>135</ele>
        <time>2015-05-14T08:52:44Z</time>
      </trkpt>
      <trkpt lat="47.68768" lon="-2.28847">
        <ele>136</ele>
        <time>2015-05-14T08:52:51Z</time>
      </trkpt>
      <trkpt lat="47.68764" lon="-2.28858">
        <ele>136</ele>
        <time>2015-05-14T08:52:57Z</time>
      </trkpt>
      <trkpt lat="47.68765" lon="-2.28859">
        <ele>138</ele>
        <time>2015-05-14T08:53:04Z</time>
      </trkpt>
      <trkpt lat="47.68762" lon="-2.2887">
        <ele>136</ele>
        <time>2015-05-14T08:53:07Z</time>
      </trkpt>
      <trkpt lat="47.68758" lon="-2.28881">
        <ele>135</ele>
        <time>2015-05-14T08:53:12Z</time>
      </trkpt>
      <trkpt lat="47.6876" lon="-2.28893">
        <ele>135</ele>
        <time>2015-05-14T08:53:16Z</time>
      </trkpt>
      <trkpt lat="47.68755" lon="-2.28901">
        <ele>135</ele>
        <time>2015-05-14T08:53:23Z</time>
      </trkpt>
      <trkpt lat="47.68752" lon="-2.28912">
        <ele>134</ele>
        <time>2015-05-14T08:53:30Z</time>
      </trkpt>
      <trkpt lat="47.68751" lon="-2.28918">
        <ele>132</ele>
        <time>2015-05-14T08:53:37Z</time>
      </trkpt>
      <trkpt lat="47.68748" lon="-2.28928">
        <ele>130</ele>
        <time>2015-05-14T08:53:43Z</time>
      </trkpt>
      <trkpt lat="47.68747" lon="-2.28938">
        <ele>126</ele>
        <time>2015-05-14T08:53:50Z</time>
      </trkpt>
      <trkpt lat="47.68745" lon="-2.28944">
        <ele>126</ele>
        <time>2015-05-14T08:53:57Z</time>
      </trkpt>
      <trkpt lat="47.68741" lon="-2.28954">
        <ele>122</ele>
        <time>2015-05-14T08:54:04Z</time>
      </trkpt>
      <trkpt lat="47.6874" lon="-2.28966">
        <ele>122</ele>
        <time>2015-05-14T08:54:11Z</time>
      </trkpt>
      <trkpt lat="47.68739" lon="-2.28977">
        <ele>121</ele>
        <time>2015-05-14T08:54:18Z</time>
      </trkpt>
      <trkpt lat="47.68738" lon="-2.28988">
        <ele>125</ele>
        <time>2015-05-14T08:54:24Z</time>
      </trkpt>
      <trkpt lat="47.68736" lon="-2.28999">
        <ele>126</ele>
        <time>2015-05-14T08:54:29Z</time>
      </trkpt>
      <trkpt lat="47.68733" lon="-2.29009">
        <ele>123</ele>
        <time>2015-05-14T08:54:34Z</time>
      </trkpt>
      <trkpt lat="47.68738" lon="-2.29018">
        <ele>117</ele>
        <time>2015-05-14T08:54:40Z</time>
      </trkpt>
      <trkpt lat="47.68745" lon="-2.29015">
        <ele>115</ele>
        <time>2015-05-14T08:54:46Z</time>
      </trkpt>
      <trkpt lat="47.68756" lon="-2.29013">
        <ele>115</ele>
        <time>2015-05-14T08:54:50Z</time>
      </trkpt>
      <trkpt lat="47.68763" lon="-2.29007">
        <ele>114</ele>
        <time>2015-05-14T08:54:57Z</time>
      </trkpt>
      <trkpt lat="47.6877" lon="-2.29003">
        <ele>115</ele>
        <time>2015-05-14T08:55:03Z</time>
      </trkpt>
      <trkpt lat="47.68777" lon="-2.29">
        <ele>117</ele>
        <time>2015-05-14T08:55:10Z</time>
      </trkpt>
      <trkpt lat="47.68784" lon="-2.28995">
        <ele>116</ele>
        <time>2015-05-14T08:55:17Z</time>
      </trkpt>
      <trkpt lat="47.68792" lon="-2.28994">
        <ele>118</ele>
        <time>2015-05-14T08:55:19Z</time>
      </trkpt>
      <trkpt lat="47.68798" lon="-2.28992">
        <ele>119</ele>
        <time>2015-05-14T08:55:26Z</time>
      </trkpt>
      <trkpt lat="47.68802" lon="-2.28989">
        <ele>119</ele>
        <time>2015-05-14T08:55:33Z</time>
      </trkpt>
      <trkpt lat="47.68803" lon="-2.28988">
        <ele>119</ele>
        <time>2015-05-14T08:55:40Z</time>
      </trkpt>
      <trkpt lat="47.68803" lon="-2.28988">
        <ele>119</ele>
        <time>2015-05-14T08:55:41Z</time>
      </trkpt>
      <trkpt lat="47.68805" lon="-2.28987">
        <ele>118</ele>
        <time>2015-05-14T08:55:48Z</time>
      </trkpt>
      <trkpt lat="47.68809" lon="-2.28984">
        <ele>115</ele>
        <time>2015-05-14T08:55:55Z</time>
      </trkpt>
      <trkpt lat="47.68813" lon="-2.2898">
        <ele>119</ele>
        <time>2015-05-14T08:56:02Z</time>
      </trkpt>
      <trkpt lat="47.68818" lon="-2.28975">
        <ele>117</ele>
        <time>2015-05-14T08:56:09Z</time>
      </trkpt>
      <trkpt lat="47.68824" lon="-2.28971">
        <ele>119</ele>
        <time>2015-05-14T08:56:16Z</time>
      </trkpt>
      <trkpt lat="47.68824" lon="-2.28965">
        <ele>121</ele>
        <time>2015-05-14T08:56:23Z</time>
      </trkpt>
      <trkpt lat="47.68824" lon="-2.28965">
        <ele>119</ele>
        <time>2015-05-14T08:56:30Z</time>
      </trkpt>
      <trkpt lat="47.68824" lon="-2.28965">
        <ele>118</ele>
        <time>2015-05-14T08:56:33Z</time>
      </trkpt>
      <trkpt lat="47.68831" lon="-2.28958">
        <ele>115</ele>
        <time>2015-05-14T08:56:40Z</time>
      </trkpt>
      <trkpt lat="47.68838" lon="-2.28956">
        <ele>114</ele>
        <time>2015-05-14T08:56:42Z</time>
      </trkpt>
      <trkpt lat="47.68844" lon="-2.28949">
        <ele>114</ele>
        <time>2015-05-14T08:56:46Z</time>
      </trkpt>
      <trkpt lat="47.68852" lon="-2.28946">
        <ele>115</ele>
        <time>2015-05-14T08:56:52Z</time>
      </trkpt>
      <trkpt lat="47.68856" lon="-2.28936">
        <ele>113</ele>
        <time>2015-05-14T08:56:57Z</time>
      </trkpt>
      <trkpt lat="47.68864" lon="-2.2893">
        <ele>116</ele>
        <time>2015-05-14T08:57:04Z</time>
      </trkpt>
      <trkpt lat="47.6887" lon="-2.2892">
        <ele>116</ele>
        <time>2015-05-14T08:57:10Z</time>
      </trkpt>
      <trkpt lat="47.68872" lon="-2.28911">
        <ele>120</ele>
        <time>2015-05-14T08:57:17Z</time>
      </trkpt>
      <trkpt lat="47.68882" lon="-2.28906">
        <ele>125</ele>
        <time>2015-05-14T08:57:22Z</time>
      </trkpt>
      <trkpt lat="47.68889" lon="-2.28903">
        <ele>129</ele>
        <time>2015-05-14T08:57:26Z</time>
      </trkpt>
      <trkpt lat="47.68895" lon="-2.28894">
        <ele>136</ele>
        <time>2015-05-14T08:57:31Z</time>
      </trkpt>
      <trkpt lat="47.68897" lon="-2.28885">
        <ele>134</ele>
        <time>2015-05-14T08:57:38Z</time>
      </trkpt>
      <trkpt lat="47.68902" lon="-2.28876">
        <ele>136</ele>
        <time>2015-05-14T08:57:45Z</time>
      </trkpt>
      <trkpt lat="47.68905" lon="-2.28866">
        <ele>135</ele>
        <time>2015-05-14T08:57:51Z</time>
      </trkpt>
      <trkpt lat="47.68911" lon="-2.2886">
        <ele>135</ele>
        <time>2015-05-14T08:57:57Z</time>
      </trkpt>
      <trkpt lat="47.68916" lon="-2.28851">
        <ele>134</ele>
        <time>2015-05-14T08:58:02Z</time>
      </trkpt>
      <trkpt lat="47.68922" lon="-2.28844">
        <ele>134</ele>
        <time>2015-05-14T08:58:08Z</time>
      </trkpt>
      <trkpt lat="47.68923" lon="-2.28837">
        <ele>132</ele>
        <time>2015-05-14T08:58:15Z</time>
      </trkpt>
      <trkpt lat="47.68931" lon="-2.28831">
        <ele>133</ele>
        <time>2015-05-14T08:58:18Z</time>
      </trkpt>
      <trkpt lat="47.68936" lon="-2.2882">
        <ele>132</ele>
        <time>2015-05-14T08:58:25Z</time>
      </trkpt>
      <trkpt lat="47.68938" lon="-2.28816">
        <ele>128</ele>
        <time>2015-05-14T08:58:32Z</time>
      </trkpt>
      <trkpt lat="47.68944" lon="-2.28808">
        <ele>127</ele>
        <time>2015-05-14T08:58:39Z</time>
      </trkpt>
      <trkpt lat="47.68949" lon="-2.28805">
        <ele>125</ele>
        <time>2015-05-14T08:58:46Z</time>
      </trkpt>
      <trkpt lat="47.68952" lon="-2.288">
        <ele>120</ele>
        <time>2015-05-14T08:58:53Z</time>
      </trkpt>
      <trkpt lat="47.68959" lon="-2.28797">
        <ele>120</ele>
        <time>2015-05-14T08:58:58Z</time>
      </trkpt>
      <trkpt lat="47.68966" lon="-2.28792">
        <ele>118</ele>
        <time>2015-05-14T08:59:04Z</time>
      </trkpt>
      <trkpt lat="47.68974" lon="-2.28793">
        <ele>118</ele>
        <time>2015-05-14T08:59:09Z</time>
      </trkpt>
      <trkpt lat="47.68982" lon="-2.28787">
        <ele>120</ele>
        <time>2015-05-14T08:59:15Z</time>
      </trkpt>
      <trkpt lat="47.68989" lon="-2.28782">
        <ele>118</ele>
        <time>2015-05-14T08:59:19Z</time>
      </trkpt>
      <trkpt lat="47.68997" lon="-2.28776">
        <ele>118</ele>
        <time>2015-05-14T08:59:25Z</time>
      </trkpt>
      <trkpt lat="47.69002" lon="-2.28773">
        <ele>118</ele>
        <time>2015-05-14T08:59:32Z</time>
      </trkpt>
      <trkpt lat="47.69012" lon="-2.28772">
        <ele>116</ele>
        <time>2015-05-14T08:59:38Z</time>
      </trkpt>
      <trkpt lat="47.6902" lon="-2.2877">
        <ele>113</ele>
        <time>2015-05-14T08:59:44Z</time>
      </trkpt>
      <trkpt lat="47.69026" lon="-2.28766">
        <ele>114</ele>
        <time>2015-05-14T08:59:51Z</time>
      </trkpt>
      <trkpt lat="47.69029" lon="-2.28763">
        <ele>114</ele>
        <time>2015-05-14T08:59:58Z</time>
      </trkpt>
      <trkpt lat="47.69037" lon="-2.28764">
        <ele>114</ele>
        <time>2015-05-14T09:00:02Z</time>
      </trkpt>
      <trkpt lat="47.69042" lon="-2.28768">
        <ele>111</ele>
        <time>2015-05-14T09:00:09Z</time>
      </trkpt>
      <trkpt lat="47.6904" lon="-2.28766">
        <ele>106</ele>
        <time>2015-05-14T09:00:16Z</time>
      </trkpt>
      <trkpt lat="47.69049" lon="-2.28761">
        <ele>99</ele>
        <time>2015-05-14T09:00:23Z</time>
      </trkpt>
      <trkpt lat="47.69056" lon="-2.2876">
        <ele>101</ele>
        <time>2015-05-14T09:00:26Z</time>
      </trkpt>
      <trkpt lat="47.69064" lon="-2.28761">
        <ele>99</ele>
        <time>2015-05-14T09:00:30Z</time>
      </trkpt>
      <trkpt lat="47.69072" lon="-2.28763">
        <ele>101</ele>
        <time>2015-05-14T09:00:36Z</time>
      </trkpt>
      <trkpt lat="47.69076" lon="-2.28761">
        <ele>105</ele>
        <time>2015-05-14T09:00:43Z</time>
      </trkpt>
      <trkpt lat="47.69083" lon="-2.28763">
        <ele>104</ele>
        <time>2015-05-14T09:00:50Z</time>
      </trkpt>
      <trkpt lat="47.69087" lon="-2.28763">
        <ele>103</ele>
        <time>2015-05-14T09:00:57Z</time>
      </trkpt>
      <trkpt lat="47.69094" lon="-2.28767">
        <ele>109</ele>
        <time>2015-05-14T09:01:04Z</time>
      </trkpt>
      <trkpt lat="47.69102" lon="-2.28768">
        <ele>110</ele>
        <time>2015-05-14T09:01:11Z</time>
      </trkpt>
      <trkpt lat="47.69108" lon="-2.28766">
        <ele>107</ele>
        <time>2015-05-14T09:01:18Z</time>
      </trkpt>
      <trkpt lat="47.69113" lon="-2.28765">
        <ele>110</ele>
        <time>2015-05-14T09:01:25Z</time>
      </trkpt>
      <trkpt lat="47.6912" lon="-2.28761">
        <ele>108</ele>
        <time>2015-05-14T09:01:32Z</time>
      </trkpt>
      <trkpt lat="47.69126" lon="-2.28758">
        <ele>108</ele>
        <time>2015-05-14T09:01:39Z</time>
      </trkpt>
      <trkpt lat="47.69134" lon="-2.28756">
        <ele>107</ele>
        <time>2015-05-14T09:01:44Z</time>
      </trkpt>
      <trkpt lat="47.69143" lon="-2.28756">
        <ele>110</ele>
        <time>2015-05-14T09:01:49Z</time>
      </trkpt>
      <trkpt lat="47.69148" lon="-2.28752">
        <ele>110</ele>
        <time>2015-05-14T09:01:56Z</time>
      </trkpt>
      <trkpt lat="47.69151" lon="-2.28754">
        <ele>109</ele>
        <time>2015-05-14T09:02:03Z</time>
      </trkpt>
      <trkpt lat="47.69156" lon="-2.28758">
        <ele>110</ele>
        <time>2015-05-14T09:02:10Z</time>
      </trkpt>
      <trkpt lat="47.69164" lon="-2.28755">
        <ele>110</ele>
        <time>2015-05-14T09:02:15Z</time>
      </trkpt>
      <trkpt lat="47.69171" lon="-2.28747">
        <ele>113</ele>
        <time>2015-05-14T09:02:21Z</time>
      </trkpt>
      <trkpt lat="47.69178" lon="-2.28741">
        <ele>116</ele>
        <time>2015-05-14T09:02:28Z</time>
      </trkpt>
      <trkpt lat="47.69186" lon="-2.28742">
        <ele>116</ele>
        <time>2015-05-14T09:02:34Z</time>
      </trkpt>
      <trkpt lat="47.69192" lon="-2.28735">
        <ele>117</ele>
        <time>2015-05-14T09:02:39Z</time>
      </trkpt>
      <trkpt lat="47.692" lon="-2.28732">
        <ele>120</ele>
        <time>2015-05-14T09:02:44Z</time>
      </trkpt>
      <trkpt lat="47.69208" lon="-2.28735">
        <ele>119</ele>
        <time>2015-05-14T09:02:48Z</time>
      </trkpt>
      <trkpt lat="47.69208" lon="-2.28731">
        <ele>118</ele>
        <time>2015-05-14T09:02:55Z</time>
      </trkpt>
      <trkpt lat="47.69209" lon="-2.28731">
        <ele>116</ele>
        <time>2015-05-14T09:02:59Z</time>
      </trkpt>
      <trkpt lat="47.6921" lon="-2.28731">
        <ele>116</ele>
        <time>2015-05-14T09:03:06Z</time>
      </trkpt>
      <trkpt lat="47.6921" lon="-2.28731">
        <ele>116</ele>
        <time>2015-05-14T09:03:07Z</time>
      </trkpt>
      <trkpt lat="47.69218" lon="-2.28724">
        <ele>113</ele>
        <time>2015-05-14T09:03:18Z</time>
      </trkpt>
      <trkpt lat="47.69227" lon="-2.28721">
        <ele>111</ele>
        <time>2015-05-14T09:03:21Z</time>
      </trkpt>
      <trkpt lat="47.69234" lon="-2.2872">
        <ele>113</ele>
        <time>2015-05-14T09:03:26Z</time>
      </trkpt>
      <trkpt lat="47.69245" lon="-2.28716">
        <ele>116</ele>
        <time>2015-05-14T09:03:28Z</time>
      </trkpt>
      <trkpt lat="47.69248" lon="-2.28713">
        <ele>127</ele>
        <time>2015-05-14T09:03:35Z</time>
      </trkpt>
      <trkpt lat="47.69253" lon="-2.28707">
        <ele>127</ele>
        <time>2015-05-14T09:03:42Z</time>
      </trkpt>
      <trkpt lat="47.69261" lon="-2.28705">
        <ele>131</ele>
        <time>2015-05-14T09:03:48Z</time>
      </trkpt>
      <trkpt lat="47.69269" lon="-2.28704">
        <ele>130</ele>
        <time>2015-05-14T09:03:54Z</time>
      </trkpt>
      <trkpt lat="47.69276" lon="-2.287">
        <ele>134</ele>
        <time>2015-05-14T09:04:00Z</time>
      </trkpt>
      <trkpt lat="47.69284" lon="-2.28699">
        <ele>137</ele>
        <time>2015-05-14T09:04:07Z</time>
      </trkpt>
      <trkpt lat="47.69291" lon="-2.28697">
        <ele>137</ele>
        <time>2015-05-14T09:04:13Z</time>
      </trkpt>
      <trkpt lat="47.69294" lon="-2.28693">
        <ele>136</ele>
        <time>2015-05-14T09:04:20Z</time>
      </trkpt>
      <trkpt lat="47.69296" lon="-2.28693">
        <ele>137</ele>
        <time>2015-05-14T09:04:27Z</time>
      </trkpt>
      <trkpt lat="47.69297" lon="-2.28693">
        <ele>137</ele>
        <time>2015-05-14T09:04:33Z</time>
      </trkpt>
      <trkpt lat="47.69294" lon="-2.28694">
        <ele>134</ele>
        <time>2015-05-14T09:05:42Z</time>
      </trkpt>
      <trkpt lat="47.69293" lon="-2.28694">
        <ele>134</ele>
        <time>2015-05-14T09:05:49Z</time>
      </trkpt>
      <trkpt lat="47.69293" lon="-2.28694">
        <ele>134</ele>
        <time>2015-05-14T09:05:52Z</time>
      </trkpt>
      <trkpt lat="47.69293" lon="-2.28691">
        <ele>129</ele>
        <time>2015-05-14T09:07:23Z</time>
      </trkpt>
      <trkpt lat="47.69292" lon="-2.28691">
        <ele>128</ele>
        <time>2015-05-14T09:07:30Z</time>
      </trkpt>
      <trkpt lat="47.69291" lon="-2.2869">
        <ele>128</ele>
        <time>2015-05-14T09:07:34Z</time>
      </trkpt>
      <trkpt lat="47.69291" lon="-2.28695">
        <ele>127</ele>
        <time>2015-05-14T09:08:12Z</time>
      </trkpt>
      <trkpt lat="47.69291" lon="-2.28695">
        <ele>129</ele>
        <time>2015-05-14T09:08:19Z</time>
      </trkpt>
      <trkpt lat="47.69291" lon="-2.28696">
        <ele>129</ele>
        <time>2015-05-14T09:08:31Z</time>
      </trkpt>
      <trkpt lat="47.69291" lon="-2.28696">
        <ele>129</ele>
        <time>2015-05-14T09:08:32Z</time>
      </trkpt>
      <trkpt lat="47.69295" lon="-2.28702">
        <ele>126</ele>
        <time>2015-05-14T09:09:38Z</time>
      </trkpt>
      <trkpt lat="47.69296" lon="-2.28712">
        <ele>127</ele>
        <time>2015-05-14T09:09:45Z</time>
      </trkpt>
      <trkpt lat="47.69299" lon="-2.28717">
        <ele>122</ele>
        <time>2015-05-14T09:09:52Z</time>
      </trkpt>
      <trkpt lat="47.69297" lon="-2.28727">
        <ele>125</ele>
        <time>2015-05-14T09:09:59Z</time>
      </trkpt>
      <trkpt lat="47.69301" lon="-2.28736">
        <ele>120</ele>
        <time>2015-05-14T09:10:06Z</time>
      </trkpt>
      <trkpt lat="47.69301" lon="-2.28745">
        <ele>120</ele>
        <time>2015-05-14T09:10:13Z</time>
      </trkpt>
      <trkpt lat="47.69301" lon="-2.28756">
        <ele>116</ele>
        <time>2015-05-14T09:10:19Z</time>
      </trkpt>
      <trkpt lat="47.69302" lon="-2.28767">
        <ele>121</ele>
        <time>2015-05-14T09:10:26Z</time>
      </trkpt>
      <trkpt lat="47.69301" lon="-2.28777">
        <ele>121</ele>
        <time>2015-05-14T09:10:33Z</time>
      </trkpt>
      <trkpt lat="47.69302" lon="-2.28781">
        <ele>121</ele>
        <time>2015-05-14T09:10:40Z</time>
      </trkpt>
      <trkpt lat="47.69302" lon="-2.28783">
        <ele>120</ele>
        <time>2015-05-14T09:10:47Z</time>
      </trkpt>
      <trkpt lat="47.69304" lon="-2.28795">
        <ele>120</ele>
        <time>2015-05-14T09:10:50Z</time>
      </trkpt>
      <trkpt lat="47.69308" lon="-2.28807">
        <ele>118</ele>
        <time>2015-05-14T09:10:55Z</time>
      </trkpt>
      <trkpt lat="47.69309" lon="-2.2882">
        <ele>121</ele>
        <time>2015-05-14T09:11:00Z</time>
      </trkpt>
      <trkpt lat="47.69317" lon="-2.28827">
        <ele>119</ele>
        <time>2015-05-14T09:11:03Z</time>
      </trkpt>
      <trkpt lat="47.69309" lon="-2.28834">
        <ele>118</ele>
        <time>2015-05-14T09:11:07Z</time>
      </trkpt>
      <trkpt lat="47.69304" lon="-2.28843">
        <ele>117</ele>
        <time>2015-05-14T09:11:09Z</time>
      </trkpt>
      <trkpt lat="47.69307" lon="-2.28854">
        <ele>116</ele>
        <time>2015-05-14T09:11:16Z</time>
      </trkpt>
      <trkpt lat="47.69305" lon="-2.28865">
        <ele>113</ele>
        <time>2015-05-14T09:11:22Z</time>
      </trkpt>
      <trkpt lat="47.69306" lon="-2.28878">
        <ele>110</ele>
        <time>2015-05-14T09:11:27Z</time>
      </trkpt>
      <trkpt lat="47.69304" lon="-2.28888">
        <ele>110</ele>
        <time>2015-05-14T09:11:34Z</time>
      </trkpt>
      <trkpt lat="47.69306" lon="-2.28899">
        <ele>116</ele>
        <time>2015-05-14T09:11:41Z</time>
      </trkpt>
      <trkpt lat="47.69307" lon="-2.28911">
        <ele>116</ele>
        <time>2015-05-14T09:11:46Z</time>
      </trkpt>
      <trkpt lat="47.69303" lon="-2.28921">
        <ele>119</ele>
        <time>2015-05-14T09:11:51Z</time>
      </trkpt>
      <trkpt lat="47.69307" lon="-2.2893">
        <ele>122</ele>
        <time>2015-05-14T09:11:58Z</time>
      </trkpt>
      <trkpt lat="47.69307" lon="-2.28942">
        <ele>121</ele>
        <time>2015-05-14T09:12:02Z</time>
      </trkpt>
      <trkpt lat="47.69308" lon="-2.28952">
        <ele>124</ele>
        <time>2015-05-14T09:12:09Z</time>
      </trkpt>
      <trkpt lat="47.69306" lon="-2.28965">
        <ele>122</ele>
        <time>2015-05-14T09:12:16Z</time>
      </trkpt>
      <trkpt lat="47.69305" lon="-2.28976">
        <ele>122</ele>
        <time>2015-05-14T09:12:22Z</time>
      </trkpt>
      <trkpt lat="47.69308" lon="-2.28984">
        <ele>121</ele>
        <time>2015-05-14T09:12:29Z</time>
      </trkpt>
      <trkpt lat="47.69305" lon="-2.28994">
        <ele>122</ele>
        <time>2015-05-14T09:12:35Z</time>
      </trkpt>
      <trkpt lat="47.6931" lon="-2.29004">
        <ele>124</ele>
        <time>2015-05-14T09:12:39Z</time>
      </trkpt>
      <trkpt lat="47.69309" lon="-2.29017">
        <ele>125</ele>
        <time>2015-05-14T09:12:45Z</time>
      </trkpt>
      <trkpt lat="47.69307" lon="-2.29025">
        <ele>124</ele>
        <time>2015-05-14T09:12:52Z</time>
      </trkpt>
      <trkpt lat="47.69308" lon="-2.29032">
        <ele>129</ele>
        <time>2015-05-14T09:12:59Z</time>
      </trkpt>
      <trkpt lat="47.69307" lon="-2.29044">
        <ele>131</ele>
        <time>2015-05-14T09:13:06Z</time>
      </trkpt>
      <trkpt lat="47.69307" lon="-2.29058">
        <ele>134</ele>
        <time>2015-05-14T09:13:11Z</time>
      </trkpt>
      <trkpt lat="47.69309" lon="-2.29067">
        <ele>132</ele>
        <time>2015-05-14T09:13:18Z</time>
      </trkpt>
      <trkpt lat="47.69312" lon="-2.29078">
        <ele>132</ele>
        <time>2015-05-14T09:13:25Z</time>
      </trkpt>
      <trkpt lat="47.69312" lon="-2.29088">
        <ele>130</ele>
        <time>2015-05-14T09:13:30Z</time>
      </trkpt>
      <trkpt lat="47.69313" lon="-2.29102">
        <ele>127</ele>
        <time>2015-05-14T09:13:35Z</time>
      </trkpt>
      <trkpt lat="47.69313" lon="-2.29113">
        <ele>127</ele>
        <time>2015-05-14T09:13:40Z</time>
      </trkpt>
      <trkpt lat="47.69316" lon="-2.29121">
        <ele>123</ele>
        <time>2015-05-14T09:13:47Z</time>
      </trkpt>
      <trkpt lat="47.69315" lon="-2.29131">
        <ele>122</ele>
        <time>2015-05-14T09:13:54Z</time>
      </trkpt>
      <trkpt lat="47.69314" lon="-2.29143">
        <ele>126</ele>
        <time>2015-05-14T09:14:00Z</time>
      </trkpt>
      <trkpt lat="47.69314" lon="-2.29154">
        <ele>128</ele>
        <time>2015-05-14T09:14:07Z</time>
      </trkpt>
      <trkpt lat="47.69316" lon="-2.29168">
        <ele>128</ele>
        <time>2015-05-14T09:14:13Z</time>
      </trkpt>
      <trkpt lat="47.69316" lon="-2.29178">
        <ele>131</ele>
        <time>2015-05-14T09:14:20Z</time>
      </trkpt>
      <trkpt lat="47.69316" lon="-2.29189">
        <ele>133</ele>
        <time>2015-05-14T09:14:27Z</time>
      </trkpt>
      <trkpt lat="47.69317" lon="-2.292">
        <ele>131</ele>
        <time>2015-05-14T09:14:32Z</time>
      </trkpt>
      <trkpt lat="47.69319" lon="-2.29209">
        <ele>130</ele>
        <time>2015-05-14T09:14:39Z</time>
      </trkpt>
      <trkpt lat="47.69317" lon="-2.2922">
        <ele>129</ele>
        <time>2015-05-14T09:14:45Z</time>
      </trkpt>
      <trkpt lat="47.69319" lon="-2.29229">
        <ele>128</ele>
        <time>2015-05-14T09:14:52Z</time>
      </trkpt>
      <trkpt lat="47.69321" lon="-2.29241">
        <ele>127</ele>
        <time>2015-05-14T09:14:58Z</time>
      </trkpt>
      <trkpt lat="47.6932" lon="-2.29253">
        <ele>129</ele>
        <time>2015-05-14T09:15:04Z</time>
      </trkpt>
      <trkpt lat="47.6932" lon="-2.29263">
        <ele>128</ele>
        <time>2015-05-14T09:15:10Z</time>
      </trkpt>
      <trkpt lat="47.6932" lon="-2.29275">
        <ele>133</ele>
        <time>2015-05-14T09:15:17Z</time>
      </trkpt>
      <trkpt lat="47.6932" lon="-2.29288">
        <ele>132</ele>
        <time>2015-05-14T09:15:23Z</time>
      </trkpt>
      <trkpt lat="47.69321" lon="-2.29298">
        <ele>127</ele>
        <time>2015-05-14T09:15:30Z</time>
      </trkpt>
      <trkpt lat="47.69323" lon="-2.2931">
        <ele>131</ele>
        <time>2015-05-14T09:15:37Z</time>
      </trkpt>
      <trkpt lat="47.69324" lon="-2.29321">
        <ele>129</ele>
        <time>2015-05-14T09:15:44Z</time>
      </trkpt>
      <trkpt lat="47.69323" lon="-2.29332">
        <ele>132</ele>
        <time>2015-05-14T09:15:50Z</time>
      </trkpt>
      <trkpt lat="47.69322" lon="-2.29338">
        <ele>132</ele>
        <time>2015-05-14T09:15:57Z</time>
      </trkpt>
      <trkpt lat="47.69322" lon="-2.29347">
        <ele>129</ele>
        <time>2015-05-14T09:16:04Z</time>
      </trkpt>
      <trkpt lat="47.69323" lon="-2.29358">
        <ele>126</ele>
        <time>2015-05-14T09:16:09Z</time>
      </trkpt>
      <trkpt lat="47.69324" lon="-2.29369">
        <ele>128</ele>
        <time>2015-05-14T09:16:14Z</time>
      </trkpt>
      <trkpt lat="47.69327" lon="-2.2938">
        <ele>127</ele>
        <time>2015-05-14T09:16:19Z</time>
      </trkpt>
      <trkpt lat="47.69324" lon="-2.29391">
        <ele>130</ele>
        <time>2015-05-14T09:16:24Z</time>
      </trkpt>
      <trkpt lat="47.69323" lon="-2.29403">
        <ele>132</ele>
        <time>2015-05-14T09:16:31Z</time>
      </trkpt>
      <trkpt lat="47.69323" lon="-2.29407">
        <ele>133</ele>
        <time>2015-05-14T09:16:38Z</time>
      </trkpt>
      <trkpt lat="47.69322" lon="-2.2942">
        <ele>134</ele>
        <time>2015-05-14T09:16:42Z</time>
      </trkpt>
      <trkpt lat="47.69324" lon="-2.29431">
        <ele>133</ele>
        <time>2015-05-14T09:16:48Z</time>
      </trkpt>
      <trkpt lat="47.69326" lon="-2.29442">
        <ele>134</ele>
        <time>2015-05-14T09:16:54Z</time>
      </trkpt>
      <trkpt lat="47.69327" lon="-2.29454">
        <ele>139</ele>
        <time>2015-05-14T09:17:00Z</time>
      </trkpt>
      <trkpt lat="47.69328" lon="-2.29466">
        <ele>137</ele>
        <time>2015-05-14T09:17:04Z</time>
      </trkpt>
      <trkpt lat="47.69328" lon="-2.29477">
        <ele>138</ele>
        <time>2015-05-14T09:17:11Z</time>
      </trkpt>
      <trkpt lat="47.69328" lon="-2.29486">
        <ele>137</ele>
        <time>2015-05-14T09:17:18Z</time>
      </trkpt>
      <trkpt lat="47.69329" lon="-2.29496">
        <ele>136</ele>
        <time>2015-05-14T09:17:25Z</time>
      </trkpt>
      <trkpt lat="47.69331" lon="-2.29509">
        <ele>134</ele>
        <time>2015-05-14T09:17:31Z</time>
      </trkpt>
      <trkpt lat="47.69331" lon="-2.29519">
        <ele>132</ele>
        <time>2015-05-14T09:17:38Z</time>
      </trkpt>
      <trkpt lat="47.69331" lon="-2.2953">
        <ele>133</ele>
        <time>2015-05-14T09:17:44Z</time>
      </trkpt>
      <trkpt lat="47.69332" lon="-2.29541">
        <ele>128</ele>
        <time>2015-05-14T09:17:51Z</time>
      </trkpt>
      <trkpt lat="47.69334" lon="-2.29551">
        <ele>131</ele>
        <time>2015-05-14T09:17:58Z</time>
      </trkpt>
      <trkpt lat="47.69336" lon="-2.29561">
        <ele>130</ele>
        <time>2015-05-14T09:18:05Z</time>
      </trkpt>
      <trkpt lat="47.69334" lon="-2.29572">
        <ele>131</ele>
        <time>2015-05-14T09:18:10Z</time>
      </trkpt>
      <trkpt lat="47.69331" lon="-2.29584">
        <ele>135</ele>
        <time>2015-05-14T09:18:17Z</time>
      </trkpt>
      <trkpt lat="47.69333" lon="-2.29596">
        <ele>136</ele>
        <time>2015-05-14T09:18:24Z</time>
      </trkpt>
      <trkpt lat="47.69334" lon="-2.29607">
        <ele>138</ele>
        <time>2015-05-14T09:18:31Z</time>
      </trkpt>
      <trkpt lat="47.69333" lon="-2.29616">
        <ele>137</ele>
        <time>2015-05-14T09:18:38Z</time>
      </trkpt>
      <trkpt lat="47.69335" lon="-2.29627">
        <ele>134</ele>
        <time>2015-05-14T09:18:44Z</time>
      </trkpt>
      <trkpt lat="47.69334" lon="-2.29638">
        <ele>136</ele>
        <time>2015-05-14T09:18:51Z</time>
      </trkpt>
      <trkpt lat="47.69334" lon="-2.29649">
        <ele>136</ele>
        <time>2015-05-14T09:18:56Z</time>
      </trkpt>
      <trkpt lat="47.69335" lon="-2.29662">
        <ele>138</ele>
        <time>2015-05-14T09:19:02Z</time>
      </trkpt>
      <trkpt lat="47.69338" lon="-2.29673">
        <ele>134</ele>
        <time>2015-05-14T09:19:10Z</time>
      </trkpt>
      <trkpt lat="47.69338" lon="-2.29679">
        <ele>133</ele>
        <time>2015-05-14T09:19:17Z</time>
      </trkpt>
      <trkpt lat="47.6934" lon="-2.29691">
        <ele>131</ele>
        <time>2015-05-14T09:19:21Z</time>
      </trkpt>
      <trkpt lat="47.69339" lon="-2.29703">
        <ele>132</ele>
        <time>2015-05-14T09:19:26Z</time>
      </trkpt>
      <trkpt lat="47.69339" lon="-2.29713">
        <ele>131</ele>
        <time>2015-05-14T09:19:33Z</time>
      </trkpt>
      <trkpt lat="47.69338" lon="-2.29724">
        <ele>131</ele>
        <time>2015-05-14T09:19:39Z</time>
      </trkpt>
      <trkpt lat="47.6934" lon="-2.29727">
        <ele>127</ele>
        <time>2015-05-14T09:19:46Z</time>
      </trkpt>
      <trkpt lat="47.69337" lon="-2.29738">
        <ele>129</ele>
        <time>2015-05-14T09:19:49Z</time>
      </trkpt>
      <trkpt lat="47.69337" lon="-2.2975">
        <ele>130</ele>
        <time>2015-05-14T09:19:51Z</time>
      </trkpt>
      <trkpt lat="47.69332" lon="-2.29758">
        <ele>130</ele>
        <time>2015-05-14T09:19:53Z</time>
      </trkpt>
      <trkpt lat="47.69329" lon="-2.29759">
        <ele>132</ele>
        <time>2015-05-14T09:20:00Z</time>
      </trkpt>
      <trkpt lat="47.6933" lon="-2.2977">
        <ele>134</ele>
        <time>2015-05-14T09:20:03Z</time>
      </trkpt>
      <trkpt lat="47.69334" lon="-2.29783">
        <ele>139</ele>
        <time>2015-05-14T09:20:09Z</time>
      </trkpt>
      <trkpt lat="47.69337" lon="-2.29794">
        <ele>144</ele>
        <time>2015-05-14T09:20:14Z</time>
      </trkpt>
      <trkpt lat="47.69335" lon="-2.29801">
        <ele>144</ele>
        <time>2015-05-14T09:20:21Z</time>
      </trkpt>
      <trkpt lat="47.69338" lon="-2.29811">
        <ele>145</ele>
        <time>2015-05-14T09:20:28Z</time>
      </trkpt>
      <trkpt lat="47.69342" lon="-2.2982">
        <ele>147</ele>
        <time>2015-05-14T09:20:34Z</time>
      </trkpt>
      <trkpt lat="47.69341" lon="-2.29831">
        <ele>146</ele>
        <time>2015-05-14T09:20:38Z</time>
      </trkpt>
      <trkpt lat="47.6934" lon="-2.29843">
        <ele>145</ele>
        <time>2015-05-14T09:20:44Z</time>
      </trkpt>
      <trkpt lat="47.69339" lon="-2.29855">
        <ele>145</ele>
        <time>2015-05-14T09:20:51Z</time>
      </trkpt>
      <trkpt lat="47.6934" lon="-2.29866">
        <ele>147</ele>
        <time>2015-05-14T09:20:57Z</time>
      </trkpt>
      <trkpt lat="47.6934" lon="-2.29878">
        <ele>148</ele>
        <time>2015-05-14T09:21:03Z</time>
      </trkpt>
      <trkpt lat="47.69341" lon="-2.29888">
        <ele>147</ele>
        <time>2015-05-14T09:21:10Z</time>
      </trkpt>
      <trkpt lat="47.6934" lon="-2.299">
        <ele>145</ele>
        <time>2015-05-14T09:21:16Z</time>
      </trkpt>
      <trkpt lat="47.69339" lon="-2.29911">
        <ele>146</ele>
        <time>2015-05-14T09:21:20Z</time>
      </trkpt>
      <trkpt lat="47.69339" lon="-2.2992">
        <ele>146</ele>
        <time>2015-05-14T09:21:27Z</time>
      </trkpt>
      <trkpt lat="47.6934" lon="-2.29932">
        <ele>146</ele>
        <time>2015-05-14T09:21:34Z</time>
      </trkpt>
      <trkpt lat="47.69339" lon="-2.29943">
        <ele>147</ele>
        <time>2015-05-14T09:21:40Z</time>
      </trkpt>
      <trkpt lat="47.69339" lon="-2.29953">
        <ele>148</ele>
        <time>2015-05-14T09:21:46Z</time>
      </trkpt>
      <trkpt lat="47.69339" lon="-2.29964">
        <ele>148</ele>
        <time>2015-05-14T09:21:52Z</time>
      </trkpt>
      <trkpt lat="47.6934" lon="-2.29976">
        <ele>149</ele>
        <time>2015-05-14T09:21:59Z</time>
      </trkpt>
      <trkpt lat="47.6934" lon="-2.29987">
        <ele>149</ele>
        <time>2015-05-14T09:22:06Z</time>
      </trkpt>
      <trkpt lat="47.69341" lon="-2.29999">
        <ele>150</ele>
        <time>2015-05-14T09:22:10Z</time>
      </trkpt>
      <trkpt lat="47.69342" lon="-2.30011">
        <ele>151</ele>
        <time>2015-05-14T09:22:17Z</time>
      </trkpt>
      <trkpt lat="47.69343" lon="-2.30022">
        <ele>150</ele>
        <time>2015-05-14T09:22:23Z</time>
      </trkpt>
      <trkpt lat="47.69345" lon="-2.30033">
        <ele>150</ele>
        <time>2015-05-14T09:22:29Z</time>
      </trkpt>
      <trkpt lat="47.69348" lon="-2.30044">
        <ele>149</ele>
        <time>2015-05-14T09:22:36Z</time>
      </trkpt>
      <trkpt lat="47.6935" lon="-2.30055">
        <ele>149</ele>
        <time>2015-05-14T09:22:43Z</time>
      </trkpt>
      <trkpt lat="47.6935" lon="-2.30067">
        <ele>151</ele>
        <time>2015-05-14T09:22:47Z</time>
      </trkpt>
      <trkpt lat="47.69353" lon="-2.30076">
        <ele>150</ele>
        <time>2015-05-14T09:22:53Z</time>
      </trkpt>
      <trkpt lat="47.69355" lon="-2.30086">
        <ele>150</ele>
        <time>2015-05-14T09:22:59Z</time>
      </trkpt>
      <trkpt lat="47.6936" lon="-2.30094">
        <ele>148</ele>
        <time>2015-05-14T09:23:06Z</time>
      </trkpt>
      <trkpt lat="47.69361" lon="-2.30105">
        <ele>148</ele>
        <time>2015-05-14T09:23:11Z</time>
      </trkpt>
      <trkpt lat="47.69362" lon="-2.30116">
        <ele>147</ele>
        <time>2015-05-14T09:23:18Z</time>
      </trkpt>
      <trkpt lat="47.69365" lon="-2.30116">
        <ele>145</ele>
        <time>2015-05-14T09:23:25Z</time>
      </trkpt>
      <trkpt lat="47.69363" lon="-2.30128">
        <ele>143</ele>
        <time>2015-05-14T09:23:29Z</time>
      </trkpt>
      <trkpt lat="47.69366" lon="-2.30139">
        <ele>144</ele>
        <time>2015-05-14T09:23:36Z</time>
      </trkpt>
      <trkpt lat="47.69371" lon="-2.30149">
        <ele>145</ele>
        <time>2015-05-14T09:23:41Z</time>
      </trkpt>
      <trkpt lat="47.69372" lon="-2.30159">
        <ele>146</ele>
        <time>2015-05-14T09:23:48Z</time>
      </trkpt>
      <trkpt lat="47.69375" lon="-2.3017">
        <ele>148</ele>
        <time>2015-05-14T09:23:54Z</time>
      </trkpt>
      <trkpt lat="47.69375" lon="-2.30176">
        <ele>144</ele>
        <time>2015-05-14T09:24:01Z</time>
      </trkpt>
      <trkpt lat="47.69377" lon="-2.30187">
        <ele>146</ele>
        <time>2015-05-14T09:24:06Z</time>
      </trkpt>
      <trkpt lat="47.6938" lon="-2.30198">
        <ele>148</ele>
        <time>2015-05-14T09:24:11Z</time>
      </trkpt>
      <trkpt lat="47.69385" lon="-2.30207">
        <ele>149</ele>
        <time>2015-05-14T09:24:18Z</time>
      </trkpt>
      <trkpt lat="47.69388" lon="-2.30217">
        <ele>148</ele>
        <time>2015-05-14T09:24:25Z</time>
      </trkpt>
      <trkpt lat="47.69389" lon="-2.30228">
        <ele>149</ele>
        <time>2015-05-14T09:24:32Z</time>
      </trkpt>
      <trkpt lat="47.69392" lon="-2.30239">
        <ele>148</ele>
        <time>2015-05-14T09:24:39Z</time>
      </trkpt>
      <trkpt lat="47.69395" lon="-2.30249">
        <ele>148</ele>
        <time>2015-05-14T09:24:46Z</time>
      </trkpt>
      <trkpt lat="47.69397" lon="-2.3026">
        <ele>148</ele>
        <time>2015-05-14T09:24:52Z</time>
      </trkpt>
      <trkpt lat="47.694" lon="-2.30271">
        <ele>148</ele>
        <time>2015-05-14T09:24:58Z</time>
      </trkpt>
      <trkpt lat="47.69401" lon="-2.30281">
        <ele>149</ele>
        <time>2015-05-14T09:25:04Z</time>
      </trkpt>
      <trkpt lat="47.69405" lon="-2.30292">
        <ele>148</ele>
        <time>2015-05-14T09:25:10Z</time>
      </trkpt>
      <trkpt lat="47.69407" lon="-2.30302">
        <ele>149</ele>
        <time>2015-05-14T09:25:15Z</time>
      </trkpt>
      <trkpt lat="47.69409" lon="-2.30313">
        <ele>149</ele>
        <time>2015-05-14T09:25:22Z</time>
      </trkpt>
      <trkpt lat="47.69412" lon="-2.30324">
        <ele>150</ele>
        <time>2015-05-14T09:25:28Z</time>
      </trkpt>
      <trkpt lat="47.69416" lon="-2.30335">
        <ele>151</ele>
        <time>2015-05-14T09:25:35Z</time>
      </trkpt>
      <trkpt lat="47.69419" lon="-2.30346">
        <ele>150</ele>
        <time>2015-05-14T09:25:41Z</time>
      </trkpt>
      <trkpt lat="47.69422" lon="-2.30357">
        <ele>151</ele>
        <time>2015-05-14T09:25:48Z</time>
      </trkpt>
      <trkpt lat="47.69426" lon="-2.30365">
        <ele>151</ele>
        <time>2015-05-14T09:25:55Z</time>
      </trkpt>
      <trkpt lat="47.69428" lon="-2.30376">
        <ele>151</ele>
        <time>2015-05-14T09:26:00Z</time>
      </trkpt>
      <trkpt lat="47.6943" lon="-2.30386">
        <ele>151</ele>
        <time>2015-05-14T09:26:06Z</time>
      </trkpt>
      <trkpt lat="47.69431" lon="-2.30389">
        <ele>151</ele>
        <time>2015-05-14T09:26:13Z</time>
      </trkpt>
      <trkpt lat="47.69435" lon="-2.30399">
        <ele>150</ele>
        <time>2015-05-14T09:26:20Z</time>
      </trkpt>
      <trkpt lat="47.69437" lon="-2.30407">
        <ele>149</ele>
        <time>2015-05-14T09:26:27Z</time>
      </trkpt>
      <trkpt lat="47.69439" lon="-2.30419">
        <ele>151</ele>
        <time>2015-05-14T09:26:32Z</time>
      </trkpt>
      <trkpt lat="47.69442" lon="-2.30429">
        <ele>153</ele>
        <time>2015-05-14T09:26:37Z</time>
      </trkpt>
      <trkpt lat="47.69444" lon="-2.30441">
        <ele>155</ele>
        <time>2015-05-14T09:26:44Z</time>
      </trkpt>
      <trkpt lat="47.69445" lon="-2.30454">
        <ele>155</ele>
        <time>2015-05-14T09:26:50Z</time>
      </trkpt>
      <trkpt lat="47.69448" lon="-2.30465">
        <ele>153</ele>
        <time>2015-05-14T09:26:57Z</time>
      </trkpt>
      <trkpt lat="47.69449" lon="-2.30477">
        <ele>152</ele>
        <time>2015-05-14T09:27:04Z</time>
      </trkpt>
      <trkpt lat="47.69451" lon="-2.30487">
        <ele>151</ele>
        <time>2015-05-14T09:27:11Z</time>
      </trkpt>
      <trkpt lat="47.69452" lon="-2.30499">
        <ele>152</ele>
        <time>2015-05-14T09:27:17Z</time>
      </trkpt>
      <trkpt lat="47.69453" lon="-2.30511">
        <ele>152</ele>
        <time>2015-05-14T09:27:23Z</time>
      </trkpt>
      <trkpt lat="47.69456" lon="-2.30523">
        <ele>152</ele>
        <time>2015-05-14T09:27:30Z</time>
      </trkpt>
      <trkpt lat="47.69457" lon="-2.30527">
        <ele>151</ele>
        <time>2015-05-14T09:27:37Z</time>
      </trkpt>
      <trkpt lat="47.69457" lon="-2.30525">
        <ele>151</ele>
        <time>2015-05-14T09:27:44Z</time>
      </trkpt>
      <trkpt lat="47.69458" lon="-2.30531">
        <ele>149</ele>
        <time>2015-05-14T09:30:21Z</time>
      </trkpt>
      <trkpt lat="47.69461" lon="-2.3054">
        <ele>150</ele>
        <time>2015-05-14T09:30:26Z</time>
      </trkpt>
      <trkpt lat="47.69465" lon="-2.30541">
        <ele>150</ele>
        <time>2015-05-14T09:30:33Z</time>
      </trkpt>
      <trkpt lat="47.69465" lon="-2.30538">
        <ele>149</ele>
        <time>2015-05-14T09:30:40Z</time>
      </trkpt>
      <trkpt lat="47.69471" lon="-2.3054">
        <ele>148</ele>
        <time>2015-05-14T09:30:47Z</time>
      </trkpt>
      <trkpt lat="47.69479" lon="-2.30537">
        <ele>149</ele>
        <time>2015-05-14T09:30:54Z</time>
      </trkpt>
      <trkpt lat="47.69486" lon="-2.30535">
        <ele>150</ele>
        <time>2015-05-14T09:31:01Z</time>
      </trkpt>
      <trkpt lat="47.69494" lon="-2.30534">
        <ele>151</ele>
        <time>2015-05-14T09:31:08Z</time>
      </trkpt>
      <trkpt lat="47.69501" lon="-2.30529">
        <ele>149</ele>
        <time>2015-05-14T09:31:15Z</time>
      </trkpt>
      <trkpt lat="47.69502" lon="-2.30527">
        <ele>146</ele>
        <time>2015-05-14T09:31:22Z</time>
      </trkpt>
      <trkpt lat="47.69507" lon="-2.30527">
        <ele>144</ele>
        <time>2015-05-14T09:31:29Z</time>
      </trkpt>
      <trkpt lat="47.69514" lon="-2.30525">
        <ele>144</ele>
        <time>2015-05-14T09:31:34Z</time>
      </trkpt>
      <trkpt lat="47.69522" lon="-2.3052">
        <ele>143</ele>
        <time>2015-05-14T09:31:40Z</time>
      </trkpt>
      <trkpt lat="47.69529" lon="-2.30515">
        <ele>143</ele>
        <time>2015-05-14T09:31:47Z</time>
      </trkpt>
      <trkpt lat="47.69536" lon="-2.3051">
        <ele>144</ele>
        <time>2015-05-14T09:31:52Z</time>
      </trkpt>
      <trkpt lat="47.69543" lon="-2.30504">
        <ele>145</ele>
        <time>2015-05-14T09:31:58Z</time>
      </trkpt>
      <trkpt lat="47.69551" lon="-2.30498">
        <ele>147</ele>
        <time>2015-05-14T09:32:04Z</time>
      </trkpt>
      <trkpt lat="47.69557" lon="-2.3049">
        <ele>148</ele>
        <time>2015-05-14T09:32:09Z</time>
      </trkpt>
      <trkpt lat="47.69563" lon="-2.30483">
        <ele>148</ele>
        <time>2015-05-14T09:32:15Z</time>
      </trkpt>
      <trkpt lat="47.6957" lon="-2.30479">
        <ele>144</ele>
        <time>2015-05-14T09:32:21Z</time>
      </trkpt>
      <trkpt lat="47.69576" lon="-2.30472">
        <ele>142</ele>
        <time>2015-05-14T09:32:26Z</time>
      </trkpt>
      <trkpt lat="47.69581" lon="-2.30465">
        <ele>144</ele>
        <time>2015-05-14T09:32:33Z</time>
      </trkpt>
      <trkpt lat="47.69587" lon="-2.30457">
        <ele>145</ele>
        <time>2015-05-14T09:32:38Z</time>
      </trkpt>
      <trkpt lat="47.69592" lon="-2.30448">
        <ele>146</ele>
        <time>2015-05-14T09:32:45Z</time>
      </trkpt>
      <trkpt lat="47.69598" lon="-2.3044">
        <ele>147</ele>
        <time>2015-05-14T09:32:51Z</time>
      </trkpt>
      <trkpt lat="47.69604" lon="-2.30434">
        <ele>149</ele>
        <time>2015-05-14T09:32:56Z</time>
      </trkpt>
      <trkpt lat="47.69611" lon="-2.30428">
        <ele>150</ele>
        <time>2015-05-14T09:33:02Z</time>
      </trkpt>
      <trkpt lat="47.69616" lon="-2.30419">
        <ele>151</ele>
        <time>2015-05-14T09:33:08Z</time>
      </trkpt>
      <trkpt lat="47.69619" lon="-2.30412">
        <ele>149</ele>
        <time>2015-05-14T09:33:15Z</time>
      </trkpt>
      <trkpt lat="47.69624" lon="-2.30403">
        <ele>149</ele>
        <time>2015-05-14T09:33:22Z</time>
      </trkpt>
      <trkpt lat="47.69632" lon="-2.30395">
        <ele>150</ele>
        <time>2015-05-14T09:33:29Z</time>
      </trkpt>
      <trkpt lat="47.69635" lon="-2.30389">
        <ele>148</ele>
        <time>2015-05-14T09:33:36Z</time>
      </trkpt>
      <trkpt lat="47.69641" lon="-2.30381">
        <ele>149</ele>
        <time>2015-05-14T09:33:43Z</time>
      </trkpt>
      <trkpt lat="47.69647" lon="-2.30374">
        <ele>150</ele>
        <time>2015-05-14T09:33:47Z</time>
      </trkpt>
      <trkpt lat="47.69652" lon="-2.30366">
        <ele>149</ele>
        <time>2015-05-14T09:33:54Z</time>
      </trkpt>
      <trkpt lat="47.69657" lon="-2.30358">
        <ele>147</ele>
        <time>2015-05-14T09:34:01Z</time>
      </trkpt>
      <trkpt lat="47.69663" lon="-2.3035">
        <ele>148</ele>
        <time>2015-05-14T09:34:06Z</time>
      </trkpt>
      <trkpt lat="47.69669" lon="-2.30342">
        <ele>148</ele>
        <time>2015-05-14T09:34:12Z</time>
      </trkpt>
      <trkpt lat="47.69675" lon="-2.30333">
        <ele>147</ele>
        <time>2015-05-14T09:34:17Z</time>
      </trkpt>
      <trkpt lat="47.69679" lon="-2.30324">
        <ele>148</ele>
        <time>2015-05-14T09:34:22Z</time>
      </trkpt>
      <trkpt lat="47.69684" lon="-2.30317">
        <ele>148</ele>
        <time>2015-05-14T09:34:27Z</time>
      </trkpt>
      <trkpt lat="47.6969" lon="-2.30307">
        <ele>149</ele>
        <time>2015-05-14T09:34:32Z</time>
      </trkpt>
      <trkpt lat="47.69695" lon="-2.30299">
        <ele>150</ele>
        <time>2015-05-14T09:34:37Z</time>
      </trkpt>
      <trkpt lat="47.69701" lon="-2.3029">
        <ele>151</ele>
        <time>2015-05-14T09:34:42Z</time>
      </trkpt>
      <trkpt lat="47.69707" lon="-2.30283">
        <ele>152</ele>
        <time>2015-05-14T09:34:47Z</time>
      </trkpt>
      <trkpt lat="47.69712" lon="-2.30274">
        <ele>153</ele>
        <time>2015-05-14T09:34:52Z</time>
      </trkpt>
      <trkpt lat="47.69717" lon="-2.30264">
        <ele>154</ele>
        <time>2015-05-14T09:34:58Z</time>
      </trkpt>
      <trkpt lat="47.69722" lon="-2.30254">
        <ele>154</ele>
        <time>2015-05-14T09:35:04Z</time>
      </trkpt>
      <trkpt lat="47.69727" lon="-2.30246">
        <ele>155</ele>
        <time>2015-05-14T09:35:10Z</time>
      </trkpt>
      <trkpt lat="47.69732" lon="-2.30236">
        <ele>155</ele>
        <time>2015-05-14T09:35:16Z</time>
      </trkpt>
      <trkpt lat="47.69736" lon="-2.30227">
        <ele>153</ele>
        <time>2015-05-14T09:35:23Z</time>
      </trkpt>
      <trkpt lat="47.69733" lon="-2.30217">
        <ele>148</ele>
        <time>2015-05-14T09:35:30Z</time>
      </trkpt>
      <trkpt lat="47.69738" lon="-2.30208">
        <ele>148</ele>
        <time>2015-05-14T09:35:35Z</time>
      </trkpt>
      <trkpt lat="47.69744" lon="-2.30199">
        <ele>150</ele>
        <time>2015-05-14T09:35:41Z</time>
      </trkpt>
      <trkpt lat="47.69733" lon="-2.30198">
        <ele>142</ele>
        <time>2015-05-14T09:35:43Z</time>
      </trkpt>
      <trkpt lat="47.69737" lon="-2.30189">
        <ele>142</ele>
        <time>2015-05-14T09:35:48Z</time>
      </trkpt>
      <trkpt lat="47.69742" lon="-2.30179">
        <ele>143</ele>
        <time>2015-05-14T09:35:53Z</time>
      </trkpt>
      <trkpt lat="47.69748" lon="-2.3017">
        <ele>143</ele>
        <time>2015-05-14T09:35:59Z</time>
      </trkpt>
      <trkpt lat="47.69752" lon="-2.3016">
        <ele>143</ele>
        <time>2015-05-14T09:36:04Z</time>
      </trkpt>
      <trkpt lat="47.69756" lon="-2.30152">
        <ele>144</ele>
        <time>2015-05-14T09:36:09Z</time>
      </trkpt>
      <trkpt lat="47.69761" lon="-2.30143">
        <ele>145</ele>
        <time>2015-05-14T09:36:14Z</time>
      </trkpt>
      <trkpt lat="47.69767" lon="-2.30134">
        <ele>144</ele>
        <time>2015-05-14T09:36:20Z</time>
      </trkpt>
      <trkpt lat="47.6977" lon="-2.30123">
        <ele>144</ele>
        <time>2015-05-14T09:36:27Z</time>
      </trkpt>
      <trkpt lat="47.69775" lon="-2.30114">
        <ele>143</ele>
        <time>2015-05-14T09:36:33Z</time>
      </trkpt>
      <trkpt lat="47.69778" lon="-2.30105">
        <ele>141</ele>
        <time>2015-05-14T09:36:40Z</time>
      </trkpt>
      <trkpt lat="47.69782" lon="-2.30096">
        <ele>140</ele>
        <time>2015-05-14T09:36:46Z</time>
      </trkpt>
      <trkpt lat="47.69787" lon="-2.30086">
        <ele>140</ele>
        <time>2015-05-14T09:36:52Z</time>
      </trkpt>
      <trkpt lat="47.69793" lon="-2.30077">
        <ele>140</ele>
        <time>2015-05-14T09:36:57Z</time>
      </trkpt>
      <trkpt lat="47.69799" lon="-2.30069">
        <ele>143</ele>
        <time>2015-05-14T09:37:02Z</time>
      </trkpt>
      <trkpt lat="47.69804" lon="-2.30058">
        <ele>143</ele>
        <time>2015-05-14T09:37:08Z</time>
      </trkpt>
      <trkpt lat="47.69809" lon="-2.30048">
        <ele>145</ele>
        <time>2015-05-14T09:37:13Z</time>
      </trkpt>
      <trkpt lat="47.69814" lon="-2.30039">
        <ele>145</ele>
        <time>2015-05-14T09:37:19Z</time>
      </trkpt>
      <trkpt lat="47.69796" lon="-2.30041">
        <ele>132</ele>
        <time>2015-05-14T09:37:21Z</time>
      </trkpt>
      <trkpt lat="47.69801" lon="-2.30034">
        <ele>131</ele>
        <time>2015-05-14T09:37:28Z</time>
      </trkpt>
      <trkpt lat="47.69804" lon="-2.30026">
        <ele>128</ele>
        <time>2015-05-14T09:37:35Z</time>
      </trkpt>
      <trkpt lat="47.6981" lon="-2.30019">
        <ele>128</ele>
        <time>2015-05-14T09:37:40Z</time>
      </trkpt>
      <trkpt lat="47.69817" lon="-2.30015">
        <ele>132</ele>
        <time>2015-05-14T09:37:46Z</time>
      </trkpt>
      <trkpt lat="47.69819" lon="-2.30013">
        <ele>127</ele>
        <time>2015-05-14T09:37:53Z</time>
      </trkpt>
      <trkpt lat="47.69826" lon="-2.30008">
        <ele>126</ele>
        <time>2015-05-14T09:38:00Z</time>
      </trkpt>
      <trkpt lat="47.69833" lon="-2.30003">
        <ele>127</ele>
        <time>2015-05-14T09:38:06Z</time>
      </trkpt>
      <trkpt lat="47.6984" lon="-2.29998">
        <ele>127</ele>
        <time>2015-05-14T09:38:12Z</time>
      </trkpt>
      <trkpt lat="47.69848" lon="-2.29995">
        <ele>127</ele>
        <time>2015-05-14T09:38:19Z</time>
      </trkpt>
      <trkpt lat="47.69856" lon="-2.29992">
        <ele>127</ele>
        <time>2015-05-14T09:38:25Z</time>
      </trkpt>
      <trkpt lat="47.69862" lon="-2.29988">
        <ele>128</ele>
        <time>2015-05-14T09:38:31Z</time>
      </trkpt>
      <trkpt lat="47.69869" lon="-2.29983">
        <ele>128</ele>
        <time>2015-05-14T09:38:37Z</time>
      </trkpt>
      <trkpt lat="47.69877" lon="-2.2998">
        <ele>127</ele>
        <time>2015-05-14T09:38:43Z</time>
      </trkpt>
      <trkpt lat="47.69885" lon="-2.29978">
        <ele>126</ele>
        <time>2015-05-14T09:38:48Z</time>
      </trkpt>
      <trkpt lat="47.69892" lon="-2.29974">
        <ele>126</ele>
        <time>2015-05-14T09:38:54Z</time>
      </trkpt>
      <trkpt lat="47.699" lon="-2.29971">
        <ele>125</ele>
        <time>2015-05-14T09:38:59Z</time>
      </trkpt>
      <trkpt lat="47.69908" lon="-2.29967">
        <ele>124</ele>
        <time>2015-05-14T09:39:06Z</time>
      </trkpt>
      <trkpt lat="47.69915" lon="-2.29963">
        <ele>122</ele>
        <time>2015-05-14T09:39:13Z</time>
      </trkpt>
      <trkpt lat="47.69922" lon="-2.2996">
        <ele>122</ele>
        <time>2015-05-14T09:39:20Z</time>
      </trkpt>
      <trkpt lat="47.69927" lon="-2.29956">
        <ele>122</ele>
        <time>2015-05-14T09:39:27Z</time>
      </trkpt>
      <trkpt lat="47.69934" lon="-2.29954">
        <ele>121</ele>
        <time>2015-05-14T09:39:32Z</time>
      </trkpt>
      <trkpt lat="47.69942" lon="-2.29956">
        <ele>123</ele>
        <time>2015-05-14T09:39:37Z</time>
      </trkpt>
      <trkpt lat="47.69949" lon="-2.29957">
        <ele>124</ele>
        <time>2015-05-14T09:39:43Z</time>
      </trkpt>
      <trkpt lat="47.69953" lon="-2.29957">
        <ele>125</ele>
        <time>2015-05-14T09:39:50Z</time>
      </trkpt>
      <trkpt lat="47.69958" lon="-2.29961">
        <ele>125</ele>
        <time>2015-05-14T09:39:57Z</time>
      </trkpt>
      <trkpt lat="47.6996" lon="-2.29965">
        <ele>125</ele>
        <time>2015-05-14T09:40:04Z</time>
      </trkpt>
      <trkpt lat="47.6996" lon="-2.29965">
        <ele>124</ele>
        <time>2015-05-14T09:40:10Z</time>
      </trkpt>
      <trkpt lat="47.69963" lon="-2.29964">
        <ele>124</ele>
        <time>2015-05-14T09:40:19Z</time>
      </trkpt>
      <trkpt lat="47.69971" lon="-2.29968">
        <ele>124</ele>
        <time>2015-05-14T09:40:26Z</time>
      </trkpt>
      <trkpt lat="47.69978" lon="-2.29969">
        <ele>123</ele>
        <time>2015-05-14T09:40:33Z</time>
      </trkpt>
      <trkpt lat="47.69985" lon="-2.2997">
        <ele>121</ele>
        <time>2015-05-14T09:40:38Z</time>
      </trkpt>
      <trkpt lat="47.69993" lon="-2.29975">
        <ele>121</ele>
        <time>2015-05-14T09:40:45Z</time>
      </trkpt>
      <trkpt lat="47.70001" lon="-2.29976">
        <ele>123</ele>
        <time>2015-05-14T09:40:51Z</time>
      </trkpt>
      <trkpt lat="47.70009" lon="-2.2998">
        <ele>127</ele>
        <time>2015-05-14T09:40:57Z</time>
      </trkpt>
      <trkpt lat="47.70017" lon="-2.29985">
        <ele>130</ele>
        <time>2015-05-14T09:41:03Z</time>
      </trkpt>
      <trkpt lat="47.70024" lon="-2.29985">
        <ele>132</ele>
        <time>2015-05-14T09:41:10Z</time>
      </trkpt>
      <trkpt lat="47.70026" lon="-2.2999">
        <ele>130</ele>
        <time>2015-05-14T09:41:17Z</time>
      </trkpt>
      <trkpt lat="47.70032" lon="-2.2999">
        <ele>129</ele>
        <time>2015-05-14T09:41:24Z</time>
      </trkpt>
      <trkpt lat="47.7004" lon="-2.29991">
        <ele>124</ele>
        <time>2015-05-14T09:41:29Z</time>
      </trkpt>
      <trkpt lat="47.70048" lon="-2.29993">
        <ele>129</ele>
        <time>2015-05-14T09:41:36Z</time>
      </trkpt>
      <trkpt lat="47.70057" lon="-2.29995">
        <ele>128</ele>
        <time>2015-05-14T09:41:43Z</time>
      </trkpt>
      <trkpt lat="47.70065" lon="-2.29994">
        <ele>131</ele>
        <time>2015-05-14T09:41:47Z</time>
      </trkpt>
      <trkpt lat="47.70073" lon="-2.29995">
        <ele>134</ele>
        <time>2015-05-14T09:41:52Z</time>
      </trkpt>
      <trkpt lat="47.70082" lon="-2.29998">
        <ele>134</ele>
        <time>2015-05-14T09:41:59Z</time>
      </trkpt>
      <trkpt lat="47.70089" lon="-2.3">
        <ele>136</ele>
        <time>2015-05-14T09:42:05Z</time>
      </trkpt>
      <trkpt lat="47.70097" lon="-2.29999">
        <ele>139</ele>
        <time>2015-05-14T09:42:12Z</time>
      </trkpt>
      <trkpt lat="47.70105" lon="-2.30001">
        <ele>137</ele>
        <time>2015-05-14T09:42:17Z</time>
      </trkpt>
      <trkpt lat="47.70112" lon="-2.30004">
        <ele>135</ele>
        <time>2015-05-14T09:42:24Z</time>
      </trkpt>
      <trkpt lat="47.70113" lon="-2.30005">
        <ele>135</ele>
        <time>2015-05-14T09:42:31Z</time>
      </trkpt>
      <trkpt lat="47.70112" lon="-2.30007">
        <ele>134</ele>
        <time>2015-05-14T09:42:38Z</time>
      </trkpt>
      <trkpt lat="47.70112" lon="-2.30007">
        <ele>134</ele>
        <time>2015-05-14T09:42:39Z</time>
      </trkpt>
      <trkpt lat="47.70112" lon="-2.3002">
        <ele>138</ele>
        <time>2015-05-14T09:42:45Z</time>
      </trkpt>
      <trkpt lat="47.70112" lon="-2.30033">
        <ele>137</ele>
        <time>2015-05-14T09:42:51Z</time>
      </trkpt>
      <trkpt lat="47.70112" lon="-2.30041">
        <ele>137</ele>
        <time>2015-05-14T09:42:58Z</time>
      </trkpt>
      <trkpt lat="47.70112" lon="-2.3005">
        <ele>134</ele>
        <time>2015-05-14T09:43:05Z</time>
      </trkpt>
      <trkpt lat="47.70112" lon="-2.30059">
        <ele>136</ele>
        <time>2015-05-14T09:43:12Z</time>
      </trkpt>
      <trkpt lat="47.70114" lon="-2.30069">
        <ele>137</ele>
        <time>2015-05-14T09:43:18Z</time>
      </trkpt>
      <trkpt lat="47.70112" lon="-2.30082">
        <ele>143</ele>
        <time>2015-05-14T09:43:25Z</time>
      </trkpt>
      <trkpt lat="47.70113" lon="-2.30085">
        <ele>145</ele>
        <time>2015-05-14T09:43:32Z</time>
      </trkpt>
      <trkpt lat="47.70108" lon="-2.30094">
        <ele>145</ele>
        <time>2015-05-14T09:43:38Z</time>
      </trkpt>
      <trkpt lat="47.70111" lon="-2.30097">
        <ele>146</ele>
        <time>2015-05-14T09:43:45Z</time>
      </trkpt>
      <trkpt lat="47.70111" lon="-2.30104">
        <ele>146</ele>
        <time>2015-05-14T09:43:52Z</time>
      </trkpt>
      <trkpt lat="47.7011" lon="-2.3011">
        <ele>145</ele>
        <time>2015-05-14T09:43:59Z</time>
      </trkpt>
      <trkpt lat="47.7011" lon="-2.30112">
        <ele>143</ele>
        <time>2015-05-14T09:44:06Z</time>
      </trkpt>
      <trkpt lat="47.70108" lon="-2.30125">
        <ele>140</ele>
        <time>2015-05-14T09:44:13Z</time>
      </trkpt>
      <trkpt lat="47.7011" lon="-2.30137">
        <ele>138</ele>
        <time>2015-05-14T09:44:19Z</time>
      </trkpt>
      <trkpt lat="47.70109" lon="-2.30151">
        <ele>137</ele>
        <time>2015-05-14T09:44:24Z</time>
      </trkpt>
      <trkpt lat="47.70111" lon="-2.30159">
        <ele>136</ele>
        <time>2015-05-14T09:44:31Z</time>
      </trkpt>
      <trkpt lat="47.70111" lon="-2.30172">
        <ele>139</ele>
        <time>2015-05-14T09:44:38Z</time>
      </trkpt>
      <trkpt lat="47.70113" lon="-2.30184">
        <ele>141</ele>
        <time>2015-05-14T09:44:42Z</time>
      </trkpt>
      <trkpt lat="47.70112" lon="-2.30193">
        <ele>142</ele>
        <time>2015-05-14T09:44:49Z</time>
      </trkpt>
      <trkpt lat="47.70113" lon="-2.30202">
        <ele>142</ele>
        <time>2015-05-14T09:44:56Z</time>
      </trkpt>
      <trkpt lat="47.70117" lon="-2.30213">
        <ele>143</ele>
        <time>2015-05-14T09:45:02Z</time>
      </trkpt>
      <trkpt lat="47.70117" lon="-2.30226">
        <ele>147</ele>
        <time>2015-05-14T09:45:08Z</time>
      </trkpt>
      <trkpt lat="47.70119" lon="-2.30239">
        <ele>150</ele>
        <time>2015-05-14T09:45:12Z</time>
      </trkpt>
      <trkpt lat="47.70117" lon="-2.30251">
        <ele>150</ele>
        <time>2015-05-14T09:45:18Z</time>
      </trkpt>
      <trkpt lat="47.70116" lon="-2.30259">
        <ele>147</ele>
        <time>2015-05-14T09:45:25Z</time>
      </trkpt>
      <trkpt lat="47.70117" lon="-2.30267">
        <ele>145</ele>
        <time>2015-05-14T09:45:32Z</time>
      </trkpt>
      <trkpt lat="47.70117" lon="-2.30272">
        <ele>143</ele>
        <time>2015-05-14T09:45:39Z</time>
      </trkpt>
      <trkpt lat="47.70112" lon="-2.30283">
        <ele>140</ele>
        <time>2015-05-14T09:45:43Z</time>
      </trkpt>
      <trkpt lat="47.70113" lon="-2.30297">
        <ele>140</ele>
        <time>2015-05-14T09:45:49Z</time>
      </trkpt>
      <trkpt lat="47.70112" lon="-2.30308">
        <ele>141</ele>
        <time>2015-05-14T09:45:55Z</time>
      </trkpt>
      <trkpt lat="47.70109" lon="-2.30319">
        <ele>140</ele>
        <time>2015-05-14T09:46:02Z</time>
      </trkpt>
      <trkpt lat="47.70109" lon="-2.30325">
        <ele>142</ele>
        <time>2015-05-14T09:46:09Z</time>
      </trkpt>
      <trkpt lat="47.70104" lon="-2.30335">
        <ele>138</ele>
        <time>2015-05-14T09:46:16Z</time>
      </trkpt>
      <trkpt lat="47.70104" lon="-2.30343">
        <ele>138</ele>
        <time>2015-05-14T09:46:23Z</time>
      </trkpt>
      <trkpt lat="47.70102" lon="-2.30353">
        <ele>141</ele>
        <time>2015-05-14T09:46:29Z</time>
      </trkpt>
      <trkpt lat="47.70103" lon="-2.30363">
        <ele>142</ele>
        <time>2015-05-14T09:46:36Z</time>
      </trkpt>
      <trkpt lat="47.701" lon="-2.30372">
        <ele>143</ele>
        <time>2015-05-14T09:46:43Z</time>
      </trkpt>
      <trkpt lat="47.70098" lon="-2.30383">
        <ele>141</ele>
        <time>2015-05-14T09:46:50Z</time>
      </trkpt>
      <trkpt lat="47.70098" lon="-2.30394">
        <ele>141</ele>
        <time>2015-05-14T09:46:57Z</time>
      </trkpt>
      <trkpt lat="47.70094" lon="-2.30401">
        <ele>141</ele>
        <time>2015-05-14T09:47:04Z</time>
      </trkpt>
      <trkpt lat="47.7009" lon="-2.30406">
        <ele>141</ele>
        <time>2015-05-14T09:47:11Z</time>
      </trkpt>
      <trkpt lat="47.70089" lon="-2.30409">
        <ele>142</ele>
        <time>2015-05-14T09:47:18Z</time>
      </trkpt>
      <trkpt lat="47.70088" lon="-2.30412">
        <ele>142</ele>
        <time>2015-05-14T09:47:25Z</time>
      </trkpt>
      <trkpt lat="47.70088" lon="-2.30412">
        <ele>142</ele>
        <time>2015-05-14T09:47:27Z</time>
      </trkpt>
      <trkpt lat="47.70086" lon="-2.30423">
        <ele>139</ele>
        <time>2015-05-14T09:47:33Z</time>
      </trkpt>
      <trkpt lat="47.70084" lon="-2.30436">
        <ele>138</ele>
        <time>2015-05-14T09:47:38Z</time>
      </trkpt>
      <trkpt lat="47.70082" lon="-2.30448">
        <ele>138</ele>
        <time>2015-05-14T09:47:43Z</time>
      </trkpt>
      <trkpt lat="47.70082" lon="-2.3046">
        <ele>138</ele>
        <time>2015-05-14T09:47:47Z</time>
      </trkpt>
      <trkpt lat="47.70081" lon="-2.30472">
        <ele>137</ele>
        <time>2015-05-14T09:47:54Z</time>
      </trkpt>
      <trkpt lat="47.70078" lon="-2.30483">
        <ele>136</ele>
        <time>2015-05-14T09:48:01Z</time>
      </trkpt>
      <trkpt lat="47.70076" lon="-2.30496">
        <ele>137</ele>
        <time>2015-05-14T09:48:08Z</time>
      </trkpt>
      <trkpt lat="47.70073" lon="-2.30503">
        <ele>135</ele>
        <time>2015-05-14T09:48:15Z</time>
      </trkpt>
      <trkpt lat="47.70071" lon="-2.30515">
        <ele>137</ele>
        <time>2015-05-14T09:48:21Z</time>
      </trkpt>
      <trkpt lat="47.70067" lon="-2.30526">
        <ele>141</ele>
        <time>2015-05-14T09:48:28Z</time>
      </trkpt>
      <trkpt lat="47.70066" lon="-2.30535">
        <ele>142</ele>
        <time>2015-05-14T09:48:35Z</time>
      </trkpt>
      <trkpt lat="47.70067" lon="-2.30538">
        <ele>141</ele>
        <time>2015-05-14T09:48:42Z</time>
      </trkpt>
      <trkpt lat="47.70068" lon="-2.30539">
        <ele>141</ele>
        <time>2015-05-14T09:48:49Z</time>
      </trkpt>
      <trkpt lat="47.70068" lon="-2.30539">
        <ele>141</ele>
        <time>2015-05-14T09:48:51Z</time>
      </trkpt>
      <trkpt lat="47.7007" lon="-2.30549">
        <ele>141</ele>
        <time>2015-05-14T09:50:08Z</time>
      </trkpt>
      <trkpt lat="47.70071" lon="-2.30553">
        <ele>141</ele>
        <time>2015-05-14T09:50:15Z</time>
      </trkpt>
      <trkpt lat="47.70074" lon="-2.30559">
        <ele>145</ele>
        <time>2015-05-14T09:50:22Z</time>
      </trkpt>
      <trkpt lat="47.70076" lon="-2.30559">
        <ele>145</ele>
        <time>2015-05-14T09:50:29Z</time>
      </trkpt>
      <trkpt lat="47.70076" lon="-2.30559">
        <ele>145</ele>
        <time>2015-05-14T09:50:33Z</time>
      </trkpt>
      <trkpt lat="47.70076" lon="-2.3056">
        <ele>145</ele>
        <time>2015-05-14T09:50:46Z</time>
      </trkpt>
      <trkpt lat="47.70076" lon="-2.3056">
        <ele>145</ele>
        <time>2015-05-14T09:50:47Z</time>
      </trkpt>
      <trkpt lat="47.70077" lon="-2.3056">
        <ele>144</ele>
        <time>2015-05-14T09:58:54Z</time>
      </trkpt>
      <trkpt lat="47.70077" lon="-2.3056">
        <ele>144</ele>
        <time>2015-05-14T09:58:55Z</time>
      </trkpt>
      <trkpt lat="47.70077" lon="-2.3056">
        <ele>144</ele>
        <time>2015-05-14T10:19:42Z</time>
      </trkpt>
      <trkpt lat="47.70077" lon="-2.3056">
        <ele>144</ele>
        <time>2015-05-14T10:19:43Z</time>
      </trkpt>
      <trkpt lat="47.70078" lon="-2.30561">
        <ele>143</ele>
        <time>2015-05-14T10:23:00Z</time>
      </trkpt>
      <trkpt lat="47.70078" lon="-2.30561">
        <ele>143</ele>
        <time>2015-05-14T10:23:01Z</time>
      </trkpt>
      <trkpt lat="47.70079" lon="-2.30556">
        <ele>136</ele>
        <time>2015-05-14T10:30:08Z</time>
      </trkpt>
      <trkpt lat="47.7008" lon="-2.30555">
        <ele>137</ele>
        <time>2015-05-14T10:30:15Z</time>
      </trkpt>
      <trkpt lat="47.7008" lon="-2.30554">
        <ele>136</ele>
        <time>2015-05-14T10:30:17Z</time>
      </trkpt>
      <trkpt lat="47.70079" lon="-2.30565">
        <ele>141</ele>
        <time>2015-05-14T10:37:33Z</time>
      </trkpt>
      <trkpt lat="47.70082" lon="-2.30575">
        <ele>142</ele>
        <time>2015-05-14T10:37:39Z</time>
      </trkpt>
      <trkpt lat="47.7008" lon="-2.30587">
        <ele>140</ele>
        <time>2015-05-14T10:37:44Z</time>
      </trkpt>
      <trkpt lat="47.70079" lon="-2.3059">
        <ele>140</ele>
        <time>2015-05-14T10:37:51Z</time>
      </trkpt>
      <trkpt lat="47.7008" lon="-2.30591">
        <ele>137</ele>
        <time>2015-05-14T10:37:58Z</time>
      </trkpt>
      <trkpt lat="47.7008" lon="-2.30593">
        <ele>138</ele>
        <time>2015-05-14T10:38:05Z</time>
      </trkpt>
      <trkpt lat="47.70081" lon="-2.30604">
        <ele>140</ele>
        <time>2015-05-14T10:38:17Z</time>
      </trkpt>
      <trkpt lat="47.70076" lon="-2.30613">
        <ele>143</ele>
        <time>2015-05-14T10:38:21Z</time>
      </trkpt>
      <trkpt lat="47.70073" lon="-2.30625">
        <ele>142</ele>
        <time>2015-05-14T10:38:27Z</time>
      </trkpt>
      <trkpt lat="47.70069" lon="-2.30635">
        <ele>142</ele>
        <time>2015-05-14T10:38:30Z</time>
      </trkpt>
      <trkpt lat="47.7007" lon="-2.30648">
        <ele>143</ele>
        <time>2015-05-14T10:38:36Z</time>
      </trkpt>
      <trkpt lat="47.70068" lon="-2.3066">
        <ele>142</ele>
        <time>2015-05-14T10:38:41Z</time>
      </trkpt>
      <trkpt lat="47.70068" lon="-2.30671">
        <ele>147</ele>
        <time>2015-05-14T10:38:48Z</time>
      </trkpt>
      <trkpt lat="47.70066" lon="-2.30683">
        <ele>149</ele>
        <time>2015-05-14T10:38:55Z</time>
      </trkpt>
      <trkpt lat="47.70067" lon="-2.30688">
        <ele>149</ele>
        <time>2015-05-14T10:39:02Z</time>
      </trkpt>
      <trkpt lat="47.70069" lon="-2.30698">
        <ele>150</ele>
        <time>2015-05-14T10:39:07Z</time>
      </trkpt>
      <trkpt lat="47.70069" lon="-2.30708">
        <ele>151</ele>
        <time>2015-05-14T10:39:14Z</time>
      </trkpt>
      <trkpt lat="47.70067" lon="-2.30719">
        <ele>150</ele>
        <time>2015-05-14T10:39:18Z</time>
      </trkpt>
      <trkpt lat="47.70065" lon="-2.3073">
        <ele>153</ele>
        <time>2015-05-14T10:39:23Z</time>
      </trkpt>
      <trkpt lat="47.70065" lon="-2.30732">
        <ele>152</ele>
        <time>2015-05-14T10:39:30Z</time>
      </trkpt>
      <trkpt lat="47.70064" lon="-2.30731">
        <ele>154</ele>
        <time>2015-05-14T10:39:34Z</time>
      </trkpt>
      <trkpt lat="47.70063" lon="-2.30735">
        <ele>153</ele>
        <time>2015-05-14T10:39:41Z</time>
      </trkpt>
      <trkpt lat="47.70064" lon="-2.30735">
        <ele>152</ele>
        <time>2015-05-14T10:39:46Z</time>
      </trkpt>
      <trkpt lat="47.7006" lon="-2.30751">
        <ele>153</ele>
        <time>2015-05-14T10:39:54Z</time>
      </trkpt>
      <trkpt lat="47.70057" lon="-2.30763">
        <ele>150</ele>
        <time>2015-05-14T10:39:56Z</time>
      </trkpt>
      <trkpt lat="47.70055" lon="-2.30778">
        <ele>150</ele>
        <time>2015-05-14T10:40:00Z</time>
      </trkpt>
      <trkpt lat="47.70053" lon="-2.30791">
        <ele>153</ele>
        <time>2015-05-14T10:40:04Z</time>
      </trkpt>
      <trkpt lat="47.70052" lon="-2.30802">
        <ele>152</ele>
        <time>2015-05-14T10:40:06Z</time>
      </trkpt>
      <trkpt lat="47.70052" lon="-2.30813">
        <ele>153</ele>
        <time>2015-05-14T10:40:12Z</time>
      </trkpt>
      <trkpt lat="47.7005" lon="-2.30826">
        <ele>155</ele>
        <time>2015-05-14T10:40:18Z</time>
      </trkpt>
      <trkpt lat="47.7005" lon="-2.30838">
        <ele>153</ele>
        <time>2015-05-14T10:40:25Z</time>
      </trkpt>
      <trkpt lat="47.70053" lon="-2.30851">
        <ele>152</ele>
        <time>2015-05-14T10:40:31Z</time>
      </trkpt>
      <trkpt lat="47.70058" lon="-2.3086">
        <ele>148</ele>
        <time>2015-05-14T10:40:38Z</time>
      </trkpt>
      <trkpt lat="47.70059" lon="-2.30869">
        <ele>147</ele>
        <time>2015-05-14T10:40:45Z</time>
      </trkpt>
      <trkpt lat="47.70059" lon="-2.3088">
        <ele>144</ele>
        <time>2015-05-14T10:40:49Z</time>
      </trkpt>
      <trkpt lat="47.70057" lon="-2.30897">
        <ele>144</ele>
        <time>2015-05-14T10:40:52Z</time>
      </trkpt>
      <trkpt lat="47.70054" lon="-2.30905">
        <ele>144</ele>
        <time>2015-05-14T10:40:59Z</time>
      </trkpt>
      <trkpt lat="47.7006" lon="-2.30913">
        <ele>145</ele>
        <time>2015-05-14T10:41:06Z</time>
      </trkpt>
      <trkpt lat="47.70065" lon="-2.30921">
        <ele>148</ele>
        <time>2015-05-14T10:41:13Z</time>
      </trkpt>
      <trkpt lat="47.70073" lon="-2.30922">
        <ele>148</ele>
        <time>2015-05-14T10:41:19Z</time>
      </trkpt>
      <trkpt lat="47.70075" lon="-2.30931">
        <ele>144</ele>
        <time>2015-05-14T10:41:26Z</time>
      </trkpt>
      <trkpt lat="47.70082" lon="-2.30936">
        <ele>144</ele>
        <time>2015-05-14T10:41:32Z</time>
      </trkpt>
      <trkpt lat="47.7009" lon="-2.3094">
        <ele>140</ele>
        <time>2015-05-14T10:41:39Z</time>
      </trkpt>
      <trkpt lat="47.70098" lon="-2.30942">
        <ele>141</ele>
        <time>2015-05-14T10:41:46Z</time>
      </trkpt>
      <trkpt lat="47.70105" lon="-2.30946">
        <ele>143</ele>
        <time>2015-05-14T10:41:49Z</time>
      </trkpt>
      <trkpt lat="47.70109" lon="-2.3095">
        <ele>141</ele>
        <time>2015-05-14T10:41:56Z</time>
      </trkpt>
      <trkpt lat="47.70112" lon="-2.30952">
        <ele>140</ele>
        <time>2015-05-14T10:42:03Z</time>
      </trkpt>
      <trkpt lat="47.70119" lon="-2.30956">
        <ele>140</ele>
        <time>2015-05-14T10:42:10Z</time>
      </trkpt>
      <trkpt lat="47.70126" lon="-2.30962">
        <ele>141</ele>
        <time>2015-05-14T10:42:16Z</time>
      </trkpt>
      <trkpt lat="47.70134" lon="-2.30967">
        <ele>140</ele>
        <time>2015-05-14T10:42:23Z</time>
      </trkpt>
      <trkpt lat="47.70141" lon="-2.3097">
        <ele>143</ele>
        <time>2015-05-14T10:42:28Z</time>
      </trkpt>
      <trkpt lat="47.70145" lon="-2.30977">
        <ele>143</ele>
        <time>2015-05-14T10:42:35Z</time>
      </trkpt>
      <trkpt lat="47.70143" lon="-2.30988">
        <ele>139</ele>
        <time>2015-05-14T10:42:41Z</time>
      </trkpt>
      <trkpt lat="47.70151" lon="-2.30992">
        <ele>139</ele>
        <time>2015-05-14T10:42:48Z</time>
      </trkpt>
      <trkpt lat="47.70159" lon="-2.30996">
        <ele>142</ele>
        <time>2015-05-14T10:42:53Z</time>
      </trkpt>
      <trkpt lat="47.70162" lon="-2.31006">
        <ele>143</ele>
        <time>2015-05-14T10:43:00Z</time>
      </trkpt>
      <trkpt lat="47.70167" lon="-2.31013">
        <ele>141</ele>
        <time>2015-05-14T10:43:07Z</time>
      </trkpt>
      <trkpt lat="47.70166" lon="-2.31026">
        <ele>143</ele>
        <time>2015-05-14T10:43:14Z</time>
      </trkpt>
      <trkpt lat="47.70166" lon="-2.31035">
        <ele>142</ele>
        <time>2015-05-14T10:43:21Z</time>
      </trkpt>
      <trkpt lat="47.70164" lon="-2.31048">
        <ele>140</ele>
        <time>2015-05-14T10:43:27Z</time>
      </trkpt>
      <trkpt lat="47.70165" lon="-2.3106">
        <ele>138</ele>
        <time>2015-05-14T10:43:34Z</time>
      </trkpt>
      <trkpt lat="47.70169" lon="-2.3107">
        <ele>141</ele>
        <time>2015-05-14T10:43:40Z</time>
      </trkpt>
      <trkpt lat="47.70171" lon="-2.31082">
        <ele>142</ele>
        <time>2015-05-14T10:43:47Z</time>
      </trkpt>
      <trkpt lat="47.70172" lon="-2.31092">
        <ele>144</ele>
        <time>2015-05-14T10:43:54Z</time>
      </trkpt>
      <trkpt lat="47.70176" lon="-2.31102">
        <ele>148</ele>
        <time>2015-05-14T10:44:00Z</time>
      </trkpt>
      <trkpt lat="47.70174" lon="-2.31114">
        <ele>147</ele>
        <time>2015-05-14T10:44:07Z</time>
      </trkpt>
      <trkpt lat="47.70171" lon="-2.31124">
        <ele>144</ele>
        <time>2015-05-14T10:44:13Z</time>
      </trkpt>
      <trkpt lat="47.7017" lon="-2.31135">
        <ele>143</ele>
        <time>2015-05-14T10:44:20Z</time>
      </trkpt>
      <trkpt lat="47.70169" lon="-2.31146">
        <ele>141</ele>
        <time>2015-05-14T10:44:27Z</time>
      </trkpt>
      <trkpt lat="47.7017" lon="-2.31158">
        <ele>141</ele>
        <time>2015-05-14T10:44:34Z</time>
      </trkpt>
      <trkpt lat="47.7017" lon="-2.3117">
        <ele>142</ele>
        <time>2015-05-14T10:44:41Z</time>
      </trkpt>
      <trkpt lat="47.70173" lon="-2.31181">
        <ele>144</ele>
        <time>2015-05-14T10:44:47Z</time>
      </trkpt>
      <trkpt lat="47.70175" lon="-2.31192">
        <ele>146</ele>
        <time>2015-05-14T10:44:52Z</time>
      </trkpt>
      <trkpt lat="47.7017" lon="-2.31199">
        <ele>141</ele>
        <time>2015-05-14T10:44:59Z</time>
      </trkpt>
      <trkpt lat="47.70172" lon="-2.31201">
        <ele>141</ele>
        <time>2015-05-14T10:45:06Z</time>
      </trkpt>
      <trkpt lat="47.70173" lon="-2.31201">
        <ele>141</ele>
        <time>2015-05-14T10:45:13Z</time>
      </trkpt>
      <trkpt lat="47.70173" lon="-2.31201">
        <ele>141</ele>
        <time>2015-05-14T10:45:17Z</time>
      </trkpt>
      <trkpt lat="47.70174" lon="-2.31205">
        <ele>142</ele>
        <time>2015-05-14T10:45:32Z</time>
      </trkpt>
      <trkpt lat="47.70174" lon="-2.31205">
        <ele>142</ele>
        <time>2015-05-14T10:45:35Z</time>
      </trkpt>
      <trkpt lat="47.70173" lon="-2.31213">
        <ele>144</ele>
        <time>2015-05-14T10:45:46Z</time>
      </trkpt>
      <trkpt lat="47.70174" lon="-2.31218">
        <ele>146</ele>
        <time>2015-05-14T10:45:53Z</time>
      </trkpt>
      <trkpt lat="47.70175" lon="-2.31229">
        <ele>146</ele>
        <time>2015-05-14T10:45:59Z</time>
      </trkpt>
      <trkpt lat="47.70175" lon="-2.3124">
        <ele>145</ele>
        <time>2015-05-14T10:46:05Z</time>
      </trkpt>
      <trkpt lat="47.70177" lon="-2.31254">
        <ele>146</ele>
        <time>2015-05-14T10:46:12Z</time>
      </trkpt>
      <trkpt lat="47.7018" lon="-2.31263">
        <ele>148</ele>
        <time>2015-05-14T10:46:19Z</time>
      </trkpt>
      <trkpt lat="47.70182" lon="-2.31275">
        <ele>150</ele>
        <time>2015-05-14T10:46:26Z</time>
      </trkpt>
      <trkpt lat="47.70182" lon="-2.31282">
        <ele>148</ele>
        <time>2015-05-14T10:46:33Z</time>
      </trkpt>
      <trkpt lat="47.70182" lon="-2.31283">
        <ele>148</ele>
        <time>2015-05-14T10:46:38Z</time>
      </trkpt>
      <trkpt lat="47.70181" lon="-2.31296">
        <ele>144</ele>
        <time>2015-05-14T10:46:43Z</time>
      </trkpt>
      <trkpt lat="47.7018" lon="-2.31306">
        <ele>141</ele>
        <time>2015-05-14T10:46:50Z</time>
      </trkpt>
      <trkpt lat="47.70179" lon="-2.31317">
        <ele>143</ele>
        <time>2015-05-14T10:46:57Z</time>
      </trkpt>
      <trkpt lat="47.7018" lon="-2.31328">
        <ele>143</ele>
        <time>2015-05-14T10:47:01Z</time>
      </trkpt>
      <trkpt lat="47.70182" lon="-2.3134">
        <ele>145</ele>
        <time>2015-05-14T10:47:05Z</time>
      </trkpt>
      <trkpt lat="47.70182" lon="-2.31351">
        <ele>146</ele>
        <time>2015-05-14T10:47:11Z</time>
      </trkpt>
      <trkpt lat="47.70183" lon="-2.31362">
        <ele>145</ele>
        <time>2015-05-14T10:47:17Z</time>
      </trkpt>
      <trkpt lat="47.70185" lon="-2.31373">
        <ele>150</ele>
        <time>2015-05-14T10:47:23Z</time>
      </trkpt>
      <trkpt lat="47.70184" lon="-2.31385">
        <ele>145</ele>
        <time>2015-05-14T10:47:29Z</time>
      </trkpt>
      <trkpt lat="47.70186" lon="-2.31396">
        <ele>142</ele>
        <time>2015-05-14T10:47:36Z</time>
      </trkpt>
      <trkpt lat="47.70189" lon="-2.31407">
        <ele>143</ele>
        <time>2015-05-14T10:47:42Z</time>
      </trkpt>
      <trkpt lat="47.70189" lon="-2.3142">
        <ele>142</ele>
        <time>2015-05-14T10:47:49Z</time>
      </trkpt>
      <trkpt lat="47.7019" lon="-2.31432">
        <ele>143</ele>
        <time>2015-05-14T10:47:56Z</time>
      </trkpt>
      <trkpt lat="47.70192" lon="-2.31443">
        <ele>143</ele>
        <time>2015-05-14T10:48:00Z</time>
      </trkpt>
      <trkpt lat="47.70194" lon="-2.31453">
        <ele>144</ele>
        <time>2015-05-14T10:48:07Z</time>
      </trkpt>
      <trkpt lat="47.70196" lon="-2.31466">
        <ele>147</ele>
        <time>2015-05-14T10:48:13Z</time>
      </trkpt>
      <trkpt lat="47.70198" lon="-2.31476">
        <ele>147</ele>
        <time>2015-05-14T10:48:18Z</time>
      </trkpt>
      <trkpt lat="47.70193" lon="-2.31479">
        <ele>144</ele>
        <time>2015-05-14T10:48:25Z</time>
      </trkpt>
      <trkpt lat="47.70194" lon="-2.31487">
        <ele>143</ele>
        <time>2015-05-14T10:48:32Z</time>
      </trkpt>
      <trkpt lat="47.70195" lon="-2.31498">
        <ele>142</ele>
        <time>2015-05-14T10:48:38Z</time>
      </trkpt>
      <trkpt lat="47.70199" lon="-2.31508">
        <ele>145</ele>
        <time>2015-05-14T10:48:44Z</time>
      </trkpt>
      <trkpt lat="47.702" lon="-2.3152">
        <ele>144</ele>
        <time>2015-05-14T10:48:51Z</time>
      </trkpt>
      <trkpt lat="47.702" lon="-2.31529">
        <ele>141</ele>
        <time>2015-05-14T10:48:58Z</time>
      </trkpt>
      <trkpt lat="47.70198" lon="-2.31541">
        <ele>137</ele>
        <time>2015-05-14T10:49:04Z</time>
      </trkpt>
      <trkpt lat="47.70195" lon="-2.31552">
        <ele>137</ele>
        <time>2015-05-14T10:49:11Z</time>
      </trkpt>
      <trkpt lat="47.70192" lon="-2.31564">
        <ele>136</ele>
        <time>2015-05-14T10:49:17Z</time>
      </trkpt>
      <trkpt lat="47.70194" lon="-2.31569">
        <ele>140</ele>
        <time>2015-05-14T10:49:24Z</time>
      </trkpt>
      <trkpt lat="47.7019" lon="-2.31571">
        <ele>137</ele>
        <time>2015-05-14T10:49:31Z</time>
      </trkpt>
      <trkpt lat="47.70188" lon="-2.31581">
        <ele>135</ele>
        <time>2015-05-14T10:49:35Z</time>
      </trkpt>
      <trkpt lat="47.70181" lon="-2.31587">
        <ele>133</ele>
        <time>2015-05-14T10:49:41Z</time>
      </trkpt>
      <trkpt lat="47.70176" lon="-2.31594">
        <ele>130</ele>
        <time>2015-05-14T10:49:48Z</time>
      </trkpt>
      <trkpt lat="47.70169" lon="-2.31599">
        <ele>131</ele>
        <time>2015-05-14T10:49:54Z</time>
      </trkpt>
      <trkpt lat="47.70162" lon="-2.31605">
        <ele>135</ele>
        <time>2015-05-14T10:49:57Z</time>
      </trkpt>
      <trkpt lat="47.70156" lon="-2.31615">
        <ele>138</ele>
        <time>2015-05-14T10:50:00Z</time>
      </trkpt>
      <trkpt lat="47.70149" lon="-2.31622">
        <ele>142</ele>
        <time>2015-05-14T10:50:05Z</time>
      </trkpt>
      <trkpt lat="47.70141" lon="-2.31628">
        <ele>143</ele>
        <time>2015-05-14T10:50:10Z</time>
      </trkpt>
      <trkpt lat="47.70135" lon="-2.31633">
        <ele>141</ele>
        <time>2015-05-14T10:50:17Z</time>
      </trkpt>
      <trkpt lat="47.70128" lon="-2.31641">
        <ele>143</ele>
        <time>2015-05-14T10:50:24Z</time>
      </trkpt>
      <trkpt lat="47.70124" lon="-2.31649">
        <ele>145</ele>
        <time>2015-05-14T10:50:30Z</time>
      </trkpt>
      <trkpt lat="47.70118" lon="-2.31657">
        <ele>143</ele>
        <time>2015-05-14T10:50:35Z</time>
      </trkpt>
      <trkpt lat="47.70115" lon="-2.31668">
        <ele>143</ele>
        <time>2015-05-14T10:50:41Z</time>
      </trkpt>
      <trkpt lat="47.70111" lon="-2.31679">
        <ele>142</ele>
        <time>2015-05-14T10:50:47Z</time>
      </trkpt>
      <trkpt lat="47.70111" lon="-2.3169">
        <ele>142</ele>
        <time>2015-05-14T10:50:53Z</time>
      </trkpt>
      <trkpt lat="47.70111" lon="-2.31701">
        <ele>143</ele>
        <time>2015-05-14T10:51:00Z</time>
      </trkpt>
      <trkpt lat="47.70112" lon="-2.31712">
        <ele>145</ele>
        <time>2015-05-14T10:51:06Z</time>
      </trkpt>
      <trkpt lat="47.70112" lon="-2.31722">
        <ele>145</ele>
        <time>2015-05-14T10:51:13Z</time>
      </trkpt>
      <trkpt lat="47.70111" lon="-2.31733">
        <ele>145</ele>
        <time>2015-05-14T10:51:20Z</time>
      </trkpt>
      <trkpt lat="47.70114" lon="-2.31745">
        <ele>148</ele>
        <time>2015-05-14T10:51:26Z</time>
      </trkpt>
      <trkpt lat="47.70116" lon="-2.31756">
        <ele>153</ele>
        <time>2015-05-14T10:51:31Z</time>
      </trkpt>
      <trkpt lat="47.70116" lon="-2.31766">
        <ele>152</ele>
        <time>2015-05-14T10:51:36Z</time>
      </trkpt>
      <trkpt lat="47.70117" lon="-2.31774">
        <ele>152</ele>
        <time>2015-05-14T10:51:43Z</time>
      </trkpt>
      <trkpt lat="47.70116" lon="-2.31785">
        <ele>153</ele>
        <time>2015-05-14T10:51:49Z</time>
      </trkpt>
      <trkpt lat="47.70116" lon="-2.31796">
        <ele>154</ele>
        <time>2015-05-14T10:51:56Z</time>
      </trkpt>
      <trkpt lat="47.70115" lon="-2.31807">
        <ele>154</ele>
        <time>2015-05-14T10:52:01Z</time>
      </trkpt>
      <trkpt lat="47.70113" lon="-2.31818">
        <ele>151</ele>
        <time>2015-05-14T10:52:08Z</time>
      </trkpt>
      <trkpt lat="47.70112" lon="-2.31829">
        <ele>148</ele>
        <time>2015-05-14T10:52:14Z</time>
      </trkpt>
      <trkpt lat="47.70109" lon="-2.31839">
        <ele>147</ele>
        <time>2015-05-14T10:52:20Z</time>
      </trkpt>
      <trkpt lat="47.70105" lon="-2.31851">
        <ele>143</ele>
        <time>2015-05-14T10:52:27Z</time>
      </trkpt>
      <trkpt lat="47.70101" lon="-2.3186">
        <ele>140</ele>
        <time>2015-05-14T10:52:33Z</time>
      </trkpt>
      <trkpt lat="47.70102" lon="-2.31871">
        <ele>139</ele>
        <time>2015-05-14T10:52:40Z</time>
      </trkpt>
      <trkpt lat="47.701" lon="-2.31882">
        <ele>137</ele>
        <time>2015-05-14T10:52:47Z</time>
      </trkpt>
      <trkpt lat="47.70098" lon="-2.3189">
        <ele>136</ele>
        <time>2015-05-14T10:52:54Z</time>
      </trkpt>
      <trkpt lat="47.70094" lon="-2.31902">
        <ele>136</ele>
        <time>2015-05-14T10:53:01Z</time>
      </trkpt>
      <trkpt lat="47.70093" lon="-2.31914">
        <ele>134</ele>
        <time>2015-05-14T10:53:08Z</time>
      </trkpt>
      <trkpt lat="47.70095" lon="-2.31925">
        <ele>135</ele>
        <time>2015-05-14T10:53:15Z</time>
      </trkpt>
      <trkpt lat="47.70093" lon="-2.31928">
        <ele>134</ele>
        <time>2015-05-14T10:53:22Z</time>
      </trkpt>
      <trkpt lat="47.70093" lon="-2.31931">
        <ele>137</ele>
        <time>2015-05-14T10:53:29Z</time>
      </trkpt>
      <trkpt lat="47.70095" lon="-2.31932">
        <ele>139</ele>
        <time>2015-05-14T10:53:36Z</time>
      </trkpt>
      <trkpt lat="47.70096" lon="-2.31936">
        <ele>144</ele>
        <time>2015-05-14T10:53:43Z</time>
      </trkpt>
      <trkpt lat="47.70096" lon="-2.31946">
        <ele>148</ele>
        <time>2015-05-14T10:53:50Z</time>
      </trkpt>
      <trkpt lat="47.70093" lon="-2.31955">
        <ele>144</ele>
        <time>2015-05-14T10:53:57Z</time>
      </trkpt>
      <trkpt lat="47.70093" lon="-2.31956">
        <ele>144</ele>
        <time>2015-05-14T10:54:03Z</time>
      </trkpt>
      <trkpt lat="47.70091" lon="-2.31966">
        <ele>145</ele>
        <time>2015-05-14T10:54:15Z</time>
      </trkpt>
      <trkpt lat="47.70089" lon="-2.31976">
        <ele>143</ele>
        <time>2015-05-14T10:54:22Z</time>
      </trkpt>
      <trkpt lat="47.70087" lon="-2.31986">
        <ele>141</ele>
        <time>2015-05-14T10:54:29Z</time>
      </trkpt>
      <trkpt lat="47.70084" lon="-2.31997">
        <ele>142</ele>
        <time>2015-05-14T10:54:34Z</time>
      </trkpt>
      <trkpt lat="47.70082" lon="-2.32009">
        <ele>142</ele>
        <time>2015-05-14T10:54:40Z</time>
      </trkpt>
      <trkpt lat="47.70078" lon="-2.3202">
        <ele>143</ele>
        <time>2015-05-14T10:54:44Z</time>
      </trkpt>
      <trkpt lat="47.70076" lon="-2.3203">
        <ele>143</ele>
        <time>2015-05-14T10:54:51Z</time>
      </trkpt>
      <trkpt lat="47.70073" lon="-2.3204">
        <ele>142</ele>
        <time>2015-05-14T10:54:56Z</time>
      </trkpt>
      <trkpt lat="47.70073" lon="-2.32051">
        <ele>147</ele>
        <time>2015-05-14T10:55:03Z</time>
      </trkpt>
      <trkpt lat="47.70071" lon="-2.32064">
        <ele>145</ele>
        <time>2015-05-14T10:55:10Z</time>
      </trkpt>
      <trkpt lat="47.70067" lon="-2.32073">
        <ele>141</ele>
        <time>2015-05-14T10:55:16Z</time>
      </trkpt>
      <trkpt lat="47.70067" lon="-2.32084">
        <ele>141</ele>
        <time>2015-05-14T10:55:23Z</time>
      </trkpt>
      <trkpt lat="47.70067" lon="-2.32097">
        <ele>139</ele>
        <time>2015-05-14T10:55:30Z</time>
      </trkpt>
      <trkpt lat="47.70066" lon="-2.32107">
        <ele>138</ele>
        <time>2015-05-14T10:55:35Z</time>
      </trkpt>
      <trkpt lat="47.70065" lon="-2.32116">
        <ele>137</ele>
        <time>2015-05-14T10:55:42Z</time>
      </trkpt>
      <trkpt lat="47.70064" lon="-2.32127">
        <ele>135</ele>
        <time>2015-05-14T10:55:49Z</time>
      </trkpt>
      <trkpt lat="47.70065" lon="-2.32138">
        <ele>139</ele>
        <time>2015-05-14T10:55:56Z</time>
      </trkpt>
      <trkpt lat="47.70063" lon="-2.3215">
        <ele>137</ele>
        <time>2015-05-14T10:56:03Z</time>
      </trkpt>
      <trkpt lat="47.70063" lon="-2.32161">
        <ele>139</ele>
        <time>2015-05-14T10:56:09Z</time>
      </trkpt>
      <trkpt lat="47.70062" lon="-2.3217">
        <ele>140</ele>
        <time>2015-05-14T10:56:16Z</time>
      </trkpt>
      <trkpt lat="47.7006" lon="-2.32181">
        <ele>139</ele>
        <time>2015-05-14T10:56:22Z</time>
      </trkpt>
      <trkpt lat="47.70059" lon="-2.32192">
        <ele>139</ele>
        <time>2015-05-14T10:56:29Z</time>
      </trkpt>
      <trkpt lat="47.70058" lon="-2.32204">
        <ele>140</ele>
        <time>2015-05-14T10:56:36Z</time>
      </trkpt>
      <trkpt lat="47.70056" lon="-2.32214">
        <ele>140</ele>
        <time>2015-05-14T10:56:43Z</time>
      </trkpt>
      <trkpt lat="47.70052" lon="-2.32227">
        <ele>141</ele>
        <time>2015-05-14T10:56:49Z</time>
      </trkpt>
      <trkpt lat="47.70049" lon="-2.32237">
        <ele>142</ele>
        <time>2015-05-14T10:56:54Z</time>
      </trkpt>
      <trkpt lat="47.70048" lon="-2.32248">
        <ele>140</ele>
        <time>2015-05-14T10:57:00Z</time>
      </trkpt>
      <trkpt lat="47.70046" lon="-2.32263">
        <ele>138</ele>
        <time>2015-05-14T10:57:08Z</time>
      </trkpt>
      <trkpt lat="47.70045" lon="-2.32274">
        <ele>139</ele>
        <time>2015-05-14T10:57:13Z</time>
      </trkpt>
      <trkpt lat="47.70048" lon="-2.32281">
        <ele>136</ele>
        <time>2015-05-14T10:57:20Z</time>
      </trkpt>
      <trkpt lat="47.70048" lon="-2.32291">
        <ele>134</ele>
        <time>2015-05-14T10:57:27Z</time>
      </trkpt>
      <trkpt lat="47.70045" lon="-2.32303">
        <ele>132</ele>
        <time>2015-05-14T10:57:34Z</time>
      </trkpt>
      <trkpt lat="47.70045" lon="-2.32312">
        <ele>133</ele>
        <time>2015-05-14T10:57:41Z</time>
      </trkpt>
      <trkpt lat="47.70044" lon="-2.32313">
        <ele>132</ele>
        <time>2015-05-14T10:57:48Z</time>
      </trkpt>
      <trkpt lat="47.70044" lon="-2.32312">
        <ele>132</ele>
        <time>2015-05-14T10:57:49Z</time>
      </trkpt>
      <trkpt lat="47.7004" lon="-2.32319">
        <ele>133</ele>
        <time>2015-05-14T10:58:19Z</time>
      </trkpt>
      <trkpt lat="47.70039" lon="-2.32317">
        <ele>132</ele>
        <time>2015-05-14T10:58:26Z</time>
      </trkpt>
      <trkpt lat="47.70038" lon="-2.32318">
        <ele>132</ele>
        <time>2015-05-14T10:58:34Z</time>
      </trkpt>
      <trkpt lat="47.70038" lon="-2.32318">
        <ele>132</ele>
        <time>2015-05-14T10:58:35Z</time>
      </trkpt>
      <trkpt lat="47.70039" lon="-2.32317">
        <ele>132</ele>
        <time>2015-05-14T10:58:43Z</time>
      </trkpt>
      <trkpt lat="47.70039" lon="-2.32317">
        <ele>133</ele>
        <time>2015-05-14T10:58:44Z</time>
      </trkpt>
      <trkpt lat="47.70039" lon="-2.32317">
        <ele>133</ele>
        <time>2015-05-14T10:58:58Z</time>
      </trkpt>
      <trkpt lat="47.70039" lon="-2.32317">
        <ele>133</ele>
        <time>2015-05-14T10:58:59Z</time>
      </trkpt>
      <trkpt lat="47.70039" lon="-2.32324">
        <ele>135</ele>
        <time>2015-05-14T11:00:39Z</time>
      </trkpt>
      <trkpt lat="47.70039" lon="-2.32329">
        <ele>135</ele>
        <time>2015-05-14T11:00:46Z</time>
      </trkpt>
      <trkpt lat="47.70038" lon="-2.32331">
        <ele>134</ele>
        <time>2015-05-14T11:00:53Z</time>
      </trkpt>
      <trkpt lat="47.70039" lon="-2.32331">
        <ele>134</ele>
        <time>2015-05-14T11:00:55Z</time>
      </trkpt>
      <trkpt lat="47.70041" lon="-2.32336">
        <ele>135</ele>
        <time>2015-05-14T11:01:04Z</time>
      </trkpt>
      <trkpt lat="47.7004" lon="-2.3234">
        <ele>135</ele>
        <time>2015-05-14T11:01:11Z</time>
      </trkpt>
      <trkpt lat="47.70042" lon="-2.32348">
        <ele>136</ele>
        <time>2015-05-14T11:01:18Z</time>
      </trkpt>
      <trkpt lat="47.70043" lon="-2.32353">
        <ele>137</ele>
        <time>2015-05-14T11:01:25Z</time>
      </trkpt>
      <trkpt lat="47.70042" lon="-2.32362">
        <ele>136</ele>
        <time>2015-05-14T11:01:32Z</time>
      </trkpt>
      <trkpt lat="47.70041" lon="-2.32373">
        <ele>137</ele>
        <time>2015-05-14T11:01:39Z</time>
      </trkpt>
      <trkpt lat="47.70041" lon="-2.32382">
        <ele>135</ele>
        <time>2015-05-14T11:01:46Z</time>
      </trkpt>
      <trkpt lat="47.7004" lon="-2.32393">
        <ele>135</ele>
        <time>2015-05-14T11:01:53Z</time>
      </trkpt>
      <trkpt lat="47.70042" lon="-2.32401">
        <ele>134</ele>
        <time>2015-05-14T11:02:00Z</time>
      </trkpt>
      <trkpt lat="47.70041" lon="-2.3241">
        <ele>137</ele>
        <time>2015-05-14T11:02:07Z</time>
      </trkpt>
      <trkpt lat="47.70042" lon="-2.3242">
        <ele>138</ele>
        <time>2015-05-14T11:02:14Z</time>
      </trkpt>
      <trkpt lat="47.70044" lon="-2.32429">
        <ele>137</ele>
        <time>2015-05-14T11:02:21Z</time>
      </trkpt>
      <trkpt lat="47.70046" lon="-2.32439">
        <ele>138</ele>
        <time>2015-05-14T11:02:28Z</time>
      </trkpt>
      <trkpt lat="47.70047" lon="-2.32449">
        <ele>138</ele>
        <time>2015-05-14T11:02:34Z</time>
      </trkpt>
      <trkpt lat="47.70049" lon="-2.32457">
        <ele>137</ele>
        <time>2015-05-14T11:02:41Z</time>
      </trkpt>
      <trkpt lat="47.7005" lon="-2.32469">
        <ele>138</ele>
        <time>2015-05-14T11:02:48Z</time>
      </trkpt>
      <trkpt lat="47.70048" lon="-2.32479">
        <ele>136</ele>
        <time>2015-05-14T11:02:55Z</time>
      </trkpt>
      <trkpt lat="47.70048" lon="-2.32491">
        <ele>133</ele>
        <time>2015-05-14T11:03:02Z</time>
      </trkpt>
      <trkpt lat="47.70047" lon="-2.32502">
        <ele>134</ele>
        <time>2015-05-14T11:03:08Z</time>
      </trkpt>
      <trkpt lat="47.70049" lon="-2.32511">
        <ele>138</ele>
        <time>2015-05-14T11:03:15Z</time>
      </trkpt>
      <trkpt lat="47.70049" lon="-2.32521">
        <ele>135</ele>
        <time>2015-05-14T11:03:22Z</time>
      </trkpt>
      <trkpt lat="47.70049" lon="-2.3253">
        <ele>135</ele>
        <time>2015-05-14T11:03:29Z</time>
      </trkpt>
      <trkpt lat="47.7005" lon="-2.32541">
        <ele>136</ele>
        <time>2015-05-14T11:03:36Z</time>
      </trkpt>
      <trkpt lat="47.70051" lon="-2.32552">
        <ele>136</ele>
        <time>2015-05-14T11:03:43Z</time>
      </trkpt>
      <trkpt lat="47.70049" lon="-2.32563">
        <ele>136</ele>
        <time>2015-05-14T11:03:50Z</time>
      </trkpt>
      <trkpt lat="47.70048" lon="-2.32572">
        <ele>136</ele>
        <time>2015-05-14T11:03:57Z</time>
      </trkpt>
      <trkpt lat="47.70047" lon="-2.32583">
        <ele>137</ele>
        <time>2015-05-14T11:04:04Z</time>
      </trkpt>
      <trkpt lat="47.70044" lon="-2.32594">
        <ele>139</ele>
        <time>2015-05-14T11:04:09Z</time>
      </trkpt>
      <trkpt lat="47.70045" lon="-2.32603">
        <ele>141</ele>
        <time>2015-05-14T11:04:16Z</time>
      </trkpt>
      <trkpt lat="47.70043" lon="-2.32609">
        <ele>141</ele>
        <time>2015-05-14T11:04:23Z</time>
      </trkpt>
      <trkpt lat="47.70041" lon="-2.32618">
        <ele>138</ele>
        <time>2015-05-14T11:04:30Z</time>
      </trkpt>
      <trkpt lat="47.70038" lon="-2.32625">
        <ele>138</ele>
        <time>2015-05-14T11:04:37Z</time>
      </trkpt>
      <trkpt lat="47.70035" lon="-2.32633">
        <ele>139</ele>
        <time>2015-05-14T11:04:44Z</time>
      </trkpt>
      <trkpt lat="47.70032" lon="-2.32643">
        <ele>139</ele>
        <time>2015-05-14T11:04:51Z</time>
      </trkpt>
      <trkpt lat="47.70033" lon="-2.32641">
        <ele>138</ele>
        <time>2015-05-14T11:04:58Z</time>
      </trkpt>
      <trkpt lat="47.70032" lon="-2.32645">
        <ele>138</ele>
        <time>2015-05-14T11:05:05Z</time>
      </trkpt>
      <trkpt lat="47.70032" lon="-2.32647">
        <ele>137</ele>
        <time>2015-05-14T11:05:12Z</time>
      </trkpt>
      <trkpt lat="47.70032" lon="-2.32648">
        <ele>138</ele>
        <time>2015-05-14T11:05:17Z</time>
      </trkpt>
      <trkpt lat="47.70032" lon="-2.32648">
        <ele>138</ele>
        <time>2015-05-14T11:05:45Z</time>
      </trkpt>
      <trkpt lat="47.70032" lon="-2.32648">
        <ele>138</ele>
        <time>2015-05-14T11:05:46Z</time>
      </trkpt>
      <trkpt lat="47.7003" lon="-2.32655">
        <ele>134</ele>
        <time>2015-05-14T11:05:54Z</time>
      </trkpt>
      <trkpt lat="47.70029" lon="-2.32657">
        <ele>135</ele>
        <time>2015-05-14T11:06:01Z</time>
      </trkpt>
      <trkpt lat="47.70029" lon="-2.32657">
        <ele>134</ele>
        <time>2015-05-14T11:06:02Z</time>
      </trkpt>
      <trkpt lat="47.70026" lon="-2.32659">
        <ele>133</ele>
        <time>2015-05-14T11:06:10Z</time>
      </trkpt>
      <trkpt lat="47.70024" lon="-2.32663">
        <ele>132</ele>
        <time>2015-05-14T11:06:17Z</time>
      </trkpt>
      <trkpt lat="47.70021" lon="-2.32667">
        <ele>132</ele>
        <time>2015-05-14T11:06:24Z</time>
      </trkpt>
      <trkpt lat="47.70021" lon="-2.32668">
        <ele>131</ele>
        <time>2015-05-14T11:06:31Z</time>
      </trkpt>
      <trkpt lat="47.70019" lon="-2.32668">
        <ele>131</ele>
        <time>2015-05-14T11:06:38Z</time>
      </trkpt>
      <trkpt lat="47.70018" lon="-2.32671">
        <ele>130</ele>
        <time>2015-05-14T11:06:45Z</time>
      </trkpt>
      <trkpt lat="47.70017" lon="-2.32674">
        <ele>130</ele>
        <time>2015-05-14T11:06:52Z</time>
      </trkpt>
      <trkpt lat="47.70016" lon="-2.32676">
        <ele>129</ele>
        <time>2015-05-14T11:06:59Z</time>
      </trkpt>
      <trkpt lat="47.70016" lon="-2.32676">
        <ele>129</ele>
        <time>2015-05-14T11:07:00Z</time>
      </trkpt>
      <trkpt lat="47.70013" lon="-2.32679">
        <ele>126</ele>
        <time>2015-05-14T11:07:08Z</time>
      </trkpt>
      <trkpt lat="47.7001" lon="-2.32687">
        <ele>125</ele>
        <time>2015-05-14T11:07:15Z</time>
      </trkpt>
      <trkpt lat="47.70009" lon="-2.32692">
        <ele>125</ele>
        <time>2015-05-14T11:07:22Z</time>
      </trkpt>
      <trkpt lat="47.7001" lon="-2.32699">
        <ele>124</ele>
        <time>2015-05-14T11:07:29Z</time>
      </trkpt>
      <trkpt lat="47.70009" lon="-2.32706">
        <ele>123</ele>
        <time>2015-05-14T11:07:36Z</time>
      </trkpt>
      <trkpt lat="47.70008" lon="-2.32708">
        <ele>123</ele>
        <time>2015-05-14T11:07:43Z</time>
      </trkpt>
      <trkpt lat="47.70008" lon="-2.32719">
        <ele>123</ele>
        <time>2015-05-14T11:07:48Z</time>
      </trkpt>
      <trkpt lat="47.70007" lon="-2.32726">
        <ele>125</ele>
        <time>2015-05-14T11:07:55Z</time>
      </trkpt>
      <trkpt lat="47.70008" lon="-2.32725">
        <ele>124</ele>
        <time>2015-05-14T11:08:02Z</time>
      </trkpt>
      <trkpt lat="47.70008" lon="-2.32727">
        <ele>124</ele>
        <time>2015-05-14T11:08:09Z</time>
      </trkpt>
      <trkpt lat="47.70006" lon="-2.32728">
        <ele>123</ele>
        <time>2015-05-14T11:08:16Z</time>
      </trkpt>
      <trkpt lat="47.70004" lon="-2.32735">
        <ele>118</ele>
        <time>2015-05-14T11:08:23Z</time>
      </trkpt>
      <trkpt lat="47.70005" lon="-2.32738">
        <ele>119</ele>
        <time>2015-05-14T11:08:30Z</time>
      </trkpt>
      <trkpt lat="47.70005" lon="-2.32739">
        <ele>119</ele>
        <time>2015-05-14T11:08:32Z</time>
      </trkpt>
      <trkpt lat="47.70005" lon="-2.3274">
        <ele>120</ele>
        <time>2015-05-14T11:08:40Z</time>
      </trkpt>
      <trkpt lat="47.70004" lon="-2.3275">
        <ele>118</ele>
        <time>2015-05-14T11:08:47Z</time>
      </trkpt>
      <trkpt lat="47.70005" lon="-2.32754">
        <ele>118</ele>
        <time>2015-05-14T11:08:54Z</time>
      </trkpt>
      <trkpt lat="47.70006" lon="-2.32754">
        <ele>118</ele>
        <time>2015-05-14T11:08:56Z</time>
      </trkpt>
      <trkpt lat="47.70007" lon="-2.3276">
        <ele>119</ele>
        <time>2015-05-14T11:09:06Z</time>
      </trkpt>
      <trkpt lat="47.70009" lon="-2.32771">
        <ele>119</ele>
        <time>2015-05-14T11:09:13Z</time>
      </trkpt>
      <trkpt lat="47.70009" lon="-2.32775">
        <ele>120</ele>
        <time>2015-05-14T11:09:20Z</time>
      </trkpt>
      <trkpt lat="47.7001" lon="-2.32784">
        <ele>116</ele>
        <time>2015-05-14T11:09:27Z</time>
      </trkpt>
      <trkpt lat="47.70014" lon="-2.32792">
        <ele>118</ele>
        <time>2015-05-14T11:09:34Z</time>
      </trkpt>
      <trkpt lat="47.70019" lon="-2.32802">
        <ele>120</ele>
        <time>2015-05-14T11:09:40Z</time>
      </trkpt>
      <trkpt lat="47.7002" lon="-2.32813">
        <ele>117</ele>
        <time>2015-05-14T11:09:45Z</time>
      </trkpt>
      <trkpt lat="47.70021" lon="-2.32825">
        <ele>119</ele>
        <time>2015-05-14T11:09:50Z</time>
      </trkpt>
      <trkpt lat="47.70021" lon="-2.32836">
        <ele>119</ele>
        <time>2015-05-14T11:09:56Z</time>
      </trkpt>
      <trkpt lat="47.70025" lon="-2.32841">
        <ele>113</ele>
        <time>2015-05-14T11:10:03Z</time>
      </trkpt>
      <trkpt lat="47.70028" lon="-2.32851">
        <ele>111</ele>
        <time>2015-05-14T11:10:10Z</time>
      </trkpt>
      <trkpt lat="47.70028" lon="-2.32862">
        <ele>111</ele>
        <time>2015-05-14T11:10:16Z</time>
      </trkpt>
      <trkpt lat="47.7003" lon="-2.3287">
        <ele>115</ele>
        <time>2015-05-14T11:10:23Z</time>
      </trkpt>
      <trkpt lat="47.70031" lon="-2.32882">
        <ele>114</ele>
        <time>2015-05-14T11:10:29Z</time>
      </trkpt>
      <trkpt lat="47.70029" lon="-2.32894">
        <ele>115</ele>
        <time>2015-05-14T11:10:36Z</time>
      </trkpt>
      <trkpt lat="47.70031" lon="-2.32903">
        <ele>112</ele>
        <time>2015-05-14T11:10:43Z</time>
      </trkpt>
      <trkpt lat="47.70035" lon="-2.32912">
        <ele>111</ele>
        <time>2015-05-14T11:10:50Z</time>
      </trkpt>
      <trkpt lat="47.70036" lon="-2.3292">
        <ele>110</ele>
        <time>2015-05-14T11:10:57Z</time>
      </trkpt>
      <trkpt lat="47.70036" lon="-2.32927">
        <ele>111</ele>
        <time>2015-05-14T11:11:04Z</time>
      </trkpt>
      <trkpt lat="47.70037" lon="-2.32935">
        <ele>110</ele>
        <time>2015-05-14T11:11:11Z</time>
      </trkpt>
      <trkpt lat="47.70039" lon="-2.32943">
        <ele>110</ele>
        <time>2015-05-14T11:11:18Z</time>
      </trkpt>
      <trkpt lat="47.70038" lon="-2.32952">
        <ele>113</ele>
        <time>2015-05-14T11:11:25Z</time>
      </trkpt>
      <trkpt lat="47.70043" lon="-2.32955">
        <ele>115</ele>
        <time>2015-05-14T11:11:32Z</time>
      </trkpt>
      <trkpt lat="47.70044" lon="-2.32958">
        <ele>114</ele>
        <time>2015-05-14T11:11:39Z</time>
      </trkpt>
      <trkpt lat="47.70044" lon="-2.32959">
        <ele>113</ele>
        <time>2015-05-14T11:11:44Z</time>
      </trkpt>
      <trkpt lat="47.70049" lon="-2.32969">
        <ele>108</ele>
        <time>2015-05-14T11:12:19Z</time>
      </trkpt>
      <trkpt lat="47.70051" lon="-2.32982">
        <ele>107</ele>
        <time>2015-05-14T11:12:24Z</time>
      </trkpt>
      <trkpt lat="47.70051" lon="-2.32994">
        <ele>111</ele>
        <time>2015-05-14T11:12:29Z</time>
      </trkpt>
      <trkpt lat="47.70054" lon="-2.33003">
        <ele>109</ele>
        <time>2015-05-14T11:12:36Z</time>
      </trkpt>
      <trkpt lat="47.70056" lon="-2.33013">
        <ele>111</ele>
        <time>2015-05-14T11:12:41Z</time>
      </trkpt>
      <trkpt lat="47.70058" lon="-2.33026">
        <ele>113</ele>
        <time>2015-05-14T11:12:47Z</time>
      </trkpt>
      <trkpt lat="47.70059" lon="-2.33038">
        <ele>107</ele>
        <time>2015-05-14T11:12:54Z</time>
      </trkpt>
      <trkpt lat="47.70061" lon="-2.33048">
        <ele>105</ele>
        <time>2015-05-14T11:13:01Z</time>
      </trkpt>
      <trkpt lat="47.70065" lon="-2.33059">
        <ele>105</ele>
        <time>2015-05-14T11:13:05Z</time>
      </trkpt>
      <trkpt lat="47.70071" lon="-2.3307">
        <ele>105</ele>
        <time>2015-05-14T11:13:09Z</time>
      </trkpt>
      <trkpt lat="47.70074" lon="-2.33076">
        <ele>107</ele>
        <time>2015-05-14T11:13:16Z</time>
      </trkpt>
      <trkpt lat="47.70077" lon="-2.33085">
        <ele>109</ele>
        <time>2015-05-14T11:13:23Z</time>
      </trkpt>
      <trkpt lat="47.7008" lon="-2.33093">
        <ele>105</ele>
        <time>2015-05-14T11:13:30Z</time>
      </trkpt>
      <trkpt lat="47.70081" lon="-2.33106">
        <ele>107</ele>
        <time>2015-05-14T11:13:36Z</time>
      </trkpt>
      <trkpt lat="47.70085" lon="-2.3311">
        <ele>104</ele>
        <time>2015-05-14T11:13:43Z</time>
      </trkpt>
      <trkpt lat="47.70091" lon="-2.33119">
        <ele>106</ele>
        <time>2015-05-14T11:13:48Z</time>
      </trkpt>
      <trkpt lat="47.70094" lon="-2.33126">
        <ele>105</ele>
        <time>2015-05-14T11:13:55Z</time>
      </trkpt>
      <trkpt lat="47.70095" lon="-2.33137">
        <ele>106</ele>
        <time>2015-05-14T11:14:02Z</time>
      </trkpt>
      <trkpt lat="47.70096" lon="-2.33147">
        <ele>105</ele>
        <time>2015-05-14T11:14:09Z</time>
      </trkpt>
      <trkpt lat="47.70101" lon="-2.33157">
        <ele>103</ele>
        <time>2015-05-14T11:14:14Z</time>
      </trkpt>
      <trkpt lat="47.70105" lon="-2.33167">
        <ele>105</ele>
        <time>2015-05-14T11:14:21Z</time>
      </trkpt>
      <trkpt lat="47.70109" lon="-2.33177">
        <ele>105</ele>
        <time>2015-05-14T11:14:27Z</time>
      </trkpt>
      <trkpt lat="47.70112" lon="-2.33187">
        <ele>102</ele>
        <time>2015-05-14T11:14:34Z</time>
      </trkpt>
      <trkpt lat="47.70116" lon="-2.33193">
        <ele>101</ele>
        <time>2015-05-14T11:14:41Z</time>
      </trkpt>
      <trkpt lat="47.70119" lon="-2.33203">
        <ele>102</ele>
        <time>2015-05-14T11:14:48Z</time>
      </trkpt>
      <trkpt lat="47.70122" lon="-2.33211">
        <ele>105</ele>
        <time>2015-05-14T11:14:55Z</time>
      </trkpt>
      <trkpt lat="47.70124" lon="-2.33214">
        <ele>106</ele>
        <time>2015-05-14T11:15:02Z</time>
      </trkpt>
      <trkpt lat="47.70124" lon="-2.33216">
        <ele>106</ele>
        <time>2015-05-14T11:15:07Z</time>
      </trkpt>
      <trkpt lat="47.70125" lon="-2.33218">
        <ele>106</ele>
        <time>2015-05-14T11:15:15Z</time>
      </trkpt>
      <trkpt lat="47.70124" lon="-2.33218">
        <ele>106</ele>
        <time>2015-05-14T11:15:16Z</time>
      </trkpt>
      <trkpt lat="47.70128" lon="-2.3323">
        <ele>107</ele>
        <time>2015-05-14T11:15:28Z</time>
      </trkpt>
      <trkpt lat="47.70128" lon="-2.33244">
        <ele>108</ele>
        <time>2015-05-14T11:15:32Z</time>
      </trkpt>
      <trkpt lat="47.70133" lon="-2.33255">
        <ele>109</ele>
        <time>2015-05-14T11:15:38Z</time>
      </trkpt>
      <trkpt lat="47.70137" lon="-2.33264">
        <ele>107</ele>
        <time>2015-05-14T11:15:41Z</time>
      </trkpt>
      <trkpt lat="47.7014" lon="-2.33274">
        <ele>103</ele>
        <time>2015-05-14T11:15:48Z</time>
      </trkpt>
      <trkpt lat="47.70145" lon="-2.33277">
        <ele>102</ele>
        <time>2015-05-14T11:15:55Z</time>
      </trkpt>
      <trkpt lat="47.7015" lon="-2.33286">
        <ele>98</ele>
        <time>2015-05-14T11:16:01Z</time>
      </trkpt>
      <trkpt lat="47.7015" lon="-2.33298">
        <ele>100</ele>
        <time>2015-05-14T11:16:06Z</time>
      </trkpt>
      <trkpt lat="47.70158" lon="-2.33299">
        <ele>98</ele>
        <time>2015-05-14T11:16:10Z</time>
      </trkpt>
      <trkpt lat="47.70157" lon="-2.3331">
        <ele>100</ele>
        <time>2015-05-14T11:16:16Z</time>
      </trkpt>
      <trkpt lat="47.7016" lon="-2.33316">
        <ele>98</ele>
        <time>2015-05-14T11:16:23Z</time>
      </trkpt>
      <trkpt lat="47.70162" lon="-2.33323">
        <ele>100</ele>
        <time>2015-05-14T11:16:30Z</time>
      </trkpt>
      <trkpt lat="47.70166" lon="-2.33333">
        <ele>99</ele>
        <time>2015-05-14T11:16:35Z</time>
      </trkpt>
      <trkpt lat="47.7017" lon="-2.33341">
        <ele>99</ele>
        <time>2015-05-14T11:16:42Z</time>
      </trkpt>
      <trkpt lat="47.7017" lon="-2.33353">
        <ele>103</ele>
        <time>2015-05-14T11:16:47Z</time>
      </trkpt>
      <trkpt lat="47.70174" lon="-2.33363">
        <ele>106</ele>
        <time>2015-05-14T11:16:54Z</time>
      </trkpt>
      <trkpt lat="47.70175" lon="-2.33374">
        <ele>103</ele>
        <time>2015-05-14T11:17:01Z</time>
      </trkpt>
      <trkpt lat="47.70174" lon="-2.33421">
        <ele>135</ele>
        <time>2015-05-14T11:17:35Z</time>
      </trkpt>
      <trkpt lat="47.70183" lon="-2.33455">
        <ele>130</ele>
        <time>2015-05-14T11:17:37Z</time>
      </trkpt>
      <trkpt lat="47.70191" lon="-2.33452">
        <ele>129</ele>
        <time>2015-05-14T11:17:38Z</time>
      </trkpt>
      <trkpt lat="47.70191" lon="-2.3343">
        <ele>116</ele>
        <time>2015-05-14T11:17:39Z</time>
      </trkpt>
      <trkpt lat="47.702" lon="-2.33434">
        <ele>114</ele>
        <time>2015-05-14T11:17:40Z</time>
      </trkpt>
      <trkpt lat="47.70197" lon="-2.33445">
        <ele>105</ele>
        <time>2015-05-14T11:17:42Z</time>
      </trkpt>
      <trkpt lat="47.70194" lon="-2.33458">
        <ele>112</ele>
        <time>2015-05-14T11:17:45Z</time>
      </trkpt>
      <trkpt lat="47.70197" lon="-2.33458">
        <ele>110</ele>
        <time>2015-05-14T11:17:52Z</time>
      </trkpt>
      <trkpt lat="47.70196" lon="-2.33458">
        <ele>109</ele>
        <time>2015-05-14T11:17:59Z</time>
      </trkpt>
      <trkpt lat="47.70197" lon="-2.33463">
        <ele>113</ele>
        <time>2015-05-14T11:18:06Z</time>
      </trkpt>
      <trkpt lat="47.70198" lon="-2.33476">
        <ele>110</ele>
        <time>2015-05-14T11:18:12Z</time>
      </trkpt>
      <trkpt lat="47.702" lon="-2.33488">
        <ele>108</ele>
        <time>2015-05-14T11:18:16Z</time>
      </trkpt>
      <trkpt lat="47.70195" lon="-2.33498">
        <ele>105</ele>
        <time>2015-05-14T11:18:22Z</time>
      </trkpt>
      <trkpt lat="47.70201" lon="-2.33505">
        <ele>108</ele>
        <time>2015-05-14T11:18:26Z</time>
      </trkpt>
      <trkpt lat="47.70204" lon="-2.33512">
        <ele>107</ele>
        <time>2015-05-14T11:18:33Z</time>
      </trkpt>
      <trkpt lat="47.70205" lon="-2.3352">
        <ele>106</ele>
        <time>2015-05-14T11:18:40Z</time>
      </trkpt>
      <trkpt lat="47.70206" lon="-2.33523">
        <ele>106</ele>
        <time>2015-05-14T11:18:47Z</time>
      </trkpt>
      <trkpt lat="47.70206" lon="-2.33524">
        <ele>106</ele>
        <time>2015-05-14T11:18:52Z</time>
      </trkpt>
      <trkpt lat="47.70209" lon="-2.33531">
        <ele>107</ele>
        <time>2015-05-14T11:19:01Z</time>
      </trkpt>
      <trkpt lat="47.7021" lon="-2.33539">
        <ele>107</ele>
        <time>2015-05-14T11:19:08Z</time>
      </trkpt>
      <trkpt lat="47.70207" lon="-2.33549">
        <ele>107</ele>
        <time>2015-05-14T11:19:14Z</time>
      </trkpt>
      <trkpt lat="47.70209" lon="-2.33553">
        <ele>104</ele>
        <time>2015-05-14T11:19:21Z</time>
      </trkpt>
      <trkpt lat="47.70204" lon="-2.33561">
        <ele>100</ele>
        <time>2015-05-14T11:19:27Z</time>
      </trkpt>
      <trkpt lat="47.70203" lon="-2.33569">
        <ele>99</ele>
        <time>2015-05-14T11:19:34Z</time>
      </trkpt>
      <trkpt lat="47.70203" lon="-2.33575">
        <ele>98</ele>
        <time>2015-05-14T11:19:41Z</time>
      </trkpt>
      <trkpt lat="47.70204" lon="-2.33586">
        <ele>98</ele>
        <time>2015-05-14T11:19:46Z</time>
      </trkpt>
      <trkpt lat="47.70204" lon="-2.33592">
        <ele>98</ele>
        <time>2015-05-14T11:19:53Z</time>
      </trkpt>
      <trkpt lat="47.70204" lon="-2.33599">
        <ele>96</ele>
        <time>2015-05-14T11:20:00Z</time>
      </trkpt>
      <trkpt lat="47.70203" lon="-2.33602">
        <ele>90</ele>
        <time>2015-05-14T11:20:07Z</time>
      </trkpt>
      <trkpt lat="47.70203" lon="-2.33614">
        <ele>88</ele>
        <time>2015-05-14T11:20:12Z</time>
      </trkpt>
      <trkpt lat="47.70202" lon="-2.33626">
        <ele>88</ele>
        <time>2015-05-14T11:20:18Z</time>
      </trkpt>
      <trkpt lat="47.70199" lon="-2.33637">
        <ele>89</ele>
        <time>2015-05-14T11:20:23Z</time>
      </trkpt>
      <trkpt lat="47.70197" lon="-2.33647">
        <ele>87</ele>
        <time>2015-05-14T11:20:30Z</time>
      </trkpt>
      <trkpt lat="47.70195" lon="-2.33659">
        <ele>88</ele>
        <time>2015-05-14T11:20:37Z</time>
      </trkpt>
      <trkpt lat="47.70194" lon="-2.33663">
        <ele>85</ele>
        <time>2015-05-14T11:20:44Z</time>
      </trkpt>
      <trkpt lat="47.70191" lon="-2.33673">
        <ele>84</ele>
        <time>2015-05-14T11:20:49Z</time>
      </trkpt>
      <trkpt lat="47.7019" lon="-2.33684">
        <ele>86</ele>
        <time>2015-05-14T11:20:56Z</time>
      </trkpt>
      <trkpt lat="47.70187" lon="-2.33694">
        <ele>83</ele>
        <time>2015-05-14T11:21:02Z</time>
      </trkpt>
      <trkpt lat="47.70185" lon="-2.337">
        <ele>81</ele>
        <time>2015-05-14T11:21:09Z</time>
      </trkpt>
      <trkpt lat="47.70186" lon="-2.33699">
        <ele>81</ele>
        <time>2015-05-14T11:21:16Z</time>
      </trkpt>
      <trkpt lat="47.70184" lon="-2.33704">
        <ele>81</ele>
        <time>2015-05-14T11:21:23Z</time>
      </trkpt>
      <trkpt lat="47.70181" lon="-2.33711">
        <ele>82</ele>
        <time>2015-05-14T11:21:30Z</time>
      </trkpt>
      <trkpt lat="47.70181" lon="-2.33711">
        <ele>83</ele>
        <time>2015-05-14T11:21:37Z</time>
      </trkpt>
      <trkpt lat="47.70182" lon="-2.33711">
        <ele>84</ele>
        <time>2015-05-14T11:21:41Z</time>
      </trkpt>
      <trkpt lat="47.70182" lon="-2.33712">
        <ele>85</ele>
        <time>2015-05-14T11:21:57Z</time>
      </trkpt>
      <trkpt lat="47.70181" lon="-2.33712">
        <ele>85</ele>
        <time>2015-05-14T11:21:58Z</time>
      </trkpt>
      <trkpt lat="47.70179" lon="-2.33718">
        <ele>85</ele>
        <time>2015-05-14T11:22:06Z</time>
      </trkpt>
      <trkpt lat="47.70178" lon="-2.33718">
        <ele>85</ele>
        <time>2015-05-14T11:22:13Z</time>
      </trkpt>
      <trkpt lat="47.70178" lon="-2.33718">
        <ele>85</ele>
        <time>2015-05-14T11:22:15Z</time>
      </trkpt>
      <trkpt lat="47.70178" lon="-2.33718">
        <ele>84</ele>
        <time>2015-05-14T11:22:24Z</time>
      </trkpt>
      <trkpt lat="47.70178" lon="-2.33718">
        <ele>84</ele>
        <time>2015-05-14T11:22:25Z</time>
      </trkpt>
      <trkpt lat="47.70179" lon="-2.33716">
        <ele>87</ele>
        <time>2015-05-14T11:23:28Z</time>
      </trkpt>
      <trkpt lat="47.70179" lon="-2.33718">
        <ele>84</ele>
        <time>2015-05-14T11:23:35Z</time>
      </trkpt>
      <trkpt lat="47.7018" lon="-2.3372">
        <ele>83</ele>
        <time>2015-05-14T11:23:55Z</time>
      </trkpt>
      <trkpt lat="47.70179" lon="-2.33719">
        <ele>82</ele>
        <time>2015-05-14T11:24:02Z</time>
      </trkpt>
      <trkpt lat="47.7018" lon="-2.33719">
        <ele>81</ele>
        <time>2015-05-14T11:24:09Z</time>
      </trkpt>
      <trkpt lat="47.70181" lon="-2.33719">
        <ele>81</ele>
        <time>2015-05-14T11:24:15Z</time>
      </trkpt>
      <trkpt lat="47.70181" lon="-2.33716">
        <ele>82</ele>
        <time>2015-05-14T11:24:26Z</time>
      </trkpt>
      <trkpt lat="47.70181" lon="-2.33716">
        <ele>83</ele>
        <time>2015-05-14T11:24:33Z</time>
      </trkpt>
      <trkpt lat="47.70181" lon="-2.33716">
        <ele>83</ele>
        <time>2015-05-14T11:24:34Z</time>
      </trkpt>
      <trkpt lat="47.70181" lon="-2.33717">
        <ele>83</ele>
        <time>2015-05-14T11:24:57Z</time>
      </trkpt>
      <trkpt lat="47.70181" lon="-2.33716">
        <ele>83</ele>
        <time>2015-05-14T11:24:59Z</time>
      </trkpt>
      <trkpt lat="47.70181" lon="-2.33718">
        <ele>85</ele>
        <time>2015-05-14T11:25:22Z</time>
      </trkpt>
      <trkpt lat="47.70181" lon="-2.33718">
        <ele>86</ele>
        <time>2015-05-14T11:25:28Z</time>
      </trkpt>
      <trkpt lat="47.70179" lon="-2.3372">
        <ele>86</ele>
        <time>2015-05-14T11:25:52Z</time>
      </trkpt>
      <trkpt lat="47.70179" lon="-2.3372">
        <ele>86</ele>
        <time>2015-05-14T11:25:59Z</time>
      </trkpt>
      <trkpt lat="47.70177" lon="-2.33727">
        <ele>85</ele>
        <time>2015-05-14T11:26:16Z</time>
      </trkpt>
      <trkpt lat="47.70179" lon="-2.33736">
        <ele>86</ele>
        <time>2015-05-14T11:26:23Z</time>
      </trkpt>
      <trkpt lat="47.7018" lon="-2.3374">
        <ele>85</ele>
        <time>2015-05-14T11:26:30Z</time>
      </trkpt>
      <trkpt lat="47.70178" lon="-2.33742">
        <ele>83</ele>
        <time>2015-05-14T11:26:37Z</time>
      </trkpt>
      <trkpt lat="47.70175" lon="-2.3374">
        <ele>83</ele>
        <time>2015-05-14T11:26:44Z</time>
      </trkpt>
      <trkpt lat="47.70174" lon="-2.33742">
        <ele>85</ele>
        <time>2015-05-14T11:26:51Z</time>
      </trkpt>
      <trkpt lat="47.70174" lon="-2.33742">
        <ele>85</ele>
        <time>2015-05-14T11:26:55Z</time>
      </trkpt>
      <trkpt lat="47.70174" lon="-2.33742">
        <ele>86</ele>
        <time>2015-05-14T11:27:44Z</time>
      </trkpt>
      <trkpt lat="47.70174" lon="-2.33742">
        <ele>86</ele>
        <time>2015-05-14T11:27:45Z</time>
      </trkpt>
      <trkpt lat="47.70175" lon="-2.33742">
        <ele>83</ele>
        <time>2015-05-14T11:28:23Z</time>
      </trkpt>
      <trkpt lat="47.70177" lon="-2.33738">
        <ele>83</ele>
        <time>2015-05-14T11:28:30Z</time>
      </trkpt>
      <trkpt lat="47.70179" lon="-2.33735">
        <ele>83</ele>
        <time>2015-05-14T11:28:37Z</time>
      </trkpt>
      <trkpt lat="47.70179" lon="-2.33739">
        <ele>86</ele>
        <time>2015-05-14T11:28:44Z</time>
      </trkpt>
      <trkpt lat="47.70179" lon="-2.33739">
        <ele>85</ele>
        <time>2015-05-14T11:28:51Z</time>
      </trkpt>
      <trkpt lat="47.70179" lon="-2.33739">
        <ele>86</ele>
        <time>2015-05-14T11:28:52Z</time>
      </trkpt>
      <trkpt lat="47.70179" lon="-2.33743">
        <ele>85</ele>
        <time>2015-05-14T11:29:21Z</time>
      </trkpt>
      <trkpt lat="47.70175" lon="-2.3375">
        <ele>82</ele>
        <time>2015-05-14T11:29:28Z</time>
      </trkpt>
      <trkpt lat="47.70174" lon="-2.33756">
        <ele>86</ele>
        <time>2015-05-14T11:29:35Z</time>
      </trkpt>
      <trkpt lat="47.70167" lon="-2.33768">
        <ele>86</ele>
        <time>2015-05-14T11:29:41Z</time>
      </trkpt>
      <trkpt lat="47.70156" lon="-2.33771">
        <ele>86</ele>
        <time>2015-05-14T11:29:43Z</time>
      </trkpt>
      <trkpt lat="47.70163" lon="-2.33761">
        <ele>86</ele>
        <time>2015-05-14T11:29:44Z</time>
      </trkpt>
      <trkpt lat="47.70165" lon="-2.33746">
        <ele>87</ele>
        <time>2015-05-14T11:29:49Z</time>
      </trkpt>
      <trkpt lat="47.70158" lon="-2.33753">
        <ele>85</ele>
        <time>2015-05-14T11:29:52Z</time>
      </trkpt>
      <trkpt lat="47.70155" lon="-2.33758">
        <ele>85</ele>
        <time>2015-05-14T11:29:59Z</time>
      </trkpt>
      <trkpt lat="47.70155" lon="-2.33766">
        <ele>91</ele>
        <time>2015-05-14T11:30:06Z</time>
      </trkpt>
      <trkpt lat="47.70155" lon="-2.33765">
        <ele>89</ele>
        <time>2015-05-14T11:30:13Z</time>
      </trkpt>
      <trkpt lat="47.70153" lon="-2.33763">
        <ele>89</ele>
        <time>2015-05-14T11:30:20Z</time>
      </trkpt>
      <trkpt lat="47.7015" lon="-2.33761">
        <ele>89</ele>
        <time>2015-05-14T11:30:27Z</time>
      </trkpt>
      <trkpt lat="47.70139" lon="-2.33762">
        <ele>93</ele>
        <time>2015-05-14T11:30:32Z</time>
      </trkpt>
      <trkpt lat="47.7013" lon="-2.33758">
        <ele>98</ele>
        <time>2015-05-14T11:30:36Z</time>
      </trkpt>
      <trkpt lat="47.7012" lon="-2.33756">
        <ele>99</ele>
        <time>2015-05-14T11:30:41Z</time>
      </trkpt>
      <trkpt lat="47.70116" lon="-2.33751">
        <ele>101</ele>
        <time>2015-05-14T11:30:48Z</time>
      </trkpt>
      <trkpt lat="47.70113" lon="-2.33752">
        <ele>101</ele>
        <time>2015-05-14T11:30:55Z</time>
      </trkpt>
      <trkpt lat="47.70114" lon="-2.33754">
        <ele>98</ele>
        <time>2015-05-14T11:31:02Z</time>
      </trkpt>
      <trkpt lat="47.70114" lon="-2.33753">
        <ele>99</ele>
        <time>2015-05-14T11:31:04Z</time>
      </trkpt>
      <trkpt lat="47.70112" lon="-2.33752">
        <ele>97</ele>
        <time>2015-05-14T11:31:18Z</time>
      </trkpt>
      <trkpt lat="47.70111" lon="-2.3375">
        <ele>93</ele>
        <time>2015-05-14T11:31:25Z</time>
      </trkpt>
      <trkpt lat="47.70108" lon="-2.33746">
        <ele>91</ele>
        <time>2015-05-14T11:31:32Z</time>
      </trkpt>
      <trkpt lat="47.70106" lon="-2.33741">
        <ele>91</ele>
        <time>2015-05-14T11:31:39Z</time>
      </trkpt>
      <trkpt lat="47.70105" lon="-2.33738">
        <ele>91</ele>
        <time>2015-05-14T11:31:46Z</time>
      </trkpt>
      <trkpt lat="47.70098" lon="-2.33732">
        <ele>93</ele>
        <time>2015-05-14T11:31:53Z</time>
      </trkpt>
      <trkpt lat="47.70094" lon="-2.33736">
        <ele>93</ele>
        <time>2015-05-14T11:32:00Z</time>
      </trkpt>
      <trkpt lat="47.70088" lon="-2.33727">
        <ele>97</ele>
        <time>2015-05-14T11:32:04Z</time>
      </trkpt>
      <trkpt lat="47.70088" lon="-2.33733">
        <ele>94</ele>
        <time>2015-05-14T11:32:11Z</time>
      </trkpt>
      <trkpt lat="47.70084" lon="-2.33728">
        <ele>96</ele>
        <time>2015-05-14T11:32:18Z</time>
      </trkpt>
      <trkpt lat="47.70081" lon="-2.3373">
        <ele>96</ele>
        <time>2015-05-14T11:32:25Z</time>
      </trkpt>
      <trkpt lat="47.70074" lon="-2.33727">
        <ele>99</ele>
        <time>2015-05-14T11:32:32Z</time>
      </trkpt>
      <trkpt lat="47.70074" lon="-2.33725">
        <ele>99</ele>
        <time>2015-05-14T11:32:39Z</time>
      </trkpt>
      <trkpt lat="47.70069" lon="-2.33718">
        <ele>98</ele>
        <time>2015-05-14T11:32:46Z</time>
      </trkpt>
      <trkpt lat="47.70062" lon="-2.33711">
        <ele>98</ele>
        <time>2015-05-14T11:32:52Z</time>
      </trkpt>
      <trkpt lat="47.70056" lon="-2.33707">
        <ele>95</ele>
        <time>2015-05-14T11:32:59Z</time>
      </trkpt>
      <trkpt lat="47.70053" lon="-2.33697">
        <ele>95</ele>
        <time>2015-05-14T11:33:06Z</time>
      </trkpt>
      <trkpt lat="47.70047" lon="-2.33689">
        <ele>91</ele>
        <time>2015-05-14T11:33:10Z</time>
      </trkpt>
      <trkpt lat="47.70042" lon="-2.3368">
        <ele>94</ele>
        <time>2015-05-14T11:33:15Z</time>
      </trkpt>
      <trkpt lat="47.70041" lon="-2.33669">
        <ele>95</ele>
        <time>2015-05-14T11:33:22Z</time>
      </trkpt>
      <trkpt lat="47.70034" lon="-2.33668">
        <ele>97</ele>
        <time>2015-05-14T11:33:26Z</time>
      </trkpt>
      <trkpt lat="47.70032" lon="-2.33666">
        <ele>101</ele>
        <time>2015-05-14T11:33:33Z</time>
      </trkpt>
      <trkpt lat="47.7003" lon="-2.33657">
        <ele>104</ele>
        <time>2015-05-14T11:33:40Z</time>
      </trkpt>
      <trkpt lat="47.70026" lon="-2.33651">
        <ele>104</ele>
        <time>2015-05-14T11:33:47Z</time>
      </trkpt>
      <trkpt lat="47.70019" lon="-2.33649">
        <ele>103</ele>
        <time>2015-05-14T11:33:52Z</time>
      </trkpt>
      <trkpt lat="47.70013" lon="-2.33641">
        <ele>104</ele>
        <time>2015-05-14T11:33:57Z</time>
      </trkpt>
      <trkpt lat="47.7001" lon="-2.33632">
        <ele>102</ele>
        <time>2015-05-14T11:34:04Z</time>
      </trkpt>
      <trkpt lat="47.70005" lon="-2.33623">
        <ele>107</ele>
        <time>2015-05-14T11:34:11Z</time>
      </trkpt>
      <trkpt lat="47.70001" lon="-2.33617">
        <ele>106</ele>
        <time>2015-05-14T11:34:18Z</time>
      </trkpt>
      <trkpt lat="47.69998" lon="-2.33616">
        <ele>107</ele>
        <time>2015-05-14T11:34:25Z</time>
      </trkpt>
      <trkpt lat="47.69991" lon="-2.33613">
        <ele>106</ele>
        <time>2015-05-14T11:34:32Z</time>
      </trkpt>
      <trkpt lat="47.70001" lon="-2.33609">
        <ele>110</ele>
        <time>2015-05-14T11:34:36Z</time>
      </trkpt>
      <trkpt lat="47.70009" lon="-2.33606">
        <ele>110</ele>
        <time>2015-05-14T11:34:38Z</time>
      </trkpt>
      <trkpt lat="47.70005" lon="-2.33592">
        <ele>108</ele>
        <time>2015-05-14T11:34:42Z</time>
      </trkpt>
      <trkpt lat="47.69997" lon="-2.33579">
        <ele>108</ele>
        <time>2015-05-14T11:34:44Z</time>
      </trkpt>
      <trkpt lat="47.69995" lon="-2.33591">
        <ele>106</ele>
        <time>2015-05-14T11:34:46Z</time>
      </trkpt>
      <trkpt lat="47.70003" lon="-2.33577">
        <ele>106</ele>
        <time>2015-05-14T11:34:48Z</time>
      </trkpt>
      <trkpt lat="47.69994" lon="-2.33579">
        <ele>107</ele>
        <time>2015-05-14T11:34:50Z</time>
      </trkpt>
      <trkpt lat="47.69988" lon="-2.33593">
        <ele>106</ele>
        <time>2015-05-14T11:34:51Z</time>
      </trkpt>
      <trkpt lat="47.69979" lon="-2.3359">
        <ele>106</ele>
        <time>2015-05-14T11:34:55Z</time>
      </trkpt>
      <trkpt lat="47.69974" lon="-2.33601">
        <ele>106</ele>
        <time>2015-05-14T11:35:00Z</time>
      </trkpt>
      <trkpt lat="47.69971" lon="-2.33595">
        <ele>107</ele>
        <time>2015-05-14T11:35:07Z</time>
      </trkpt>
      <trkpt lat="47.69963" lon="-2.33597">
        <ele>106</ele>
        <time>2015-05-14T11:35:11Z</time>
      </trkpt>
      <trkpt lat="47.69954" lon="-2.33595">
        <ele>108</ele>
        <time>2015-05-14T11:35:15Z</time>
      </trkpt>
      <trkpt lat="47.69954" lon="-2.33593">
        <ele>107</ele>
        <time>2015-05-14T11:35:22Z</time>
      </trkpt>
      <trkpt lat="47.6995" lon="-2.33606">
        <ele>108</ele>
        <time>2015-05-14T11:35:27Z</time>
      </trkpt>
      <trkpt lat="47.69945" lon="-2.33597">
        <ele>107</ele>
        <time>2015-05-14T11:35:30Z</time>
      </trkpt>
      <trkpt lat="47.69936" lon="-2.3359">
        <ele>108</ele>
        <time>2015-05-14T11:35:36Z</time>
      </trkpt>
      <trkpt lat="47.6993" lon="-2.33589">
        <ele>112</ele>
        <time>2015-05-14T11:35:43Z</time>
      </trkpt>
      <trkpt lat="47.6993" lon="-2.33607">
        <ele>112</ele>
        <time>2015-05-14T11:35:49Z</time>
      </trkpt>
      <trkpt lat="47.6993" lon="-2.33618">
        <ele>112</ele>
        <time>2015-05-14T11:35:52Z</time>
      </trkpt>
      <trkpt lat="47.69933" lon="-2.33586">
        <ele>112</ele>
        <time>2015-05-14T11:35:56Z</time>
      </trkpt>
      <trkpt lat="47.6992" lon="-2.33587">
        <ele>112</ele>
        <time>2015-05-14T11:35:57Z</time>
      </trkpt>
      <trkpt lat="47.69928" lon="-2.33579">
        <ele>112</ele>
        <time>2015-05-14T11:35:59Z</time>
      </trkpt>
      <trkpt lat="47.69924" lon="-2.33565">
        <ele>112</ele>
        <time>2015-05-14T11:36:02Z</time>
      </trkpt>
      <trkpt lat="47.69925" lon="-2.33577">
        <ele>112</ele>
        <time>2015-05-14T11:36:04Z</time>
      </trkpt>
      <trkpt lat="47.69927" lon="-2.33589">
        <ele>112</ele>
        <time>2015-05-14T11:36:05Z</time>
      </trkpt>
      <trkpt lat="47.69928" lon="-2.33582">
        <ele>114</ele>
        <time>2015-05-14T11:36:12Z</time>
      </trkpt>
      <trkpt lat="47.69929" lon="-2.33581">
        <ele>114</ele>
        <time>2015-05-14T11:36:19Z</time>
      </trkpt>
      <trkpt lat="47.69929" lon="-2.33581">
        <ele>115</ele>
        <time>2015-05-14T11:36:21Z</time>
      </trkpt>
      <trkpt lat="47.6993" lon="-2.3358">
        <ele>115</ele>
        <time>2015-05-14T11:36:31Z</time>
      </trkpt>
      <trkpt lat="47.6993" lon="-2.33587">
        <ele>115</ele>
        <time>2015-05-14T11:36:38Z</time>
      </trkpt>
      <trkpt lat="47.69926" lon="-2.33583">
        <ele>124</ele>
        <time>2015-05-14T11:36:45Z</time>
      </trkpt>
      <trkpt lat="47.69927" lon="-2.33583">
        <ele>124</ele>
        <time>2015-05-14T11:36:52Z</time>
      </trkpt>
      <trkpt lat="47.6993" lon="-2.3358">
        <ele>134</ele>
        <time>2015-05-14T11:36:59Z</time>
      </trkpt>
      <trkpt lat="47.69938" lon="-2.33635">
        <ele>99</ele>
        <time>2015-05-14T11:38:20Z</time>
      </trkpt>
      <trkpt lat="47.69933" lon="-2.33637">
        <ele>103</ele>
        <time>2015-05-14T11:38:27Z</time>
      </trkpt>
      <trkpt lat="47.69938" lon="-2.33637">
        <ele>102</ele>
        <time>2015-05-14T11:38:34Z</time>
      </trkpt>
      <trkpt lat="47.69938" lon="-2.33639">
        <ele>103</ele>
        <time>2015-05-14T11:38:41Z</time>
      </trkpt>
      <trkpt lat="47.69938" lon="-2.3364">
        <ele>104</ele>
        <time>2015-05-14T11:38:44Z</time>
      </trkpt>
      <trkpt lat="47.69938" lon="-2.33651">
        <ele>108</ele>
        <time>2015-05-14T11:38:51Z</time>
      </trkpt>
      <trkpt lat="47.69937" lon="-2.33645">
        <ele>112</ele>
        <time>2015-05-14T11:38:58Z</time>
      </trkpt>
      <trkpt lat="47.69936" lon="-2.33648">
        <ele>112</ele>
        <time>2015-05-14T11:39:05Z</time>
      </trkpt>
      <trkpt lat="47.69935" lon="-2.33649">
        <ele>111</ele>
        <time>2015-05-14T11:39:12Z</time>
      </trkpt>
      <trkpt lat="47.69935" lon="-2.33648">
        <ele>112</ele>
        <time>2015-05-14T11:39:16Z</time>
      </trkpt>
      <trkpt lat="47.69937" lon="-2.33652">
        <ele>112</ele>
        <time>2015-05-14T11:39:27Z</time>
      </trkpt>
      <trkpt lat="47.69935" lon="-2.3365">
        <ele>120</ele>
        <time>2015-05-14T11:39:34Z</time>
      </trkpt>
      <trkpt lat="47.69934" lon="-2.33649">
        <ele>123</ele>
        <time>2015-05-14T11:39:40Z</time>
      </trkpt>
      <trkpt lat="47.69937" lon="-2.3365">
        <ele>127</ele>
        <time>2015-05-14T11:39:48Z</time>
      </trkpt>
      <trkpt lat="47.69937" lon="-2.33649">
        <ele>127</ele>
        <time>2015-05-14T11:39:55Z</time>
      </trkpt>
      <trkpt lat="47.69936" lon="-2.33648">
        <ele>127</ele>
        <time>2015-05-14T11:40:01Z</time>
      </trkpt>
      <trkpt lat="47.69938" lon="-2.3366">
        <ele>122</ele>
        <time>2015-05-14T11:40:11Z</time>
      </trkpt>
      <trkpt lat="47.69939" lon="-2.33659">
        <ele>120</ele>
        <time>2015-05-14T11:40:18Z</time>
      </trkpt>
      <trkpt lat="47.69939" lon="-2.33657">
        <ele>118</ele>
        <time>2015-05-14T11:40:25Z</time>
      </trkpt>
      <trkpt lat="47.69942" lon="-2.33662">
        <ele>117</ele>
        <time>2015-05-14T11:40:32Z</time>
      </trkpt>
      <trkpt lat="47.69941" lon="-2.33664">
        <ele>113</ele>
        <time>2015-05-14T11:40:39Z</time>
      </trkpt>
      <trkpt lat="47.69941" lon="-2.33663">
        <ele>114</ele>
        <time>2015-05-14T11:40:45Z</time>
      </trkpt>
      <trkpt lat="47.69941" lon="-2.33661">
        <ele>115</ele>
        <time>2015-05-14T11:40:52Z</time>
      </trkpt>
      <trkpt lat="47.69941" lon="-2.33661">
        <ele>115</ele>
        <time>2015-05-14T11:40:53Z</time>
      </trkpt>
      <trkpt lat="47.69941" lon="-2.3366">
        <ele>116</ele>
        <time>2015-05-14T11:41:08Z</time>
      </trkpt>
      <trkpt lat="47.6994" lon="-2.3366">
        <ele>116</ele>
        <time>2015-05-14T11:41:15Z</time>
      </trkpt>
      <trkpt lat="47.6994" lon="-2.3366">
        <ele>116</ele>
        <time>2015-05-14T11:41:16Z</time>
      </trkpt>
      <trkpt lat="47.6994" lon="-2.33659">
        <ele>117</ele>
        <time>2015-05-14T11:41:49Z</time>
      </trkpt>
      <trkpt lat="47.6994" lon="-2.33659">
        <ele>117</ele>
        <time>2015-05-14T11:41:50Z</time>
      </trkpt>
      <trkpt lat="47.6994" lon="-2.33658">
        <ele>118</ele>
        <time>2015-05-14T11:43:45Z</time>
      </trkpt>
      <trkpt lat="47.6994" lon="-2.33658">
        <ele>118</ele>
        <time>2015-05-14T11:43:46Z</time>
      </trkpt>
      <trkpt lat="47.69939" lon="-2.33647">
        <ele>129</ele>
        <time>2015-05-14T11:45:20Z</time>
      </trkpt>
      <trkpt lat="47.69937" lon="-2.33646">
        <ele>131</ele>
        <time>2015-05-14T11:45:27Z</time>
      </trkpt>
      <trkpt lat="47.69936" lon="-2.33644">
        <ele>130</ele>
        <time>2015-05-14T11:45:34Z</time>
      </trkpt>
      <trkpt lat="47.69937" lon="-2.33643">
        <ele>133</ele>
        <time>2015-05-14T11:45:41Z</time>
      </trkpt>
      <trkpt lat="47.69936" lon="-2.3364">
        <ele>136</ele>
        <time>2015-05-14T11:45:48Z</time>
      </trkpt>
      <trkpt lat="47.69936" lon="-2.33639">
        <ele>136</ele>
        <time>2015-05-14T11:45:49Z</time>
      </trkpt>
      <trkpt lat="47.69936" lon="-2.33642">
        <ele>137</ele>
        <time>2015-05-14T11:46:07Z</time>
      </trkpt>
      <trkpt lat="47.69936" lon="-2.33642">
        <ele>137</ele>
        <time>2015-05-14T11:46:08Z</time>
      </trkpt>
      <trkpt lat="47.69937" lon="-2.33644">
        <ele>132</ele>
        <time>2015-05-14T11:46:24Z</time>
      </trkpt>
      <trkpt lat="47.69937" lon="-2.33644">
        <ele>132</ele>
        <time>2015-05-14T11:46:25Z</time>
      </trkpt>
      <trkpt lat="47.69937" lon="-2.33643">
        <ele>134</ele>
        <time>2015-05-14T11:47:17Z</time>
      </trkpt>
      <trkpt lat="47.69937" lon="-2.33643">
        <ele>134</ele>
        <time>2015-05-14T11:47:18Z</time>
      </trkpt>
      <trkpt lat="47.69938" lon="-2.33642">
        <ele>136</ele>
        <time>2015-05-14T11:48:15Z</time>
      </trkpt>
      <trkpt lat="47.69939" lon="-2.33645">
        <ele>134</ele>
        <time>2015-05-14T11:48:22Z</time>
      </trkpt>
      <trkpt lat="47.69942" lon="-2.3365">
        <ele>126</ele>
        <time>2015-05-14T11:48:29Z</time>
      </trkpt>
      <trkpt lat="47.69942" lon="-2.33652">
        <ele>125</ele>
        <time>2015-05-14T11:48:32Z</time>
      </trkpt>
      <trkpt lat="47.69938" lon="-2.33648">
        <ele>127</ele>
        <time>2015-05-14T11:48:41Z</time>
      </trkpt>
      <trkpt lat="47.69935" lon="-2.33645">
        <ele>129</ele>
        <time>2015-05-14T11:48:48Z</time>
      </trkpt>
      <trkpt lat="47.69935" lon="-2.33645">
        <ele>131</ele>
        <time>2015-05-14T11:48:51Z</time>
      </trkpt>
      <trkpt lat="47.69935" lon="-2.33641">
        <ele>133</ele>
        <time>2015-05-14T11:49:03Z</time>
      </trkpt>
      <trkpt lat="47.69933" lon="-2.3364">
        <ele>135</ele>
        <time>2015-05-14T11:49:10Z</time>
      </trkpt>
      <trkpt lat="47.69933" lon="-2.33639">
        <ele>137</ele>
        <time>2015-05-14T11:49:15Z</time>
      </trkpt>
      <trkpt lat="47.69934" lon="-2.33638">
        <ele>142</ele>
        <time>2015-05-14T11:49:56Z</time>
      </trkpt>
      <trkpt lat="47.69934" lon="-2.33636">
        <ele>144</ele>
        <time>2015-05-14T11:49:59Z</time>
      </trkpt>
      <trkpt lat="47.69934" lon="-2.33635">
        <ele>147</ele>
        <time>2015-05-14T11:50:08Z</time>
      </trkpt>
      <trkpt lat="47.69934" lon="-2.33634">
        <ele>149</ele>
        <time>2015-05-14T11:50:15Z</time>
      </trkpt>
      <trkpt lat="47.69937" lon="-2.33632">
        <ele>147</ele>
        <time>2015-05-14T11:50:22Z</time>
      </trkpt>
      <trkpt lat="47.69944" lon="-2.33639">
        <ele>146</ele>
        <time>2015-05-14T11:50:29Z</time>
      </trkpt>
      <trkpt lat="47.69946" lon="-2.33642">
        <ele>140</ele>
        <time>2015-05-14T11:50:36Z</time>
      </trkpt>
      <trkpt lat="47.69947" lon="-2.33641">
        <ele>137</ele>
        <time>2015-05-14T11:50:43Z</time>
      </trkpt>
      <trkpt lat="47.69947" lon="-2.33641">
        <ele>138</ele>
        <time>2015-05-14T11:50:47Z</time>
      </trkpt>
      <trkpt lat="47.69947" lon="-2.33652">
        <ele>134</ele>
        <time>2015-05-14T11:52:08Z</time>
      </trkpt>
      <trkpt lat="47.69948" lon="-2.33659">
        <ele>129</ele>
        <time>2015-05-14T11:52:15Z</time>
      </trkpt>
      <trkpt lat="47.69946" lon="-2.33666">
        <ele>125</ele>
        <time>2015-05-14T11:52:22Z</time>
      </trkpt>
      <trkpt lat="47.69947" lon="-2.33667">
        <ele>124</ele>
        <time>2015-05-14T11:52:29Z</time>
      </trkpt>
      <trkpt lat="47.69947" lon="-2.33667">
        <ele>125</ele>
        <time>2015-05-14T11:52:36Z</time>
      </trkpt>
      <trkpt lat="47.69947" lon="-2.33667">
        <ele>125</ele>
        <time>2015-05-14T11:52:37Z</time>
      </trkpt>
      <trkpt lat="47.69947" lon="-2.33668">
        <ele>122</ele>
        <time>2015-05-14T11:53:29Z</time>
      </trkpt>
      <trkpt lat="47.69947" lon="-2.33668">
        <ele>122</ele>
        <time>2015-05-14T11:53:30Z</time>
      </trkpt>
      <trkpt lat="47.69947" lon="-2.33668">
        <ele>121</ele>
        <time>2015-05-14T11:55:21Z</time>
      </trkpt>
      <trkpt lat="47.69947" lon="-2.33668">
        <ele>121</ele>
        <time>2015-05-14T11:55:22Z</time>
      </trkpt>
      <trkpt lat="47.69949" lon="-2.33683">
        <ele>112</ele>
        <time>2015-05-14T11:55:55Z</time>
      </trkpt>
      <trkpt lat="47.69948" lon="-2.33694">
        <ele>110</ele>
        <time>2015-05-14T11:56:00Z</time>
      </trkpt>
      <trkpt lat="47.69948" lon="-2.33698">
        <ele>111</ele>
        <time>2015-05-14T11:56:07Z</time>
      </trkpt>
      <trkpt lat="47.69947" lon="-2.33698">
        <ele>112</ele>
        <time>2015-05-14T11:56:12Z</time>
      </trkpt>
      <trkpt lat="47.69946" lon="-2.33709">
        <ele>115</ele>
        <time>2015-05-14T11:56:19Z</time>
      </trkpt>
      <trkpt lat="47.69944" lon="-2.33714">
        <ele>117</ele>
        <time>2015-05-14T11:56:26Z</time>
      </trkpt>
      <trkpt lat="47.69943" lon="-2.33715">
        <ele>116</ele>
        <time>2015-05-14T11:56:33Z</time>
      </trkpt>
      <trkpt lat="47.69943" lon="-2.33716">
        <ele>116</ele>
        <time>2015-05-14T11:56:36Z</time>
      </trkpt>
      <trkpt lat="47.69923" lon="-2.33761">
        <ele>127</ele>
        <time>2015-05-14T12:01:17Z</time>
      </trkpt>
      <trkpt lat="47.69927" lon="-2.3376">
        <ele>121</ele>
        <time>2015-05-14T12:01:24Z</time>
      </trkpt>
      <trkpt lat="47.69927" lon="-2.33759">
        <ele>120</ele>
        <time>2015-05-14T12:01:31Z</time>
      </trkpt>
      <trkpt lat="47.69928" lon="-2.33758">
        <ele>122</ele>
        <time>2015-05-14T12:01:44Z</time>
      </trkpt>
      <trkpt lat="47.69928" lon="-2.33758">
        <ele>122</ele>
        <time>2015-05-14T12:01:45Z</time>
      </trkpt>
      <trkpt lat="47.69928" lon="-2.33758">
        <ele>123</ele>
        <time>2015-05-14T12:02:06Z</time>
      </trkpt>
      <trkpt lat="47.69928" lon="-2.33758">
        <ele>123</ele>
        <time>2015-05-14T12:02:07Z</time>
      </trkpt>
      <trkpt lat="47.69932" lon="-2.33755">
        <ele>123</ele>
        <time>2015-05-14T12:03:00Z</time>
      </trkpt>
      <trkpt lat="47.69935" lon="-2.33753">
        <ele>127</ele>
        <time>2015-05-14T12:03:07Z</time>
      </trkpt>
      <trkpt lat="47.69935" lon="-2.33751">
        <ele>126</ele>
        <time>2015-05-14T12:03:14Z</time>
      </trkpt>
      <trkpt lat="47.69934" lon="-2.33741">
        <ele>128</ele>
        <time>2015-05-14T12:03:20Z</time>
      </trkpt>
      <trkpt lat="47.69934" lon="-2.3374">
        <ele>122</ele>
        <time>2015-05-14T12:03:27Z</time>
      </trkpt>
      <trkpt lat="47.69933" lon="-2.33741">
        <ele>118</ele>
        <time>2015-05-14T12:03:34Z</time>
      </trkpt>
      <trkpt lat="47.69934" lon="-2.33743">
        <ele>114</ele>
        <time>2015-05-14T12:04:14Z</time>
      </trkpt>
      <trkpt lat="47.69934" lon="-2.33743">
        <ele>114</ele>
        <time>2015-05-14T12:04:21Z</time>
      </trkpt>
      <trkpt lat="47.69933" lon="-2.33749">
        <ele>114</ele>
        <time>2015-05-14T12:05:10Z</time>
      </trkpt>
      <trkpt lat="47.6993" lon="-2.33758">
        <ele>118</ele>
        <time>2015-05-14T12:05:16Z</time>
      </trkpt>
      <trkpt lat="47.69931" lon="-2.33762">
        <ele>118</ele>
        <time>2015-05-14T12:05:23Z</time>
      </trkpt>
      <trkpt lat="47.69931" lon="-2.33762">
        <ele>119</ele>
        <time>2015-05-14T12:05:28Z</time>
      </trkpt>
      <trkpt lat="47.69933" lon="-2.33768">
        <ele>116</ele>
        <time>2015-05-14T12:17:06Z</time>
      </trkpt>
      <trkpt lat="47.69934" lon="-2.33769">
        <ele>115</ele>
        <time>2015-05-14T12:17:13Z</time>
      </trkpt>
      <trkpt lat="47.69931" lon="-2.33769">
        <ele>116</ele>
        <time>2015-05-14T12:17:20Z</time>
      </trkpt>
      <trkpt lat="47.69932" lon="-2.33769">
        <ele>116</ele>
        <time>2015-05-14T12:17:24Z</time>
      </trkpt>
      <trkpt lat="47.69932" lon="-2.3377">
        <ele>116</ele>
        <time>2015-05-14T12:17:34Z</time>
      </trkpt>
      <trkpt lat="47.69932" lon="-2.3377">
        <ele>117</ele>
        <time>2015-05-14T12:17:35Z</time>
      </trkpt>
      <trkpt lat="47.69918" lon="-2.33797">
        <ele>115</ele>
        <time>2015-05-14T12:18:06Z</time>
      </trkpt>
      <trkpt lat="47.69919" lon="-2.33801">
        <ele>111</ele>
        <time>2015-05-14T12:18:51Z</time>
      </trkpt>
      <trkpt lat="47.69915" lon="-2.33798">
        <ele>107</ele>
        <time>2015-05-14T12:18:58Z</time>
      </trkpt>
      <trkpt lat="47.69916" lon="-2.33794">
        <ele>105</ele>
        <time>2015-05-14T12:19:05Z</time>
      </trkpt>
      <trkpt lat="47.69916" lon="-2.33794">
        <ele>106</ele>
        <time>2015-05-14T12:19:09Z</time>
      </trkpt>
      <trkpt lat="47.69918" lon="-2.33797">
        <ele>109</ele>
        <time>2015-05-14T12:19:16Z</time>
      </trkpt>
      <trkpt lat="47.69918" lon="-2.33797">
        <ele>109</ele>
        <time>2015-05-14T12:19:18Z</time>
      </trkpt>
      <trkpt lat="47.69916" lon="-2.33801">
        <ele>109</ele>
        <time>2015-05-14T12:19:31Z</time>
      </trkpt>
      <trkpt lat="47.69909" lon="-2.33809">
        <ele>106</ele>
        <time>2015-05-14T12:19:34Z</time>
      </trkpt>
      <trkpt lat="47.69907" lon="-2.33806">
        <ele>106</ele>
        <time>2015-05-14T12:19:41Z</time>
      </trkpt>
      <trkpt lat="47.69908" lon="-2.33807">
        <ele>108</ele>
        <time>2015-05-14T12:19:48Z</time>
      </trkpt>
      <trkpt lat="47.69907" lon="-2.33805">
        <ele>106</ele>
        <time>2015-05-14T12:19:55Z</time>
      </trkpt>
      <trkpt lat="47.69902" lon="-2.33807">
        <ele>107</ele>
        <time>2015-05-14T12:20:02Z</time>
      </trkpt>
      <trkpt lat="47.69898" lon="-2.33807">
        <ele>109</ele>
        <time>2015-05-14T12:20:09Z</time>
      </trkpt>
      <trkpt lat="47.69902" lon="-2.33806">
        <ele>109</ele>
        <time>2015-05-14T12:20:16Z</time>
      </trkpt>
      <trkpt lat="47.6991" lon="-2.33811">
        <ele>110</ele>
        <time>2015-05-14T12:20:21Z</time>
      </trkpt>
      <trkpt lat="47.69911" lon="-2.33811">
        <ele>111</ele>
        <time>2015-05-14T12:20:28Z</time>
      </trkpt>
      <trkpt lat="47.69911" lon="-2.33811">
        <ele>111</ele>
        <time>2015-05-14T12:20:31Z</time>
      </trkpt>
      <trkpt lat="47.69912" lon="-2.33811">
        <ele>111</ele>
        <time>2015-05-14T12:20:42Z</time>
      </trkpt>
      <trkpt lat="47.69912" lon="-2.33811">
        <ele>111</ele>
        <time>2015-05-14T12:20:43Z</time>
      </trkpt>
      <trkpt lat="47.69908" lon="-2.33817">
        <ele>107</ele>
        <time>2015-05-14T12:20:51Z</time>
      </trkpt>
      <trkpt lat="47.69915" lon="-2.33823">
        <ele>109</ele>
        <time>2015-05-14T12:20:55Z</time>
      </trkpt>
      <trkpt lat="47.69911" lon="-2.33822">
        <ele>108</ele>
        <time>2015-05-14T12:21:02Z</time>
      </trkpt>
      <trkpt lat="47.69908" lon="-2.33823">
        <ele>108</ele>
        <time>2015-05-14T12:21:09Z</time>
      </trkpt>
      <trkpt lat="47.69907" lon="-2.33824">
        <ele>107</ele>
        <time>2015-05-14T12:21:15Z</time>
      </trkpt>
      <trkpt lat="47.69907" lon="-2.33824">
        <ele>107</ele>
        <time>2015-05-14T12:21:40Z</time>
      </trkpt>
      <trkpt lat="47.69907" lon="-2.33824">
        <ele>107</ele>
        <time>2015-05-14T12:21:41Z</time>
      </trkpt>
      <trkpt lat="47.69915" lon="-2.33825">
        <ele>106</ele>
        <time>2015-05-14T12:22:39Z</time>
      </trkpt>
      <trkpt lat="47.69922" lon="-2.33829">
        <ele>106</ele>
        <time>2015-05-14T12:22:41Z</time>
      </trkpt>
      <trkpt lat="47.69932" lon="-2.33824">
        <ele>109</ele>
        <time>2015-05-14T12:22:48Z</time>
      </trkpt>
      <trkpt lat="47.69938" lon="-2.33824">
        <ele>110</ele>
        <time>2015-05-14T12:22:55Z</time>
      </trkpt>
      <trkpt lat="47.69939" lon="-2.33831">
        <ele>113</ele>
        <time>2015-05-14T12:23:02Z</time>
      </trkpt>
      <trkpt lat="47.69926" lon="-2.33813">
        <ele>115</ele>
        <time>2015-05-14T12:23:06Z</time>
      </trkpt>
      <trkpt lat="47.69934" lon="-2.33823">
        <ele>114</ele>
        <time>2015-05-14T12:23:08Z</time>
      </trkpt>
      <trkpt lat="47.69933" lon="-2.33811">
        <ele>117</ele>
        <time>2015-05-14T12:23:11Z</time>
      </trkpt>
      <trkpt lat="47.69941" lon="-2.33813">
        <ele>115</ele>
        <time>2015-05-14T12:23:14Z</time>
      </trkpt>
      <trkpt lat="47.69939" lon="-2.33809">
        <ele>114</ele>
        <time>2015-05-14T12:23:21Z</time>
      </trkpt>
      <trkpt lat="47.69933" lon="-2.33803">
        <ele>113</ele>
        <time>2015-05-14T12:23:25Z</time>
      </trkpt>
      <trkpt lat="47.69934" lon="-2.33804">
        <ele>113</ele>
        <time>2015-05-14T12:23:32Z</time>
      </trkpt>
      <trkpt lat="47.69934" lon="-2.33804">
        <ele>113</ele>
        <time>2015-05-14T12:23:33Z</time>
      </trkpt>
      <trkpt lat="47.69937" lon="-2.33806">
        <ele>114</ele>
        <time>2015-05-14T12:23:49Z</time>
      </trkpt>
      <trkpt lat="47.69938" lon="-2.33807">
        <ele>115</ele>
        <time>2015-05-14T12:23:56Z</time>
      </trkpt>
      <trkpt lat="47.69938" lon="-2.33807">
        <ele>115</ele>
        <time>2015-05-14T12:23:58Z</time>
      </trkpt>
      <trkpt lat="47.69939" lon="-2.33801">
        <ele>116</ele>
        <time>2015-05-14T12:24:15Z</time>
      </trkpt>
      <trkpt lat="47.69941" lon="-2.33794">
        <ele>118</ele>
        <time>2015-05-14T12:24:22Z</time>
      </trkpt>
      <trkpt lat="47.69942" lon="-2.33795">
        <ele>121</ele>
        <time>2015-05-14T12:24:29Z</time>
      </trkpt>
      <trkpt lat="47.69942" lon="-2.33795">
        <ele>121</ele>
        <time>2015-05-14T12:24:32Z</time>
      </trkpt>
      <trkpt lat="47.69944" lon="-2.33793">
        <ele>121</ele>
        <time>2015-05-14T12:24:47Z</time>
      </trkpt>
      <trkpt lat="47.69944" lon="-2.33793">
        <ele>120</ele>
        <time>2015-05-14T12:24:49Z</time>
      </trkpt>
      <trkpt lat="47.69949" lon="-2.33801">
        <ele>117</ele>
        <time>2015-05-14T12:25:24Z</time>
      </trkpt>
      <trkpt lat="47.69957" lon="-2.33799">
        <ele>120</ele>
        <time>2015-05-14T12:25:31Z</time>
      </trkpt>
      <trkpt lat="47.69965" lon="-2.33799">
        <ele>122</ele>
        <time>2015-05-14T12:25:35Z</time>
      </trkpt>
      <trkpt lat="47.69972" lon="-2.33801">
        <ele>122</ele>
        <time>2015-05-14T12:25:39Z</time>
      </trkpt>
      <trkpt lat="47.69981" lon="-2.338">
        <ele>129</ele>
        <time>2015-05-14T12:25:46Z</time>
      </trkpt>
      <trkpt lat="47.69983" lon="-2.33796">
        <ele>127</ele>
        <time>2015-05-14T12:25:53Z</time>
      </trkpt>
      <trkpt lat="47.69984" lon="-2.33796">
        <ele>128</ele>
        <time>2015-05-14T12:26:00Z</time>
      </trkpt>
      <trkpt lat="47.69984" lon="-2.33796">
        <ele>128</ele>
        <time>2015-05-14T12:26:01Z</time>
      </trkpt>
      <trkpt lat="47.69983" lon="-2.33796">
        <ele>128</ele>
        <time>2015-05-14T12:26:12Z</time>
      </trkpt>
      <trkpt lat="47.69983" lon="-2.33796">
        <ele>128</ele>
        <time>2015-05-14T12:26:13Z</time>
      </trkpt>
      <trkpt lat="47.69984" lon="-2.33797">
        <ele>129</ele>
        <time>2015-05-14T12:27:56Z</time>
      </trkpt>
      <trkpt lat="47.69984" lon="-2.33797">
        <ele>129</ele>
        <time>2015-05-14T12:27:57Z</time>
      </trkpt>
      <trkpt lat="47.69993" lon="-2.33799">
        <ele>132</ele>
        <time>2015-05-14T12:28:02Z</time>
      </trkpt>
      <trkpt lat="47.69988" lon="-2.33807">
        <ele>129</ele>
        <time>2015-05-14T12:28:05Z</time>
      </trkpt>
      <trkpt lat="47.69995" lon="-2.33799">
        <ele>127</ele>
        <time>2015-05-14T12:28:06Z</time>
      </trkpt>
      <trkpt lat="47.69999" lon="-2.33796">
        <ele>125</ele>
        <time>2015-05-14T12:28:13Z</time>
      </trkpt>
      <trkpt lat="47.70002" lon="-2.33804">
        <ele>126</ele>
        <time>2015-05-14T12:28:20Z</time>
      </trkpt>
      <trkpt lat="47.70004" lon="-2.33811">
        <ele>123</ele>
        <time>2015-05-14T12:28:27Z</time>
      </trkpt>
      <trkpt lat="47.70005" lon="-2.33822">
        <ele>120</ele>
        <time>2015-05-14T12:28:34Z</time>
      </trkpt>
      <trkpt lat="47.70008" lon="-2.3383">
        <ele>121</ele>
        <time>2015-05-14T12:28:41Z</time>
      </trkpt>
      <trkpt lat="47.70012" lon="-2.33839">
        <ele>123</ele>
        <time>2015-05-14T12:28:45Z</time>
      </trkpt>
      <trkpt lat="47.70013" lon="-2.33841">
        <ele>126</ele>
        <time>2015-05-14T12:28:52Z</time>
      </trkpt>
      <trkpt lat="47.70016" lon="-2.33849">
        <ele>128</ele>
        <time>2015-05-14T12:28:59Z</time>
      </trkpt>
      <trkpt lat="47.70017" lon="-2.33857">
        <ele>130</ele>
        <time>2015-05-14T12:29:06Z</time>
      </trkpt>
      <trkpt lat="47.70018" lon="-2.33861">
        <ele>130</ele>
        <time>2015-05-14T12:29:13Z</time>
      </trkpt>
      <trkpt lat="47.70018" lon="-2.33862">
        <ele>130</ele>
        <time>2015-05-14T12:29:18Z</time>
      </trkpt>
      <trkpt lat="47.7002" lon="-2.33865">
        <ele>132</ele>
        <time>2015-05-14T12:29:26Z</time>
      </trkpt>
      <trkpt lat="47.7002" lon="-2.33865">
        <ele>131</ele>
        <time>2015-05-14T12:29:29Z</time>
      </trkpt>
      <trkpt lat="47.70018" lon="-2.33869">
        <ele>130</ele>
        <time>2015-05-14T12:29:38Z</time>
      </trkpt>
      <trkpt lat="47.70017" lon="-2.33874">
        <ele>127</ele>
        <time>2015-05-14T12:29:45Z</time>
      </trkpt>
      <trkpt lat="47.70018" lon="-2.33873">
        <ele>128</ele>
        <time>2015-05-14T12:29:52Z</time>
      </trkpt>
      <trkpt lat="47.70019" lon="-2.33879">
        <ele>127</ele>
        <time>2015-05-14T12:29:59Z</time>
      </trkpt>
      <trkpt lat="47.70019" lon="-2.33881">
        <ele>128</ele>
        <time>2015-05-14T12:30:06Z</time>
      </trkpt>
      <trkpt lat="47.70019" lon="-2.33886">
        <ele>128</ele>
        <time>2015-05-14T12:30:13Z</time>
      </trkpt>
      <trkpt lat="47.70019" lon="-2.33888">
        <ele>127</ele>
        <time>2015-05-14T12:30:20Z</time>
      </trkpt>
      <trkpt lat="47.7002" lon="-2.33888">
        <ele>127</ele>
        <time>2015-05-14T12:30:22Z</time>
      </trkpt>
      <trkpt lat="47.70019" lon="-2.33889">
        <ele>128</ele>
        <time>2015-05-14T12:30:35Z</time>
      </trkpt>
      <trkpt lat="47.70019" lon="-2.33889">
        <ele>128</ele>
        <time>2015-05-14T12:30:36Z</time>
      </trkpt>
      <trkpt lat="47.70019" lon="-2.33889">
        <ele>130</ele>
        <time>2015-05-14T12:31:07Z</time>
      </trkpt>
      <trkpt lat="47.7002" lon="-2.3389">
        <ele>129</ele>
        <time>2015-05-14T12:31:14Z</time>
      </trkpt>
      <trkpt lat="47.7002" lon="-2.3389">
        <ele>129</ele>
        <time>2015-05-14T12:31:17Z</time>
      </trkpt>
      <trkpt lat="47.70019" lon="-2.33892">
        <ele>129</ele>
        <time>2015-05-14T12:32:07Z</time>
      </trkpt>
      <trkpt lat="47.70017" lon="-2.33901">
        <ele>129</ele>
        <time>2015-05-14T12:32:14Z</time>
      </trkpt>
      <trkpt lat="47.70017" lon="-2.33912">
        <ele>130</ele>
        <time>2015-05-14T12:32:21Z</time>
      </trkpt>
      <trkpt lat="47.70019" lon="-2.33906">
        <ele>130</ele>
        <time>2015-05-14T12:32:28Z</time>
      </trkpt>
      <trkpt lat="47.70019" lon="-2.33911">
        <ele>129</ele>
        <time>2015-05-14T12:32:35Z</time>
      </trkpt>
      <trkpt lat="47.70017" lon="-2.33912">
        <ele>130</ele>
        <time>2015-05-14T12:32:42Z</time>
      </trkpt>
      <trkpt lat="47.70017" lon="-2.33912">
        <ele>127</ele>
        <time>2015-05-14T12:32:49Z</time>
      </trkpt>
      <trkpt lat="47.70018" lon="-2.33912">
        <ele>126</ele>
        <time>2015-05-14T12:32:56Z</time>
      </trkpt>
      <trkpt lat="47.7002" lon="-2.33918">
        <ele>134</ele>
        <time>2015-05-14T12:33:40Z</time>
      </trkpt>
      <trkpt lat="47.70026" lon="-2.33917">
        <ele>133</ele>
        <time>2015-05-14T12:33:47Z</time>
      </trkpt>
      <trkpt lat="47.70025" lon="-2.33916">
        <ele>131</ele>
        <time>2015-05-14T12:33:54Z</time>
      </trkpt>
      <trkpt lat="47.70025" lon="-2.33915">
        <ele>130</ele>
        <time>2015-05-14T12:34:01Z</time>
      </trkpt>
      <trkpt lat="47.70026" lon="-2.33915">
        <ele>130</ele>
        <time>2015-05-14T12:34:06Z</time>
      </trkpt>
      <trkpt lat="47.70017" lon="-2.33916">
        <ele>133</ele>
        <time>2015-05-14T12:35:07Z</time>
      </trkpt>
      <trkpt lat="47.70008" lon="-2.33917">
        <ele>134</ele>
        <time>2015-05-14T12:35:12Z</time>
      </trkpt>
      <trkpt lat="47.70008" lon="-2.33919">
        <ele>134</ele>
        <time>2015-05-14T12:35:19Z</time>
      </trkpt>
      <trkpt lat="47.70011" lon="-2.33923">
        <ele>135</ele>
        <time>2015-05-14T12:35:26Z</time>
      </trkpt>
      <trkpt lat="47.70007" lon="-2.33918">
        <ele>137</ele>
        <time>2015-05-14T12:35:33Z</time>
      </trkpt>
      <trkpt lat="47.70004" lon="-2.33917">
        <ele>139</ele>
        <time>2015-05-14T12:35:40Z</time>
      </trkpt>
      <trkpt lat="47.70003" lon="-2.33913">
        <ele>139</ele>
        <time>2015-05-14T12:35:47Z</time>
      </trkpt>
      <trkpt lat="47.70003" lon="-2.33912">
        <ele>139</ele>
        <time>2015-05-14T12:35:54Z</time>
      </trkpt>
      <trkpt lat="47.70003" lon="-2.33912">
        <ele>139</ele>
        <time>2015-05-14T12:35:55Z</time>
      </trkpt>
      <trkpt lat="47.70002" lon="-2.33913">
        <ele>138</ele>
        <time>2015-05-14T12:36:03Z</time>
      </trkpt>
      <trkpt lat="47.70002" lon="-2.33913">
        <ele>138</ele>
        <time>2015-05-14T12:36:04Z</time>
      </trkpt>
      <trkpt lat="47.69992" lon="-2.33913">
        <ele>132</ele>
        <time>2015-05-14T12:36:09Z</time>
      </trkpt>
      <trkpt lat="47.69987" lon="-2.33914">
        <ele>130</ele>
        <time>2015-05-14T12:36:16Z</time>
      </trkpt>
      <trkpt lat="47.69986" lon="-2.33914">
        <ele>127</ele>
        <time>2015-05-14T12:36:23Z</time>
      </trkpt>
      <trkpt lat="47.69982" lon="-2.33917">
        <ele>125</ele>
        <time>2015-05-14T12:36:30Z</time>
      </trkpt>
      <trkpt lat="47.69975" lon="-2.33915">
        <ele>123</ele>
        <time>2015-05-14T12:36:37Z</time>
      </trkpt>
      <trkpt lat="47.69974" lon="-2.33921">
        <ele>126</ele>
        <time>2015-05-14T12:36:44Z</time>
      </trkpt>
      <trkpt lat="47.69975" lon="-2.33922">
        <ele>126</ele>
        <time>2015-05-14T12:36:51Z</time>
      </trkpt>
      <trkpt lat="47.69975" lon="-2.33922">
        <ele>126</ele>
        <time>2015-05-14T12:37:00Z</time>
      </trkpt>
      <trkpt lat="47.69975" lon="-2.33923">
        <ele>127</ele>
        <time>2015-05-14T12:37:03Z</time>
      </trkpt>
      <trkpt lat="47.69973" lon="-2.33925">
        <ele>125</ele>
        <time>2015-05-14T12:37:29Z</time>
      </trkpt>
      <trkpt lat="47.6997" lon="-2.33935">
        <ele>128</ele>
        <time>2015-05-14T12:37:35Z</time>
      </trkpt>
      <trkpt lat="47.6997" lon="-2.33937">
        <ele>129</ele>
        <time>2015-05-14T12:37:42Z</time>
      </trkpt>
      <trkpt lat="47.6997" lon="-2.33938">
        <ele>130</ele>
        <time>2015-05-14T12:37:44Z</time>
      </trkpt>
      <trkpt lat="47.6997" lon="-2.33938">
        <ele>128</ele>
        <time>2015-05-14T12:37:54Z</time>
      </trkpt>
      <trkpt lat="47.69965" lon="-2.33949">
        <ele>128</ele>
        <time>2015-05-14T12:38:01Z</time>
      </trkpt>
      <trkpt lat="47.69966" lon="-2.33951">
        <ele>130</ele>
        <time>2015-05-14T12:38:08Z</time>
      </trkpt>
      <trkpt lat="47.69965" lon="-2.33956">
        <ele>132</ele>
        <time>2015-05-14T12:38:15Z</time>
      </trkpt>
      <trkpt lat="47.69965" lon="-2.33957">
        <ele>132</ele>
        <time>2015-05-14T12:38:20Z</time>
      </trkpt>
      <trkpt lat="47.69963" lon="-2.33966">
        <ele>132</ele>
        <time>2015-05-14T12:38:35Z</time>
      </trkpt>
      <trkpt lat="47.6996" lon="-2.3397">
        <ele>132</ele>
        <time>2015-05-14T12:38:42Z</time>
      </trkpt>
      <trkpt lat="47.69958" lon="-2.33971">
        <ele>132</ele>
        <time>2015-05-14T12:38:49Z</time>
      </trkpt>
      <trkpt lat="47.69959" lon="-2.33972">
        <ele>132</ele>
        <time>2015-05-14T12:38:56Z</time>
      </trkpt>
      <trkpt lat="47.69964" lon="-2.33981">
        <ele>130</ele>
        <time>2015-05-14T12:39:03Z</time>
      </trkpt>
      <trkpt lat="47.69968" lon="-2.33993">
        <ele>131</ele>
        <time>2015-05-14T12:39:10Z</time>
      </trkpt>
      <trkpt lat="47.69968" lon="-2.34001">
        <ele>131</ele>
        <time>2015-05-14T12:39:17Z</time>
      </trkpt>
      <trkpt lat="47.69973" lon="-2.34003">
        <ele>133</ele>
        <time>2015-05-14T12:39:24Z</time>
      </trkpt>
      <trkpt lat="47.69972" lon="-2.34002">
        <ele>130</ele>
        <time>2015-05-14T12:39:31Z</time>
      </trkpt>
      <trkpt lat="47.69972" lon="-2.34003">
        <ele>130</ele>
        <time>2015-05-14T12:39:35Z</time>
      </trkpt>
      <trkpt lat="47.69971" lon="-2.34003">
        <ele>129</ele>
        <time>2015-05-14T12:39:44Z</time>
      </trkpt>
      <trkpt lat="47.69971" lon="-2.34003">
        <ele>129</ele>
        <time>2015-05-14T12:39:45Z</time>
      </trkpt>
      <trkpt lat="47.69968" lon="-2.34001">
        <ele>135</ele>
        <time>2015-05-14T12:40:10Z</time>
      </trkpt>
      <trkpt lat="47.69968" lon="-2.34">
        <ele>137</ele>
        <time>2015-05-14T12:40:14Z</time>
      </trkpt>
      <trkpt lat="47.69971" lon="-2.34004">
        <ele>139</ele>
        <time>2015-05-14T12:40:23Z</time>
      </trkpt>
      <trkpt lat="47.69971" lon="-2.34001">
        <ele>142</ele>
        <time>2015-05-14T12:40:30Z</time>
      </trkpt>
      <trkpt lat="47.69971" lon="-2.34">
        <ele>142</ele>
        <time>2015-05-14T12:40:34Z</time>
      </trkpt>
      <trkpt lat="47.6997" lon="-2.33997">
        <ele>141</ele>
        <time>2015-05-14T12:40:49Z</time>
      </trkpt>
      <trkpt lat="47.69968" lon="-2.33997">
        <ele>137</ele>
        <time>2015-05-14T12:40:56Z</time>
      </trkpt>
      <trkpt lat="47.69965" lon="-2.33995">
        <ele>134</ele>
        <time>2015-05-14T12:41:03Z</time>
      </trkpt>
      <trkpt lat="47.69962" lon="-2.33985">
        <ele>131</ele>
        <time>2015-05-14T12:41:08Z</time>
      </trkpt>
      <trkpt lat="47.69959" lon="-2.33981">
        <ele>131</ele>
        <time>2015-05-14T12:41:15Z</time>
      </trkpt>
      <trkpt lat="47.69956" lon="-2.33973">
        <ele>130</ele>
        <time>2015-05-14T12:41:22Z</time>
      </trkpt>
      <trkpt lat="47.69951" lon="-2.33963">
        <ele>131</ele>
        <time>2015-05-14T12:41:27Z</time>
      </trkpt>
      <trkpt lat="47.6995" lon="-2.33968">
        <ele>130</ele>
        <time>2015-05-14T12:41:34Z</time>
      </trkpt>
      <trkpt lat="47.69948" lon="-2.33966">
        <ele>131</ele>
        <time>2015-05-14T12:41:41Z</time>
      </trkpt>
      <trkpt lat="47.69949" lon="-2.33969">
        <ele>129</ele>
        <time>2015-05-14T12:41:48Z</time>
      </trkpt>
      <trkpt lat="47.69949" lon="-2.33969">
        <ele>129</ele>
        <time>2015-05-14T12:41:51Z</time>
      </trkpt>
      <trkpt lat="47.69943" lon="-2.33976">
        <ele>130</ele>
        <time>2015-05-14T12:42:04Z</time>
      </trkpt>
      <trkpt lat="47.69935" lon="-2.33983">
        <ele>128</ele>
        <time>2015-05-14T12:42:09Z</time>
      </trkpt>
      <trkpt lat="47.69935" lon="-2.3398">
        <ele>125</ele>
        <time>2015-05-14T12:42:16Z</time>
      </trkpt>
      <trkpt lat="47.69933" lon="-2.3397">
        <ele>130</ele>
        <time>2015-05-14T12:42:21Z</time>
      </trkpt>
      <trkpt lat="47.69938" lon="-2.33971">
        <ele>128</ele>
        <time>2015-05-14T12:42:28Z</time>
      </trkpt>
      <trkpt lat="47.69937" lon="-2.33959">
        <ele>129</ele>
        <time>2015-05-14T12:42:34Z</time>
      </trkpt>
      <trkpt lat="47.69939" lon="-2.33955">
        <ele>129</ele>
        <time>2015-05-14T12:42:41Z</time>
      </trkpt>
      <trkpt lat="47.69941" lon="-2.33955">
        <ele>129</ele>
        <time>2015-05-14T12:42:48Z</time>
      </trkpt>
      <trkpt lat="47.69941" lon="-2.33956">
        <ele>129</ele>
        <time>2015-05-14T12:42:55Z</time>
      </trkpt>
      <trkpt lat="47.69941" lon="-2.33957">
        <ele>129</ele>
        <time>2015-05-14T12:43:00Z</time>
      </trkpt>
      <trkpt lat="47.69943" lon="-2.33944">
        <ele>129</ele>
        <time>2015-05-14T12:45:46Z</time>
      </trkpt>
      <trkpt lat="47.69946" lon="-2.33935">
        <ele>127</ele>
        <time>2015-05-14T12:45:50Z</time>
      </trkpt>
      <trkpt lat="47.69948" lon="-2.33927">
        <ele>127</ele>
        <time>2015-05-14T12:45:57Z</time>
      </trkpt>
      <trkpt lat="47.69952" lon="-2.33922">
        <ele>129</ele>
        <time>2015-05-14T12:46:04Z</time>
      </trkpt>
      <trkpt lat="47.69956" lon="-2.33912">
        <ele>128</ele>
        <time>2015-05-14T12:46:11Z</time>
      </trkpt>
      <trkpt lat="47.69957" lon="-2.33901">
        <ele>128</ele>
        <time>2015-05-14T12:46:16Z</time>
      </trkpt>
      <trkpt lat="47.69958" lon="-2.33896">
        <ele>129</ele>
        <time>2015-05-14T12:46:23Z</time>
      </trkpt>
      <trkpt lat="47.69954" lon="-2.33899">
        <ele>127</ele>
        <time>2015-05-14T12:46:30Z</time>
      </trkpt>
      <trkpt lat="47.69952" lon="-2.33891">
        <ele>127</ele>
        <time>2015-05-14T12:46:37Z</time>
      </trkpt>
      <trkpt lat="47.69953" lon="-2.33887">
        <ele>120</ele>
        <time>2015-05-14T12:46:44Z</time>
      </trkpt>
      <trkpt lat="47.69953" lon="-2.33887">
        <ele>119</ele>
        <time>2015-05-14T12:46:51Z</time>
      </trkpt>
      <trkpt lat="47.69952" lon="-2.33888">
        <ele>119</ele>
        <time>2015-05-14T12:46:57Z</time>
      </trkpt>
      <trkpt lat="47.69952" lon="-2.33888">
        <ele>120</ele>
        <time>2015-05-14T12:47:07Z</time>
      </trkpt>
      <trkpt lat="47.69952" lon="-2.33888">
        <ele>120</ele>
        <time>2015-05-14T12:47:08Z</time>
      </trkpt>
      <trkpt lat="47.6995" lon="-2.3387">
        <ele>121</ele>
        <time>2015-05-14T12:49:05Z</time>
      </trkpt>
      <trkpt lat="47.6995" lon="-2.33854">
        <ele>123</ele>
        <time>2015-05-14T12:49:09Z</time>
      </trkpt>
      <trkpt lat="47.69953" lon="-2.33854">
        <ele>128</ele>
        <time>2015-05-14T12:49:16Z</time>
      </trkpt>
      <trkpt lat="47.69955" lon="-2.33852">
        <ele>131</ele>
        <time>2015-05-14T12:49:23Z</time>
      </trkpt>
      <trkpt lat="47.69957" lon="-2.33849">
        <ele>130</ele>
        <time>2015-05-14T12:49:30Z</time>
      </trkpt>
      <trkpt lat="47.69957" lon="-2.33847">
        <ele>134</ele>
        <time>2015-05-14T12:49:37Z</time>
      </trkpt>
      <trkpt lat="47.69956" lon="-2.33837">
        <ele>134</ele>
        <time>2015-05-14T12:49:44Z</time>
      </trkpt>
      <trkpt lat="47.69956" lon="-2.33832">
        <ele>136</ele>
        <time>2015-05-14T12:49:51Z</time>
      </trkpt>
      <trkpt lat="47.69958" lon="-2.3383">
        <ele>147</ele>
        <time>2015-05-14T12:49:58Z</time>
      </trkpt>
      <trkpt lat="47.69956" lon="-2.33825">
        <ele>149</ele>
        <time>2015-05-14T12:50:05Z</time>
      </trkpt>
      <trkpt lat="47.69953" lon="-2.33819">
        <ele>143</ele>
        <time>2015-05-14T12:50:12Z</time>
      </trkpt>
      <trkpt lat="47.69953" lon="-2.33813">
        <ele>140</ele>
        <time>2015-05-14T12:50:19Z</time>
      </trkpt>
      <trkpt lat="47.69953" lon="-2.33812">
        <ele>138</ele>
        <time>2015-05-14T12:50:26Z</time>
      </trkpt>
      <trkpt lat="47.69955" lon="-2.3381">
        <ele>136</ele>
        <time>2015-05-14T12:50:33Z</time>
      </trkpt>
      <trkpt lat="47.69956" lon="-2.33802">
        <ele>136</ele>
        <time>2015-05-14T12:50:40Z</time>
      </trkpt>
      <trkpt lat="47.6996" lon="-2.338">
        <ele>140</ele>
        <time>2015-05-14T12:50:47Z</time>
      </trkpt>
      <trkpt lat="47.69961" lon="-2.33795">
        <ele>138</ele>
        <time>2015-05-14T12:50:54Z</time>
      </trkpt>
      <trkpt lat="47.69962" lon="-2.33783">
        <ele>137</ele>
        <time>2015-05-14T12:51:01Z</time>
      </trkpt>
      <trkpt lat="47.69966" lon="-2.3378">
        <ele>136</ele>
        <time>2015-05-14T12:51:08Z</time>
      </trkpt>
      <trkpt lat="47.69963" lon="-2.33785">
        <ele>134</ele>
        <time>2015-05-14T12:51:15Z</time>
      </trkpt>
      <trkpt lat="47.6996" lon="-2.33783">
        <ele>128</ele>
        <time>2015-05-14T12:51:22Z</time>
      </trkpt>
      <trkpt lat="47.6996" lon="-2.33784">
        <ele>123</ele>
        <time>2015-05-14T12:51:29Z</time>
      </trkpt>
      <trkpt lat="47.69957" lon="-2.3379">
        <ele>116</ele>
        <time>2015-05-14T12:51:36Z</time>
      </trkpt>
      <trkpt lat="47.69952" lon="-2.33785">
        <ele>118</ele>
        <time>2015-05-14T12:51:43Z</time>
      </trkpt>
      <trkpt lat="47.69951" lon="-2.33786">
        <ele>119</ele>
        <time>2015-05-14T12:51:50Z</time>
      </trkpt>
      <trkpt lat="47.69954" lon="-2.33789">
        <ele>115</ele>
        <time>2015-05-14T12:51:57Z</time>
      </trkpt>
      <trkpt lat="47.69958" lon="-2.33801">
        <ele>110</ele>
        <time>2015-05-14T12:52:04Z</time>
      </trkpt>
      <trkpt lat="47.69959" lon="-2.33804">
        <ele>106</ele>
        <time>2015-05-14T12:52:11Z</time>
      </trkpt>
      <trkpt lat="47.69957" lon="-2.33806">
        <ele>107</ele>
        <time>2015-05-14T12:52:18Z</time>
      </trkpt>
      <trkpt lat="47.69956" lon="-2.33807">
        <ele>107</ele>
        <time>2015-05-14T12:52:25Z</time>
      </trkpt>
      <trkpt lat="47.69951" lon="-2.33815">
        <ele>103</ele>
        <time>2015-05-14T12:52:31Z</time>
      </trkpt>
      <trkpt lat="47.69956" lon="-2.33827">
        <ele>102</ele>
        <time>2015-05-14T12:52:38Z</time>
      </trkpt>
      <trkpt lat="47.69947" lon="-2.33823">
        <ele>102</ele>
        <time>2015-05-14T12:52:39Z</time>
      </trkpt>
      <trkpt lat="47.69936" lon="-2.33816">
        <ele>104</ele>
        <time>2015-05-14T12:52:41Z</time>
      </trkpt>
      <trkpt lat="47.6993" lon="-2.33823">
        <ele>107</ele>
        <time>2015-05-14T12:52:48Z</time>
      </trkpt>
      <trkpt lat="47.69929" lon="-2.33834">
        <ele>105</ele>
        <time>2015-05-14T12:52:51Z</time>
      </trkpt>
      <trkpt lat="47.69928" lon="-2.33829">
        <ele>106</ele>
        <time>2015-05-14T12:52:58Z</time>
      </trkpt>
      <trkpt lat="47.6992" lon="-2.33826">
        <ele>109</ele>
        <time>2015-05-14T12:53:02Z</time>
      </trkpt>
      <trkpt lat="47.69921" lon="-2.3383">
        <ele>109</ele>
        <time>2015-05-14T12:53:09Z</time>
      </trkpt>
      <trkpt lat="47.69919" lon="-2.3383">
        <ele>111</ele>
        <time>2015-05-14T12:53:16Z</time>
      </trkpt>
      <trkpt lat="47.69919" lon="-2.33831">
        <ele>111</ele>
        <time>2015-05-14T12:53:23Z</time>
      </trkpt>
      <trkpt lat="47.69918" lon="-2.33838">
        <ele>116</ele>
        <time>2015-05-14T12:53:30Z</time>
      </trkpt>
      <trkpt lat="47.69917" lon="-2.33846">
        <ele>115</ele>
        <time>2015-05-14T12:53:37Z</time>
      </trkpt>
      <trkpt lat="47.69917" lon="-2.33843">
        <ele>113</ele>
        <time>2015-05-14T12:53:44Z</time>
      </trkpt>
      <trkpt lat="47.69917" lon="-2.33843">
        <ele>113</ele>
        <time>2015-05-14T12:53:47Z</time>
      </trkpt>
      <trkpt lat="47.69917" lon="-2.33843">
        <ele>113</ele>
        <time>2015-05-14T12:53:57Z</time>
      </trkpt>
      <trkpt lat="47.69917" lon="-2.33843">
        <ele>113</ele>
        <time>2015-05-14T12:53:58Z</time>
      </trkpt>
      <trkpt lat="47.69937" lon="-2.33855">
        <ele>99</ele>
        <time>2015-05-14T12:58:06Z</time>
      </trkpt>
      <trkpt lat="47.69931" lon="-2.33847">
        <ele>117</ele>
        <time>2015-05-14T12:59:09Z</time>
      </trkpt>
      <trkpt lat="47.6992" lon="-2.33844">
        <ele>94</ele>
        <time>2015-05-14T12:59:21Z</time>
      </trkpt>
      <trkpt lat="47.69927" lon="-2.33846">
        <ele>98</ele>
        <time>2015-05-14T12:59:39Z</time>
      </trkpt>
      <trkpt lat="47.69926" lon="-2.33846">
        <ele>98</ele>
        <time>2015-05-14T12:59:40Z</time>
      </trkpt>
      <trkpt lat="47.69925" lon="-2.33847">
        <ele>97</ele>
        <time>2015-05-14T12:59:47Z</time>
      </trkpt>
      <trkpt lat="47.69924" lon="-2.33847">
        <ele>98</ele>
        <time>2015-05-14T12:59:54Z</time>
      </trkpt>
      <trkpt lat="47.69924" lon="-2.33847">
        <ele>98</ele>
        <time>2015-05-14T12:59:57Z</time>
      </trkpt>
      <trkpt lat="47.69921" lon="-2.33853">
        <ele>101</ele>
        <time>2015-05-14T13:00:32Z</time>
      </trkpt>
      <trkpt lat="47.69919" lon="-2.33861">
        <ele>101</ele>
        <time>2015-05-14T13:00:39Z</time>
      </trkpt>
      <trkpt lat="47.69919" lon="-2.33867">
        <ele>103</ele>
        <time>2015-05-14T13:00:46Z</time>
      </trkpt>
      <trkpt lat="47.69916" lon="-2.33872">
        <ele>104</ele>
        <time>2015-05-14T13:00:53Z</time>
      </trkpt>
      <trkpt lat="47.69915" lon="-2.33872">
        <ele>105</ele>
        <time>2015-05-14T13:01:00Z</time>
      </trkpt>
      <trkpt lat="47.69915" lon="-2.33871">
        <ele>104</ele>
        <time>2015-05-14T13:01:07Z</time>
      </trkpt>
      <trkpt lat="47.69915" lon="-2.33871">
        <ele>104</ele>
        <time>2015-05-14T13:01:10Z</time>
      </trkpt>
      <trkpt lat="47.69915" lon="-2.33872">
        <ele>104</ele>
        <time>2015-05-14T13:01:36Z</time>
      </trkpt>
      <trkpt lat="47.69915" lon="-2.33872">
        <ele>104</ele>
        <time>2015-05-14T13:01:37Z</time>
      </trkpt>
      <trkpt lat="47.69913" lon="-2.33882">
        <ele>104</ele>
        <time>2015-05-14T13:01:44Z</time>
      </trkpt>
      <trkpt lat="47.69907" lon="-2.33883">
        <ele>102</ele>
        <time>2015-05-14T13:01:51Z</time>
      </trkpt>
      <trkpt lat="47.69907" lon="-2.33884">
        <ele>102</ele>
        <time>2015-05-14T13:01:57Z</time>
      </trkpt>
      <trkpt lat="47.69908" lon="-2.33889">
        <ele>101</ele>
        <time>2015-05-14T13:02:33Z</time>
      </trkpt>
      <trkpt lat="47.69907" lon="-2.339">
        <ele>106</ele>
        <time>2015-05-14T13:02:40Z</time>
      </trkpt>
      <trkpt lat="47.69922" lon="-2.33897">
        <ele>105</ele>
        <time>2015-05-14T13:02:43Z</time>
      </trkpt>
      <trkpt lat="47.6993" lon="-2.339">
        <ele>107</ele>
        <time>2015-05-14T13:02:46Z</time>
      </trkpt>
      <trkpt lat="47.69931" lon="-2.3389">
        <ele>107</ele>
        <time>2015-05-14T13:02:53Z</time>
      </trkpt>
      <trkpt lat="47.69925" lon="-2.33899">
        <ele>107</ele>
        <time>2015-05-14T13:02:57Z</time>
      </trkpt>
      <trkpt lat="47.69924" lon="-2.339">
        <ele>107</ele>
        <time>2015-05-14T13:03:04Z</time>
      </trkpt>
      <trkpt lat="47.69923" lon="-2.33901">
        <ele>107</ele>
        <time>2015-05-14T13:03:11Z</time>
      </trkpt>
      <trkpt lat="47.69923" lon="-2.33901">
        <ele>108</ele>
        <time>2015-05-14T13:03:13Z</time>
      </trkpt>
      <trkpt lat="47.69921" lon="-2.33901">
        <ele>110</ele>
        <time>2015-05-14T13:03:41Z</time>
      </trkpt>
      <trkpt lat="47.69921" lon="-2.339">
        <ele>110</ele>
        <time>2015-05-14T13:03:45Z</time>
      </trkpt>
      <trkpt lat="47.69914" lon="-2.33905">
        <ele>115</ele>
        <time>2015-05-14T13:05:08Z</time>
      </trkpt>
      <trkpt lat="47.69905" lon="-2.3391">
        <ele>113</ele>
        <time>2015-05-14T13:05:13Z</time>
      </trkpt>
      <trkpt lat="47.699" lon="-2.33897">
        <ele>111</ele>
        <time>2015-05-14T13:05:20Z</time>
      </trkpt>
      <trkpt lat="47.69902" lon="-2.33896">
        <ele>107</ele>
        <time>2015-05-14T13:05:27Z</time>
      </trkpt>
      <trkpt lat="47.69902" lon="-2.33895">
        <ele>106</ele>
        <time>2015-05-14T13:05:34Z</time>
      </trkpt>
      <trkpt lat="47.69903" lon="-2.33896">
        <ele>107</ele>
        <time>2015-05-14T13:05:41Z</time>
      </trkpt>
      <trkpt lat="47.69903" lon="-2.33896">
        <ele>107</ele>
        <time>2015-05-14T13:05:44Z</time>
      </trkpt>
      <trkpt lat="47.699" lon="-2.33897">
        <ele>111</ele>
        <time>2015-05-14T13:05:54Z</time>
      </trkpt>
      <trkpt lat="47.69899" lon="-2.33901">
        <ele>113</ele>
        <time>2015-05-14T13:06:01Z</time>
      </trkpt>
      <trkpt lat="47.69896" lon="-2.33908">
        <ele>115</ele>
        <time>2015-05-14T13:06:08Z</time>
      </trkpt>
      <trkpt lat="47.69905" lon="-2.33916">
        <ele>113</ele>
        <time>2015-05-14T13:06:10Z</time>
      </trkpt>
      <trkpt lat="47.69884" lon="-2.33903">
        <ele>111</ele>
        <time>2015-05-14T13:06:12Z</time>
      </trkpt>
      <trkpt lat="47.69888" lon="-2.33913">
        <ele>109</ele>
        <time>2015-05-14T13:06:17Z</time>
      </trkpt>
      <trkpt lat="47.69885" lon="-2.33919">
        <ele>100</ele>
        <time>2015-05-14T13:06:24Z</time>
      </trkpt>
      <trkpt lat="47.69892" lon="-2.33926">
        <ele>102</ele>
        <time>2015-05-14T13:06:27Z</time>
      </trkpt>
      <trkpt lat="47.69896" lon="-2.33937">
        <ele>105</ele>
        <time>2015-05-14T13:06:33Z</time>
      </trkpt>
      <trkpt lat="47.69889" lon="-2.33937">
        <ele>104</ele>
        <time>2015-05-14T13:06:36Z</time>
      </trkpt>
      <trkpt lat="47.69896" lon="-2.33938">
        <ele>104</ele>
        <time>2015-05-14T13:06:37Z</time>
      </trkpt>
      <trkpt lat="47.699" lon="-2.33947">
        <ele>111</ele>
        <time>2015-05-14T13:06:44Z</time>
      </trkpt>
      <trkpt lat="47.69896" lon="-2.33949">
        <ele>112</ele>
        <time>2015-05-14T13:06:51Z</time>
      </trkpt>
      <trkpt lat="47.69896" lon="-2.33949">
        <ele>113</ele>
        <time>2015-05-14T13:06:58Z</time>
      </trkpt>
      <trkpt lat="47.69896" lon="-2.33948">
        <ele>113</ele>
        <time>2015-05-14T13:07:02Z</time>
      </trkpt>
      <trkpt lat="47.69896" lon="-2.33949">
        <ele>113</ele>
        <time>2015-05-14T13:10:21Z</time>
      </trkpt>
      <trkpt lat="47.69896" lon="-2.33949">
        <ele>113</ele>
        <time>2015-05-14T13:10:22Z</time>
      </trkpt>
      <trkpt lat="47.69895" lon="-2.3395">
        <ele>115</ele>
        <time>2015-05-14T13:10:37Z</time>
      </trkpt>
      <trkpt lat="47.69895" lon="-2.3395">
        <ele>115</ele>
        <time>2015-05-14T13:10:38Z</time>
      </trkpt>
      <trkpt lat="47.69895" lon="-2.3395">
        <ele>116</ele>
        <time>2015-05-14T13:11:02Z</time>
      </trkpt>
      <trkpt lat="47.69895" lon="-2.3395">
        <ele>116</ele>
        <time>2015-05-14T13:11:03Z</time>
      </trkpt>
      <trkpt lat="47.69894" lon="-2.33955">
        <ele>114</ele>
        <time>2015-05-14T13:11:23Z</time>
      </trkpt>
      <trkpt lat="47.69894" lon="-2.33955">
        <ele>116</ele>
        <time>2015-05-14T13:11:28Z</time>
      </trkpt>
      <trkpt lat="47.69897" lon="-2.33958">
        <ele>114</ele>
        <time>2015-05-14T13:12:39Z</time>
      </trkpt>
      <trkpt lat="47.69896" lon="-2.33959">
        <ele>115</ele>
        <time>2015-05-14T13:12:46Z</time>
      </trkpt>
      <trkpt lat="47.69897" lon="-2.33961">
        <ele>115</ele>
        <time>2015-05-14T13:12:53Z</time>
      </trkpt>
      <trkpt lat="47.69896" lon="-2.33961">
        <ele>116</ele>
        <time>2015-05-14T13:13:00Z</time>
      </trkpt>
      <trkpt lat="47.69896" lon="-2.33961">
        <ele>116</ele>
        <time>2015-05-14T13:13:07Z</time>
      </trkpt>
      <trkpt lat="47.69896" lon="-2.33961">
        <ele>116</ele>
        <time>2015-05-14T13:13:09Z</time>
      </trkpt>
      <trkpt lat="47.69896" lon="-2.3396">
        <ele>119</ele>
        <time>2015-05-14T13:13:39Z</time>
      </trkpt>
      <trkpt lat="47.69895" lon="-2.3396">
        <ele>120</ele>
        <time>2015-05-14T13:13:42Z</time>
      </trkpt>
      <trkpt lat="47.69898" lon="-2.33962">
        <ele>120</ele>
        <time>2015-05-14T13:14:10Z</time>
      </trkpt>
      <trkpt lat="47.69897" lon="-2.33962">
        <ele>120</ele>
        <time>2015-05-14T13:14:17Z</time>
      </trkpt>
      <trkpt lat="47.69897" lon="-2.33961">
        <ele>121</ele>
        <time>2015-05-14T13:14:24Z</time>
      </trkpt>
      <trkpt lat="47.69898" lon="-2.3396">
        <ele>120</ele>
        <time>2015-05-14T13:15:07Z</time>
      </trkpt>
      <trkpt lat="47.69897" lon="-2.3396">
        <ele>120</ele>
        <time>2015-05-14T13:15:09Z</time>
      </trkpt>
      <trkpt lat="47.69898" lon="-2.33961">
        <ele>119</ele>
        <time>2015-05-14T13:15:16Z</time>
      </trkpt>
      <trkpt lat="47.69898" lon="-2.33961">
        <ele>119</ele>
        <time>2015-05-14T13:15:17Z</time>
      </trkpt>
      <trkpt lat="47.69894" lon="-2.33967">
        <ele>123</ele>
        <time>2015-05-14T13:15:55Z</time>
      </trkpt>
      <trkpt lat="47.69893" lon="-2.33972">
        <ele>122</ele>
        <time>2015-05-14T13:16:02Z</time>
      </trkpt>
      <trkpt lat="47.69892" lon="-2.33979">
        <ele>122</ele>
        <time>2015-05-14T13:16:09Z</time>
      </trkpt>
      <trkpt lat="47.69891" lon="-2.33982">
        <ele>124</ele>
        <time>2015-05-14T13:16:16Z</time>
      </trkpt>
      <trkpt lat="47.6989" lon="-2.33993">
        <ele>120</ele>
        <time>2015-05-14T13:16:23Z</time>
      </trkpt>
      <trkpt lat="47.69887" lon="-2.33992">
        <ele>121</ele>
        <time>2015-05-14T13:16:30Z</time>
      </trkpt>
      <trkpt lat="47.69885" lon="-2.34">
        <ele>121</ele>
        <time>2015-05-14T13:16:37Z</time>
      </trkpt>
      <trkpt lat="47.69883" lon="-2.34006">
        <ele>121</ele>
        <time>2015-05-14T13:16:44Z</time>
      </trkpt>
      <trkpt lat="47.69879" lon="-2.34013">
        <ele>121</ele>
        <time>2015-05-14T13:16:51Z</time>
      </trkpt>
      <trkpt lat="47.69877" lon="-2.34019">
        <ele>120</ele>
        <time>2015-05-14T13:16:58Z</time>
      </trkpt>
      <trkpt lat="47.69877" lon="-2.34022">
        <ele>119</ele>
        <time>2015-05-14T13:17:05Z</time>
      </trkpt>
      <trkpt lat="47.69877" lon="-2.34022">
        <ele>122</ele>
        <time>2015-05-14T13:17:09Z</time>
      </trkpt>
      <trkpt lat="47.69876" lon="-2.3403">
        <ele>120</ele>
        <time>2015-05-14T13:17:20Z</time>
      </trkpt>
      <trkpt lat="47.69877" lon="-2.34032">
        <ele>123</ele>
        <time>2015-05-14T13:17:27Z</time>
      </trkpt>
      <trkpt lat="47.69879" lon="-2.3403">
        <ele>127</ele>
        <time>2015-05-14T13:17:34Z</time>
      </trkpt>
      <trkpt lat="47.69879" lon="-2.34022">
        <ele>126</ele>
        <time>2015-05-14T13:17:41Z</time>
      </trkpt>
      <trkpt lat="47.69879" lon="-2.34011">
        <ele>124</ele>
        <time>2015-05-14T13:17:48Z</time>
      </trkpt>
      <trkpt lat="47.6988" lon="-2.34001">
        <ele>124</ele>
        <time>2015-05-14T13:17:55Z</time>
      </trkpt>
      <trkpt lat="47.69883" lon="-2.33992">
        <ele>122</ele>
        <time>2015-05-14T13:18:02Z</time>
      </trkpt>
      <trkpt lat="47.69885" lon="-2.33988">
        <ele>119</ele>
        <time>2015-05-14T13:18:09Z</time>
      </trkpt>
      <trkpt lat="47.69883" lon="-2.33986">
        <ele>118</ele>
        <time>2015-05-14T13:18:16Z</time>
      </trkpt>
      <trkpt lat="47.69883" lon="-2.33987">
        <ele>119</ele>
        <time>2015-05-14T13:18:23Z</time>
      </trkpt>
      <trkpt lat="47.69875" lon="-2.33991">
        <ele>120</ele>
        <time>2015-05-14T13:18:29Z</time>
      </trkpt>
      <trkpt lat="47.69871" lon="-2.33992">
        <ele>116</ele>
        <time>2015-05-14T13:18:36Z</time>
      </trkpt>
      <trkpt lat="47.69865" lon="-2.3399">
        <ele>116</ele>
        <time>2015-05-14T13:18:43Z</time>
      </trkpt>
      <trkpt lat="47.69861" lon="-2.33984">
        <ele>112</ele>
        <time>2015-05-14T13:18:50Z</time>
      </trkpt>
      <trkpt lat="47.69865" lon="-2.33976">
        <ele>109</ele>
        <time>2015-05-14T13:18:57Z</time>
      </trkpt>
      <trkpt lat="47.69862" lon="-2.33967">
        <ele>111</ele>
        <time>2015-05-14T13:19:04Z</time>
      </trkpt>
      <trkpt lat="47.69863" lon="-2.33962">
        <ele>112</ele>
        <time>2015-05-14T13:19:11Z</time>
      </trkpt>
      <trkpt lat="47.69874" lon="-2.33953">
        <ele>117</ele>
        <time>2015-05-14T13:19:21Z</time>
      </trkpt>
      <trkpt lat="47.69869" lon="-2.3394">
        <ele>120</ele>
        <time>2015-05-14T13:19:24Z</time>
      </trkpt>
      <trkpt lat="47.69866" lon="-2.33936">
        <ele>118</ele>
        <time>2015-05-14T13:19:31Z</time>
      </trkpt>
      <trkpt lat="47.6987" lon="-2.33931">
        <ele>117</ele>
        <time>2015-05-14T13:19:38Z</time>
      </trkpt>
      <trkpt lat="47.69869" lon="-2.33926">
        <ele>115</ele>
        <time>2015-05-14T13:19:45Z</time>
      </trkpt>
      <trkpt lat="47.69869" lon="-2.3392">
        <ele>115</ele>
        <time>2015-05-14T13:19:52Z</time>
      </trkpt>
      <trkpt lat="47.69873" lon="-2.33916">
        <ele>114</ele>
        <time>2015-05-14T13:19:59Z</time>
      </trkpt>
      <trkpt lat="47.69874" lon="-2.33914">
        <ele>112</ele>
        <time>2015-05-14T13:20:06Z</time>
      </trkpt>
      <trkpt lat="47.69873" lon="-2.33905">
        <ele>114</ele>
        <time>2015-05-14T13:20:13Z</time>
      </trkpt>
      <trkpt lat="47.69878" lon="-2.33898">
        <ele>115</ele>
        <time>2015-05-14T13:20:20Z</time>
      </trkpt>
      <trkpt lat="47.6988" lon="-2.33895">
        <ele>115</ele>
        <time>2015-05-14T13:20:27Z</time>
      </trkpt>
      <trkpt lat="47.6988" lon="-2.33887">
        <ele>115</ele>
        <time>2015-05-14T13:20:34Z</time>
      </trkpt>
      <trkpt lat="47.69881" lon="-2.3388">
        <ele>115</ele>
        <time>2015-05-14T13:20:41Z</time>
      </trkpt>
      <trkpt lat="47.69882" lon="-2.33871">
        <ele>115</ele>
        <time>2015-05-14T13:20:48Z</time>
      </trkpt>
      <trkpt lat="47.69884" lon="-2.33863">
        <ele>115</ele>
        <time>2015-05-14T13:20:55Z</time>
      </trkpt>
      <trkpt lat="47.69883" lon="-2.33854">
        <ele>116</ele>
        <time>2015-05-14T13:21:02Z</time>
      </trkpt>
      <trkpt lat="47.69885" lon="-2.33844">
        <ele>117</ele>
        <time>2015-05-14T13:21:09Z</time>
      </trkpt>
      <trkpt lat="47.69887" lon="-2.33836">
        <ele>116</ele>
        <time>2015-05-14T13:21:16Z</time>
      </trkpt>
      <trkpt lat="47.6989" lon="-2.3383">
        <ele>116</ele>
        <time>2015-05-14T13:21:23Z</time>
      </trkpt>
      <trkpt lat="47.69894" lon="-2.33824">
        <ele>112</ele>
        <time>2015-05-14T13:21:30Z</time>
      </trkpt>
      <trkpt lat="47.699" lon="-2.33818">
        <ele>109</ele>
        <time>2015-05-14T13:21:37Z</time>
      </trkpt>
      <trkpt lat="47.69903" lon="-2.33815">
        <ele>108</ele>
        <time>2015-05-14T13:21:44Z</time>
      </trkpt>
      <trkpt lat="47.69906" lon="-2.33814">
        <ele>109</ele>
        <time>2015-05-14T13:21:51Z</time>
      </trkpt>
      <trkpt lat="47.69909" lon="-2.33808">
        <ele>107</ele>
        <time>2015-05-14T13:21:58Z</time>
      </trkpt>
      <trkpt lat="47.69913" lon="-2.33799">
        <ele>105</ele>
        <time>2015-05-14T13:22:05Z</time>
      </trkpt>
      <trkpt lat="47.69908" lon="-2.33791">
        <ele>109</ele>
        <time>2015-05-14T13:22:12Z</time>
      </trkpt>
      <trkpt lat="47.69908" lon="-2.33784">
        <ele>111</ele>
        <time>2015-05-14T13:22:19Z</time>
      </trkpt>
      <trkpt lat="47.69905" lon="-2.33783">
        <ele>112</ele>
        <time>2015-05-14T13:22:26Z</time>
      </trkpt>
      <trkpt lat="47.69903" lon="-2.33783">
        <ele>114</ele>
        <time>2015-05-14T13:22:33Z</time>
      </trkpt>
      <trkpt lat="47.69901" lon="-2.33782">
        <ele>116</ele>
        <time>2015-05-14T13:22:40Z</time>
      </trkpt>
      <trkpt lat="47.69901" lon="-2.33781">
        <ele>117</ele>
        <time>2015-05-14T13:22:42Z</time>
      </trkpt>
      <trkpt lat="47.69895" lon="-2.33775">
        <ele>118</ele>
        <time>2015-05-14T13:22:55Z</time>
      </trkpt>
      <trkpt lat="47.6989" lon="-2.33766">
        <ele>116</ele>
        <time>2015-05-14T13:23:01Z</time>
      </trkpt>
      <trkpt lat="47.69891" lon="-2.33756">
        <ele>115</ele>
        <time>2015-05-14T13:23:06Z</time>
      </trkpt>
      <trkpt lat="47.6989" lon="-2.33744">
        <ele>113</ele>
        <time>2015-05-14T13:23:12Z</time>
      </trkpt>
      <trkpt lat="47.69885" lon="-2.33736">
        <ele>109</ele>
        <time>2015-05-14T13:23:17Z</time>
      </trkpt>
      <trkpt lat="47.69882" lon="-2.33728">
        <ele>105</ele>
        <time>2015-05-14T13:23:24Z</time>
      </trkpt>
      <trkpt lat="47.69883" lon="-2.3372">
        <ele>102</ele>
        <time>2015-05-14T13:23:31Z</time>
      </trkpt>
      <trkpt lat="47.69881" lon="-2.33732">
        <ele>100</ele>
        <time>2015-05-14T13:23:37Z</time>
      </trkpt>
      <trkpt lat="47.69878" lon="-2.33738">
        <ele>97</ele>
        <time>2015-05-14T13:23:44Z</time>
      </trkpt>
      <trkpt lat="47.69883" lon="-2.33747">
        <ele>95</ele>
        <time>2015-05-14T13:23:48Z</time>
      </trkpt>
      <trkpt lat="47.69883" lon="-2.33759">
        <ele>93</ele>
        <time>2015-05-14T13:23:54Z</time>
      </trkpt>
      <trkpt lat="47.69889" lon="-2.33766">
        <ele>98</ele>
        <time>2015-05-14T13:23:58Z</time>
      </trkpt>
      <trkpt lat="47.69897" lon="-2.3377">
        <ele>99</ele>
        <time>2015-05-14T13:24:03Z</time>
      </trkpt>
      <trkpt lat="47.69904" lon="-2.33773">
        <ele>100</ele>
        <time>2015-05-14T13:24:06Z</time>
      </trkpt>
      <trkpt lat="47.69907" lon="-2.33775">
        <ele>101</ele>
        <time>2015-05-14T13:24:13Z</time>
      </trkpt>
      <trkpt lat="47.69912" lon="-2.33782">
        <ele>95</ele>
        <time>2015-05-14T13:24:20Z</time>
      </trkpt>
      <trkpt lat="47.69911" lon="-2.33783">
        <ele>97</ele>
        <time>2015-05-14T13:24:27Z</time>
      </trkpt>
      <trkpt lat="47.6991" lon="-2.33782">
        <ele>98</ele>
        <time>2015-05-14T13:24:34Z</time>
      </trkpt>
      <trkpt lat="47.69912" lon="-2.33783">
        <ele>100</ele>
        <time>2015-05-14T13:24:41Z</time>
      </trkpt>
      <trkpt lat="47.69919" lon="-2.33779">
        <ele>102</ele>
        <time>2015-05-14T13:24:47Z</time>
      </trkpt>
      <trkpt lat="47.69926" lon="-2.33778">
        <ele>105</ele>
        <time>2015-05-14T13:24:51Z</time>
      </trkpt>
      <trkpt lat="47.69923" lon="-2.33772">
        <ele>108</ele>
        <time>2015-05-14T13:24:58Z</time>
      </trkpt>
      <trkpt lat="47.69931" lon="-2.33775">
        <ele>112</ele>
        <time>2015-05-14T13:25:01Z</time>
      </trkpt>
      <trkpt lat="47.69935" lon="-2.33774">
        <ele>112</ele>
        <time>2015-05-14T13:25:08Z</time>
      </trkpt>
      <trkpt lat="47.69929" lon="-2.33771">
        <ele>112</ele>
        <time>2015-05-14T13:25:15Z</time>
      </trkpt>
      <trkpt lat="47.69922" lon="-2.33771">
        <ele>117</ele>
        <time>2015-05-14T13:25:22Z</time>
      </trkpt>
      <trkpt lat="47.69925" lon="-2.3377">
        <ele>114</ele>
        <time>2015-05-14T13:25:29Z</time>
      </trkpt>
      <trkpt lat="47.69927" lon="-2.33768">
        <ele>113</ele>
        <time>2015-05-14T13:25:36Z</time>
      </trkpt>
      <trkpt lat="47.69928" lon="-2.33762">
        <ele>116</ele>
        <time>2015-05-14T13:25:43Z</time>
      </trkpt>
      <trkpt lat="47.6993" lon="-2.33756">
        <ele>113</ele>
        <time>2015-05-14T13:25:50Z</time>
      </trkpt>
      <trkpt lat="47.6993" lon="-2.33753">
        <ele>115</ele>
        <time>2015-05-14T13:25:57Z</time>
      </trkpt>
      <trkpt lat="47.69931" lon="-2.33749">
        <ele>115</ele>
        <time>2015-05-14T13:26:04Z</time>
      </trkpt>
      <trkpt lat="47.69938" lon="-2.33744">
        <ele>116</ele>
        <time>2015-05-14T13:26:11Z</time>
      </trkpt>
      <trkpt lat="47.69938" lon="-2.33744">
        <ele>119</ele>
        <time>2015-05-14T13:26:18Z</time>
      </trkpt>
      <trkpt lat="47.69938" lon="-2.33744">
        <ele>119</ele>
        <time>2015-05-14T13:26:20Z</time>
      </trkpt>
      <trkpt lat="47.69937" lon="-2.33745">
        <ele>116</ele>
        <time>2015-05-14T13:26:42Z</time>
      </trkpt>
      <trkpt lat="47.69936" lon="-2.33746">
        <ele>117</ele>
        <time>2015-05-14T13:26:48Z</time>
      </trkpt>
      <trkpt lat="47.69936" lon="-2.33745">
        <ele>117</ele>
        <time>2015-05-14T13:30:39Z</time>
      </trkpt>
      <trkpt lat="47.69936" lon="-2.33745">
        <ele>117</ele>
        <time>2015-05-14T13:30:40Z</time>
      </trkpt>
      <trkpt lat="47.69943" lon="-2.33732">
        <ele>114</ele>
        <time>2015-05-14T13:31:58Z</time>
      </trkpt>
      <trkpt lat="47.69938" lon="-2.33723">
        <ele>101</ele>
        <time>2015-05-14T13:32:02Z</time>
      </trkpt>
      <trkpt lat="47.6994" lon="-2.33721">
        <ele>86</ele>
        <time>2015-05-14T13:32:09Z</time>
      </trkpt>
      <trkpt lat="47.69937" lon="-2.33719">
        <ele>80</ele>
        <time>2015-05-14T13:32:16Z</time>
      </trkpt>
      <trkpt lat="47.69937" lon="-2.3372">
        <ele>81</ele>
        <time>2015-05-14T13:32:23Z</time>
      </trkpt>
      <trkpt lat="47.69938" lon="-2.3372">
        <ele>82</ele>
        <time>2015-05-14T13:32:25Z</time>
      </trkpt>
      <trkpt lat="47.69939" lon="-2.33719">
        <ele>82</ele>
        <time>2015-05-14T13:32:32Z</time>
      </trkpt>
      <trkpt lat="47.69939" lon="-2.33719">
        <ele>82</ele>
        <time>2015-05-14T13:32:34Z</time>
      </trkpt>
      <trkpt lat="47.6994" lon="-2.33722">
        <ele>88</ele>
        <time>2015-05-14T13:32:42Z</time>
      </trkpt>
      <trkpt lat="47.69941" lon="-2.33722">
        <ele>91</ele>
        <time>2015-05-14T13:32:49Z</time>
      </trkpt>
      <trkpt lat="47.69942" lon="-2.33722">
        <ele>90</ele>
        <time>2015-05-14T13:32:51Z</time>
      </trkpt>
      <trkpt lat="47.69943" lon="-2.33722">
        <ele>92</ele>
        <time>2015-05-14T13:33:00Z</time>
      </trkpt>
      <trkpt lat="47.69944" lon="-2.33722">
        <ele>93</ele>
        <time>2015-05-14T13:33:01Z</time>
      </trkpt>
      <trkpt lat="47.6995" lon="-2.33715">
        <ele>99</ele>
        <time>2015-05-14T13:33:10Z</time>
      </trkpt>
      <trkpt lat="47.69952" lon="-2.33714">
        <ele>102</ele>
        <time>2015-05-14T13:33:17Z</time>
      </trkpt>
      <trkpt lat="47.69952" lon="-2.33707">
        <ele>102</ele>
        <time>2015-05-14T13:33:24Z</time>
      </trkpt>
      <trkpt lat="47.69949" lon="-2.33701">
        <ele>105</ele>
        <time>2015-05-14T13:33:31Z</time>
      </trkpt>
      <trkpt lat="47.69949" lon="-2.33694">
        <ele>108</ele>
        <time>2015-05-14T13:33:38Z</time>
      </trkpt>
      <trkpt lat="47.69949" lon="-2.33691">
        <ele>107</ele>
        <time>2015-05-14T13:33:45Z</time>
      </trkpt>
      <trkpt lat="47.69949" lon="-2.33687">
        <ele>106</ele>
        <time>2015-05-14T13:33:52Z</time>
      </trkpt>
      <trkpt lat="47.69949" lon="-2.33682">
        <ele>106</ele>
        <time>2015-05-14T13:33:59Z</time>
      </trkpt>
      <trkpt lat="47.69949" lon="-2.33675">
        <ele>105</ele>
        <time>2015-05-14T13:34:06Z</time>
      </trkpt>
      <trkpt lat="47.6995" lon="-2.33669">
        <ele>107</ele>
        <time>2015-05-14T13:34:13Z</time>
      </trkpt>
      <trkpt lat="47.69952" lon="-2.33663">
        <ele>107</ele>
        <time>2015-05-14T13:34:20Z</time>
      </trkpt>
      <trkpt lat="47.69953" lon="-2.33657">
        <ele>108</ele>
        <time>2015-05-14T13:34:27Z</time>
      </trkpt>
      <trkpt lat="47.69953" lon="-2.33648">
        <ele>110</ele>
        <time>2015-05-14T13:34:34Z</time>
      </trkpt>
      <trkpt lat="47.69959" lon="-2.33641">
        <ele>108</ele>
        <time>2015-05-14T13:34:41Z</time>
      </trkpt>
      <trkpt lat="47.69962" lon="-2.33645">
        <ele>108</ele>
        <time>2015-05-14T13:34:48Z</time>
      </trkpt>
      <trkpt lat="47.69963" lon="-2.33643">
        <ele>107</ele>
        <time>2015-05-14T13:34:55Z</time>
      </trkpt>
      <trkpt lat="47.69976" lon="-2.33632">
        <ele>103</ele>
        <time>2015-05-14T13:35:01Z</time>
      </trkpt>
      <trkpt lat="47.69975" lon="-2.33644">
        <ele>102</ele>
        <time>2015-05-14T13:36:21Z</time>
      </trkpt>
      <trkpt lat="47.69969" lon="-2.33638">
        <ele>101</ele>
        <time>2015-05-14T13:36:28Z</time>
      </trkpt>
      <trkpt lat="47.69967" lon="-2.3363">
        <ele>106</ele>
        <time>2015-05-14T13:36:35Z</time>
      </trkpt>
      <trkpt lat="47.69967" lon="-2.3363">
        <ele>106</ele>
        <time>2015-05-14T13:36:39Z</time>
      </trkpt>
      <trkpt lat="47.69967" lon="-2.33631">
        <ele>105</ele>
        <time>2015-05-14T13:37:32Z</time>
      </trkpt>
      <trkpt lat="47.69967" lon="-2.33631">
        <ele>105</ele>
        <time>2015-05-14T13:37:33Z</time>
      </trkpt>
      <trkpt lat="47.69967" lon="-2.3363">
        <ele>106</ele>
        <time>2015-05-14T13:38:08Z</time>
      </trkpt>
      <trkpt lat="47.69967" lon="-2.3363">
        <ele>106</ele>
        <time>2015-05-14T13:38:09Z</time>
      </trkpt>
      <trkpt lat="47.69967" lon="-2.33631">
        <ele>104</ele>
        <time>2015-05-14T13:38:20Z</time>
      </trkpt>
      <trkpt lat="47.6996" lon="-2.33627">
        <ele>102</ele>
        <time>2015-05-14T13:38:27Z</time>
      </trkpt>
      <trkpt lat="47.69953" lon="-2.33625">
        <ele>104</ele>
        <time>2015-05-14T13:38:33Z</time>
      </trkpt>
      <trkpt lat="47.6995" lon="-2.3363">
        <ele>109</ele>
        <time>2015-05-14T13:38:40Z</time>
      </trkpt>
      <trkpt lat="47.6995" lon="-2.33631">
        <ele>110</ele>
        <time>2015-05-14T13:38:47Z</time>
      </trkpt>
      <trkpt lat="47.69951" lon="-2.33629">
        <ele>111</ele>
        <time>2015-05-14T13:38:54Z</time>
      </trkpt>
      <trkpt lat="47.69951" lon="-2.33629">
        <ele>110</ele>
        <time>2015-05-14T13:38:58Z</time>
      </trkpt>
      <trkpt lat="47.69951" lon="-2.33629">
        <ele>109</ele>
        <time>2015-05-14T13:39:06Z</time>
      </trkpt>
      <trkpt lat="47.69951" lon="-2.33629">
        <ele>109</ele>
        <time>2015-05-14T13:39:07Z</time>
      </trkpt>
      <trkpt lat="47.69951" lon="-2.3363">
        <ele>110</ele>
        <time>2015-05-14T13:39:26Z</time>
      </trkpt>
      <trkpt lat="47.69951" lon="-2.3363">
        <ele>110</ele>
        <time>2015-05-14T13:39:27Z</time>
      </trkpt>
      <trkpt lat="47.69951" lon="-2.33633">
        <ele>111</ele>
        <time>2015-05-14T13:39:59Z</time>
      </trkpt>
      <trkpt lat="47.6995" lon="-2.33633">
        <ele>111</ele>
        <time>2015-05-14T13:40:03Z</time>
      </trkpt>
      <trkpt lat="47.6995" lon="-2.33634">
        <ele>111</ele>
        <time>2015-05-14T13:40:35Z</time>
      </trkpt>
      <trkpt lat="47.6995" lon="-2.33634">
        <ele>111</ele>
        <time>2015-05-14T13:40:36Z</time>
      </trkpt>
      <trkpt lat="47.69945" lon="-2.33644">
        <ele>107</ele>
        <time>2015-05-14T13:41:33Z</time>
      </trkpt>
      <trkpt lat="47.69948" lon="-2.33655">
        <ele>97</ele>
        <time>2015-05-14T13:41:40Z</time>
      </trkpt>
      <trkpt lat="47.69952" lon="-2.33668">
        <ele>100</ele>
        <time>2015-05-14T13:41:46Z</time>
      </trkpt>
      <trkpt lat="47.6995" lon="-2.33679">
        <ele>101</ele>
        <time>2015-05-14T13:41:48Z</time>
      </trkpt>
      <trkpt lat="47.69948" lon="-2.33691">
        <ele>104</ele>
        <time>2015-05-14T13:41:55Z</time>
      </trkpt>
      <trkpt lat="47.69949" lon="-2.33702">
        <ele>107</ele>
        <time>2015-05-14T13:42:02Z</time>
      </trkpt>
      <trkpt lat="47.69945" lon="-2.33711">
        <ele>108</ele>
        <time>2015-05-14T13:42:04Z</time>
      </trkpt>
      <trkpt lat="47.69945" lon="-2.33724">
        <ele>108</ele>
        <time>2015-05-14T13:42:08Z</time>
      </trkpt>
      <trkpt lat="47.69945" lon="-2.3373">
        <ele>108</ele>
        <time>2015-05-14T13:42:15Z</time>
      </trkpt>
      <trkpt lat="47.69946" lon="-2.33728">
        <ele>107</ele>
        <time>2015-05-14T13:42:22Z</time>
      </trkpt>
      <trkpt lat="47.69946" lon="-2.33728">
        <ele>107</ele>
        <time>2015-05-14T13:42:26Z</time>
      </trkpt>
      <trkpt lat="47.69944" lon="-2.33727">
        <ele>108</ele>
        <time>2015-05-14T13:42:37Z</time>
      </trkpt>
      <trkpt lat="47.69944" lon="-2.33727">
        <ele>108</ele>
        <time>2015-05-14T13:42:38Z</time>
      </trkpt>
      <trkpt lat="47.69944" lon="-2.33728">
        <ele>108</ele>
        <time>2015-05-14T13:42:58Z</time>
      </trkpt>
      <trkpt lat="47.69943" lon="-2.3373">
        <ele>107</ele>
        <time>2015-05-14T13:43:05Z</time>
      </trkpt>
      <trkpt lat="47.69943" lon="-2.3373">
        <ele>107</ele>
        <time>2015-05-14T13:43:06Z</time>
      </trkpt>
      <trkpt lat="47.69943" lon="-2.33731">
        <ele>106</ele>
        <time>2015-05-14T13:43:17Z</time>
      </trkpt>
      <trkpt lat="47.69943" lon="-2.33731">
        <ele>106</ele>
        <time>2015-05-14T13:43:18Z</time>
      </trkpt>
      <trkpt lat="47.69945" lon="-2.33729">
        <ele>102</ele>
        <time>2015-05-14T13:45:12Z</time>
      </trkpt>
      <trkpt lat="47.69945" lon="-2.33729">
        <ele>102</ele>
        <time>2015-05-14T13:45:16Z</time>
      </trkpt>
      <trkpt lat="47.69945" lon="-2.33728">
        <ele>101</ele>
        <time>2015-05-14T13:45:30Z</time>
      </trkpt>
      <trkpt lat="47.69945" lon="-2.33728">
        <ele>101</ele>
        <time>2015-05-14T13:45:31Z</time>
      </trkpt>
      <trkpt lat="47.69948" lon="-2.33723">
        <ele>100</ele>
        <time>2015-05-14T13:45:40Z</time>
      </trkpt>
      <trkpt lat="47.6994" lon="-2.33721">
        <ele>99</ele>
        <time>2015-05-14T13:45:42Z</time>
      </trkpt>
      <trkpt lat="47.69933" lon="-2.33712">
        <ele>100</ele>
        <time>2015-05-14T13:45:46Z</time>
      </trkpt>
      <trkpt lat="47.69928" lon="-2.33703">
        <ele>104</ele>
        <time>2015-05-14T13:45:51Z</time>
      </trkpt>
      <trkpt lat="47.6993" lon="-2.33691">
        <ele>103</ele>
        <time>2015-05-14T13:45:57Z</time>
      </trkpt>
      <trkpt lat="47.69921" lon="-2.33686">
        <ele>104</ele>
        <time>2015-05-14T13:46:00Z</time>
      </trkpt>
      <trkpt lat="47.69929" lon="-2.33684">
        <ele>102</ele>
        <time>2015-05-14T13:46:02Z</time>
      </trkpt>
      <trkpt lat="47.69941" lon="-2.33678">
        <ele>101</ele>
        <time>2015-05-14T13:46:03Z</time>
      </trkpt>
      <trkpt lat="47.69943" lon="-2.33668">
        <ele>103</ele>
        <time>2015-05-14T13:46:06Z</time>
      </trkpt>
      <trkpt lat="47.69946" lon="-2.33657">
        <ele>101</ele>
        <time>2015-05-14T13:46:09Z</time>
      </trkpt>
      <trkpt lat="47.69944" lon="-2.33647">
        <ele>100</ele>
        <time>2015-05-14T13:46:16Z</time>
      </trkpt>
      <trkpt lat="47.69941" lon="-2.33644">
        <ele>102</ele>
        <time>2015-05-14T13:46:23Z</time>
      </trkpt>
      <trkpt lat="47.69942" lon="-2.33641">
        <ele>105</ele>
        <time>2015-05-14T13:46:30Z</time>
      </trkpt>
      <trkpt lat="47.69942" lon="-2.33641">
        <ele>106</ele>
        <time>2015-05-14T13:46:35Z</time>
      </trkpt>
      <trkpt lat="47.69944" lon="-2.3364">
        <ele>109</ele>
        <time>2015-05-14T13:46:57Z</time>
      </trkpt>
      <trkpt lat="47.69944" lon="-2.3364">
        <ele>109</ele>
        <time>2015-05-14T13:46:58Z</time>
      </trkpt>
      <trkpt lat="47.69945" lon="-2.33639">
        <ele>109</ele>
        <time>2015-05-14T13:47:09Z</time>
      </trkpt>
      <trkpt lat="47.69945" lon="-2.3364">
        <ele>110</ele>
        <time>2015-05-14T13:47:16Z</time>
      </trkpt>
      <trkpt lat="47.69945" lon="-2.3364">
        <ele>109</ele>
        <time>2015-05-14T13:47:17Z</time>
      </trkpt>
      <trkpt lat="47.69945" lon="-2.33641">
        <ele>111</ele>
        <time>2015-05-14T13:49:05Z</time>
      </trkpt>
      <trkpt lat="47.69946" lon="-2.33641">
        <ele>111</ele>
        <time>2015-05-14T13:49:11Z</time>
      </trkpt>
      <trkpt lat="47.69946" lon="-2.33641">
        <ele>111</ele>
        <time>2015-05-14T13:49:59Z</time>
      </trkpt>
      <trkpt lat="47.69946" lon="-2.33641">
        <ele>111</ele>
        <time>2015-05-14T13:50:00Z</time>
      </trkpt>
      <trkpt lat="47.69944" lon="-2.33642">
        <ele>114</ele>
        <time>2015-05-14T13:52:09Z</time>
      </trkpt>
      <trkpt lat="47.69944" lon="-2.33642">
        <ele>113</ele>
        <time>2015-05-14T13:52:12Z</time>
      </trkpt>
      <trkpt lat="47.69945" lon="-2.33641">
        <ele>112</ele>
        <time>2015-05-14T13:52:19Z</time>
      </trkpt>
      <trkpt lat="47.69945" lon="-2.33641">
        <ele>112</ele>
        <time>2015-05-14T13:52:20Z</time>
      </trkpt>
      <trkpt lat="47.69944" lon="-2.33641">
        <ele>113</ele>
        <time>2015-05-14T13:53:16Z</time>
      </trkpt>
      <trkpt lat="47.69944" lon="-2.33641">
        <ele>113</ele>
        <time>2015-05-14T13:53:17Z</time>
      </trkpt>
      <trkpt lat="47.69945" lon="-2.33641">
        <ele>114</ele>
        <time>2015-05-14T13:54:15Z</time>
      </trkpt>
      <trkpt lat="47.69945" lon="-2.33641">
        <ele>114</ele>
        <time>2015-05-14T13:54:16Z</time>
      </trkpt>
      <trkpt lat="47.69944" lon="-2.33636">
        <ele>113</ele>
        <time>2015-05-14T13:58:37Z</time>
      </trkpt>
      <trkpt lat="47.69945" lon="-2.33638">
        <ele>113</ele>
        <time>2015-05-14T13:58:44Z</time>
      </trkpt>
      <trkpt lat="47.69945" lon="-2.33638">
        <ele>113</ele>
        <time>2015-05-14T13:58:49Z</time>
      </trkpt>
      <trkpt lat="47.69946" lon="-2.33637">
        <ele>113</ele>
        <time>2015-05-14T13:59:35Z</time>
      </trkpt>
      <trkpt lat="47.69946" lon="-2.33636">
        <ele>113</ele>
        <time>2015-05-14T13:59:42Z</time>
      </trkpt>
      <trkpt lat="47.69945" lon="-2.33635">
        <ele>114</ele>
        <time>2015-05-14T14:00:43Z</time>
      </trkpt>
      <trkpt lat="47.69945" lon="-2.33635">
        <ele>114</ele>
        <time>2015-05-14T14:00:44Z</time>
      </trkpt>
      <trkpt lat="47.69946" lon="-2.33635">
        <ele>111</ele>
        <time>2015-05-14T14:00:52Z</time>
      </trkpt>
      <trkpt lat="47.69946" lon="-2.33635">
        <ele>111</ele>
        <time>2015-05-14T14:00:56Z</time>
      </trkpt>
      <trkpt lat="47.69948" lon="-2.33638">
        <ele>110</ele>
        <time>2015-05-14T14:02:34Z</time>
      </trkpt>
      <trkpt lat="47.69947" lon="-2.33638">
        <ele>111</ele>
        <time>2015-05-14T14:02:41Z</time>
      </trkpt>
      <trkpt lat="47.69946" lon="-2.33638">
        <ele>112</ele>
        <time>2015-05-14T14:05:02Z</time>
      </trkpt>
      <trkpt lat="47.69946" lon="-2.33638">
        <ele>112</ele>
        <time>2015-05-14T14:05:03Z</time>
      </trkpt>
      <trkpt lat="47.69947" lon="-2.33636">
        <ele>111</ele>
        <time>2015-05-14T14:05:13Z</time>
      </trkpt>
      <trkpt lat="47.6995" lon="-2.33637">
        <ele>105</ele>
        <time>2015-05-14T14:05:20Z</time>
      </trkpt>
      <trkpt lat="47.6995" lon="-2.33636">
        <ele>105</ele>
        <time>2015-05-14T14:05:26Z</time>
      </trkpt>
      <trkpt lat="47.69949" lon="-2.33636">
        <ele>108</ele>
        <time>2015-05-14T14:05:41Z</time>
      </trkpt>
      <trkpt lat="47.69949" lon="-2.33636">
        <ele>109</ele>
        <time>2015-05-14T14:05:48Z</time>
      </trkpt>
      <trkpt lat="47.69949" lon="-2.33636">
        <ele>109</ele>
        <time>2015-05-14T14:05:50Z</time>
      </trkpt>
      <trkpt lat="47.6995" lon="-2.33632">
        <ele>107</ele>
        <time>2015-05-14T14:06:02Z</time>
      </trkpt>
      <trkpt lat="47.6995" lon="-2.33632">
        <ele>107</ele>
        <time>2015-05-14T14:06:04Z</time>
      </trkpt>
      <trkpt lat="47.6995" lon="-2.33632">
        <ele>108</ele>
        <time>2015-05-14T14:06:11Z</time>
      </trkpt>
      <trkpt lat="47.6995" lon="-2.33632">
        <ele>108</ele>
        <time>2015-05-14T14:06:12Z</time>
      </trkpt>
      <trkpt lat="47.69951" lon="-2.33644">
        <ele>105</ele>
        <time>2015-05-14T14:06:50Z</time>
      </trkpt>
      <trkpt lat="47.69954" lon="-2.33652">
        <ele>105</ele>
        <time>2015-05-14T14:06:57Z</time>
      </trkpt>
      <trkpt lat="47.69953" lon="-2.33663">
        <ele>102</ele>
        <time>2015-05-14T14:07:02Z</time>
      </trkpt>
      <trkpt lat="47.69948" lon="-2.33674">
        <ele>96</ele>
        <time>2015-05-14T14:07:09Z</time>
      </trkpt>
      <trkpt lat="47.69954" lon="-2.3368">
        <ele>97</ele>
        <time>2015-05-14T14:07:15Z</time>
      </trkpt>
      <trkpt lat="47.69946" lon="-2.33689">
        <ele>100</ele>
        <time>2015-05-14T14:07:20Z</time>
      </trkpt>
      <trkpt lat="47.69949" lon="-2.33695">
        <ele>100</ele>
        <time>2015-05-14T14:07:27Z</time>
      </trkpt>
      <trkpt lat="47.69953" lon="-2.33709">
        <ele>104</ele>
        <time>2015-05-14T14:07:34Z</time>
      </trkpt>
      <trkpt lat="47.69953" lon="-2.33706">
        <ele>104</ele>
        <time>2015-05-14T14:07:41Z</time>
      </trkpt>
      <trkpt lat="47.69952" lon="-2.33708">
        <ele>104</ele>
        <time>2015-05-14T14:07:48Z</time>
      </trkpt>
      <trkpt lat="47.69951" lon="-2.33708">
        <ele>104</ele>
        <time>2015-05-14T14:07:53Z</time>
      </trkpt>
      <trkpt lat="47.69947" lon="-2.3372">
        <ele>106</ele>
        <time>2015-05-14T14:08:04Z</time>
      </trkpt>
      <trkpt lat="47.69939" lon="-2.3373">
        <ele>107</ele>
        <time>2015-05-14T14:08:06Z</time>
      </trkpt>
      <trkpt lat="47.69932" lon="-2.33739">
        <ele>107</ele>
        <time>2015-05-14T14:08:10Z</time>
      </trkpt>
      <trkpt lat="47.69926" lon="-2.3374">
        <ele>110</ele>
        <time>2015-05-14T14:08:17Z</time>
      </trkpt>
      <trkpt lat="47.69921" lon="-2.33748">
        <ele>110</ele>
        <time>2015-05-14T14:08:24Z</time>
      </trkpt>
      <trkpt lat="47.69914" lon="-2.33743">
        <ele>111</ele>
        <time>2015-05-14T14:08:30Z</time>
      </trkpt>
      <trkpt lat="47.69907" lon="-2.33739">
        <ele>114</ele>
        <time>2015-05-14T14:08:35Z</time>
      </trkpt>
      <trkpt lat="47.69906" lon="-2.3373">
        <ele>115</ele>
        <time>2015-05-14T14:08:42Z</time>
      </trkpt>
      <trkpt lat="47.699" lon="-2.33723">
        <ele>114</ele>
        <time>2015-05-14T14:08:45Z</time>
      </trkpt>
      <trkpt lat="47.69896" lon="-2.33721">
        <ele>113</ele>
        <time>2015-05-14T14:08:52Z</time>
      </trkpt>
      <trkpt lat="47.69889" lon="-2.33725">
        <ele>115</ele>
        <time>2015-05-14T14:08:56Z</time>
      </trkpt>
      <trkpt lat="47.69884" lon="-2.33719">
        <ele>115</ele>
        <time>2015-05-14T14:09:03Z</time>
      </trkpt>
      <trkpt lat="47.6988" lon="-2.33722">
        <ele>113</ele>
        <time>2015-05-14T14:09:10Z</time>
      </trkpt>
      <trkpt lat="47.69874" lon="-2.33717">
        <ele>108</ele>
        <time>2015-05-14T14:09:17Z</time>
      </trkpt>
      <trkpt lat="47.6987" lon="-2.33718">
        <ele>111</ele>
        <time>2015-05-14T14:09:24Z</time>
      </trkpt>
      <trkpt lat="47.6987" lon="-2.33718">
        <ele>110</ele>
        <time>2015-05-14T14:09:31Z</time>
      </trkpt>
      <trkpt lat="47.69869" lon="-2.33717">
        <ele>110</ele>
        <time>2015-05-14T14:09:38Z</time>
      </trkpt>
      <trkpt lat="47.69869" lon="-2.33717">
        <ele>110</ele>
        <time>2015-05-14T14:09:39Z</time>
      </trkpt>
      <trkpt lat="47.69859" lon="-2.33716">
        <ele>107</ele>
        <time>2015-05-14T14:10:21Z</time>
      </trkpt>
      <trkpt lat="47.69847" lon="-2.33707">
        <ele>101</ele>
        <time>2015-05-14T14:10:23Z</time>
      </trkpt>
      <trkpt lat="47.69839" lon="-2.33701">
        <ele>97</ele>
        <time>2015-05-14T14:10:26Z</time>
      </trkpt>
      <trkpt lat="47.69831" lon="-2.337">
        <ele>97</ele>
        <time>2015-05-14T14:10:30Z</time>
      </trkpt>
      <trkpt lat="47.69825" lon="-2.33691">
        <ele>95</ele>
        <time>2015-05-14T14:10:37Z</time>
      </trkpt>
      <trkpt lat="47.69818" lon="-2.33685">
        <ele>97</ele>
        <time>2015-05-14T14:10:42Z</time>
      </trkpt>
      <trkpt lat="47.69811" lon="-2.33679">
        <ele>98</ele>
        <time>2015-05-14T14:10:47Z</time>
      </trkpt>
      <trkpt lat="47.69803" lon="-2.33677">
        <ele>96</ele>
        <time>2015-05-14T14:10:54Z</time>
      </trkpt>
      <trkpt lat="47.69794" lon="-2.33672">
        <ele>98</ele>
        <time>2015-05-14T14:11:00Z</time>
      </trkpt>
      <trkpt lat="47.69789" lon="-2.33672">
        <ele>96</ele>
        <time>2015-05-14T14:11:07Z</time>
      </trkpt>
      <trkpt lat="47.69783" lon="-2.33665">
        <ele>99</ele>
        <time>2015-05-14T14:11:14Z</time>
      </trkpt>
      <trkpt lat="47.69778" lon="-2.33664">
        <ele>99</ele>
        <time>2015-05-14T14:11:21Z</time>
      </trkpt>
      <trkpt lat="47.69771" lon="-2.33661">
        <ele>96</ele>
        <time>2015-05-14T14:11:30Z</time>
      </trkpt>
      <trkpt lat="47.69765" lon="-2.33659">
        <ele>97</ele>
        <time>2015-05-14T14:11:37Z</time>
      </trkpt>
      <trkpt lat="47.69758" lon="-2.33657">
        <ele>95</ele>
        <time>2015-05-14T14:11:44Z</time>
      </trkpt>
      <trkpt lat="47.6975" lon="-2.33653">
        <ele>97</ele>
        <time>2015-05-14T14:11:50Z</time>
      </trkpt>
      <trkpt lat="47.69745" lon="-2.33653">
        <ele>96</ele>
        <time>2015-05-14T14:11:57Z</time>
      </trkpt>
      <trkpt lat="47.69738" lon="-2.33649">
        <ele>95</ele>
        <time>2015-05-14T14:12:03Z</time>
      </trkpt>
      <trkpt lat="47.69731" lon="-2.33639">
        <ele>96</ele>
        <time>2015-05-14T14:12:07Z</time>
      </trkpt>
      <trkpt lat="47.69724" lon="-2.3364">
        <ele>96</ele>
        <time>2015-05-14T14:12:14Z</time>
      </trkpt>
      <trkpt lat="47.69717" lon="-2.33641">
        <ele>99</ele>
        <time>2015-05-14T14:12:19Z</time>
      </trkpt>
      <trkpt lat="47.69719" lon="-2.3366">
        <ele>84</ele>
        <time>2015-05-14T14:12:26Z</time>
      </trkpt>
      <trkpt lat="47.69711" lon="-2.3366">
        <ele>87</ele>
        <time>2015-05-14T14:12:32Z</time>
      </trkpt>
      <trkpt lat="47.69705" lon="-2.33664">
        <ele>88</ele>
        <time>2015-05-14T14:12:39Z</time>
      </trkpt>
      <trkpt lat="47.69701" lon="-2.33671">
        <ele>90</ele>
        <time>2015-05-14T14:12:46Z</time>
      </trkpt>
      <trkpt lat="47.69696" lon="-2.3368">
        <ele>90</ele>
        <time>2015-05-14T14:12:52Z</time>
      </trkpt>
      <trkpt lat="47.69692" lon="-2.33689">
        <ele>93</ele>
        <time>2015-05-14T14:12:57Z</time>
      </trkpt>
      <trkpt lat="47.69688" lon="-2.33696">
        <ele>92</ele>
        <time>2015-05-14T14:13:04Z</time>
      </trkpt>
      <trkpt lat="47.69684" lon="-2.33705">
        <ele>93</ele>
        <time>2015-05-14T14:13:11Z</time>
      </trkpt>
      <trkpt lat="47.69684" lon="-2.33708">
        <ele>94</ele>
        <time>2015-05-14T14:13:18Z</time>
      </trkpt>
      <trkpt lat="47.69681" lon="-2.3371">
        <ele>94</ele>
        <time>2015-05-14T14:13:25Z</time>
      </trkpt>
      <trkpt lat="47.6968" lon="-2.33722">
        <ele>93</ele>
        <time>2015-05-14T14:13:32Z</time>
      </trkpt>
      <trkpt lat="47.69676" lon="-2.33731">
        <ele>90</ele>
        <time>2015-05-14T14:13:37Z</time>
      </trkpt>
      <trkpt lat="47.69673" lon="-2.33743">
        <ele>92</ele>
        <time>2015-05-14T14:13:42Z</time>
      </trkpt>
      <trkpt lat="47.69672" lon="-2.33751">
        <ele>92</ele>
        <time>2015-05-14T14:13:49Z</time>
      </trkpt>
      <trkpt lat="47.6967" lon="-2.3376">
        <ele>92</ele>
        <time>2015-05-14T14:13:56Z</time>
      </trkpt>
      <trkpt lat="47.69673" lon="-2.33772">
        <ele>97</ele>
        <time>2015-05-14T14:14:01Z</time>
      </trkpt>
      <trkpt lat="47.6967" lon="-2.33778">
        <ele>95</ele>
        <time>2015-05-14T14:14:08Z</time>
      </trkpt>
      <trkpt lat="47.69668" lon="-2.33789">
        <ele>96</ele>
        <time>2015-05-14T14:14:14Z</time>
      </trkpt>
      <trkpt lat="47.69664" lon="-2.338">
        <ele>94</ele>
        <time>2015-05-14T14:14:20Z</time>
      </trkpt>
      <trkpt lat="47.69665" lon="-2.33811">
        <ele>100</ele>
        <time>2015-05-14T14:14:27Z</time>
      </trkpt>
      <trkpt lat="47.69662" lon="-2.33819">
        <ele>101</ele>
        <time>2015-05-14T14:14:34Z</time>
      </trkpt>
      <trkpt lat="47.69658" lon="-2.33831">
        <ele>99</ele>
        <time>2015-05-14T14:14:41Z</time>
      </trkpt>
      <trkpt lat="47.69659" lon="-2.33842">
        <ele>99</ele>
        <time>2015-05-14T14:14:48Z</time>
      </trkpt>
      <trkpt lat="47.6966" lon="-2.33854">
        <ele>98</ele>
        <time>2015-05-14T14:14:54Z</time>
      </trkpt>
      <trkpt lat="47.69659" lon="-2.33869">
        <ele>93</ele>
        <time>2015-05-14T14:14:58Z</time>
      </trkpt>
      <trkpt lat="47.69657" lon="-2.3388">
        <ele>94</ele>
        <time>2015-05-14T14:15:05Z</time>
      </trkpt>
      <trkpt lat="47.6966" lon="-2.33888">
        <ele>96</ele>
        <time>2015-05-14T14:15:12Z</time>
      </trkpt>
      <trkpt lat="47.69661" lon="-2.339">
        <ele>97</ele>
        <time>2015-05-14T14:15:18Z</time>
      </trkpt>
      <trkpt lat="47.6966" lon="-2.3391">
        <ele>98</ele>
        <time>2015-05-14T14:15:25Z</time>
      </trkpt>
      <trkpt lat="47.69659" lon="-2.33921">
        <ele>99</ele>
        <time>2015-05-14T14:15:32Z</time>
      </trkpt>
      <trkpt lat="47.69652" lon="-2.33929">
        <ele>102</ele>
        <time>2015-05-14T14:15:36Z</time>
      </trkpt>
      <trkpt lat="47.69648" lon="-2.33934">
        <ele>104</ele>
        <time>2015-05-14T14:15:43Z</time>
      </trkpt>
      <trkpt lat="47.69641" lon="-2.33936">
        <ele>103</ele>
        <time>2015-05-14T14:15:50Z</time>
      </trkpt>
      <trkpt lat="47.69635" lon="-2.3394">
        <ele>104</ele>
        <time>2015-05-14T14:15:57Z</time>
      </trkpt>
      <trkpt lat="47.69628" lon="-2.33942">
        <ele>104</ele>
        <time>2015-05-14T14:16:04Z</time>
      </trkpt>
      <trkpt lat="47.69621" lon="-2.33945">
        <ele>104</ele>
        <time>2015-05-14T14:16:10Z</time>
      </trkpt>
      <trkpt lat="47.69615" lon="-2.33947">
        <ele>106</ele>
        <time>2015-05-14T14:16:17Z</time>
      </trkpt>
      <trkpt lat="47.69607" lon="-2.33952">
        <ele>104</ele>
        <time>2015-05-14T14:16:22Z</time>
      </trkpt>
      <trkpt lat="47.69599" lon="-2.33952">
        <ele>103</ele>
        <time>2015-05-14T14:16:29Z</time>
      </trkpt>
      <trkpt lat="47.69591" lon="-2.33951">
        <ele>105</ele>
        <time>2015-05-14T14:16:34Z</time>
      </trkpt>
      <trkpt lat="47.69584" lon="-2.33957">
        <ele>106</ele>
        <time>2015-05-14T14:16:41Z</time>
      </trkpt>
      <trkpt lat="47.69577" lon="-2.33958">
        <ele>110</ele>
        <time>2015-05-14T14:16:48Z</time>
      </trkpt>
      <trkpt lat="47.6957" lon="-2.33956">
        <ele>110</ele>
        <time>2015-05-14T14:16:53Z</time>
      </trkpt>
      <trkpt lat="47.69565" lon="-2.33957">
        <ele>111</ele>
        <time>2015-05-14T14:17:00Z</time>
      </trkpt>
      <trkpt lat="47.69557" lon="-2.33957">
        <ele>110</ele>
        <time>2015-05-14T14:17:06Z</time>
      </trkpt>
      <trkpt lat="47.69551" lon="-2.33953">
        <ele>109</ele>
        <time>2015-05-14T14:17:13Z</time>
      </trkpt>
      <trkpt lat="47.69544" lon="-2.33952">
        <ele>108</ele>
        <time>2015-05-14T14:17:20Z</time>
      </trkpt>
      <trkpt lat="47.69537" lon="-2.33951">
        <ele>110</ele>
        <time>2015-05-14T14:17:26Z</time>
      </trkpt>
      <trkpt lat="47.6953" lon="-2.33948">
        <ele>111</ele>
        <time>2015-05-14T14:17:32Z</time>
      </trkpt>
      <trkpt lat="47.69522" lon="-2.33945">
        <ele>114</ele>
        <time>2015-05-14T14:17:38Z</time>
      </trkpt>
      <trkpt lat="47.69514" lon="-2.33946">
        <ele>115</ele>
        <time>2015-05-14T14:17:45Z</time>
      </trkpt>
      <trkpt lat="47.6951" lon="-2.33951">
        <ele>115</ele>
        <time>2015-05-14T14:17:52Z</time>
      </trkpt>
      <trkpt lat="47.69504" lon="-2.33954">
        <ele>114</ele>
        <time>2015-05-14T14:17:59Z</time>
      </trkpt>
      <trkpt lat="47.69496" lon="-2.33956">
        <ele>113</ele>
        <time>2015-05-14T14:18:04Z</time>
      </trkpt>
      <trkpt lat="47.69489" lon="-2.3396">
        <ele>115</ele>
        <time>2015-05-14T14:18:10Z</time>
      </trkpt>
      <trkpt lat="47.69483" lon="-2.33967">
        <ele>117</ele>
        <time>2015-05-14T14:18:16Z</time>
      </trkpt>
      <trkpt lat="47.69475" lon="-2.3397">
        <ele>118</ele>
        <time>2015-05-14T14:18:23Z</time>
      </trkpt>
      <trkpt lat="47.6947" lon="-2.33967">
        <ele>121</ele>
        <time>2015-05-14T14:18:30Z</time>
      </trkpt>
      <trkpt lat="47.69466" lon="-2.33967">
        <ele>121</ele>
        <time>2015-05-14T14:18:37Z</time>
      </trkpt>
      <trkpt lat="47.69467" lon="-2.33967">
        <ele>120</ele>
        <time>2015-05-14T14:18:42Z</time>
      </trkpt>
      <trkpt lat="47.69468" lon="-2.33966">
        <ele>120</ele>
        <time>2015-05-14T14:18:50Z</time>
      </trkpt>
      <trkpt lat="47.69468" lon="-2.33966">
        <ele>120</ele>
        <time>2015-05-14T14:18:51Z</time>
      </trkpt>
      <trkpt lat="47.69468" lon="-2.33977">
        <ele>121</ele>
        <time>2015-05-14T14:20:07Z</time>
      </trkpt>
      <trkpt lat="47.69468" lon="-2.33975">
        <ele>120</ele>
        <time>2015-05-14T14:20:14Z</time>
      </trkpt>
      <trkpt lat="47.69468" lon="-2.33973">
        <ele>120</ele>
        <time>2015-05-14T14:20:21Z</time>
      </trkpt>
      <trkpt lat="47.69468" lon="-2.33973">
        <ele>120</ele>
        <time>2015-05-14T14:20:22Z</time>
      </trkpt>
      <trkpt lat="47.69469" lon="-2.33974">
        <ele>121</ele>
        <time>2015-05-14T14:20:38Z</time>
      </trkpt>
      <trkpt lat="47.69469" lon="-2.33974">
        <ele>121</ele>
        <time>2015-05-14T14:20:39Z</time>
      </trkpt>
      <trkpt lat="47.69464" lon="-2.33982">
        <ele>123</ele>
        <time>2015-05-14T14:20:47Z</time>
      </trkpt>
      <trkpt lat="47.69456" lon="-2.33981">
        <ele>122</ele>
        <time>2015-05-14T14:20:53Z</time>
      </trkpt>
      <trkpt lat="47.6945" lon="-2.33988">
        <ele>124</ele>
        <time>2015-05-14T14:21:00Z</time>
      </trkpt>
      <trkpt lat="47.69444" lon="-2.33995">
        <ele>126</ele>
        <time>2015-05-14T14:21:05Z</time>
      </trkpt>
      <trkpt lat="47.69437" lon="-2.33999">
        <ele>126</ele>
        <time>2015-05-14T14:21:12Z</time>
      </trkpt>
      <trkpt lat="47.69433" lon="-2.34005">
        <ele>124</ele>
        <time>2015-05-14T14:21:19Z</time>
      </trkpt>
      <trkpt lat="47.69426" lon="-2.34008">
        <ele>124</ele>
        <time>2015-05-14T14:21:26Z</time>
      </trkpt>
      <trkpt lat="47.69421" lon="-2.34012">
        <ele>123</ele>
        <time>2015-05-14T14:21:33Z</time>
      </trkpt>
      <trkpt lat="47.69416" lon="-2.34015">
        <ele>124</ele>
        <time>2015-05-14T14:21:40Z</time>
      </trkpt>
      <trkpt lat="47.69409" lon="-2.34018">
        <ele>124</ele>
        <time>2015-05-14T14:21:47Z</time>
      </trkpt>
      <trkpt lat="47.69402" lon="-2.34022">
        <ele>126</ele>
        <time>2015-05-14T14:21:53Z</time>
      </trkpt>
      <trkpt lat="47.69395" lon="-2.34027">
        <ele>124</ele>
        <time>2015-05-14T14:21:59Z</time>
      </trkpt>
      <trkpt lat="47.69389" lon="-2.34031">
        <ele>123</ele>
        <time>2015-05-14T14:22:06Z</time>
      </trkpt>
      <trkpt lat="47.69388" lon="-2.34035">
        <ele>126</ele>
        <time>2015-05-14T14:22:13Z</time>
      </trkpt>
      <trkpt lat="47.69389" lon="-2.34034">
        <ele>125</ele>
        <time>2015-05-14T14:22:19Z</time>
      </trkpt>
      <trkpt lat="47.69382" lon="-2.34035">
        <ele>127</ele>
        <time>2015-05-14T14:22:27Z</time>
      </trkpt>
      <trkpt lat="47.69376" lon="-2.34038">
        <ele>129</ele>
        <time>2015-05-14T14:22:32Z</time>
      </trkpt>
      <trkpt lat="47.69368" lon="-2.34043">
        <ele>131</ele>
        <time>2015-05-14T14:22:38Z</time>
      </trkpt>
      <trkpt lat="47.69362" lon="-2.34048">
        <ele>131</ele>
        <time>2015-05-14T14:22:45Z</time>
      </trkpt>
      <trkpt lat="47.69355" lon="-2.34054">
        <ele>131</ele>
        <time>2015-05-14T14:22:52Z</time>
      </trkpt>
      <trkpt lat="47.69349" lon="-2.34054">
        <ele>131</ele>
        <time>2015-05-14T14:22:59Z</time>
      </trkpt>
      <trkpt lat="47.69349" lon="-2.34055">
        <ele>130</ele>
        <time>2015-05-14T14:23:06Z</time>
      </trkpt>
      <trkpt lat="47.6935" lon="-2.34055">
        <ele>130</ele>
        <time>2015-05-14T14:23:08Z</time>
      </trkpt>
      <trkpt lat="47.69343" lon="-2.3406">
        <ele>130</ele>
        <time>2015-05-14T14:23:19Z</time>
      </trkpt>
      <trkpt lat="47.69336" lon="-2.34065">
        <ele>127</ele>
        <time>2015-05-14T14:23:25Z</time>
      </trkpt>
      <trkpt lat="47.69329" lon="-2.34068">
        <ele>128</ele>
        <time>2015-05-14T14:23:32Z</time>
      </trkpt>
      <trkpt lat="47.69321" lon="-2.34073">
        <ele>130</ele>
        <time>2015-05-14T14:23:39Z</time>
      </trkpt>
      <trkpt lat="47.69315" lon="-2.34076">
        <ele>133</ele>
        <time>2015-05-14T14:23:46Z</time>
      </trkpt>
      <trkpt lat="47.69307" lon="-2.34079">
        <ele>132</ele>
        <time>2015-05-14T14:23:52Z</time>
      </trkpt>
      <trkpt lat="47.693" lon="-2.34083">
        <ele>133</ele>
        <time>2015-05-14T14:23:58Z</time>
      </trkpt>
      <trkpt lat="47.69293" lon="-2.34085">
        <ele>133</ele>
        <time>2015-05-14T14:24:05Z</time>
      </trkpt>
      <trkpt lat="47.69286" lon="-2.3409">
        <ele>132</ele>
        <time>2015-05-14T14:24:12Z</time>
      </trkpt>
      <trkpt lat="47.69279" lon="-2.34091">
        <ele>132</ele>
        <time>2015-05-14T14:24:17Z</time>
      </trkpt>
      <trkpt lat="47.69272" lon="-2.34086">
        <ele>132</ele>
        <time>2015-05-14T14:24:22Z</time>
      </trkpt>
      <trkpt lat="47.69266" lon="-2.34085">
        <ele>129</ele>
        <time>2015-05-14T14:24:29Z</time>
      </trkpt>
      <trkpt lat="47.69265" lon="-2.34089">
        <ele>128</ele>
        <time>2015-05-14T14:24:36Z</time>
      </trkpt>
      <trkpt lat="47.69265" lon="-2.34091">
        <ele>128</ele>
        <time>2015-05-14T14:24:43Z</time>
      </trkpt>
      <trkpt lat="47.69265" lon="-2.34091">
        <ele>128</ele>
        <time>2015-05-14T14:24:45Z</time>
      </trkpt>
      <trkpt lat="47.69272" lon="-2.34102">
        <ele>128</ele>
        <time>2015-05-14T14:25:07Z</time>
      </trkpt>
      <trkpt lat="47.69277" lon="-2.34116">
        <ele>123</ele>
        <time>2015-05-14T14:25:09Z</time>
      </trkpt>
      <trkpt lat="47.69282" lon="-2.34124">
        <ele>121</ele>
        <time>2015-05-14T14:25:12Z</time>
      </trkpt>
      <trkpt lat="47.69281" lon="-2.34135">
        <ele>123</ele>
        <time>2015-05-14T14:25:17Z</time>
      </trkpt>
      <trkpt lat="47.69278" lon="-2.34145">
        <ele>119</ele>
        <time>2015-05-14T14:25:22Z</time>
      </trkpt>
      <trkpt lat="47.69274" lon="-2.34154">
        <ele>123</ele>
        <time>2015-05-14T14:25:29Z</time>
      </trkpt>
      <trkpt lat="47.69272" lon="-2.34165">
        <ele>124</ele>
        <time>2015-05-14T14:25:35Z</time>
      </trkpt>
      <trkpt lat="47.6927" lon="-2.3417">
        <ele>125</ele>
        <time>2015-05-14T14:25:42Z</time>
      </trkpt>
      <trkpt lat="47.69265" lon="-2.34179">
        <ele>127</ele>
        <time>2015-05-14T14:25:49Z</time>
      </trkpt>
      <trkpt lat="47.69263" lon="-2.34182">
        <ele>127</ele>
        <time>2015-05-14T14:25:56Z</time>
      </trkpt>
      <trkpt lat="47.6926" lon="-2.34186">
        <ele>122</ele>
        <time>2015-05-14T14:26:03Z</time>
      </trkpt>
      <trkpt lat="47.69261" lon="-2.34179">
        <ele>114</ele>
        <time>2015-05-14T14:26:10Z</time>
      </trkpt>
      <trkpt lat="47.69263" lon="-2.34182">
        <ele>115</ele>
        <time>2015-05-14T14:26:17Z</time>
      </trkpt>
      <trkpt lat="47.69262" lon="-2.34182">
        <ele>115</ele>
        <time>2015-05-14T14:26:22Z</time>
      </trkpt>
      <trkpt lat="47.69263" lon="-2.34181">
        <ele>116</ele>
        <time>2015-05-14T14:26:33Z</time>
      </trkpt>
      <trkpt lat="47.69263" lon="-2.34181">
        <ele>116</ele>
        <time>2015-05-14T14:26:34Z</time>
      </trkpt>
      <trkpt lat="47.69258" lon="-2.34191">
        <ele>124</ele>
        <time>2015-05-14T14:26:53Z</time>
      </trkpt>
      <trkpt lat="47.69255" lon="-2.34201">
        <ele>123</ele>
        <time>2015-05-14T14:26:59Z</time>
      </trkpt>
      <trkpt lat="47.69248" lon="-2.34209">
        <ele>122</ele>
        <time>2015-05-14T14:27:04Z</time>
      </trkpt>
      <trkpt lat="47.69243" lon="-2.34216">
        <ele>124</ele>
        <time>2015-05-14T14:27:11Z</time>
      </trkpt>
      <trkpt lat="47.69237" lon="-2.34215">
        <ele>126</ele>
        <time>2015-05-14T14:27:18Z</time>
      </trkpt>
      <trkpt lat="47.69229" lon="-2.34214">
        <ele>128</ele>
        <time>2015-05-14T14:27:23Z</time>
      </trkpt>
      <trkpt lat="47.69222" lon="-2.34213">
        <ele>131</ele>
        <time>2015-05-14T14:27:27Z</time>
      </trkpt>
      <trkpt lat="47.69218" lon="-2.34222">
        <ele>128</ele>
        <time>2015-05-14T14:27:33Z</time>
      </trkpt>
      <trkpt lat="47.69215" lon="-2.3423">
        <ele>128</ele>
        <time>2015-05-14T14:27:40Z</time>
      </trkpt>
      <trkpt lat="47.69209" lon="-2.34222">
        <ele>129</ele>
        <time>2015-05-14T14:27:45Z</time>
      </trkpt>
      <trkpt lat="47.69206" lon="-2.34211">
        <ele>129</ele>
        <time>2015-05-14T14:27:50Z</time>
      </trkpt>
      <trkpt lat="47.69199" lon="-2.34207">
        <ele>129</ele>
        <time>2015-05-14T14:27:57Z</time>
      </trkpt>
      <trkpt lat="47.69193" lon="-2.34209">
        <ele>130</ele>
        <time>2015-05-14T14:28:04Z</time>
      </trkpt>
      <trkpt lat="47.69187" lon="-2.34204">
        <ele>128</ele>
        <time>2015-05-14T14:28:11Z</time>
      </trkpt>
      <trkpt lat="47.69185" lon="-2.34199">
        <ele>131</ele>
        <time>2015-05-14T14:28:19Z</time>
      </trkpt>
      <trkpt lat="47.69185" lon="-2.34198">
        <ele>131</ele>
        <time>2015-05-14T14:28:26Z</time>
      </trkpt>
      <trkpt lat="47.69178" lon="-2.34192">
        <ele>131</ele>
        <time>2015-05-14T14:29:14Z</time>
      </trkpt>
      <trkpt lat="47.69172" lon="-2.34192">
        <ele>127</ele>
        <time>2015-05-14T14:29:21Z</time>
      </trkpt>
      <trkpt lat="47.69169" lon="-2.34194">
        <ele>126</ele>
        <time>2015-05-14T14:29:28Z</time>
      </trkpt>
      <trkpt lat="47.69166" lon="-2.34193">
        <ele>126</ele>
        <time>2015-05-14T14:29:35Z</time>
      </trkpt>
      <trkpt lat="47.69159" lon="-2.34197">
        <ele>124</ele>
        <time>2015-05-14T14:29:42Z</time>
      </trkpt>
      <trkpt lat="47.69154" lon="-2.34211">
        <ele>117</ele>
        <time>2015-05-14T14:29:47Z</time>
      </trkpt>
      <trkpt lat="47.69149" lon="-2.34219">
        <ele>115</ele>
        <time>2015-05-14T14:29:50Z</time>
      </trkpt>
      <trkpt lat="47.69144" lon="-2.3423">
        <ele>114</ele>
        <time>2015-05-14T14:29:56Z</time>
      </trkpt>
      <trkpt lat="47.69142" lon="-2.34241">
        <ele>112</ele>
        <time>2015-05-14T14:30:03Z</time>
      </trkpt>
      <trkpt lat="47.6914" lon="-2.34255">
        <ele>109</ele>
        <time>2015-05-14T14:30:09Z</time>
      </trkpt>
      <trkpt lat="47.69135" lon="-2.34266">
        <ele>109</ele>
        <time>2015-05-14T14:30:13Z</time>
      </trkpt>
      <trkpt lat="47.69136" lon="-2.34276">
        <ele>112</ele>
        <time>2015-05-14T14:30:20Z</time>
      </trkpt>
      <trkpt lat="47.69132" lon="-2.34288">
        <ele>112</ele>
        <time>2015-05-14T14:30:24Z</time>
      </trkpt>
      <trkpt lat="47.69133" lon="-2.34291">
        <ele>111</ele>
        <time>2015-05-14T14:30:31Z</time>
      </trkpt>
      <trkpt lat="47.69126" lon="-2.34302">
        <ele>112</ele>
        <time>2015-05-14T14:30:35Z</time>
      </trkpt>
      <trkpt lat="47.69121" lon="-2.34312">
        <ele>111</ele>
        <time>2015-05-14T14:30:42Z</time>
      </trkpt>
      <trkpt lat="47.69121" lon="-2.34311">
        <ele>111</ele>
        <time>2015-05-14T14:30:49Z</time>
      </trkpt>
      <trkpt lat="47.6912" lon="-2.34312">
        <ele>109</ele>
        <time>2015-05-14T14:30:56Z</time>
      </trkpt>
      <trkpt lat="47.6912" lon="-2.34312">
        <ele>110</ele>
        <time>2015-05-14T14:31:03Z</time>
      </trkpt>
      <trkpt lat="47.6912" lon="-2.34312">
        <ele>110</ele>
        <time>2015-05-14T14:31:07Z</time>
      </trkpt>
      <trkpt lat="47.69117" lon="-2.34293">
        <ele>90</ele>
        <time>2015-05-14T14:32:03Z</time>
      </trkpt>
      <trkpt lat="47.69102" lon="-2.34308">
        <ele>113</ele>
        <time>2015-05-14T14:32:06Z</time>
      </trkpt>
      <trkpt lat="47.69105" lon="-2.34318">
        <ele>113</ele>
        <time>2015-05-14T14:32:09Z</time>
      </trkpt>
      <trkpt lat="47.69103" lon="-2.34316">
        <ele>106</ele>
        <time>2015-05-14T14:32:16Z</time>
      </trkpt>
      <trkpt lat="47.69098" lon="-2.34309">
        <ele>115</ele>
        <time>2015-05-14T14:32:23Z</time>
      </trkpt>
      <trkpt lat="47.69092" lon="-2.34301">
        <ele>118</ele>
        <time>2015-05-14T14:32:28Z</time>
      </trkpt>
      <trkpt lat="47.69087" lon="-2.34305">
        <ele>115</ele>
        <time>2015-05-14T14:32:35Z</time>
      </trkpt>
      <trkpt lat="47.69081" lon="-2.34308">
        <ele>111</ele>
        <time>2015-05-14T14:32:42Z</time>
      </trkpt>
      <trkpt lat="47.69078" lon="-2.34312">
        <ele>106</ele>
        <time>2015-05-14T14:32:49Z</time>
      </trkpt>
      <trkpt lat="47.69076" lon="-2.34313">
        <ele>107</ele>
        <time>2015-05-14T14:32:56Z</time>
      </trkpt>
      <trkpt lat="47.69072" lon="-2.3432">
        <ele>103</ele>
        <time>2015-05-14T14:33:03Z</time>
      </trkpt>
      <trkpt lat="47.6907" lon="-2.34325">
        <ele>102</ele>
        <time>2015-05-14T14:33:10Z</time>
      </trkpt>
      <trkpt lat="47.6907" lon="-2.34333">
        <ele>102</ele>
        <time>2015-05-14T14:33:17Z</time>
      </trkpt>
      <trkpt lat="47.69068" lon="-2.34344">
        <ele>101</ele>
        <time>2015-05-14T14:33:24Z</time>
      </trkpt>
      <trkpt lat="47.69068" lon="-2.34355">
        <ele>101</ele>
        <time>2015-05-14T14:33:30Z</time>
      </trkpt>
      <trkpt lat="47.6907" lon="-2.34362">
        <ele>102</ele>
        <time>2015-05-14T14:33:37Z</time>
      </trkpt>
      <trkpt lat="47.69069" lon="-2.34367">
        <ele>98</ele>
        <time>2015-05-14T14:33:44Z</time>
      </trkpt>
      <trkpt lat="47.6907" lon="-2.34378">
        <ele>100</ele>
        <time>2015-05-14T14:33:51Z</time>
      </trkpt>
      <trkpt lat="47.6907" lon="-2.34389">
        <ele>105</ele>
        <time>2015-05-14T14:33:56Z</time>
      </trkpt>
      <trkpt lat="47.6907" lon="-2.34397">
        <ele>106</ele>
        <time>2015-05-14T14:34:03Z</time>
      </trkpt>
      <trkpt lat="47.69066" lon="-2.34405">
        <ele>104</ele>
        <time>2015-05-14T14:34:10Z</time>
      </trkpt>
      <trkpt lat="47.69063" lon="-2.34415">
        <ele>103</ele>
        <time>2015-05-14T14:34:14Z</time>
      </trkpt>
      <trkpt lat="47.6906" lon="-2.34426">
        <ele>101</ele>
        <time>2015-05-14T14:34:19Z</time>
      </trkpt>
      <trkpt lat="47.6906" lon="-2.34434">
        <ele>101</ele>
        <time>2015-05-14T14:34:26Z</time>
      </trkpt>
      <trkpt lat="47.69057" lon="-2.34445">
        <ele>106</ele>
        <time>2015-05-14T14:34:32Z</time>
      </trkpt>
      <trkpt lat="47.69056" lon="-2.34449">
        <ele>105</ele>
        <time>2015-05-14T14:34:39Z</time>
      </trkpt>
      <trkpt lat="47.69056" lon="-2.3445">
        <ele>104</ele>
        <time>2015-05-14T14:34:41Z</time>
      </trkpt>
      <trkpt lat="47.69055" lon="-2.34462">
        <ele>103</ele>
        <time>2015-05-14T14:34:47Z</time>
      </trkpt>
      <trkpt lat="47.69056" lon="-2.34473">
        <ele>102</ele>
        <time>2015-05-14T14:34:54Z</time>
      </trkpt>
      <trkpt lat="47.69056" lon="-2.34474">
        <ele>100</ele>
        <time>2015-05-14T14:35:01Z</time>
      </trkpt>
      <trkpt lat="47.69058" lon="-2.34474">
        <ele>100</ele>
        <time>2015-05-14T14:35:09Z</time>
      </trkpt>
      <trkpt lat="47.69058" lon="-2.34474">
        <ele>100</ele>
        <time>2015-05-14T14:35:10Z</time>
      </trkpt>
      <trkpt lat="47.69054" lon="-2.34486">
        <ele>100</ele>
        <time>2015-05-14T14:35:13Z</time>
      </trkpt>
      <trkpt lat="47.69054" lon="-2.34499">
        <ele>104</ele>
        <time>2015-05-14T14:35:15Z</time>
      </trkpt>
      <trkpt lat="47.69051" lon="-2.3451">
        <ele>106</ele>
        <time>2015-05-14T14:35:20Z</time>
      </trkpt>
      <trkpt lat="47.69047" lon="-2.34521">
        <ele>107</ele>
        <time>2015-05-14T14:35:26Z</time>
      </trkpt>
      <trkpt lat="47.69046" lon="-2.34517">
        <ele>106</ele>
        <time>2015-05-14T14:35:33Z</time>
      </trkpt>
      <trkpt lat="47.69041" lon="-2.34515">
        <ele>108</ele>
        <time>2015-05-14T14:35:40Z</time>
      </trkpt>
      <trkpt lat="47.69037" lon="-2.34509">
        <ele>108</ele>
        <time>2015-05-14T14:35:47Z</time>
      </trkpt>
      <trkpt lat="47.69037" lon="-2.34514">
        <ele>105</ele>
        <time>2015-05-14T14:35:54Z</time>
      </trkpt>
      <trkpt lat="47.69037" lon="-2.34514">
        <ele>105</ele>
        <time>2015-05-14T14:36:01Z</time>
      </trkpt>
      <trkpt lat="47.69037" lon="-2.34514">
        <ele>105</ele>
        <time>2015-05-14T14:36:02Z</time>
      </trkpt>
    </trkseg>
  </trk>
</gpx>